<?xml version="1.0" encoding="UTF-8" standalone="no" ?>
<gpx xmlns="http://www.topografix.com/GPX/1/1" xmlns:xsi="http://www.w3.org/2001/XMLSchema-instance" xsi:schemaLocation="http://www.topografix.com/GPX/1/1 http://www.topografix.com/GPX/1/1/gpx.xsd" version="1.1" creator="VisuGPX - https://www.visugpx.com">
  <metadata>
    <name>Saint Lumine de Coutais</name>
    <desc><![CDATA[Circuit entre marais, vignoble Nantais (côte de Grand Lieu) et forêt de Machecoul
Praticable uniquement l\'été (juillet à octobre) pour cause de marais.]]></desc>
  </metadata>
  <trk>
    <name><![CDATA[Track 001]]></name>
    <desc><![CDATA[25 sept. 2011  8:25 am]]></desc>
    <trkseg>
      <trkpt lat="47.05668" lon="-1.72454">
        <ele>23</ele>
        <time>2011-09-25T06:27:56Z</time>
      </trkpt>
      <trkpt lat="47.05678" lon="-1.72445">
        <ele>23</ele>
        <time>2011-09-25T06:28:02Z</time>
      </trkpt>
      <trkpt lat="47.05683" lon="-1.72439">
        <ele>23</ele>
        <time>2011-09-25T06:28:05Z</time>
      </trkpt>
      <trkpt lat="47.05689" lon="-1.72433">
        <ele>23</ele>
        <time>2011-09-25T06:28:08Z</time>
      </trkpt>
      <trkpt lat="47.05695" lon="-1.72424">
        <ele>8.947</ele>
        <time>2011-09-25T06:28:11Z</time>
      </trkpt>
      <trkpt lat="47.05702" lon="-1.72413">
        <ele>29.186</ele>
        <time>2011-09-25T06:28:14Z</time>
      </trkpt>
      <trkpt lat="47.05707" lon="-1.72404">
        <ele>35.963</ele>
        <time>2011-09-25T06:28:16Z</time>
      </trkpt>
      <trkpt lat="47.05712" lon="-1.72396">
        <ele>35.155</ele>
        <time>2011-09-25T06:28:18Z</time>
      </trkpt>
      <trkpt lat="47.05716" lon="-1.72388">
        <ele>32.361</ele>
        <time>2011-09-25T06:28:20Z</time>
      </trkpt>
      <trkpt lat="47.05723" lon="-1.72377">
        <ele>30.351</ele>
        <time>2011-09-25T06:28:23Z</time>
      </trkpt>
      <trkpt lat="47.05729" lon="-1.72365">
        <ele>29.637</ele>
        <time>2011-09-25T06:28:26Z</time>
      </trkpt>
      <trkpt lat="47.05733" lon="-1.72357">
        <ele>29.534</ele>
        <time>2011-09-25T06:28:28Z</time>
      </trkpt>
      <trkpt lat="47.0574" lon="-1.72345">
        <ele>29.404</ele>
        <time>2011-09-25T06:28:31Z</time>
      </trkpt>
      <trkpt lat="47.05745" lon="-1.72338">
        <ele>29.197</ele>
        <time>2011-09-25T06:28:33Z</time>
      </trkpt>
      <trkpt lat="47.05756" lon="-1.72336">
        <ele>28.941</ele>
        <time>2011-09-25T06:28:36Z</time>
      </trkpt>
      <trkpt lat="47.05767" lon="-1.72338">
        <ele>28.551</ele>
        <time>2011-09-25T06:28:39Z</time>
      </trkpt>
      <trkpt lat="47.05777" lon="-1.72339">
        <ele>28.193</ele>
        <time>2011-09-25T06:28:42Z</time>
      </trkpt>
      <trkpt lat="47.05783" lon="-1.72339">
        <ele>28.035</ele>
        <time>2011-09-25T06:28:44Z</time>
      </trkpt>
      <trkpt lat="47.05793" lon="-1.72339">
        <ele>28.156</ele>
        <time>2011-09-25T06:28:47Z</time>
      </trkpt>
      <trkpt lat="47.05801" lon="-1.72339">
        <ele>28.548</ele>
        <time>2011-09-25T06:28:49Z</time>
      </trkpt>
      <trkpt lat="47.05815" lon="-1.72338">
        <ele>28.947</ele>
        <time>2011-09-25T06:28:52Z</time>
      </trkpt>
      <trkpt lat="47.05832" lon="-1.72339">
        <ele>29.135</ele>
        <time>2011-09-25T06:28:55Z</time>
      </trkpt>
      <trkpt lat="47.05849" lon="-1.7234">
        <ele>29.163</ele>
        <time>2011-09-25T06:28:58Z</time>
      </trkpt>
      <trkpt lat="47.05858" lon="-1.72337">
        <ele>29.13</ele>
        <time>2011-09-25T06:29:00Z</time>
      </trkpt>
      <trkpt lat="47.05868" lon="-1.72329">
        <ele>29.098</ele>
        <time>2011-09-25T06:29:02Z</time>
      </trkpt>
      <trkpt lat="47.0588" lon="-1.72315">
        <ele>29.083</ele>
        <time>2011-09-25T06:29:05Z</time>
      </trkpt>
      <trkpt lat="47.0589" lon="-1.72298">
        <ele>29.081</ele>
        <time>2011-09-25T06:29:08Z</time>
      </trkpt>
      <trkpt lat="47.05902" lon="-1.72282">
        <ele>29.083</ele>
        <time>2011-09-25T06:29:11Z</time>
      </trkpt>
      <trkpt lat="47.05911" lon="-1.72274">
        <ele>29.086</ele>
        <time>2011-09-25T06:29:13Z</time>
      </trkpt>
      <trkpt lat="47.05922" lon="-1.72267">
        <ele>28.949</ele>
        <time>2011-09-25T06:29:15Z</time>
      </trkpt>
      <trkpt lat="47.0594" lon="-1.72254">
        <ele>28.451</ele>
        <time>2011-09-25T06:29:18Z</time>
      </trkpt>
      <trkpt lat="47.05958" lon="-1.72244">
        <ele>27.584</ele>
        <time>2011-09-25T06:29:21Z</time>
      </trkpt>
      <trkpt lat="47.05975" lon="-1.72237">
        <ele>26.679</ele>
        <time>2011-09-25T06:29:24Z</time>
      </trkpt>
      <trkpt lat="47.05992" lon="-1.72229">
        <ele>26.108</ele>
        <time>2011-09-25T06:29:27Z</time>
      </trkpt>
      <trkpt lat="47.06009" lon="-1.7222">
        <ele>25.936</ele>
        <time>2011-09-25T06:29:30Z</time>
      </trkpt>
      <trkpt lat="47.06026" lon="-1.7221">
        <ele>25.97</ele>
        <time>2011-09-25T06:29:33Z</time>
      </trkpt>
      <trkpt lat="47.06036" lon="-1.72202">
        <ele>25.906</ele>
        <time>2011-09-25T06:29:35Z</time>
      </trkpt>
      <trkpt lat="47.06048" lon="-1.72193">
        <ele>25.592</ele>
        <time>2011-09-25T06:29:38Z</time>
      </trkpt>
      <trkpt lat="47.06055" lon="-1.72186">
        <ele>25.099</ele>
        <time>2011-09-25T06:29:40Z</time>
      </trkpt>
      <trkpt lat="47.06062" lon="-1.72184">
        <ele>24.561</ele>
        <time>2011-09-25T06:29:42Z</time>
      </trkpt>
      <trkpt lat="47.06069" lon="-1.72191">
        <ele>24.159</ele>
        <time>2011-09-25T06:29:44Z</time>
      </trkpt>
      <trkpt lat="47.06075" lon="-1.72211">
        <ele>23.872</ele>
        <time>2011-09-25T06:29:47Z</time>
      </trkpt>
      <trkpt lat="47.06078" lon="-1.72223">
        <ele>23.514</ele>
        <time>2011-09-25T06:29:49Z</time>
      </trkpt>
      <trkpt lat="47.06082" lon="-1.72234">
        <ele>23.051</ele>
        <time>2011-09-25T06:29:51Z</time>
      </trkpt>
      <trkpt lat="47.06086" lon="-1.72245">
        <ele>22.549</ele>
        <time>2011-09-25T06:29:53Z</time>
      </trkpt>
      <trkpt lat="47.06091" lon="-1.72261">
        <ele>22.164</ele>
        <time>2011-09-25T06:29:56Z</time>
      </trkpt>
      <trkpt lat="47.06094" lon="-1.72271">
        <ele>22.019</ele>
        <time>2011-09-25T06:29:58Z</time>
      </trkpt>
      <trkpt lat="47.06098" lon="-1.72281">
        <ele>22.018</ele>
        <time>2011-09-25T06:30:00Z</time>
      </trkpt>
      <trkpt lat="47.06101" lon="-1.72292">
        <ele>22.06</ele>
        <time>2011-09-25T06:30:02Z</time>
      </trkpt>
      <trkpt lat="47.06106" lon="-1.72307">
        <ele>21.953</ele>
        <time>2011-09-25T06:30:05Z</time>
      </trkpt>
      <trkpt lat="47.06112" lon="-1.72321">
        <ele>21.604</ele>
        <time>2011-09-25T06:30:08Z</time>
      </trkpt>
      <trkpt lat="47.06117" lon="-1.72335">
        <ele>21.235</ele>
        <time>2011-09-25T06:30:11Z</time>
      </trkpt>
      <trkpt lat="47.06123" lon="-1.72348">
        <ele>21.056</ele>
        <time>2011-09-25T06:30:14Z</time>
      </trkpt>
      <trkpt lat="47.06127" lon="-1.72362">
        <ele>20.889</ele>
        <time>2011-09-25T06:30:17Z</time>
      </trkpt>
      <trkpt lat="47.06131" lon="-1.72375">
        <ele>20.558</ele>
        <time>2011-09-25T06:30:20Z</time>
      </trkpt>
      <trkpt lat="47.06135" lon="-1.72385">
        <ele>20.218</ele>
        <time>2011-09-25T06:30:23Z</time>
      </trkpt>
      <trkpt lat="47.06137" lon="-1.72391">
        <ele>20.057</ele>
        <time>2011-09-25T06:30:25Z</time>
      </trkpt>
      <trkpt lat="47.06141" lon="-1.72397">
        <ele>20.033</ele>
        <time>2011-09-25T06:30:28Z</time>
      </trkpt>
      <trkpt lat="47.06164" lon="-1.72381">
        <ele>20.06</ele>
        <time>2011-09-25T06:30:37Z</time>
      </trkpt>
      <trkpt lat="47.0617" lon="-1.72377">
        <ele>20.088</ele>
        <time>2011-09-25T06:30:39Z</time>
      </trkpt>
      <trkpt lat="47.0617" lon="-1.72377">
        <ele>20.101</ele>
        <time>2011-09-25T06:30:40Z</time>
      </trkpt>
      <trkpt lat="47.0619" lon="-1.72367">
        <ele>20.241</ele>
        <time>2011-09-25T06:30:44Z</time>
      </trkpt>
      <trkpt lat="47.06198" lon="-1.72363">
        <ele>20.599</ele>
        <time>2011-09-25T06:30:46Z</time>
      </trkpt>
      <trkpt lat="47.06207" lon="-1.72361">
        <ele>20.966</ele>
        <time>2011-09-25T06:30:48Z</time>
      </trkpt>
      <trkpt lat="47.06219" lon="-1.72361">
        <ele>21.14</ele>
        <time>2011-09-25T06:30:51Z</time>
      </trkpt>
      <trkpt lat="47.06228" lon="-1.72362">
        <ele>21.167</ele>
        <time>2011-09-25T06:30:53Z</time>
      </trkpt>
      <trkpt lat="47.06236" lon="-1.72364">
        <ele>21.137</ele>
        <time>2011-09-25T06:30:55Z</time>
      </trkpt>
      <trkpt lat="47.06247" lon="-1.72367">
        <ele>21.107</ele>
        <time>2011-09-25T06:30:58Z</time>
      </trkpt>
      <trkpt lat="47.06257" lon="-1.72372">
        <ele>21.093</ele>
        <time>2011-09-25T06:31:01Z</time>
      </trkpt>
      <trkpt lat="47.06264" lon="-1.72378">
        <ele>21.091</ele>
        <time>2011-09-25T06:31:03Z</time>
      </trkpt>
      <trkpt lat="47.06273" lon="-1.72384">
        <ele>21.094</ele>
        <time>2011-09-25T06:31:06Z</time>
      </trkpt>
      <trkpt lat="47.06283" lon="-1.72382">
        <ele>21.096</ele>
        <time>2011-09-25T06:31:09Z</time>
      </trkpt>
      <trkpt lat="47.06293" lon="-1.72377">
        <ele>21.097</ele>
        <time>2011-09-25T06:31:12Z</time>
      </trkpt>
      <trkpt lat="47.063" lon="-1.72373">
        <ele>21.097</ele>
        <time>2011-09-25T06:31:14Z</time>
      </trkpt>
      <trkpt lat="47.0631" lon="-1.72365">
        <ele>21.097</ele>
        <time>2011-09-25T06:31:17Z</time>
      </trkpt>
      <trkpt lat="47.06319" lon="-1.72357">
        <ele>20.959</ele>
        <time>2011-09-25T06:31:20Z</time>
      </trkpt>
      <trkpt lat="47.06328" lon="-1.7235">
        <ele>20.599</ele>
        <time>2011-09-25T06:31:23Z</time>
      </trkpt>
      <trkpt lat="47.06335" lon="-1.72345">
        <ele>20.229</ele>
        <time>2011-09-25T06:31:25Z</time>
      </trkpt>
      <trkpt lat="47.06344" lon="-1.72338">
        <ele>20.054</ele>
        <time>2011-09-25T06:31:28Z</time>
      </trkpt>
      <trkpt lat="47.0635" lon="-1.72333">
        <ele>20.028</ele>
        <time>2011-09-25T06:31:30Z</time>
      </trkpt>
      <trkpt lat="47.0636" lon="-1.72324">
        <ele>20.058</ele>
        <time>2011-09-25T06:31:33Z</time>
      </trkpt>
      <trkpt lat="47.06371" lon="-1.72315">
        <ele>20.088</ele>
        <time>2011-09-25T06:31:36Z</time>
      </trkpt>
      <trkpt lat="47.0638" lon="-1.72304">
        <ele>19.964</ele>
        <time>2011-09-25T06:31:39Z</time>
      </trkpt>
      <trkpt lat="47.06388" lon="-1.72293">
        <ele>19.606</ele>
        <time>2011-09-25T06:31:42Z</time>
      </trkpt>
      <trkpt lat="47.06395" lon="-1.7228">
        <ele>19.234</ele>
        <time>2011-09-25T06:31:45Z</time>
      </trkpt>
      <trkpt lat="47.06403" lon="-1.72265">
        <ele>18.919</ele>
        <time>2011-09-25T06:31:48Z</time>
      </trkpt>
      <trkpt lat="47.06407" lon="-1.72254">
        <ele>18.531</ele>
        <time>2011-09-25T06:31:50Z</time>
      </trkpt>
      <trkpt lat="47.06415" lon="-1.72237">
        <ele>18.192</ele>
        <time>2011-09-25T06:31:53Z</time>
      </trkpt>
      <trkpt lat="47.06421" lon="-1.72224">
        <ele>18.047</ele>
        <time>2011-09-25T06:31:55Z</time>
      </trkpt>
      <trkpt lat="47.06427" lon="-1.7221">
        <ele>17.896</ele>
        <time>2011-09-25T06:31:57Z</time>
      </trkpt>
      <trkpt lat="47.06436" lon="-1.72189">
        <ele>17.569</ele>
        <time>2011-09-25T06:32:00Z</time>
      </trkpt>
      <trkpt lat="47.06443" lon="-1.72176">
        <ele>17.227</ele>
        <time>2011-09-25T06:32:02Z</time>
      </trkpt>
      <trkpt lat="47.06463" lon="-1.72171">
        <ele>17.064</ele>
        <time>2011-09-25T06:32:05Z</time>
      </trkpt>
      <trkpt lat="47.06484" lon="-1.72172">
        <ele>17.038</ele>
        <time>2011-09-25T06:32:08Z</time>
      </trkpt>
      <trkpt lat="47.06505" lon="-1.72169">
        <ele>17.065</ele>
        <time>2011-09-25T06:32:11Z</time>
      </trkpt>
      <trkpt lat="47.06526" lon="-1.7216">
        <ele>17.093</ele>
        <time>2011-09-25T06:32:14Z</time>
      </trkpt>
      <trkpt lat="47.06542" lon="-1.72136">
        <ele>17.107</ele>
        <time>2011-09-25T06:32:17Z</time>
      </trkpt>
      <trkpt lat="47.06555" lon="-1.72126">
        <ele>17.109</ele>
        <time>2011-09-25T06:32:20Z</time>
      </trkpt>
      <trkpt lat="47.06565" lon="-1.72122">
        <ele>17.107</ele>
        <time>2011-09-25T06:32:22Z</time>
      </trkpt>
      <trkpt lat="47.06574" lon="-1.72119">
        <ele>17.105</ele>
        <time>2011-09-25T06:32:24Z</time>
      </trkpt>
      <trkpt lat="47.06589" lon="-1.72118">
        <ele>17.104</ele>
        <time>2011-09-25T06:32:27Z</time>
      </trkpt>
      <trkpt lat="47.06605" lon="-1.72116">
        <ele>17.103</ele>
        <time>2011-09-25T06:32:30Z</time>
      </trkpt>
      <trkpt lat="47.06615" lon="-1.72116">
        <ele>16.965</ele>
        <time>2011-09-25T06:32:32Z</time>
      </trkpt>
      <trkpt lat="47.06625" lon="-1.72117">
        <ele>16.468</ele>
        <time>2011-09-25T06:32:34Z</time>
      </trkpt>
      <trkpt lat="47.06636" lon="-1.72119">
        <ele>15.601</ele>
        <time>2011-09-25T06:32:36Z</time>
      </trkpt>
      <trkpt lat="47.06652" lon="-1.72126">
        <ele>14.696</ele>
        <time>2011-09-25T06:32:39Z</time>
      </trkpt>
      <trkpt lat="47.06666" lon="-1.72142">
        <ele>14.125</ele>
        <time>2011-09-25T06:32:42Z</time>
      </trkpt>
      <trkpt lat="47.06672" lon="-1.72153">
        <ele>13.815</ele>
        <time>2011-09-25T06:32:44Z</time>
      </trkpt>
      <trkpt lat="47.0668" lon="-1.72169">
        <ele>13.489</ele>
        <time>2011-09-25T06:32:47Z</time>
      </trkpt>
      <trkpt lat="47.06685" lon="-1.72179">
        <ele>13.193</ele>
        <time>2011-09-25T06:32:49Z</time>
      </trkpt>
      <trkpt lat="47.0669" lon="-1.72188">
        <ele>13.064</ele>
        <time>2011-09-25T06:32:51Z</time>
      </trkpt>
      <trkpt lat="47.06697" lon="-1.72202">
        <ele>13.051</ele>
        <time>2011-09-25T06:32:54Z</time>
      </trkpt>
      <trkpt lat="47.06704" lon="-1.72216">
        <ele>13.078</ele>
        <time>2011-09-25T06:32:57Z</time>
      </trkpt>
      <trkpt lat="47.06712" lon="-1.72231">
        <ele>13.102</ele>
        <time>2011-09-25T06:33:00Z</time>
      </trkpt>
      <trkpt lat="47.06717" lon="-1.7224">
        <ele>13.113</ele>
        <time>2011-09-25T06:33:02Z</time>
      </trkpt>
      <trkpt lat="47.06724" lon="-1.72256">
        <ele>13.113</ele>
        <time>2011-09-25T06:33:05Z</time>
      </trkpt>
      <trkpt lat="47.06727" lon="-1.72267">
        <ele>13.111</ele>
        <time>2011-09-25T06:33:07Z</time>
      </trkpt>
      <trkpt lat="47.06732" lon="-1.72282">
        <ele>13.109</ele>
        <time>2011-09-25T06:33:10Z</time>
      </trkpt>
      <trkpt lat="47.06735" lon="-1.72292">
        <ele>12.97</ele>
        <time>2011-09-25T06:33:12Z</time>
      </trkpt>
      <trkpt lat="47.06739" lon="-1.72302">
        <ele>12.61</ele>
        <time>2011-09-25T06:33:15Z</time>
      </trkpt>
      <trkpt lat="47.06747" lon="-1.72306">
        <ele>12.24</ele>
        <time>2011-09-25T06:33:18Z</time>
      </trkpt>
      <trkpt lat="47.06755" lon="-1.72302">
        <ele>12.065</ele>
        <time>2011-09-25T06:33:21Z</time>
      </trkpt>
      <trkpt lat="47.06762" lon="-1.72293">
        <ele>11.9</ele>
        <time>2011-09-25T06:33:24Z</time>
      </trkpt>
      <trkpt lat="47.0677" lon="-1.72284">
        <ele>11.571</ele>
        <time>2011-09-25T06:33:27Z</time>
      </trkpt>
      <trkpt lat="47.06776" lon="-1.72276">
        <ele>11.231</ele>
        <time>2011-09-25T06:33:29Z</time>
      </trkpt>
      <trkpt lat="47.06786" lon="-1.72265">
        <ele>10.932</ele>
        <time>2011-09-25T06:33:32Z</time>
      </trkpt>
      <trkpt lat="47.06795" lon="-1.72252">
        <ele>10.409</ele>
        <time>2011-09-25T06:33:35Z</time>
      </trkpt>
      <trkpt lat="47.06806" lon="-1.7224">
        <ele>9.708</ele>
        <time>2011-09-25T06:33:38Z</time>
      </trkpt>
      <trkpt lat="47.06816" lon="-1.72229">
        <ele>9.053</ele>
        <time>2011-09-25T06:33:41Z</time>
      </trkpt>
      <trkpt lat="47.06826" lon="-1.72217">
        <ele>8.504</ele>
        <time>2011-09-25T06:33:44Z</time>
      </trkpt>
      <trkpt lat="47.06835" lon="-1.72206">
        <ele>8.14</ele>
        <time>2011-09-25T06:33:47Z</time>
      </trkpt>
      <trkpt lat="47.06845" lon="-1.72195">
        <ele>8.023</ele>
        <time>2011-09-25T06:33:50Z</time>
      </trkpt>
      <trkpt lat="47.06855" lon="-1.72183">
        <ele>8.038</ele>
        <time>2011-09-25T06:33:53Z</time>
      </trkpt>
      <trkpt lat="47.06865" lon="-1.72171">
        <ele>8.083</ele>
        <time>2011-09-25T06:33:56Z</time>
      </trkpt>
      <trkpt lat="47.06875" lon="-1.72158">
        <ele>8.113</ele>
        <time>2011-09-25T06:33:59Z</time>
      </trkpt>
      <trkpt lat="47.06885" lon="-1.72146">
        <ele>8.122</ele>
        <time>2011-09-25T06:34:02Z</time>
      </trkpt>
      <trkpt lat="47.06895" lon="-1.72134">
        <ele>8.121</ele>
        <time>2011-09-25T06:34:05Z</time>
      </trkpt>
      <trkpt lat="47.06906" lon="-1.72124">
        <ele>8.117</ele>
        <time>2011-09-25T06:34:08Z</time>
      </trkpt>
      <trkpt lat="47.06916" lon="-1.72113">
        <ele>7.977</ele>
        <time>2011-09-25T06:34:11Z</time>
      </trkpt>
      <trkpt lat="47.06922" lon="-1.72105">
        <ele>7.617</ele>
        <time>2011-09-25T06:34:13Z</time>
      </trkpt>
      <trkpt lat="47.06929" lon="-1.72098">
        <ele>7.248</ele>
        <time>2011-09-25T06:34:15Z</time>
      </trkpt>
      <trkpt lat="47.0694" lon="-1.72088">
        <ele>7.073</ele>
        <time>2011-09-25T06:34:18Z</time>
      </trkpt>
      <trkpt lat="47.0695" lon="-1.72078">
        <ele>7.046</ele>
        <time>2011-09-25T06:34:21Z</time>
      </trkpt>
      <trkpt lat="47.0696" lon="-1.72067">
        <ele>7.077</ele>
        <time>2011-09-25T06:34:24Z</time>
      </trkpt>
      <trkpt lat="47.0697" lon="-1.72055">
        <ele>7.107</ele>
        <time>2011-09-25T06:34:27Z</time>
      </trkpt>
      <trkpt lat="47.06981" lon="-1.72044">
        <ele>7.121</ele>
        <time>2011-09-25T06:34:30Z</time>
      </trkpt>
      <trkpt lat="47.06991" lon="-1.72033">
        <ele>7.123</ele>
        <time>2011-09-25T06:34:33Z</time>
      </trkpt>
      <trkpt lat="47.07001" lon="-1.72022">
        <ele>7.121</ele>
        <time>2011-09-25T06:34:36Z</time>
      </trkpt>
      <trkpt lat="47.07008" lon="-1.72015">
        <ele>7.119</ele>
        <time>2011-09-25T06:34:38Z</time>
      </trkpt>
      <trkpt lat="47.07018" lon="-1.72005">
        <ele>7.117</ele>
        <time>2011-09-25T06:34:41Z</time>
      </trkpt>
      <trkpt lat="47.07028" lon="-1.71994">
        <ele>7.117</ele>
        <time>2011-09-25T06:34:44Z</time>
      </trkpt>
      <trkpt lat="47.07038" lon="-1.71983">
        <ele>7.117</ele>
        <time>2011-09-25T06:34:47Z</time>
      </trkpt>
      <trkpt lat="47.07048" lon="-1.71972">
        <ele>7.118</ele>
        <time>2011-09-25T06:34:50Z</time>
      </trkpt>
      <trkpt lat="47.07058" lon="-1.71961">
        <ele>6.98</ele>
        <time>2011-09-25T06:34:53Z</time>
      </trkpt>
      <trkpt lat="47.07065" lon="-1.71953">
        <ele>6.62</ele>
        <time>2011-09-25T06:34:55Z</time>
      </trkpt>
      <trkpt lat="47.07076" lon="-1.71941">
        <ele>6.112</ele>
        <time>2011-09-25T06:34:58Z</time>
      </trkpt>
      <trkpt lat="47.07083" lon="-1.71934">
        <ele>5.577</ele>
        <time>2011-09-25T06:35:00Z</time>
      </trkpt>
      <trkpt lat="47.07094" lon="-1.71923">
        <ele>5.182</ele>
        <time>2011-09-25T06:35:03Z</time>
      </trkpt>
      <trkpt lat="47.07101" lon="-1.71916">
        <ele>5.036</ele>
        <time>2011-09-25T06:35:05Z</time>
      </trkpt>
      <trkpt lat="47.07108" lon="-1.71909">
        <ele>5.04</ele>
        <time>2011-09-25T06:35:07Z</time>
      </trkpt>
      <trkpt lat="47.07114" lon="-1.71901">
        <ele>5.084</ele>
        <time>2011-09-25T06:35:09Z</time>
      </trkpt>
      <trkpt lat="47.07124" lon="-1.7189">
        <ele>5.116</ele>
        <time>2011-09-25T06:35:12Z</time>
      </trkpt>
      <trkpt lat="47.07131" lon="-1.71883">
        <ele>5.128</ele>
        <time>2011-09-25T06:35:14Z</time>
      </trkpt>
      <trkpt lat="47.07141" lon="-1.71872">
        <ele>5.128</ele>
        <time>2011-09-25T06:35:17Z</time>
      </trkpt>
      <trkpt lat="47.07152" lon="-1.71861">
        <ele>5.125</ele>
        <time>2011-09-25T06:35:20Z</time>
      </trkpt>
      <trkpt lat="47.07164" lon="-1.71851">
        <ele>5.122</ele>
        <time>2011-09-25T06:35:23Z</time>
      </trkpt>
      <trkpt lat="47.07174" lon="-1.7184">
        <ele>5.121</ele>
        <time>2011-09-25T06:35:26Z</time>
      </trkpt>
      <trkpt lat="47.07181" lon="-1.71832">
        <ele>5.121</ele>
        <time>2011-09-25T06:35:28Z</time>
      </trkpt>
      <trkpt lat="47.07188" lon="-1.71825">
        <ele>5.122</ele>
        <time>2011-09-25T06:35:30Z</time>
      </trkpt>
      <trkpt lat="47.07199" lon="-1.71813">
        <ele>5.122</ele>
        <time>2011-09-25T06:35:33Z</time>
      </trkpt>
      <trkpt lat="47.07206" lon="-1.71806">
        <ele>5.122</ele>
        <time>2011-09-25T06:35:35Z</time>
      </trkpt>
      <trkpt lat="47.07216" lon="-1.71794">
        <ele>5.122</ele>
        <time>2011-09-25T06:35:38Z</time>
      </trkpt>
      <trkpt lat="47.07223" lon="-1.71787">
        <ele>5.122</ele>
        <time>2011-09-25T06:35:40Z</time>
      </trkpt>
      <trkpt lat="47.0723" lon="-1.7178">
        <ele>5.122</ele>
        <time>2011-09-25T06:35:42Z</time>
      </trkpt>
      <trkpt lat="47.07241" lon="-1.71769">
        <ele>5.122</ele>
        <time>2011-09-25T06:35:45Z</time>
      </trkpt>
      <trkpt lat="47.07251" lon="-1.71758">
        <ele>5.122</ele>
        <time>2011-09-25T06:35:48Z</time>
      </trkpt>
      <trkpt lat="47.07261" lon="-1.71748">
        <ele>5.123</ele>
        <time>2011-09-25T06:35:51Z</time>
      </trkpt>
      <trkpt lat="47.07271" lon="-1.71737">
        <ele>5.123</ele>
        <time>2011-09-25T06:35:54Z</time>
      </trkpt>
      <trkpt lat="47.07278" lon="-1.71731">
        <ele>5.123</ele>
        <time>2011-09-25T06:35:56Z</time>
      </trkpt>
      <trkpt lat="47.07288" lon="-1.71721">
        <ele>5.123</ele>
        <time>2011-09-25T06:35:59Z</time>
      </trkpt>
      <trkpt lat="47.07298" lon="-1.7171">
        <ele>5.123</ele>
        <time>2011-09-25T06:36:02Z</time>
      </trkpt>
      <trkpt lat="47.07308" lon="-1.717">
        <ele>5.123</ele>
        <time>2011-09-25T06:36:05Z</time>
      </trkpt>
      <trkpt lat="47.07317" lon="-1.71689">
        <ele>5.261</ele>
        <time>2011-09-25T06:36:08Z</time>
      </trkpt>
      <trkpt lat="47.07327" lon="-1.71678">
        <ele>5.621</ele>
        <time>2011-09-25T06:36:11Z</time>
      </trkpt>
      <trkpt lat="47.07336" lon="-1.71668">
        <ele>5.991</ele>
        <time>2011-09-25T06:36:14Z</time>
      </trkpt>
      <trkpt lat="47.07347" lon="-1.71658">
        <ele>6.166</ele>
        <time>2011-09-25T06:36:17Z</time>
      </trkpt>
      <trkpt lat="47.07353" lon="-1.71651">
        <ele>6.193</ele>
        <time>2011-09-25T06:36:19Z</time>
      </trkpt>
      <trkpt lat="47.0736" lon="-1.71644">
        <ele>6.163</ele>
        <time>2011-09-25T06:36:21Z</time>
      </trkpt>
      <trkpt lat="47.0737" lon="-1.71633">
        <ele>6.133</ele>
        <time>2011-09-25T06:36:24Z</time>
      </trkpt>
      <trkpt lat="47.07377" lon="-1.71626">
        <ele>6.119</ele>
        <time>2011-09-25T06:36:26Z</time>
      </trkpt>
      <trkpt lat="47.07387" lon="-1.71615">
        <ele>6.117</ele>
        <time>2011-09-25T06:36:29Z</time>
      </trkpt>
      <trkpt lat="47.07395" lon="-1.71609">
        <ele>6.12</ele>
        <time>2011-09-25T06:36:31Z</time>
      </trkpt>
      <trkpt lat="47.07401" lon="-1.71601">
        <ele>6.122</ele>
        <time>2011-09-25T06:36:33Z</time>
      </trkpt>
      <trkpt lat="47.0741" lon="-1.7159">
        <ele>6.123</ele>
        <time>2011-09-25T06:36:36Z</time>
      </trkpt>
      <trkpt lat="47.07417" lon="-1.71583">
        <ele>6.124</ele>
        <time>2011-09-25T06:36:38Z</time>
      </trkpt>
      <trkpt lat="47.07426" lon="-1.71572">
        <ele>6.124</ele>
        <time>2011-09-25T06:36:41Z</time>
      </trkpt>
      <trkpt lat="47.07433" lon="-1.71564">
        <ele>6.123</ele>
        <time>2011-09-25T06:36:43Z</time>
      </trkpt>
      <trkpt lat="47.07443" lon="-1.71552">
        <ele>5.985</ele>
        <time>2011-09-25T06:36:46Z</time>
      </trkpt>
      <trkpt lat="47.07449" lon="-1.71545">
        <ele>5.626</ele>
        <time>2011-09-25T06:36:48Z</time>
      </trkpt>
      <trkpt lat="47.0746" lon="-1.71536">
        <ele>5.256</ele>
        <time>2011-09-25T06:36:51Z</time>
      </trkpt>
      <trkpt lat="47.0747" lon="-1.71534">
        <ele>5.081</ele>
        <time>2011-09-25T06:36:54Z</time>
      </trkpt>
      <trkpt lat="47.07479" lon="-1.71545">
        <ele>5.055</ele>
        <time>2011-09-25T06:36:57Z</time>
      </trkpt>
      <trkpt lat="47.07486" lon="-1.71561">
        <ele>5.085</ele>
        <time>2011-09-25T06:37:00Z</time>
      </trkpt>
      <trkpt lat="47.07494" lon="-1.71576">
        <ele>5.115</ele>
        <time>2011-09-25T06:37:03Z</time>
      </trkpt>
      <trkpt lat="47.07503" lon="-1.71592">
        <ele>5.129</ele>
        <time>2011-09-25T06:37:06Z</time>
      </trkpt>
      <trkpt lat="47.07508" lon="-1.71602">
        <ele>5.131</ele>
        <time>2011-09-25T06:37:08Z</time>
      </trkpt>
      <trkpt lat="47.07517" lon="-1.71617">
        <ele>5.129</ele>
        <time>2011-09-25T06:37:11Z</time>
      </trkpt>
      <trkpt lat="47.07522" lon="-1.71627">
        <ele>5.264</ele>
        <time>2011-09-25T06:37:13Z</time>
      </trkpt>
      <trkpt lat="47.07531" lon="-1.71641">
        <ele>5.623</ele>
        <time>2011-09-25T06:37:16Z</time>
      </trkpt>
      <trkpt lat="47.07536" lon="-1.7165">
        <ele>5.992</ele>
        <time>2011-09-25T06:37:18Z</time>
      </trkpt>
      <trkpt lat="47.07542" lon="-1.71659">
        <ele>6.167</ele>
        <time>2011-09-25T06:37:20Z</time>
      </trkpt>
      <trkpt lat="47.07551" lon="-1.71673">
        <ele>6.194</ele>
        <time>2011-09-25T06:37:23Z</time>
      </trkpt>
      <trkpt lat="47.07559" lon="-1.71686">
        <ele>6.164</ele>
        <time>2011-09-25T06:37:26Z</time>
      </trkpt>
      <trkpt lat="47.07567" lon="-1.71699">
        <ele>6.134</ele>
        <time>2011-09-25T06:37:29Z</time>
      </trkpt>
      <trkpt lat="47.07575" lon="-1.71712">
        <ele>6.12</ele>
        <time>2011-09-25T06:37:32Z</time>
      </trkpt>
      <trkpt lat="47.0758" lon="-1.71721">
        <ele>6.118</ele>
        <time>2011-09-25T06:37:34Z</time>
      </trkpt>
      <trkpt lat="47.07585" lon="-1.7173">
        <ele>6.12</ele>
        <time>2011-09-25T06:37:36Z</time>
      </trkpt>
      <trkpt lat="47.07593" lon="-1.71743">
        <ele>6.122</ele>
        <time>2011-09-25T06:37:39Z</time>
      </trkpt>
      <trkpt lat="47.07601" lon="-1.71755">
        <ele>6.123</ele>
        <time>2011-09-25T06:37:42Z</time>
      </trkpt>
      <trkpt lat="47.07606" lon="-1.71764">
        <ele>6.123</ele>
        <time>2011-09-25T06:37:44Z</time>
      </trkpt>
      <trkpt lat="47.07614" lon="-1.71778">
        <ele>6.123</ele>
        <time>2011-09-25T06:37:47Z</time>
      </trkpt>
      <trkpt lat="47.07623" lon="-1.71791">
        <ele>6.123</ele>
        <time>2011-09-25T06:37:50Z</time>
      </trkpt>
      <trkpt lat="47.07632" lon="-1.71804">
        <ele>6.123</ele>
        <time>2011-09-25T06:37:53Z</time>
      </trkpt>
      <trkpt lat="47.07642" lon="-1.71815">
        <ele>6.123</ele>
        <time>2011-09-25T06:37:56Z</time>
      </trkpt>
      <trkpt lat="47.07651" lon="-1.71827">
        <ele>6.123</ele>
        <time>2011-09-25T06:37:59Z</time>
      </trkpt>
      <trkpt lat="47.0766" lon="-1.7184">
        <ele>6.123</ele>
        <time>2011-09-25T06:38:02Z</time>
      </trkpt>
      <trkpt lat="47.0767" lon="-1.71851">
        <ele>6.123</ele>
        <time>2011-09-25T06:38:05Z</time>
      </trkpt>
      <trkpt lat="47.07678" lon="-1.71848">
        <ele>6.123</ele>
        <time>2011-09-25T06:38:07Z</time>
      </trkpt>
      <trkpt lat="47.0769" lon="-1.71834">
        <ele>6.123</ele>
        <time>2011-09-25T06:38:10Z</time>
      </trkpt>
      <trkpt lat="47.07697" lon="-1.71825">
        <ele>6.122</ele>
        <time>2011-09-25T06:38:12Z</time>
      </trkpt>
      <trkpt lat="47.07704" lon="-1.71817">
        <ele>6.122</ele>
        <time>2011-09-25T06:38:14Z</time>
      </trkpt>
      <trkpt lat="47.07712" lon="-1.71807">
        <ele>6.123</ele>
        <time>2011-09-25T06:38:17Z</time>
      </trkpt>
      <trkpt lat="47.07718" lon="-1.718">
        <ele>6.123</ele>
        <time>2011-09-25T06:38:20Z</time>
      </trkpt>
      <trkpt lat="47.07724" lon="-1.71791">
        <ele>6.123</ele>
        <time>2011-09-25T06:38:23Z</time>
      </trkpt>
      <trkpt lat="47.07732" lon="-1.71779">
        <ele>6.123</ele>
        <time>2011-09-25T06:38:26Z</time>
      </trkpt>
      <trkpt lat="47.07742" lon="-1.7177">
        <ele>6.123</ele>
        <time>2011-09-25T06:38:29Z</time>
      </trkpt>
      <trkpt lat="47.07753" lon="-1.71774">
        <ele>6.123</ele>
        <time>2011-09-25T06:38:32Z</time>
      </trkpt>
      <trkpt lat="47.07761" lon="-1.71781">
        <ele>6.123</ele>
        <time>2011-09-25T06:38:34Z</time>
      </trkpt>
      <trkpt lat="47.07771" lon="-1.71791">
        <ele>6.123</ele>
        <time>2011-09-25T06:38:36Z</time>
      </trkpt>
      <trkpt lat="47.07783" lon="-1.71806">
        <ele>6.123</ele>
        <time>2011-09-25T06:38:39Z</time>
      </trkpt>
      <trkpt lat="47.07793" lon="-1.7182">
        <ele>6.123</ele>
        <time>2011-09-25T06:38:42Z</time>
      </trkpt>
      <trkpt lat="47.07804" lon="-1.71832">
        <ele>6.123</ele>
        <time>2011-09-25T06:38:45Z</time>
      </trkpt>
      <trkpt lat="47.07814" lon="-1.71841">
        <ele>6.123</ele>
        <time>2011-09-25T06:38:48Z</time>
      </trkpt>
      <trkpt lat="47.07821" lon="-1.71847">
        <ele>6.123</ele>
        <time>2011-09-25T06:38:50Z</time>
      </trkpt>
      <trkpt lat="47.0783" lon="-1.71855">
        <ele>6.123</ele>
        <time>2011-09-25T06:38:53Z</time>
      </trkpt>
      <trkpt lat="47.07835" lon="-1.71859">
        <ele>6.123</ele>
        <time>2011-09-25T06:38:55Z</time>
      </trkpt>
      <trkpt lat="47.07841" lon="-1.71864">
        <ele>6.123</ele>
        <time>2011-09-25T06:38:57Z</time>
      </trkpt>
      <trkpt lat="47.0785" lon="-1.71872">
        <ele>6.123</ele>
        <time>2011-09-25T06:39:00Z</time>
      </trkpt>
      <trkpt lat="47.0786" lon="-1.71881">
        <ele>6.123</ele>
        <time>2011-09-25T06:39:03Z</time>
      </trkpt>
      <trkpt lat="47.0787" lon="-1.71891">
        <ele>6.123</ele>
        <time>2011-09-25T06:39:06Z</time>
      </trkpt>
      <trkpt lat="47.07881" lon="-1.719">
        <ele>6.123</ele>
        <time>2011-09-25T06:39:09Z</time>
      </trkpt>
      <trkpt lat="47.07891" lon="-1.71911">
        <ele>6.123</ele>
        <time>2011-09-25T06:39:12Z</time>
      </trkpt>
      <trkpt lat="47.07898" lon="-1.71917">
        <ele>6.122</ele>
        <time>2011-09-25T06:39:14Z</time>
      </trkpt>
      <trkpt lat="47.07908" lon="-1.71927">
        <ele>6.122</ele>
        <time>2011-09-25T06:39:17Z</time>
      </trkpt>
      <trkpt lat="47.07918" lon="-1.71936">
        <ele>6.122</ele>
        <time>2011-09-25T06:39:20Z</time>
      </trkpt>
      <trkpt lat="47.07925" lon="-1.71943">
        <ele>6.122</ele>
        <time>2011-09-25T06:39:22Z</time>
      </trkpt>
      <trkpt lat="47.07936" lon="-1.71952">
        <ele>6.122</ele>
        <time>2011-09-25T06:39:25Z</time>
      </trkpt>
      <trkpt lat="47.07943" lon="-1.71958">
        <ele>6.122</ele>
        <time>2011-09-25T06:39:27Z</time>
      </trkpt>
      <trkpt lat="47.07952" lon="-1.71967">
        <ele>6.122</ele>
        <time>2011-09-25T06:39:30Z</time>
      </trkpt>
      <trkpt lat="47.07958" lon="-1.71972">
        <ele>6.122</ele>
        <time>2011-09-25T06:39:32Z</time>
      </trkpt>
      <trkpt lat="47.07966" lon="-1.71979">
        <ele>6.122</ele>
        <time>2011-09-25T06:39:35Z</time>
      </trkpt>
      <trkpt lat="47.07971" lon="-1.7198">
        <ele>6.122</ele>
        <time>2011-09-25T06:39:37Z</time>
      </trkpt>
      <trkpt lat="47.07977" lon="-1.7198">
        <ele>6.122</ele>
        <time>2011-09-25T06:39:39Z</time>
      </trkpt>
      <trkpt lat="47.07986" lon="-1.71982">
        <ele>6.122</ele>
        <time>2011-09-25T06:39:42Z</time>
      </trkpt>
      <trkpt lat="47.07991" lon="-1.71986">
        <ele>6.26</ele>
        <time>2011-09-25T06:39:44Z</time>
      </trkpt>
      <trkpt lat="47.07994" lon="-1.72001">
        <ele>6.62</ele>
        <time>2011-09-25T06:39:47Z</time>
      </trkpt>
      <trkpt lat="47.07995" lon="-1.72016">
        <ele>6.989</ele>
        <time>2011-09-25T06:39:50Z</time>
      </trkpt>
      <trkpt lat="47.08002" lon="-1.72027">
        <ele>7.165</ele>
        <time>2011-09-25T06:39:53Z</time>
      </trkpt>
      <trkpt lat="47.08011" lon="-1.72037">
        <ele>7.191</ele>
        <time>2011-09-25T06:39:56Z</time>
      </trkpt>
      <trkpt lat="47.08022" lon="-1.72047">
        <ele>7.161</ele>
        <time>2011-09-25T06:39:59Z</time>
      </trkpt>
      <trkpt lat="47.08032" lon="-1.72056">
        <ele>7.131</ele>
        <time>2011-09-25T06:40:02Z</time>
      </trkpt>
      <trkpt lat="47.08039" lon="-1.72062">
        <ele>7.117</ele>
        <time>2011-09-25T06:40:04Z</time>
      </trkpt>
      <trkpt lat="47.08048" lon="-1.7207">
        <ele>7.115</ele>
        <time>2011-09-25T06:40:07Z</time>
      </trkpt>
      <trkpt lat="47.08055" lon="-1.72075">
        <ele>7.117</ele>
        <time>2011-09-25T06:40:09Z</time>
      </trkpt>
      <trkpt lat="47.0806" lon="-1.7208">
        <ele>7.12</ele>
        <time>2011-09-25T06:40:11Z</time>
      </trkpt>
      <trkpt lat="47.08069" lon="-1.72087">
        <ele>7.121</ele>
        <time>2011-09-25T06:40:14Z</time>
      </trkpt>
      <trkpt lat="47.08078" lon="-1.72095">
        <ele>7.121</ele>
        <time>2011-09-25T06:40:17Z</time>
      </trkpt>
      <trkpt lat="47.08086" lon="-1.72095">
        <ele>7.12</ele>
        <time>2011-09-25T06:40:20Z</time>
      </trkpt>
      <trkpt lat="47.08089" lon="-1.72089">
        <ele>7.12</ele>
        <time>2011-09-25T06:40:23Z</time>
      </trkpt>
      <trkpt lat="47.08094" lon="-1.72086">
        <ele>7.12</ele>
        <time>2011-09-25T06:40:26Z</time>
      </trkpt>
      <trkpt lat="47.08099" lon="-1.72087">
        <ele>7.12</ele>
        <time>2011-09-25T06:40:29Z</time>
      </trkpt>
      <trkpt lat="47.08104" lon="-1.72094">
        <ele>7.12</ele>
        <time>2011-09-25T06:40:32Z</time>
      </trkpt>
      <trkpt lat="47.08106" lon="-1.72101">
        <ele>6.982</ele>
        <time>2011-09-25T06:40:34Z</time>
      </trkpt>
      <trkpt lat="47.08109" lon="-1.72107">
        <ele>6.622</ele>
        <time>2011-09-25T06:40:36Z</time>
      </trkpt>
      <trkpt lat="47.08109" lon="-1.72107">
        <ele>6.253</ele>
        <time>2011-09-25T06:40:37Z</time>
      </trkpt>
      <trkpt lat="47.08132" lon="-1.72135">
        <ele>6.078</ele>
        <time>2011-09-25T06:40:48Z</time>
      </trkpt>
      <trkpt lat="47.08135" lon="-1.72138">
        <ele>6.051</ele>
        <time>2011-09-25T06:40:50Z</time>
      </trkpt>
      <trkpt lat="47.08143" lon="-1.72143">
        <ele>6.081</ele>
        <time>2011-09-25T06:40:53Z</time>
      </trkpt>
      <trkpt lat="47.08143" lon="-1.72143">
        <ele>6.111</ele>
        <time>2011-09-25T06:40:55Z</time>
      </trkpt>
      <trkpt lat="47.08158" lon="-1.72155">
        <ele>6.193</ele>
        <time>2011-09-25T06:40:59Z</time>
      </trkpt>
      <trkpt lat="47.08165" lon="-1.72161">
        <ele>6.373</ele>
        <time>2011-09-25T06:41:02Z</time>
      </trkpt>
      <trkpt lat="47.0817" lon="-1.72165">
        <ele>6.623</ele>
        <time>2011-09-25T06:41:04Z</time>
      </trkpt>
      <trkpt lat="47.08174" lon="-1.7217">
        <ele>6.889</ele>
        <time>2011-09-25T06:41:06Z</time>
      </trkpt>
      <trkpt lat="47.08181" lon="-1.72176">
        <ele>7.088</ele>
        <time>2011-09-25T06:41:09Z</time>
      </trkpt>
      <trkpt lat="47.08185" lon="-1.7218">
        <ele>7.162</ele>
        <time>2011-09-25T06:41:11Z</time>
      </trkpt>
      <trkpt lat="47.0819" lon="-1.72184">
        <ele>7.16</ele>
        <time>2011-09-25T06:41:13Z</time>
      </trkpt>
      <trkpt lat="47.08198" lon="-1.7219">
        <ele>7.277</ele>
        <time>2011-09-25T06:41:16Z</time>
      </trkpt>
      <trkpt lat="47.08204" lon="-1.72195">
        <ele>7.62</ele>
        <time>2011-09-25T06:41:18Z</time>
      </trkpt>
      <trkpt lat="47.08212" lon="-1.72203">
        <ele>7.984</ele>
        <time>2011-09-25T06:41:21Z</time>
      </trkpt>
      <trkpt lat="47.08221" lon="-1.72211">
        <ele>8.159</ele>
        <time>2011-09-25T06:41:24Z</time>
      </trkpt>
      <trkpt lat="47.0823" lon="-1.72221">
        <ele>8.326</ele>
        <time>2011-09-25T06:41:27Z</time>
      </trkpt>
      <trkpt lat="47.08242" lon="-1.72232">
        <ele>8.657</ele>
        <time>2011-09-25T06:41:30Z</time>
      </trkpt>
      <trkpt lat="47.08252" lon="-1.72242">
        <ele>8.997</ele>
        <time>2011-09-25T06:41:33Z</time>
      </trkpt>
      <trkpt lat="47.08262" lon="-1.72252">
        <ele>9.158</ele>
        <time>2011-09-25T06:41:36Z</time>
      </trkpt>
      <trkpt lat="47.08269" lon="-1.72259">
        <ele>9.182</ele>
        <time>2011-09-25T06:41:38Z</time>
      </trkpt>
      <trkpt lat="47.08278" lon="-1.72268">
        <ele>9.154</ele>
        <time>2011-09-25T06:41:41Z</time>
      </trkpt>
      <trkpt lat="47.08286" lon="-1.72277">
        <ele>9.127</ele>
        <time>2011-09-25T06:41:44Z</time>
      </trkpt>
      <trkpt lat="47.08292" lon="-1.72284">
        <ele>9.114</ele>
        <time>2011-09-25T06:41:46Z</time>
      </trkpt>
      <trkpt lat="47.08292" lon="-1.72297">
        <ele>9.112</ele>
        <time>2011-09-25T06:41:49Z</time>
      </trkpt>
      <trkpt lat="47.08286" lon="-1.72304">
        <ele>9.114</ele>
        <time>2011-09-25T06:41:51Z</time>
      </trkpt>
      <trkpt lat="47.08281" lon="-1.7231">
        <ele>9.116</ele>
        <time>2011-09-25T06:41:53Z</time>
      </trkpt>
      <trkpt lat="47.08274" lon="-1.72319">
        <ele>8.979</ele>
        <time>2011-09-25T06:41:56Z</time>
      </trkpt>
      <trkpt lat="47.08269" lon="-1.72325">
        <ele>8.619</ele>
        <time>2011-09-25T06:41:58Z</time>
      </trkpt>
      <trkpt lat="47.08261" lon="-1.72334">
        <ele>8.25</ele>
        <time>2011-09-25T06:42:01Z</time>
      </trkpt>
      <trkpt lat="47.08256" lon="-1.7234">
        <ele>8.074</ele>
        <time>2011-09-25T06:42:03Z</time>
      </trkpt>
      <trkpt lat="47.0825" lon="-1.72346">
        <ele>8.047</ele>
        <time>2011-09-25T06:42:05Z</time>
      </trkpt>
      <trkpt lat="47.08242" lon="-1.72355">
        <ele>8.077</ele>
        <time>2011-09-25T06:42:08Z</time>
      </trkpt>
      <trkpt lat="47.08234" lon="-1.72364">
        <ele>8.107</ele>
        <time>2011-09-25T06:42:11Z</time>
      </trkpt>
      <trkpt lat="47.08229" lon="-1.7237">
        <ele>8.121</ele>
        <time>2011-09-25T06:42:13Z</time>
      </trkpt>
      <trkpt lat="47.08221" lon="-1.72379">
        <ele>7.985</ele>
        <time>2011-09-25T06:42:16Z</time>
      </trkpt>
      <trkpt lat="47.08215" lon="-1.72385">
        <ele>7.623</ele>
        <time>2011-09-25T06:42:18Z</time>
      </trkpt>
      <trkpt lat="47.08207" lon="-1.72395">
        <ele>7.251</ele>
        <time>2011-09-25T06:42:21Z</time>
      </trkpt>
      <trkpt lat="47.08199" lon="-1.72404">
        <ele>6.936</ele>
        <time>2011-09-25T06:42:24Z</time>
      </trkpt>
      <trkpt lat="47.0819" lon="-1.72414">
        <ele>6.549</ele>
        <time>2011-09-25T06:42:27Z</time>
      </trkpt>
      <trkpt lat="47.08184" lon="-1.7242">
        <ele>6.21</ele>
        <time>2011-09-25T06:42:29Z</time>
      </trkpt>
      <trkpt lat="47.08179" lon="-1.72426">
        <ele>6.065</ele>
        <time>2011-09-25T06:42:31Z</time>
      </trkpt>
      <trkpt lat="47.0817" lon="-1.72435">
        <ele>6.191</ele>
        <time>2011-09-25T06:42:34Z</time>
      </trkpt>
      <trkpt lat="47.08165" lon="-1.72442">
        <ele>6.583</ele>
        <time>2011-09-25T06:42:36Z</time>
      </trkpt>
      <trkpt lat="47.08156" lon="-1.7245">
        <ele>6.979</ele>
        <time>2011-09-25T06:42:39Z</time>
      </trkpt>
      <trkpt lat="47.08147" lon="-1.72455">
        <ele>7.166</ele>
        <time>2011-09-25T06:42:42Z</time>
      </trkpt>
      <trkpt lat="47.08141" lon="-1.7246">
        <ele>7.194</ele>
        <time>2011-09-25T06:42:44Z</time>
      </trkpt>
      <trkpt lat="47.08133" lon="-1.72469">
        <ele>7.161</ele>
        <time>2011-09-25T06:42:47Z</time>
      </trkpt>
      <trkpt lat="47.08125" lon="-1.72479">
        <ele>7.128</ele>
        <time>2011-09-25T06:42:50Z</time>
      </trkpt>
      <trkpt lat="47.0812" lon="-1.72485">
        <ele>7.113</ele>
        <time>2011-09-25T06:42:52Z</time>
      </trkpt>
      <trkpt lat="47.08111" lon="-1.72495">
        <ele>7.111</ele>
        <time>2011-09-25T06:42:55Z</time>
      </trkpt>
      <trkpt lat="47.08102" lon="-1.72506">
        <ele>7.114</ele>
        <time>2011-09-25T06:42:58Z</time>
      </trkpt>
      <trkpt lat="47.08096" lon="-1.72512">
        <ele>7.116</ele>
        <time>2011-09-25T06:43:00Z</time>
      </trkpt>
      <trkpt lat="47.08088" lon="-1.72522">
        <ele>7.117</ele>
        <time>2011-09-25T06:43:03Z</time>
      </trkpt>
      <trkpt lat="47.08082" lon="-1.72529">
        <ele>7.118</ele>
        <time>2011-09-25T06:43:05Z</time>
      </trkpt>
      <trkpt lat="47.08074" lon="-1.72539">
        <ele>7.255</ele>
        <time>2011-09-25T06:43:08Z</time>
      </trkpt>
      <trkpt lat="47.08065" lon="-1.72548">
        <ele>7.615</ele>
        <time>2011-09-25T06:43:11Z</time>
      </trkpt>
      <trkpt lat="47.0806" lon="-1.72552">
        <ele>7.984</ele>
        <time>2011-09-25T06:43:13Z</time>
      </trkpt>
      <trkpt lat="47.08053" lon="-1.72559">
        <ele>8.159</ele>
        <time>2011-09-25T06:43:16Z</time>
      </trkpt>
      <trkpt lat="47.08046" lon="-1.72566">
        <ele>8.186</ele>
        <time>2011-09-25T06:43:19Z</time>
      </trkpt>
      <trkpt lat="47.08041" lon="-1.72572">
        <ele>8.156</ele>
        <time>2011-09-25T06:43:21Z</time>
      </trkpt>
      <trkpt lat="47.08034" lon="-1.72581">
        <ele>8.126</ele>
        <time>2011-09-25T06:43:24Z</time>
      </trkpt>
      <trkpt lat="47.08025" lon="-1.7259">
        <ele>8.25</ele>
        <time>2011-09-25T06:43:27Z</time>
      </trkpt>
      <trkpt lat="47.08017" lon="-1.72599">
        <ele>8.607</ele>
        <time>2011-09-25T06:43:30Z</time>
      </trkpt>
      <trkpt lat="47.08008" lon="-1.72607">
        <ele>8.979</ele>
        <time>2011-09-25T06:43:33Z</time>
      </trkpt>
      <trkpt lat="47.08002" lon="-1.72613">
        <ele>9.157</ele>
        <time>2011-09-25T06:43:35Z</time>
      </trkpt>
      <trkpt lat="47.07993" lon="-1.72621">
        <ele>9.184</ele>
        <time>2011-09-25T06:43:38Z</time>
      </trkpt>
      <trkpt lat="47.07984" lon="-1.7263">
        <ele>9.293</ele>
        <time>2011-09-25T06:43:41Z</time>
      </trkpt>
      <trkpt lat="47.07975" lon="-1.72638">
        <ele>9.622</ele>
        <time>2011-09-25T06:43:44Z</time>
      </trkpt>
      <trkpt lat="47.07969" lon="-1.72644">
        <ele>9.977</ele>
        <time>2011-09-25T06:43:46Z</time>
      </trkpt>
      <trkpt lat="47.07963" lon="-1.72648">
        <ele>10.15</ele>
        <time>2011-09-25T06:43:48Z</time>
      </trkpt>
      <trkpt lat="47.07956" lon="-1.72655">
        <ele>10.179</ele>
        <time>2011-09-25T06:43:51Z</time>
      </trkpt>
      <trkpt lat="47.07951" lon="-1.72661">
        <ele>10.152</ele>
        <time>2011-09-25T06:43:53Z</time>
      </trkpt>
      <trkpt lat="47.07945" lon="-1.72667">
        <ele>10.123</ele>
        <time>2011-09-25T06:43:56Z</time>
      </trkpt>
      <trkpt lat="47.07938" lon="-1.72673">
        <ele>10.247</ele>
        <time>2011-09-25T06:43:59Z</time>
      </trkpt>
      <trkpt lat="47.07931" lon="-1.72679">
        <ele>10.604</ele>
        <time>2011-09-25T06:44:02Z</time>
      </trkpt>
      <trkpt lat="47.07923" lon="-1.72686">
        <ele>11.114</ele>
        <time>2011-09-25T06:44:05Z</time>
      </trkpt>
      <trkpt lat="47.07916" lon="-1.72693">
        <ele>11.652</ele>
        <time>2011-09-25T06:44:08Z</time>
      </trkpt>
      <trkpt lat="47.07911" lon="-1.72698">
        <ele>12.049</ele>
        <time>2011-09-25T06:44:10Z</time>
      </trkpt>
      <trkpt lat="47.07904" lon="-1.72705">
        <ele>12.194</ele>
        <time>2011-09-25T06:44:13Z</time>
      </trkpt>
      <trkpt lat="47.07897" lon="-1.72713">
        <ele>12.19</ele>
        <time>2011-09-25T06:44:16Z</time>
      </trkpt>
      <trkpt lat="47.0789" lon="-1.72718">
        <ele>12.146</ele>
        <time>2011-09-25T06:44:19Z</time>
      </trkpt>
      <trkpt lat="47.07883" lon="-1.72725">
        <ele>12.114</ele>
        <time>2011-09-25T06:44:22Z</time>
      </trkpt>
      <trkpt lat="47.07878" lon="-1.72729">
        <ele>12.102</ele>
        <time>2011-09-25T06:44:24Z</time>
      </trkpt>
      <trkpt lat="47.07872" lon="-1.72735">
        <ele>12.102</ele>
        <time>2011-09-25T06:44:27Z</time>
      </trkpt>
      <trkpt lat="47.07867" lon="-1.7274">
        <ele>12.106</ele>
        <time>2011-09-25T06:44:30Z</time>
      </trkpt>
      <trkpt lat="47.07861" lon="-1.72745">
        <ele>12.108</ele>
        <time>2011-09-25T06:44:33Z</time>
      </trkpt>
      <trkpt lat="47.07855" lon="-1.72751">
        <ele>12.109</ele>
        <time>2011-09-25T06:44:36Z</time>
      </trkpt>
      <trkpt lat="47.07849" lon="-1.72756">
        <ele>12.109</ele>
        <time>2011-09-25T06:44:39Z</time>
      </trkpt>
      <trkpt lat="47.07842" lon="-1.72762">
        <ele>12.109</ele>
        <time>2011-09-25T06:44:42Z</time>
      </trkpt>
      <trkpt lat="47.07836" lon="-1.72767">
        <ele>12.109</ele>
        <time>2011-09-25T06:44:45Z</time>
      </trkpt>
      <trkpt lat="47.07829" lon="-1.72772">
        <ele>12.108</ele>
        <time>2011-09-25T06:44:48Z</time>
      </trkpt>
      <trkpt lat="47.07823" lon="-1.72778">
        <ele>12.108</ele>
        <time>2011-09-25T06:44:51Z</time>
      </trkpt>
      <trkpt lat="47.07817" lon="-1.72786">
        <ele>12.108</ele>
        <time>2011-09-25T06:44:54Z</time>
      </trkpt>
      <trkpt lat="47.0781" lon="-1.72791">
        <ele>12.108</ele>
        <time>2011-09-25T06:44:57Z</time>
      </trkpt>
      <trkpt lat="47.07806" lon="-1.72795">
        <ele>12.108</ele>
        <time>2011-09-25T06:44:59Z</time>
      </trkpt>
      <trkpt lat="47.07802" lon="-1.72799">
        <ele>11.97</ele>
        <time>2011-09-25T06:45:01Z</time>
      </trkpt>
      <trkpt lat="47.07796" lon="-1.72804">
        <ele>11.61</ele>
        <time>2011-09-25T06:45:04Z</time>
      </trkpt>
      <trkpt lat="47.07791" lon="-1.72808">
        <ele>11.241</ele>
        <time>2011-09-25T06:45:06Z</time>
      </trkpt>
      <trkpt lat="47.07785" lon="-1.72813">
        <ele>11.065</ele>
        <time>2011-09-25T06:45:09Z</time>
      </trkpt>
      <trkpt lat="47.07781" lon="-1.72816">
        <ele>11.039</ele>
        <time>2011-09-25T06:45:11Z</time>
      </trkpt>
      <trkpt lat="47.07777" lon="-1.72819">
        <ele>11.069</ele>
        <time>2011-09-25T06:45:13Z</time>
      </trkpt>
      <trkpt lat="47.07772" lon="-1.72825">
        <ele>11.099</ele>
        <time>2011-09-25T06:45:16Z</time>
      </trkpt>
      <trkpt lat="47.07768" lon="-1.72829">
        <ele>11.113</ele>
        <time>2011-09-25T06:45:18Z</time>
      </trkpt>
      <trkpt lat="47.07763" lon="-1.72834">
        <ele>11.115</ele>
        <time>2011-09-25T06:45:21Z</time>
      </trkpt>
      <trkpt lat="47.07757" lon="-1.7284">
        <ele>11.112</ele>
        <time>2011-09-25T06:45:24Z</time>
      </trkpt>
      <trkpt lat="47.07753" lon="-1.72844">
        <ele>11.11</ele>
        <time>2011-09-25T06:45:26Z</time>
      </trkpt>
      <trkpt lat="47.07748" lon="-1.7285">
        <ele>11.108</ele>
        <time>2011-09-25T06:45:29Z</time>
      </trkpt>
      <trkpt lat="47.07743" lon="-1.72855">
        <ele>11.108</ele>
        <time>2011-09-25T06:45:32Z</time>
      </trkpt>
      <trkpt lat="47.07743" lon="-1.72855">
        <ele>11.108</ele>
        <time>2011-09-25T06:45:33Z</time>
      </trkpt>
      <trkpt lat="47.07716" lon="-1.72874">
        <ele>11.247</ele>
        <time>2011-09-25T06:45:47Z</time>
      </trkpt>
      <trkpt lat="47.0771" lon="-1.7288">
        <ele>11.607</ele>
        <time>2011-09-25T06:45:50Z</time>
      </trkpt>
      <trkpt lat="47.07704" lon="-1.72887">
        <ele>11.976</ele>
        <time>2011-09-25T06:45:53Z</time>
      </trkpt>
      <trkpt lat="47.07698" lon="-1.72892">
        <ele>12.289</ele>
        <time>2011-09-25T06:45:56Z</time>
      </trkpt>
      <trkpt lat="47.07692" lon="-1.72897">
        <ele>12.676</ele>
        <time>2011-09-25T06:45:59Z</time>
      </trkpt>
      <trkpt lat="47.07687" lon="-1.72903">
        <ele>13.015</ele>
        <time>2011-09-25T06:46:02Z</time>
      </trkpt>
      <trkpt lat="47.07683" lon="-1.72905">
        <ele>13.16</ele>
        <time>2011-09-25T06:46:04Z</time>
      </trkpt>
      <trkpt lat="47.07677" lon="-1.72909">
        <ele>13.034</ele>
        <time>2011-09-25T06:46:07Z</time>
      </trkpt>
      <trkpt lat="47.07672" lon="-1.72913">
        <ele>12.642</ele>
        <time>2011-09-25T06:46:10Z</time>
      </trkpt>
      <trkpt lat="47.07667" lon="-1.72918">
        <ele>12.245</ele>
        <time>2011-09-25T06:46:13Z</time>
      </trkpt>
      <trkpt lat="47.07662" lon="-1.72922">
        <ele>12.058</ele>
        <time>2011-09-25T06:46:16Z</time>
      </trkpt>
      <trkpt lat="47.07657" lon="-1.72926">
        <ele>12.031</ele>
        <time>2011-09-25T06:46:19Z</time>
      </trkpt>
      <trkpt lat="47.07651" lon="-1.7293">
        <ele>12.063</ele>
        <time>2011-09-25T06:46:22Z</time>
      </trkpt>
      <trkpt lat="47.07647" lon="-1.72933">
        <ele>12.096</ele>
        <time>2011-09-25T06:46:24Z</time>
      </trkpt>
      <trkpt lat="47.0764" lon="-1.72937">
        <ele>12.111</ele>
        <time>2011-09-25T06:46:27Z</time>
      </trkpt>
      <trkpt lat="47.07634" lon="-1.72943">
        <ele>11.974</ele>
        <time>2011-09-25T06:46:30Z</time>
      </trkpt>
      <trkpt lat="47.07628" lon="-1.72949">
        <ele>11.612</ele>
        <time>2011-09-25T06:46:33Z</time>
      </trkpt>
      <trkpt lat="47.07622" lon="-1.72957">
        <ele>11.24</ele>
        <time>2011-09-25T06:46:36Z</time>
      </trkpt>
      <trkpt lat="47.07615" lon="-1.72962">
        <ele>11.063</ele>
        <time>2011-09-25T06:46:39Z</time>
      </trkpt>
      <trkpt lat="47.07609" lon="-1.72968">
        <ele>11.036</ele>
        <time>2011-09-25T06:46:42Z</time>
      </trkpt>
      <trkpt lat="47.07604" lon="-1.72975">
        <ele>11.067</ele>
        <time>2011-09-25T06:46:45Z</time>
      </trkpt>
      <trkpt lat="47.07598" lon="-1.7298">
        <ele>11.097</ele>
        <time>2011-09-25T06:46:48Z</time>
      </trkpt>
      <trkpt lat="47.07592" lon="-1.72986">
        <ele>11.111</ele>
        <time>2011-09-25T06:46:51Z</time>
      </trkpt>
      <trkpt lat="47.07587" lon="-1.72992">
        <ele>11.113</ele>
        <time>2011-09-25T06:46:54Z</time>
      </trkpt>
      <trkpt lat="47.07581" lon="-1.72996">
        <ele>11.11</ele>
        <time>2011-09-25T06:46:57Z</time>
      </trkpt>
      <trkpt lat="47.07575" lon="-1.73001">
        <ele>11.108</ele>
        <time>2011-09-25T06:47:00Z</time>
      </trkpt>
      <trkpt lat="47.0757" lon="-1.73006">
        <ele>11.245</ele>
        <time>2011-09-25T06:47:03Z</time>
      </trkpt>
      <trkpt lat="47.07566" lon="-1.7301">
        <ele>11.604</ele>
        <time>2011-09-25T06:47:05Z</time>
      </trkpt>
      <trkpt lat="47.07562" lon="-1.73014">
        <ele>11.974</ele>
        <time>2011-09-25T06:47:07Z</time>
      </trkpt>
      <trkpt lat="47.07556" lon="-1.73019">
        <ele>12.149</ele>
        <time>2011-09-25T06:47:10Z</time>
      </trkpt>
      <trkpt lat="47.07552" lon="-1.73023">
        <ele>12.176</ele>
        <time>2011-09-25T06:47:12Z</time>
      </trkpt>
      <trkpt lat="47.07545" lon="-1.73029">
        <ele>12.146</ele>
        <time>2011-09-25T06:47:15Z</time>
      </trkpt>
      <trkpt lat="47.0754" lon="-1.73034">
        <ele>12.116</ele>
        <time>2011-09-25T06:47:18Z</time>
      </trkpt>
      <trkpt lat="47.07535" lon="-1.73038">
        <ele>12.102</ele>
        <time>2011-09-25T06:47:21Z</time>
      </trkpt>
      <trkpt lat="47.0753" lon="-1.73043">
        <ele>12.1</ele>
        <time>2011-09-25T06:47:24Z</time>
      </trkpt>
      <trkpt lat="47.07524" lon="-1.73048">
        <ele>12.102</ele>
        <time>2011-09-25T06:47:27Z</time>
      </trkpt>
      <trkpt lat="47.07519" lon="-1.73054">
        <ele>12.104</ele>
        <time>2011-09-25T06:47:30Z</time>
      </trkpt>
      <trkpt lat="47.07513" lon="-1.7306">
        <ele>12.106</ele>
        <time>2011-09-25T06:47:33Z</time>
      </trkpt>
      <trkpt lat="47.07508" lon="-1.73067">
        <ele>12.106</ele>
        <time>2011-09-25T06:47:36Z</time>
      </trkpt>
      <trkpt lat="47.07504" lon="-1.73071">
        <ele>12.105</ele>
        <time>2011-09-25T06:47:38Z</time>
      </trkpt>
      <trkpt lat="47.075" lon="-1.73078">
        <ele>12.105</ele>
        <time>2011-09-25T06:47:41Z</time>
      </trkpt>
      <trkpt lat="47.07493" lon="-1.73081">
        <ele>11.967</ele>
        <time>2011-09-25T06:47:44Z</time>
      </trkpt>
      <trkpt lat="47.07486" lon="-1.73085">
        <ele>11.607</ele>
        <time>2011-09-25T06:47:47Z</time>
      </trkpt>
      <trkpt lat="47.0748" lon="-1.7309">
        <ele>11.099</ele>
        <time>2011-09-25T06:47:50Z</time>
      </trkpt>
      <trkpt lat="47.07474" lon="-1.73096">
        <ele>10.564</ele>
        <time>2011-09-25T06:47:53Z</time>
      </trkpt>
      <trkpt lat="47.07469" lon="-1.73103">
        <ele>10.168</ele>
        <time>2011-09-25T06:47:56Z</time>
      </trkpt>
      <trkpt lat="47.07463" lon="-1.73107">
        <ele>10.023</ele>
        <time>2011-09-25T06:47:59Z</time>
      </trkpt>
      <trkpt lat="47.07458" lon="-1.73108">
        <ele>10.026</ele>
        <time>2011-09-25T06:48:01Z</time>
      </trkpt>
      <trkpt lat="47.07452" lon="-1.73111">
        <ele>10.07</ele>
        <time>2011-09-25T06:48:04Z</time>
      </trkpt>
      <trkpt lat="47.07447" lon="-1.73114">
        <ele>10.102</ele>
        <time>2011-09-25T06:48:06Z</time>
      </trkpt>
      <trkpt lat="47.07442" lon="-1.73119">
        <ele>9.976</ele>
        <time>2011-09-25T06:48:09Z</time>
      </trkpt>
      <trkpt lat="47.07437" lon="-1.73121">
        <ele>9.615</ele>
        <time>2011-09-25T06:48:14Z</time>
      </trkpt>
      <trkpt lat="47.07434" lon="-1.73126">
        <ele>9.242</ele>
        <time>2011-09-25T06:48:17Z</time>
      </trkpt>
      <trkpt lat="47.07429" lon="-1.73132">
        <ele>9.064</ele>
        <time>2011-09-25T06:48:20Z</time>
      </trkpt>
      <trkpt lat="47.07423" lon="-1.73138">
        <ele>9.037</ele>
        <time>2011-09-25T06:48:23Z</time>
      </trkpt>
      <trkpt lat="47.07419" lon="-1.73142">
        <ele>9.067</ele>
        <time>2011-09-25T06:48:25Z</time>
      </trkpt>
      <trkpt lat="47.07414" lon="-1.73149">
        <ele>9.097</ele>
        <time>2011-09-25T06:48:28Z</time>
      </trkpt>
      <trkpt lat="47.07408" lon="-1.73155">
        <ele>9.111</ele>
        <time>2011-09-25T06:48:31Z</time>
      </trkpt>
      <trkpt lat="47.07404" lon="-1.7316">
        <ele>9.113</ele>
        <time>2011-09-25T06:48:33Z</time>
      </trkpt>
      <trkpt lat="47.07398" lon="-1.73166">
        <ele>9.111</ele>
        <time>2011-09-25T06:48:36Z</time>
      </trkpt>
      <trkpt lat="47.07391" lon="-1.73172">
        <ele>9.108</ele>
        <time>2011-09-25T06:48:39Z</time>
      </trkpt>
      <trkpt lat="47.07384" lon="-1.73177">
        <ele>9.107</ele>
        <time>2011-09-25T06:48:42Z</time>
      </trkpt>
      <trkpt lat="47.07377" lon="-1.73183">
        <ele>9.245</ele>
        <time>2011-09-25T06:48:45Z</time>
      </trkpt>
      <trkpt lat="47.0737" lon="-1.73188">
        <ele>9.605</ele>
        <time>2011-09-25T06:48:48Z</time>
      </trkpt>
      <trkpt lat="47.07364" lon="-1.73193">
        <ele>10.113</ele>
        <time>2011-09-25T06:48:51Z</time>
      </trkpt>
      <trkpt lat="47.07357" lon="-1.73198">
        <ele>10.648</ele>
        <time>2011-09-25T06:48:54Z</time>
      </trkpt>
      <trkpt lat="47.07351" lon="-1.73203">
        <ele>11.044</ele>
        <time>2011-09-25T06:48:57Z</time>
      </trkpt>
      <trkpt lat="47.07346" lon="-1.73209">
        <ele>11.189</ele>
        <time>2011-09-25T06:49:00Z</time>
      </trkpt>
      <trkpt lat="47.0734" lon="-1.73214">
        <ele>11.185</ele>
        <time>2011-09-25T06:49:03Z</time>
      </trkpt>
      <trkpt lat="47.07334" lon="-1.73219">
        <ele>11.28</ele>
        <time>2011-09-25T06:49:06Z</time>
      </trkpt>
      <trkpt lat="47.07328" lon="-1.73224">
        <ele>11.607</ele>
        <time>2011-09-25T06:49:09Z</time>
      </trkpt>
      <trkpt lat="47.07323" lon="-1.73229">
        <ele>11.965</ele>
        <time>2011-09-25T06:49:12Z</time>
      </trkpt>
      <trkpt lat="47.07317" lon="-1.73235">
        <ele>12.14</ele>
        <time>2011-09-25T06:49:15Z</time>
      </trkpt>
      <trkpt lat="47.07311" lon="-1.73241">
        <ele>12.171</ele>
        <time>2011-09-25T06:49:18Z</time>
      </trkpt>
      <trkpt lat="47.07305" lon="-1.73247">
        <ele>12.143</ele>
        <time>2011-09-25T06:49:21Z</time>
      </trkpt>
      <trkpt lat="47.07301" lon="-1.7325">
        <ele>12.114</ele>
        <time>2011-09-25T06:49:23Z</time>
      </trkpt>
      <trkpt lat="47.07294" lon="-1.73255">
        <ele>11.962</ele>
        <time>2011-09-25T06:49:26Z</time>
      </trkpt>
      <trkpt lat="47.07287" lon="-1.73262">
        <ele>11.599</ele>
        <time>2011-09-25T06:49:29Z</time>
      </trkpt>
      <trkpt lat="47.07281" lon="-1.73268">
        <ele>11.232</ele>
        <time>2011-09-25T06:49:32Z</time>
      </trkpt>
      <trkpt lat="47.07275" lon="-1.73276">
        <ele>11.059</ele>
        <time>2011-09-25T06:49:35Z</time>
      </trkpt>
      <trkpt lat="47.07268" lon="-1.73283">
        <ele>11.034</ele>
        <time>2011-09-25T06:49:38Z</time>
      </trkpt>
      <trkpt lat="47.07262" lon="-1.7329">
        <ele>11.202</ele>
        <time>2011-09-25T06:49:41Z</time>
      </trkpt>
      <trkpt lat="47.07259" lon="-1.73294">
        <ele>11.592</ele>
        <time>2011-09-25T06:49:43Z</time>
      </trkpt>
      <trkpt lat="47.07253" lon="-1.73299">
        <ele>11.975</ele>
        <time>2011-09-25T06:49:46Z</time>
      </trkpt>
      <trkpt lat="47.07248" lon="-1.73301">
        <ele>12.152</ele>
        <time>2011-09-25T06:49:48Z</time>
      </trkpt>
      <trkpt lat="47.07241" lon="-1.73305">
        <ele>12.176</ele>
        <time>2011-09-25T06:49:51Z</time>
      </trkpt>
      <trkpt lat="47.07237" lon="-1.73308">
        <ele>12.144</ele>
        <time>2011-09-25T06:49:53Z</time>
      </trkpt>
      <trkpt lat="47.07231" lon="-1.73311">
        <ele>12.112</ele>
        <time>2011-09-25T06:49:56Z</time>
      </trkpt>
      <trkpt lat="47.07226" lon="-1.73315">
        <ele>12.098</ele>
        <time>2011-09-25T06:49:59Z</time>
      </trkpt>
      <trkpt lat="47.0722" lon="-1.73321">
        <ele>12.096</ele>
        <time>2011-09-25T06:50:02Z</time>
      </trkpt>
      <trkpt lat="47.07215" lon="-1.73324">
        <ele>12.099</ele>
        <time>2011-09-25T06:50:04Z</time>
      </trkpt>
      <trkpt lat="47.07207" lon="-1.73331">
        <ele>12.101</ele>
        <time>2011-09-25T06:50:07Z</time>
      </trkpt>
      <trkpt lat="47.07201" lon="-1.73335">
        <ele>12.102</ele>
        <time>2011-09-25T06:50:09Z</time>
      </trkpt>
      <trkpt lat="47.07192" lon="-1.73344">
        <ele>12.102</ele>
        <time>2011-09-25T06:50:12Z</time>
      </trkpt>
      <trkpt lat="47.07183" lon="-1.73353">
        <ele>12.102</ele>
        <time>2011-09-25T06:50:15Z</time>
      </trkpt>
      <trkpt lat="47.07175" lon="-1.73362">
        <ele>12.102</ele>
        <time>2011-09-25T06:50:18Z</time>
      </trkpt>
      <trkpt lat="47.07166" lon="-1.7337">
        <ele>12.102</ele>
        <time>2011-09-25T06:50:21Z</time>
      </trkpt>
      <trkpt lat="47.0716" lon="-1.73376">
        <ele>12.102</ele>
        <time>2011-09-25T06:50:23Z</time>
      </trkpt>
      <trkpt lat="47.07152" lon="-1.73383">
        <ele>12.102</ele>
        <time>2011-09-25T06:50:26Z</time>
      </trkpt>
      <trkpt lat="47.07147" lon="-1.73388">
        <ele>12.24</ele>
        <time>2011-09-25T06:50:28Z</time>
      </trkpt>
      <trkpt lat="47.07139" lon="-1.73395">
        <ele>12.6</ele>
        <time>2011-09-25T06:50:31Z</time>
      </trkpt>
      <trkpt lat="47.07133" lon="-1.734">
        <ele>12.969</ele>
        <time>2011-09-25T06:50:33Z</time>
      </trkpt>
      <trkpt lat="47.07128" lon="-1.73405">
        <ele>13.144</ele>
        <time>2011-09-25T06:50:35Z</time>
      </trkpt>
      <trkpt lat="47.07119" lon="-1.73412">
        <ele>13.17</ele>
        <time>2011-09-25T06:50:38Z</time>
      </trkpt>
      <trkpt lat="47.07111" lon="-1.73419">
        <ele>13.14</ele>
        <time>2011-09-25T06:50:41Z</time>
      </trkpt>
      <trkpt lat="47.07103" lon="-1.73426">
        <ele>13.11</ele>
        <time>2011-09-25T06:50:44Z</time>
      </trkpt>
      <trkpt lat="47.07095" lon="-1.73435">
        <ele>13.096</ele>
        <time>2011-09-25T06:50:47Z</time>
      </trkpt>
      <trkpt lat="47.07089" lon="-1.7344">
        <ele>13.094</ele>
        <time>2011-09-25T06:50:49Z</time>
      </trkpt>
      <trkpt lat="47.07081" lon="-1.73448">
        <ele>12.958</ele>
        <time>2011-09-25T06:50:52Z</time>
      </trkpt>
      <trkpt lat="47.07073" lon="-1.73456">
        <ele>12.601</ele>
        <time>2011-09-25T06:50:55Z</time>
      </trkpt>
      <trkpt lat="47.07064" lon="-1.73464">
        <ele>12.232</ele>
        <time>2011-09-25T06:50:58Z</time>
      </trkpt>
      <trkpt lat="47.07054" lon="-1.73472">
        <ele>12.057</ele>
        <time>2011-09-25T06:51:01Z</time>
      </trkpt>
      <trkpt lat="47.07048" lon="-1.73478">
        <ele>12.03</ele>
        <time>2011-09-25T06:51:03Z</time>
      </trkpt>
      <trkpt lat="47.07042" lon="-1.73483">
        <ele>12.06</ele>
        <time>2011-09-25T06:51:05Z</time>
      </trkpt>
      <trkpt lat="47.07032" lon="-1.73491">
        <ele>12.09</ele>
        <time>2011-09-25T06:51:08Z</time>
      </trkpt>
      <trkpt lat="47.07022" lon="-1.73499">
        <ele>12.104</ele>
        <time>2011-09-25T06:51:11Z</time>
      </trkpt>
      <trkpt lat="47.07016" lon="-1.73505">
        <ele>12.106</ele>
        <time>2011-09-25T06:51:13Z</time>
      </trkpt>
      <trkpt lat="47.07007" lon="-1.73513">
        <ele>12.104</ele>
        <time>2011-09-25T06:51:16Z</time>
      </trkpt>
      <trkpt lat="47.07001" lon="-1.73519">
        <ele>12.101</ele>
        <time>2011-09-25T06:51:18Z</time>
      </trkpt>
      <trkpt lat="47.06991" lon="-1.73527">
        <ele>12.238</ele>
        <time>2011-09-25T06:51:21Z</time>
      </trkpt>
      <trkpt lat="47.06985" lon="-1.73532">
        <ele>12.598</ele>
        <time>2011-09-25T06:51:23Z</time>
      </trkpt>
      <trkpt lat="47.06976" lon="-1.7354">
        <ele>12.967</ele>
        <time>2011-09-25T06:51:26Z</time>
      </trkpt>
      <trkpt lat="47.06967" lon="-1.73549">
        <ele>13.142</ele>
        <time>2011-09-25T06:51:29Z</time>
      </trkpt>
      <trkpt lat="47.06957" lon="-1.73559">
        <ele>13.169</ele>
        <time>2011-09-25T06:51:32Z</time>
      </trkpt>
      <trkpt lat="47.06947" lon="-1.73569">
        <ele>13.139</ele>
        <time>2011-09-25T06:51:35Z</time>
      </trkpt>
      <trkpt lat="47.06936" lon="-1.73579">
        <ele>13.109</ele>
        <time>2011-09-25T06:51:38Z</time>
      </trkpt>
      <trkpt lat="47.06925" lon="-1.73589">
        <ele>13.095</ele>
        <time>2011-09-25T06:51:41Z</time>
      </trkpt>
      <trkpt lat="47.06913" lon="-1.736">
        <ele>13.231</ele>
        <time>2011-09-25T06:51:44Z</time>
      </trkpt>
      <trkpt lat="47.06902" lon="-1.73611">
        <ele>13.593</ele>
        <time>2011-09-25T06:51:47Z</time>
      </trkpt>
      <trkpt lat="47.06894" lon="-1.73619">
        <ele>13.965</ele>
        <time>2011-09-25T06:51:49Z</time>
      </trkpt>
      <trkpt lat="47.06882" lon="-1.73631">
        <ele>14.141</ele>
        <time>2011-09-25T06:51:52Z</time>
      </trkpt>
      <trkpt lat="47.06869" lon="-1.73642">
        <ele>14.167</ele>
        <time>2011-09-25T06:51:55Z</time>
      </trkpt>
      <trkpt lat="47.06861" lon="-1.73649">
        <ele>14.137</ele>
        <time>2011-09-25T06:51:57Z</time>
      </trkpt>
      <trkpt lat="47.06849" lon="-1.73659">
        <ele>14.107</ele>
        <time>2011-09-25T06:52:00Z</time>
      </trkpt>
      <trkpt lat="47.06841" lon="-1.73667">
        <ele>14.092</ele>
        <time>2011-09-25T06:52:02Z</time>
      </trkpt>
      <trkpt lat="47.06828" lon="-1.73678">
        <ele>13.952</ele>
        <time>2011-09-25T06:52:05Z</time>
      </trkpt>
      <trkpt lat="47.0682" lon="-1.73685">
        <ele>13.595</ele>
        <time>2011-09-25T06:52:07Z</time>
      </trkpt>
      <trkpt lat="47.06807" lon="-1.73697">
        <ele>13.228</ele>
        <time>2011-09-25T06:52:10Z</time>
      </trkpt>
      <trkpt lat="47.06795" lon="-1.73709">
        <ele>13.053</ele>
        <time>2011-09-25T06:52:13Z</time>
      </trkpt>
      <trkpt lat="47.06787" lon="-1.73717">
        <ele>13.027</ele>
        <time>2011-09-25T06:52:15Z</time>
      </trkpt>
      <trkpt lat="47.06775" lon="-1.73728">
        <ele>12.918</ele>
        <time>2011-09-25T06:52:18Z</time>
      </trkpt>
      <trkpt lat="47.06767" lon="-1.73735">
        <ele>12.588</ele>
        <time>2011-09-25T06:52:20Z</time>
      </trkpt>
      <trkpt lat="47.06755" lon="-1.73747">
        <ele>12.233</ele>
        <time>2011-09-25T06:52:23Z</time>
      </trkpt>
      <trkpt lat="47.06747" lon="-1.73756">
        <ele>12.059</ele>
        <time>2011-09-25T06:52:25Z</time>
      </trkpt>
      <trkpt lat="47.06735" lon="-1.73768">
        <ele>12.03</ele>
        <time>2011-09-25T06:52:28Z</time>
      </trkpt>
      <trkpt lat="47.06727" lon="-1.73775">
        <ele>11.92</ele>
        <time>2011-09-25T06:52:30Z</time>
      </trkpt>
      <trkpt lat="47.06716" lon="-1.73784">
        <ele>11.589</ele>
        <time>2011-09-25T06:52:33Z</time>
      </trkpt>
      <trkpt lat="47.0671" lon="-1.7379">
        <ele>11.233</ele>
        <time>2011-09-25T06:52:35Z</time>
      </trkpt>
      <trkpt lat="47.06701" lon="-1.73798">
        <ele>11.06</ele>
        <time>2011-09-25T06:52:38Z</time>
      </trkpt>
      <trkpt lat="47.06692" lon="-1.73806">
        <ele>11.031</ele>
        <time>2011-09-25T06:52:41Z</time>
      </trkpt>
      <trkpt lat="47.06686" lon="-1.73811">
        <ele>11.058</ele>
        <time>2011-09-25T06:52:43Z</time>
      </trkpt>
      <trkpt lat="47.06677" lon="-1.73819">
        <ele>11.087</ele>
        <time>2011-09-25T06:52:46Z</time>
      </trkpt>
      <trkpt lat="47.06668" lon="-1.73826">
        <ele>11.101</ele>
        <time>2011-09-25T06:52:49Z</time>
      </trkpt>
      <trkpt lat="47.06659" lon="-1.73834">
        <ele>11.103</ele>
        <time>2011-09-25T06:52:52Z</time>
      </trkpt>
      <trkpt lat="47.0665" lon="-1.73844">
        <ele>11.101</ele>
        <time>2011-09-25T06:52:55Z</time>
      </trkpt>
      <trkpt lat="47.06644" lon="-1.7385">
        <ele>11.098</ele>
        <time>2011-09-25T06:52:57Z</time>
      </trkpt>
      <trkpt lat="47.06638" lon="-1.73856">
        <ele>11.097</ele>
        <time>2011-09-25T06:52:59Z</time>
      </trkpt>
      <trkpt lat="47.06629" lon="-1.73865">
        <ele>11.097</ele>
        <time>2011-09-25T06:53:02Z</time>
      </trkpt>
      <trkpt lat="47.06623" lon="-1.7387">
        <ele>11.097</ele>
        <time>2011-09-25T06:53:04Z</time>
      </trkpt>
      <trkpt lat="47.06614" lon="-1.73878">
        <ele>10.959</ele>
        <time>2011-09-25T06:53:07Z</time>
      </trkpt>
      <trkpt lat="47.06607" lon="-1.73883">
        <ele>10.599</ele>
        <time>2011-09-25T06:53:09Z</time>
      </trkpt>
      <trkpt lat="47.06598" lon="-1.7389">
        <ele>10.23</ele>
        <time>2011-09-25T06:53:12Z</time>
      </trkpt>
      <trkpt lat="47.06592" lon="-1.73896">
        <ele>10.054</ele>
        <time>2011-09-25T06:53:14Z</time>
      </trkpt>
      <trkpt lat="47.06583" lon="-1.73905">
        <ele>10.166</ele>
        <time>2011-09-25T06:53:17Z</time>
      </trkpt>
      <trkpt lat="47.06574" lon="-1.73913">
        <ele>10.418</ele>
        <time>2011-09-25T06:53:20Z</time>
      </trkpt>
      <trkpt lat="47.06564" lon="-1.73921">
        <ele>10.595</ele>
        <time>2011-09-25T06:53:23Z</time>
      </trkpt>
      <trkpt lat="47.06555" lon="-1.7393">
        <ele>10.775</ele>
        <time>2011-09-25T06:53:26Z</time>
      </trkpt>
      <trkpt lat="47.06546" lon="-1.73938">
        <ele>10.997</ele>
        <time>2011-09-25T06:53:29Z</time>
      </trkpt>
      <trkpt lat="47.06539" lon="-1.73943">
        <ele>11.114</ele>
        <time>2011-09-25T06:53:31Z</time>
      </trkpt>
      <trkpt lat="47.0653" lon="-1.73951">
        <ele>11.138</ele>
        <time>2011-09-25T06:53:34Z</time>
      </trkpt>
      <trkpt lat="47.06524" lon="-1.73956">
        <ele>11.122</ele>
        <time>2011-09-25T06:53:36Z</time>
      </trkpt>
      <trkpt lat="47.06514" lon="-1.73965">
        <ele>11.104</ele>
        <time>2011-09-25T06:53:39Z</time>
      </trkpt>
      <trkpt lat="47.06505" lon="-1.73974">
        <ele>11.095</ele>
        <time>2011-09-25T06:53:42Z</time>
      </trkpt>
      <trkpt lat="47.06498" lon="-1.73979">
        <ele>10.955</ele>
        <time>2011-09-25T06:53:44Z</time>
      </trkpt>
      <trkpt lat="47.06488" lon="-1.73986">
        <ele>10.596</ele>
        <time>2011-09-25T06:53:47Z</time>
      </trkpt>
      <trkpt lat="47.06482" lon="-1.73992">
        <ele>10.228</ele>
        <time>2011-09-25T06:53:49Z</time>
      </trkpt>
      <trkpt lat="47.06473" lon="-1.74001">
        <ele>10.053</ele>
        <time>2011-09-25T06:53:52Z</time>
      </trkpt>
      <trkpt lat="47.06463" lon="-1.74011">
        <ele>10.027</ele>
        <time>2011-09-25T06:53:55Z</time>
      </trkpt>
      <trkpt lat="47.06457" lon="-1.74018">
        <ele>10.057</ele>
        <time>2011-09-25T06:53:57Z</time>
      </trkpt>
      <trkpt lat="47.0645" lon="-1.74024">
        <ele>10.087</ele>
        <time>2011-09-25T06:53:59Z</time>
      </trkpt>
      <trkpt lat="47.06441" lon="-1.74033">
        <ele>10.239</ele>
        <time>2011-09-25T06:54:02Z</time>
      </trkpt>
      <trkpt lat="47.06431" lon="-1.74042">
        <ele>10.6</ele>
        <time>2011-09-25T06:54:05Z</time>
      </trkpt>
      <trkpt lat="47.06421" lon="-1.74052">
        <ele>10.967</ele>
        <time>2011-09-25T06:54:08Z</time>
      </trkpt>
      <trkpt lat="47.06414" lon="-1.74058">
        <ele>11.14</ele>
        <time>2011-09-25T06:54:10Z</time>
      </trkpt>
      <trkpt lat="47.06407" lon="-1.74064">
        <ele>11.027</ele>
        <time>2011-09-25T06:54:12Z</time>
      </trkpt>
      <trkpt lat="47.06397" lon="-1.74073">
        <ele>10.637</ele>
        <time>2011-09-25T06:54:15Z</time>
      </trkpt>
      <trkpt lat="47.06391" lon="-1.7408">
        <ele>10.099</ele>
        <time>2011-09-25T06:54:17Z</time>
      </trkpt>
      <trkpt lat="47.06382" lon="-1.7409">
        <ele>9.55</ele>
        <time>2011-09-25T06:54:20Z</time>
      </trkpt>
      <trkpt lat="47.06371" lon="-1.74099">
        <ele>9.152</ele>
        <time>2011-09-25T06:54:23Z</time>
      </trkpt>
      <trkpt lat="47.06361" lon="-1.74108">
        <ele>9.009</ele>
        <time>2011-09-25T06:54:26Z</time>
      </trkpt>
      <trkpt lat="47.06355" lon="-1.74115">
        <ele>9.015</ele>
        <time>2011-09-25T06:54:28Z</time>
      </trkpt>
      <trkpt lat="47.06345" lon="-1.74124">
        <ele>9.061</ele>
        <time>2011-09-25T06:54:31Z</time>
      </trkpt>
      <trkpt lat="47.06338" lon="-1.74131">
        <ele>9.093</ele>
        <time>2011-09-25T06:54:33Z</time>
      </trkpt>
      <trkpt lat="47.06328" lon="-1.74141">
        <ele>9.104</ele>
        <time>2011-09-25T06:54:36Z</time>
      </trkpt>
      <trkpt lat="47.06318" lon="-1.7415">
        <ele>9.103</ele>
        <time>2011-09-25T06:54:39Z</time>
      </trkpt>
      <trkpt lat="47.06311" lon="-1.74155">
        <ele>9.238</ele>
        <time>2011-09-25T06:54:41Z</time>
      </trkpt>
      <trkpt lat="47.063" lon="-1.74164">
        <ele>9.595</ele>
        <time>2011-09-25T06:54:44Z</time>
      </trkpt>
      <trkpt lat="47.06293" lon="-1.7417">
        <ele>9.963</ele>
        <time>2011-09-25T06:54:46Z</time>
      </trkpt>
      <trkpt lat="47.06283" lon="-1.74179">
        <ele>10.138</ele>
        <time>2011-09-25T06:54:49Z</time>
      </trkpt>
      <trkpt lat="47.06277" lon="-1.74185">
        <ele>10.165</ele>
        <time>2011-09-25T06:54:51Z</time>
      </trkpt>
      <trkpt lat="47.06267" lon="-1.74194">
        <ele>10.135</ele>
        <time>2011-09-25T06:54:54Z</time>
      </trkpt>
      <trkpt lat="47.06257" lon="-1.74203">
        <ele>10.105</ele>
        <time>2011-09-25T06:54:57Z</time>
      </trkpt>
      <trkpt lat="47.06247" lon="-1.74211">
        <ele>10.091</ele>
        <time>2011-09-25T06:55:00Z</time>
      </trkpt>
      <trkpt lat="47.0624" lon="-1.74217">
        <ele>10.089</ele>
        <time>2011-09-25T06:55:02Z</time>
      </trkpt>
      <trkpt lat="47.06234" lon="-1.74223">
        <ele>10.092</ele>
        <time>2011-09-25T06:55:04Z</time>
      </trkpt>
      <trkpt lat="47.06224" lon="-1.74232">
        <ele>10.094</ele>
        <time>2011-09-25T06:55:07Z</time>
      </trkpt>
      <trkpt lat="47.06214" lon="-1.74241">
        <ele>10.095</ele>
        <time>2011-09-25T06:55:10Z</time>
      </trkpt>
      <trkpt lat="47.06208" lon="-1.74248">
        <ele>10.095</ele>
        <time>2011-09-25T06:55:12Z</time>
      </trkpt>
      <trkpt lat="47.06198" lon="-1.74258">
        <ele>10.094</ele>
        <time>2011-09-25T06:55:15Z</time>
      </trkpt>
      <trkpt lat="47.06188" lon="-1.74268">
        <ele>9.956</ele>
        <time>2011-09-25T06:55:18Z</time>
      </trkpt>
      <trkpt lat="47.06178" lon="-1.74277">
        <ele>9.596</ele>
        <time>2011-09-25T06:55:21Z</time>
      </trkpt>
      <trkpt lat="47.06167" lon="-1.74287">
        <ele>9.226</ele>
        <time>2011-09-25T06:55:24Z</time>
      </trkpt>
      <trkpt lat="47.06157" lon="-1.74297">
        <ele>9.051</ele>
        <time>2011-09-25T06:55:27Z</time>
      </trkpt>
      <trkpt lat="47.06146" lon="-1.74306">
        <ele>9.025</ele>
        <time>2011-09-25T06:55:30Z</time>
      </trkpt>
      <trkpt lat="47.06136" lon="-1.74316">
        <ele>9.055</ele>
        <time>2011-09-25T06:55:33Z</time>
      </trkpt>
      <trkpt lat="47.06126" lon="-1.74325">
        <ele>9.085</ele>
        <time>2011-09-25T06:55:36Z</time>
      </trkpt>
      <trkpt lat="47.06116" lon="-1.74334">
        <ele>9.237</ele>
        <time>2011-09-25T06:55:39Z</time>
      </trkpt>
      <trkpt lat="47.06109" lon="-1.74341">
        <ele>9.598</ele>
        <time>2011-09-25T06:55:41Z</time>
      </trkpt>
      <trkpt lat="47.06103" lon="-1.74347">
        <ele>9.965</ele>
        <time>2011-09-25T06:55:43Z</time>
      </trkpt>
      <trkpt lat="47.06097" lon="-1.74358">
        <ele>10.138</ele>
        <time>2011-09-25T06:55:46Z</time>
      </trkpt>
      <trkpt lat="47.06099" lon="-1.74367">
        <ele>10.163</ele>
        <time>2011-09-25T06:55:48Z</time>
      </trkpt>
      <trkpt lat="47.06103" lon="-1.74374">
        <ele>9.995</ele>
        <time>2011-09-25T06:55:50Z</time>
      </trkpt>
      <trkpt lat="47.06111" lon="-1.74386">
        <ele>9.605</ele>
        <time>2011-09-25T06:55:53Z</time>
      </trkpt>
      <trkpt lat="47.06119" lon="-1.744">
        <ele>9.222</ele>
        <time>2011-09-25T06:55:56Z</time>
      </trkpt>
      <trkpt lat="47.06127" lon="-1.74414">
        <ele>9.044</ele>
        <time>2011-09-25T06:55:59Z</time>
      </trkpt>
      <trkpt lat="47.06134" lon="-1.74427">
        <ele>8.882</ele>
        <time>2011-09-25T06:56:02Z</time>
      </trkpt>
      <trkpt lat="47.06139" lon="-1.74436">
        <ele>8.554</ele>
        <time>2011-09-25T06:56:04Z</time>
      </trkpt>
      <trkpt lat="47.06144" lon="-1.74445">
        <ele>8.216</ele>
        <time>2011-09-25T06:56:06Z</time>
      </trkpt>
      <trkpt lat="47.06151" lon="-1.74457">
        <ele>8.055</ele>
        <time>2011-09-25T06:56:09Z</time>
      </trkpt>
      <trkpt lat="47.06158" lon="-1.74468">
        <ele>7.892</ele>
        <time>2011-09-25T06:56:12Z</time>
      </trkpt>
      <trkpt lat="47.06164" lon="-1.74479">
        <ele>7.559</ele>
        <time>2011-09-25T06:56:15Z</time>
      </trkpt>
      <trkpt lat="47.06167" lon="-1.74485">
        <ele>7.217</ele>
        <time>2011-09-25T06:56:17Z</time>
      </trkpt>
      <trkpt lat="47.06171" lon="-1.74495">
        <ele>7.055</ele>
        <time>2011-09-25T06:56:20Z</time>
      </trkpt>
      <trkpt lat="47.06175" lon="-1.74502">
        <ele>7.169</ele>
        <time>2011-09-25T06:56:22Z</time>
      </trkpt>
      <trkpt lat="47.0618" lon="-1.74513">
        <ele>7.556</ele>
        <time>2011-09-25T06:56:25Z</time>
      </trkpt>
      <trkpt lat="47.06184" lon="-1.74521">
        <ele>7.953</ele>
        <time>2011-09-25T06:56:27Z</time>
      </trkpt>
      <trkpt lat="47.0619" lon="-1.74533">
        <ele>8.28</ele>
        <time>2011-09-25T06:56:30Z</time>
      </trkpt>
      <trkpt lat="47.06194" lon="-1.74541">
        <ele>8.668</ele>
        <time>2011-09-25T06:56:32Z</time>
      </trkpt>
      <trkpt lat="47.06199" lon="-1.74553">
        <ele>9.005</ele>
        <time>2011-09-25T06:56:35Z</time>
      </trkpt>
      <trkpt lat="47.06205" lon="-1.74565">
        <ele>9.148</ele>
        <time>2011-09-25T06:56:38Z</time>
      </trkpt>
      <trkpt lat="47.06211" lon="-1.74575">
        <ele>9.159</ele>
        <time>2011-09-25T06:56:41Z</time>
      </trkpt>
      <trkpt lat="47.06216" lon="-1.74586">
        <ele>9.127</ele>
        <time>2011-09-25T06:56:44Z</time>
      </trkpt>
      <trkpt lat="47.06218" lon="-1.74594">
        <ele>9.099</ele>
        <time>2011-09-25T06:56:46Z</time>
      </trkpt>
      <trkpt lat="47.06222" lon="-1.74601">
        <ele>9.088</ele>
        <time>2011-09-25T06:56:48Z</time>
      </trkpt>
      <trkpt lat="47.06228" lon="-1.74614">
        <ele>9.087</ele>
        <time>2011-09-25T06:56:51Z</time>
      </trkpt>
      <trkpt lat="47.06232" lon="-1.74623">
        <ele>9.09</ele>
        <time>2011-09-25T06:56:53Z</time>
      </trkpt>
      <trkpt lat="47.06238" lon="-1.74635">
        <ele>9.092</ele>
        <time>2011-09-25T06:56:56Z</time>
      </trkpt>
      <trkpt lat="47.06245" lon="-1.74647">
        <ele>9.231</ele>
        <time>2011-09-25T06:56:59Z</time>
      </trkpt>
      <trkpt lat="47.06249" lon="-1.74655">
        <ele>9.591</ele>
        <time>2011-09-25T06:57:01Z</time>
      </trkpt>
      <trkpt lat="47.06256" lon="-1.74667">
        <ele>9.96</ele>
        <time>2011-09-25T06:57:04Z</time>
      </trkpt>
      <trkpt lat="47.0626" lon="-1.74675">
        <ele>10.135</ele>
        <time>2011-09-25T06:57:06Z</time>
      </trkpt>
      <trkpt lat="47.06266" lon="-1.74688">
        <ele>10.161</ele>
        <time>2011-09-25T06:57:09Z</time>
      </trkpt>
      <trkpt lat="47.06274" lon="-1.74701">
        <ele>10.131</ele>
        <time>2011-09-25T06:57:12Z</time>
      </trkpt>
      <trkpt lat="47.06283" lon="-1.74714">
        <ele>9.963</ele>
        <time>2011-09-25T06:57:15Z</time>
      </trkpt>
      <trkpt lat="47.06291" lon="-1.74727">
        <ele>9.589</ele>
        <time>2011-09-25T06:57:18Z</time>
      </trkpt>
      <trkpt lat="47.06299" lon="-1.7474">
        <ele>9.217</ele>
        <time>2011-09-25T06:57:21Z</time>
      </trkpt>
      <trkpt lat="47.06303" lon="-1.7475">
        <ele>9.044</ele>
        <time>2011-09-25T06:57:23Z</time>
      </trkpt>
      <trkpt lat="47.06306" lon="-1.7476">
        <ele>9.02</ele>
        <time>2011-09-25T06:57:25Z</time>
      </trkpt>
      <trkpt lat="47.0631" lon="-1.74776">
        <ele>9.051</ele>
        <time>2011-09-25T06:57:28Z</time>
      </trkpt>
      <trkpt lat="47.06313" lon="-1.74783">
        <ele>9.081</ele>
        <time>2011-09-25T06:57:30Z</time>
      </trkpt>
      <trkpt lat="47.06319" lon="-1.74786">
        <ele>8.957</ele>
        <time>2011-09-25T06:57:32Z</time>
      </trkpt>
      <trkpt lat="47.06328" lon="-1.74786">
        <ele>8.599</ele>
        <time>2011-09-25T06:57:35Z</time>
      </trkpt>
      <trkpt lat="47.06335" lon="-1.74785">
        <ele>8.227</ele>
        <time>2011-09-25T06:57:37Z</time>
      </trkpt>
      <trkpt lat="47.06343" lon="-1.74781">
        <ele>8.049</ele>
        <time>2011-09-25T06:57:40Z</time>
      </trkpt>
      <trkpt lat="47.06349" lon="-1.74778">
        <ele>8.022</ele>
        <time>2011-09-25T06:57:42Z</time>
      </trkpt>
      <trkpt lat="47.06359" lon="-1.74775">
        <ele>8.051</ele>
        <time>2011-09-25T06:57:45Z</time>
      </trkpt>
      <trkpt lat="47.06366" lon="-1.74774">
        <ele>8.082</ele>
        <time>2011-09-25T06:57:47Z</time>
      </trkpt>
      <trkpt lat="47.06373" lon="-1.74774">
        <ele>8.096</ele>
        <time>2011-09-25T06:57:49Z</time>
      </trkpt>
      <trkpt lat="47.06384" lon="-1.74777">
        <ele>7.96</ele>
        <time>2011-09-25T06:57:52Z</time>
      </trkpt>
      <trkpt lat="47.06391" lon="-1.74778">
        <ele>7.598</ele>
        <time>2011-09-25T06:57:54Z</time>
      </trkpt>
      <trkpt lat="47.06401" lon="-1.7478">
        <ele>7.226</ele>
        <time>2011-09-25T06:57:57Z</time>
      </trkpt>
      <trkpt lat="47.06412" lon="-1.74782">
        <ele>7.049</ele>
        <time>2011-09-25T06:58:00Z</time>
      </trkpt>
      <trkpt lat="47.06423" lon="-1.74786">
        <ele>7.023</ele>
        <time>2011-09-25T06:58:03Z</time>
      </trkpt>
      <trkpt lat="47.06435" lon="-1.74791">
        <ele>7.053</ele>
        <time>2011-09-25T06:58:06Z</time>
      </trkpt>
      <trkpt lat="47.06444" lon="-1.74791">
        <ele>7.083</ele>
        <time>2011-09-25T06:58:08Z</time>
      </trkpt>
      <trkpt lat="47.06457" lon="-1.74787">
        <ele>7.097</ele>
        <time>2011-09-25T06:58:11Z</time>
      </trkpt>
      <trkpt lat="47.06466" lon="-1.74783">
        <ele>7.238</ele>
        <time>2011-09-25T06:58:13Z</time>
      </trkpt>
      <trkpt lat="47.06475" lon="-1.7478">
        <ele>7.595</ele>
        <time>2011-09-25T06:58:15Z</time>
      </trkpt>
      <trkpt lat="47.06487" lon="-1.74777">
        <ele>7.962</ele>
        <time>2011-09-25T06:58:18Z</time>
      </trkpt>
      <trkpt lat="47.065" lon="-1.74778">
        <ele>7.998</ele>
        <time>2011-09-25T06:58:21Z</time>
      </trkpt>
      <trkpt lat="47.06509" lon="-1.74781">
        <ele>7.664</ele>
        <time>2011-09-25T06:58:23Z</time>
      </trkpt>
      <trkpt lat="47.06521" lon="-1.74788">
        <ele>7.265</ele>
        <time>2011-09-25T06:58:26Z</time>
      </trkpt>
      <trkpt lat="47.06532" lon="-1.74796">
        <ele>7.06</ele>
        <time>2011-09-25T06:58:29Z</time>
      </trkpt>
      <trkpt lat="47.06543" lon="-1.74801">
        <ele>7.02</ele>
        <time>2011-09-25T06:58:32Z</time>
      </trkpt>
      <trkpt lat="47.06554" lon="-1.74806">
        <ele>7.048</ele>
        <time>2011-09-25T06:58:35Z</time>
      </trkpt>
      <trkpt lat="47.06565" lon="-1.74812">
        <ele>7.08</ele>
        <time>2011-09-25T06:58:38Z</time>
      </trkpt>
      <trkpt lat="47.06573" lon="-1.74815">
        <ele>7.097</ele>
        <time>2011-09-25T06:58:40Z</time>
      </trkpt>
      <trkpt lat="47.06581" lon="-1.74817">
        <ele>7.1</ele>
        <time>2011-09-25T06:58:42Z</time>
      </trkpt>
      <trkpt lat="47.06593" lon="-1.74815">
        <ele>7.098</ele>
        <time>2011-09-25T06:58:45Z</time>
      </trkpt>
      <trkpt lat="47.06606" lon="-1.74809">
        <ele>7.095</ele>
        <time>2011-09-25T06:58:48Z</time>
      </trkpt>
      <trkpt lat="47.06622" lon="-1.74802">
        <ele>7.094</ele>
        <time>2011-09-25T06:58:51Z</time>
      </trkpt>
      <trkpt lat="47.06637" lon="-1.74794">
        <ele>7.093</ele>
        <time>2011-09-25T06:58:54Z</time>
      </trkpt>
      <trkpt lat="47.06653" lon="-1.74787">
        <ele>7.232</ele>
        <time>2011-09-25T06:58:57Z</time>
      </trkpt>
      <trkpt lat="47.06669" lon="-1.74779">
        <ele>7.73</ele>
        <time>2011-09-25T06:59:00Z</time>
      </trkpt>
      <trkpt lat="47.06679" lon="-1.74775">
        <ele>8.598</ele>
        <time>2011-09-25T06:59:02Z</time>
      </trkpt>
      <trkpt lat="47.06695" lon="-1.74769">
        <ele>9.502</ele>
        <time>2011-09-25T06:59:05Z</time>
      </trkpt>
      <trkpt lat="47.06706" lon="-1.74767">
        <ele>10.074</ele>
        <time>2011-09-25T06:59:07Z</time>
      </trkpt>
      <trkpt lat="47.06722" lon="-1.74772">
        <ele>10.245</ele>
        <time>2011-09-25T06:59:10Z</time>
      </trkpt>
      <trkpt lat="47.06733" lon="-1.74778">
        <ele>10.074</ele>
        <time>2011-09-25T06:59:12Z</time>
      </trkpt>
      <trkpt lat="47.0675" lon="-1.74789">
        <ele>9.64</ele>
        <time>2011-09-25T06:59:15Z</time>
      </trkpt>
      <trkpt lat="47.06761" lon="-1.74798">
        <ele>9.224</ele>
        <time>2011-09-25T06:59:17Z</time>
      </trkpt>
      <trkpt lat="47.06775" lon="-1.74812">
        <ele>9.036</ele>
        <time>2011-09-25T06:59:20Z</time>
      </trkpt>
      <trkpt lat="47.06788" lon="-1.74826">
        <ele>9.012</ele>
        <time>2011-09-25T06:59:23Z</time>
      </trkpt>
      <trkpt lat="47.06796" lon="-1.74835">
        <ele>9.048</ele>
        <time>2011-09-25T06:59:25Z</time>
      </trkpt>
      <trkpt lat="47.06805" lon="-1.74841">
        <ele>9.082</ele>
        <time>2011-09-25T06:59:27Z</time>
      </trkpt>
      <trkpt lat="47.06814" lon="-1.74841">
        <ele>9.097</ele>
        <time>2011-09-25T06:59:29Z</time>
      </trkpt>
      <trkpt lat="47.06829" lon="-1.74841">
        <ele>9.099</ele>
        <time>2011-09-25T06:59:32Z</time>
      </trkpt>
      <trkpt lat="47.06844" lon="-1.74842">
        <ele>9.096</ele>
        <time>2011-09-25T06:59:35Z</time>
      </trkpt>
      <trkpt lat="47.06859" lon="-1.74843">
        <ele>9.093</ele>
        <time>2011-09-25T06:59:38Z</time>
      </trkpt>
      <trkpt lat="47.06874" lon="-1.74844">
        <ele>9.23</ele>
        <time>2011-09-25T06:59:41Z</time>
      </trkpt>
      <trkpt lat="47.06889" lon="-1.74846">
        <ele>9.589</ele>
        <time>2011-09-25T06:59:44Z</time>
      </trkpt>
      <trkpt lat="47.06905" lon="-1.74848">
        <ele>10.097</ele>
        <time>2011-09-25T06:59:47Z</time>
      </trkpt>
      <trkpt lat="47.0692" lon="-1.74851">
        <ele>10.633</ele>
        <time>2011-09-25T06:59:50Z</time>
      </trkpt>
      <trkpt lat="47.06936" lon="-1.74854">
        <ele>11.167</ele>
        <time>2011-09-25T06:59:53Z</time>
      </trkpt>
      <trkpt lat="47.06952" lon="-1.74857">
        <ele>11.672</ele>
        <time>2011-09-25T06:59:56Z</time>
      </trkpt>
      <trkpt lat="47.06969" lon="-1.74856">
        <ele>12.038</ele>
        <time>2011-09-25T06:59:59Z</time>
      </trkpt>
      <trkpt lat="47.06986" lon="-1.74851">
        <ele>12.169</ele>
        <time>2011-09-25T07:00:02Z</time>
      </trkpt>
      <trkpt lat="47.06997" lon="-1.74847">
        <ele>12.164</ele>
        <time>2011-09-25T07:00:04Z</time>
      </trkpt>
      <trkpt lat="47.07008" lon="-1.7484">
        <ele>11.984</ele>
        <time>2011-09-25T07:00:06Z</time>
      </trkpt>
      <trkpt lat="47.07026" lon="-1.74834">
        <ele>11.595</ele>
        <time>2011-09-25T07:00:09Z</time>
      </trkpt>
      <trkpt lat="47.07044" lon="-1.74833">
        <ele>11.215</ele>
        <time>2011-09-25T07:00:12Z</time>
      </trkpt>
      <trkpt lat="47.07062" lon="-1.74833">
        <ele>11.04</ele>
        <time>2011-09-25T07:00:15Z</time>
      </trkpt>
      <trkpt lat="47.07079" lon="-1.74834">
        <ele>11.017</ele>
        <time>2011-09-25T07:00:18Z</time>
      </trkpt>
      <trkpt lat="47.07096" lon="-1.74835">
        <ele>11.049</ele>
        <time>2011-09-25T07:00:21Z</time>
      </trkpt>
      <trkpt lat="47.07113" lon="-1.74839">
        <ele>11.08</ele>
        <time>2011-09-25T07:00:24Z</time>
      </trkpt>
      <trkpt lat="47.07128" lon="-1.74845">
        <ele>10.956</ele>
        <time>2011-09-25T07:00:27Z</time>
      </trkpt>
      <trkpt lat="47.07144" lon="-1.74851">
        <ele>10.46</ele>
        <time>2011-09-25T07:00:30Z</time>
      </trkpt>
      <trkpt lat="47.0716" lon="-1.74852">
        <ele>9.728</ele>
        <time>2011-09-25T07:00:33Z</time>
      </trkpt>
      <trkpt lat="47.0717" lon="-1.74852">
        <ele>9.181</ele>
        <time>2011-09-25T07:00:35Z</time>
      </trkpt>
      <trkpt lat="47.07184" lon="-1.74855">
        <ele>8.978</ele>
        <time>2011-09-25T07:00:38Z</time>
      </trkpt>
      <trkpt lat="47.07196" lon="-1.74859">
        <ele>8.843</ele>
        <time>2011-09-25T07:00:41Z</time>
      </trkpt>
      <trkpt lat="47.0721" lon="-1.74861">
        <ele>8.544</ele>
        <time>2011-09-25T07:00:44Z</time>
      </trkpt>
      <trkpt lat="47.07226" lon="-1.74857">
        <ele>8.357</ele>
        <time>2011-09-25T07:00:47Z</time>
      </trkpt>
      <trkpt lat="47.07243" lon="-1.74852">
        <ele>8.558</ele>
        <time>2011-09-25T07:00:50Z</time>
      </trkpt>
      <trkpt lat="47.07261" lon="-1.74849">
        <ele>8.9</ele>
        <time>2011-09-25T07:00:53Z</time>
      </trkpt>
      <trkpt lat="47.07279" lon="-1.74851">
        <ele>9.1</ele>
        <time>2011-09-25T07:00:56Z</time>
      </trkpt>
      <trkpt lat="47.07296" lon="-1.74858">
        <ele>9.153</ele>
        <time>2011-09-25T07:00:59Z</time>
      </trkpt>
      <trkpt lat="47.07316" lon="-1.74855">
        <ele>9.275</ele>
        <time>2011-09-25T07:01:02Z</time>
      </trkpt>
      <trkpt lat="47.07328" lon="-1.74853">
        <ele>9.606</ele>
        <time>2011-09-25T07:01:04Z</time>
      </trkpt>
      <trkpt lat="47.0734" lon="-1.74853">
        <ele>9.96</ele>
        <time>2011-09-25T07:01:06Z</time>
      </trkpt>
      <trkpt lat="47.07353" lon="-1.74854">
        <ele>10.131</ele>
        <time>2011-09-25T07:01:08Z</time>
      </trkpt>
      <trkpt lat="47.07373" lon="-1.74859">
        <ele>10.021</ele>
        <time>2011-09-25T07:01:11Z</time>
      </trkpt>
      <trkpt lat="47.07392" lon="-1.74865">
        <ele>9.495</ele>
        <time>2011-09-25T07:01:14Z</time>
      </trkpt>
      <trkpt lat="47.07404" lon="-1.74867">
        <ele>8.737</ele>
        <time>2011-09-25T07:01:16Z</time>
      </trkpt>
      <trkpt lat="47.07416" lon="-1.74868">
        <ele>8.179</ele>
        <time>2011-09-25T07:01:18Z</time>
      </trkpt>
      <trkpt lat="47.07436" lon="-1.74863">
        <ele>7.975</ele>
        <time>2011-09-25T07:01:21Z</time>
      </trkpt>
      <trkpt lat="47.07449" lon="-1.7486">
        <ele>7.98</ele>
        <time>2011-09-25T07:01:23Z</time>
      </trkpt>
      <trkpt lat="47.07468" lon="-1.74856">
        <ele>8.043</ele>
        <time>2011-09-25T07:01:26Z</time>
      </trkpt>
      <trkpt lat="47.07486" lon="-1.74854">
        <ele>8.226</ele>
        <time>2011-09-25T07:01:29Z</time>
      </trkpt>
      <trkpt lat="47.07505" lon="-1.74847">
        <ele>8.603</ele>
        <time>2011-09-25T07:01:32Z</time>
      </trkpt>
      <trkpt lat="47.07518" lon="-1.74841">
        <ele>8.971</ele>
        <time>2011-09-25T07:01:34Z</time>
      </trkpt>
      <trkpt lat="47.07531" lon="-1.74835">
        <ele>9.142</ele>
        <time>2011-09-25T07:01:36Z</time>
      </trkpt>
      <trkpt lat="47.07551" lon="-1.74831">
        <ele>9.303</ele>
        <time>2011-09-25T07:01:39Z</time>
      </trkpt>
      <trkpt lat="47.07563" lon="-1.7483">
        <ele>9.631</ele>
        <time>2011-09-25T07:01:41Z</time>
      </trkpt>
      <trkpt lat="47.07582" lon="-1.74833">
        <ele>9.971</ele>
        <time>2011-09-25T07:01:44Z</time>
      </trkpt>
      <trkpt lat="47.076" lon="-1.74838">
        <ele>10.133</ele>
        <time>2011-09-25T07:01:47Z</time>
      </trkpt>
      <trkpt lat="47.07617" lon="-1.74842">
        <ele>10.157</ele>
        <time>2011-09-25T07:01:50Z</time>
      </trkpt>
      <trkpt lat="47.07629" lon="-1.74844">
        <ele>10.13</ele>
        <time>2011-09-25T07:01:52Z</time>
      </trkpt>
      <trkpt lat="47.0764" lon="-1.74844">
        <ele>10.102</ele>
        <time>2011-09-25T07:01:54Z</time>
      </trkpt>
      <trkpt lat="47.07652" lon="-1.74841">
        <ele>9.951</ele>
        <time>2011-09-25T07:01:56Z</time>
      </trkpt>
      <trkpt lat="47.07669" lon="-1.7484">
        <ele>9.59</ele>
        <time>2011-09-25T07:01:59Z</time>
      </trkpt>
      <trkpt lat="47.0768" lon="-1.74839">
        <ele>9.223</ele>
        <time>2011-09-25T07:02:01Z</time>
      </trkpt>
      <trkpt lat="47.07691" lon="-1.74838">
        <ele>9.05</ele>
        <time>2011-09-25T07:02:03Z</time>
      </trkpt>
      <trkpt lat="47.07708" lon="-1.74831">
        <ele>9.024</ele>
        <time>2011-09-25T07:02:06Z</time>
      </trkpt>
      <trkpt lat="47.07725" lon="-1.74824">
        <ele>9.054</ele>
        <time>2011-09-25T07:02:09Z</time>
      </trkpt>
      <trkpt lat="47.07739" lon="-1.74819">
        <ele>9.084</ele>
        <time>2011-09-25T07:02:12Z</time>
      </trkpt>
      <trkpt lat="47.07748" lon="-1.74812">
        <ele>9.098</ele>
        <time>2011-09-25T07:02:15Z</time>
      </trkpt>
      <trkpt lat="47.07753" lon="-1.74801">
        <ele>9.1</ele>
        <time>2011-09-25T07:02:18Z</time>
      </trkpt>
      <trkpt lat="47.07757" lon="-1.74791">
        <ele>9.098</ele>
        <time>2011-09-25T07:02:21Z</time>
      </trkpt>
      <trkpt lat="47.07763" lon="-1.74781">
        <ele>9.233</ele>
        <time>2011-09-25T07:02:24Z</time>
      </trkpt>
      <trkpt lat="47.07766" lon="-1.74774">
        <ele>9.592</ele>
        <time>2011-09-25T07:02:26Z</time>
      </trkpt>
      <trkpt lat="47.07771" lon="-1.74764">
        <ele>10.1</ele>
        <time>2011-09-25T07:02:29Z</time>
      </trkpt>
      <trkpt lat="47.07775" lon="-1.74759">
        <ele>10.635</ele>
        <time>2011-09-25T07:02:32Z</time>
      </trkpt>
      <trkpt lat="47.07775" lon="-1.74759">
        <ele>11.032</ele>
        <time>2011-09-25T07:02:33Z</time>
      </trkpt>
      <trkpt lat="47.07803" lon="-1.7474">
        <ele>11.177</ele>
        <time>2011-09-25T07:02:52Z</time>
      </trkpt>
      <trkpt lat="47.07803" lon="-1.7474">
        <ele>11.174</ele>
        <time>2011-09-25T07:02:55Z</time>
      </trkpt>
      <trkpt lat="47.07787" lon="-1.74747">
        <ele>11.129</ele>
        <time>2011-09-25T07:03:02Z</time>
      </trkpt>
      <trkpt lat="47.07777" lon="-1.74752">
        <ele>11.097</ele>
        <time>2011-09-25T07:03:05Z</time>
      </trkpt>
      <trkpt lat="47.07771" lon="-1.74744">
        <ele>11.021</ele>
        <time>2011-09-25T07:03:08Z</time>
      </trkpt>
      <trkpt lat="47.07769" lon="-1.74735">
        <ele>10.779</ele>
        <time>2011-09-25T07:03:10Z</time>
      </trkpt>
      <trkpt lat="47.07766" lon="-1.74719">
        <ele>10.418</ele>
        <time>2011-09-25T07:03:13Z</time>
      </trkpt>
      <trkpt lat="47.07764" lon="-1.74711">
        <ele>10.143</ele>
        <time>2011-09-25T07:03:15Z</time>
      </trkpt>
      <trkpt lat="47.07763" lon="-1.74703">
        <ele>10.038</ele>
        <time>2011-09-25T07:03:18Z</time>
      </trkpt>
      <trkpt lat="47.07762" lon="-1.74694">
        <ele>10.038</ele>
        <time>2011-09-25T07:03:21Z</time>
      </trkpt>
      <trkpt lat="47.07761" lon="-1.74687">
        <ele>10.068</ele>
        <time>2011-09-25T07:03:23Z</time>
      </trkpt>
      <trkpt lat="47.07758" lon="-1.74674">
        <ele>10.091</ele>
        <time>2011-09-25T07:03:26Z</time>
      </trkpt>
      <trkpt lat="47.07757" lon="-1.74661">
        <ele>10.099</ele>
        <time>2011-09-25T07:03:29Z</time>
      </trkpt>
      <trkpt lat="47.07756" lon="-1.74649">
        <ele>9.961</ele>
        <time>2011-09-25T07:03:32Z</time>
      </trkpt>
      <trkpt lat="47.07755" lon="-1.74642">
        <ele>9.599</ele>
        <time>2011-09-25T07:03:34Z</time>
      </trkpt>
      <trkpt lat="47.07754" lon="-1.74634">
        <ele>9.228</ele>
        <time>2011-09-25T07:03:36Z</time>
      </trkpt>
      <trkpt lat="47.07753" lon="-1.74617">
        <ele>9.052</ele>
        <time>2011-09-25T07:03:39Z</time>
      </trkpt>
      <trkpt lat="47.07751" lon="-1.746">
        <ele>8.887</ele>
        <time>2011-09-25T07:03:42Z</time>
      </trkpt>
      <trkpt lat="47.0775" lon="-1.7459">
        <ele>8.557</ele>
        <time>2011-09-25T07:03:44Z</time>
      </trkpt>
      <trkpt lat="47.07749" lon="-1.74574">
        <ele>8.08</ele>
        <time>2011-09-25T07:03:47Z</time>
      </trkpt>
      <trkpt lat="47.07748" lon="-1.74557">
        <ele>7.559</ele>
        <time>2011-09-25T07:03:50Z</time>
      </trkpt>
      <trkpt lat="47.07747" lon="-1.7454">
        <ele>7.165</ele>
        <time>2011-09-25T07:03:53Z</time>
      </trkpt>
      <trkpt lat="47.07746" lon="-1.74523">
        <ele>6.88</ele>
        <time>2011-09-25T07:03:56Z</time>
      </trkpt>
      <trkpt lat="47.07744" lon="-1.74505">
        <ele>6.521</ele>
        <time>2011-09-25T07:03:59Z</time>
      </trkpt>
      <trkpt lat="47.07741" lon="-1.74486">
        <ele>6.195</ele>
        <time>2011-09-25T07:04:02Z</time>
      </trkpt>
      <trkpt lat="47.07739" lon="-1.74473">
        <ele>6.052</ele>
        <time>2011-09-25T07:04:04Z</time>
      </trkpt>
      <trkpt lat="47.07736" lon="-1.74455">
        <ele>6.037</ele>
        <time>2011-09-25T07:04:07Z</time>
      </trkpt>
      <trkpt lat="47.07734" lon="-1.74443">
        <ele>6.067</ele>
        <time>2011-09-25T07:04:09Z</time>
      </trkpt>
      <trkpt lat="47.07732" lon="-1.74431">
        <ele>6.093</ele>
        <time>2011-09-25T07:04:11Z</time>
      </trkpt>
      <trkpt lat="47.07731" lon="-1.74414">
        <ele>6.105</ele>
        <time>2011-09-25T07:04:14Z</time>
      </trkpt>
      <trkpt lat="47.07735" lon="-1.74398">
        <ele>6.106</ele>
        <time>2011-09-25T07:04:17Z</time>
      </trkpt>
      <trkpt lat="47.07745" lon="-1.74386">
        <ele>6.104</ele>
        <time>2011-09-25T07:04:20Z</time>
      </trkpt>
      <trkpt lat="47.07752" lon="-1.74379">
        <ele>6.102</ele>
        <time>2011-09-25T07:04:22Z</time>
      </trkpt>
      <trkpt lat="47.07758" lon="-1.74372">
        <ele>6.101</ele>
        <time>2011-09-25T07:04:24Z</time>
      </trkpt>
      <trkpt lat="47.07768" lon="-1.74361">
        <ele>5.963</ele>
        <time>2011-09-25T07:04:27Z</time>
      </trkpt>
      <trkpt lat="47.07777" lon="-1.74351">
        <ele>5.603</ele>
        <time>2011-09-25T07:04:30Z</time>
      </trkpt>
      <trkpt lat="47.07787" lon="-1.7434">
        <ele>5.234</ele>
        <time>2011-09-25T07:04:33Z</time>
      </trkpt>
      <trkpt lat="47.07797" lon="-1.74329">
        <ele>5.059</ele>
        <time>2011-09-25T07:04:36Z</time>
      </trkpt>
      <trkpt lat="47.07807" lon="-1.74317">
        <ele>5.032</ele>
        <time>2011-09-25T07:04:39Z</time>
      </trkpt>
      <trkpt lat="47.07818" lon="-1.74305">
        <ele>5.062</ele>
        <time>2011-09-25T07:04:42Z</time>
      </trkpt>
      <trkpt lat="47.07827" lon="-1.74293">
        <ele>5.093</ele>
        <time>2011-09-25T07:04:45Z</time>
      </trkpt>
      <trkpt lat="47.07837" lon="-1.74283">
        <ele>5.107</ele>
        <time>2011-09-25T07:04:48Z</time>
      </trkpt>
      <trkpt lat="47.07846" lon="-1.74272">
        <ele>5.109</ele>
        <time>2011-09-25T07:04:51Z</time>
      </trkpt>
      <trkpt lat="47.07852" lon="-1.74265">
        <ele>5.107</ele>
        <time>2011-09-25T07:04:53Z</time>
      </trkpt>
      <trkpt lat="47.07862" lon="-1.74254">
        <ele>5.105</ele>
        <time>2011-09-25T07:04:56Z</time>
      </trkpt>
      <trkpt lat="47.07868" lon="-1.74247">
        <ele>5.104</ele>
        <time>2011-09-25T07:04:58Z</time>
      </trkpt>
      <trkpt lat="47.07877" lon="-1.74234">
        <ele>5.242</ele>
        <time>2011-09-25T07:05:01Z</time>
      </trkpt>
      <trkpt lat="47.07887" lon="-1.74224">
        <ele>5.602</ele>
        <time>2011-09-25T07:05:04Z</time>
      </trkpt>
      <trkpt lat="47.07893" lon="-1.74217">
        <ele>5.972</ele>
        <time>2011-09-25T07:05:06Z</time>
      </trkpt>
      <trkpt lat="47.07903" lon="-1.74206">
        <ele>6.147</ele>
        <time>2011-09-25T07:05:09Z</time>
      </trkpt>
      <trkpt lat="47.07913" lon="-1.74195">
        <ele>6.173</ele>
        <time>2011-09-25T07:05:12Z</time>
      </trkpt>
      <trkpt lat="47.07924" lon="-1.74182">
        <ele>6.144</ele>
        <time>2011-09-25T07:05:15Z</time>
      </trkpt>
      <trkpt lat="47.07931" lon="-1.74174">
        <ele>6.113</ele>
        <time>2011-09-25T07:05:17Z</time>
      </trkpt>
      <trkpt lat="47.07942" lon="-1.74161">
        <ele>6.1</ele>
        <time>2011-09-25T07:05:20Z</time>
      </trkpt>
      <trkpt lat="47.07953" lon="-1.74147">
        <ele>6.098</ele>
        <time>2011-09-25T07:05:23Z</time>
      </trkpt>
      <trkpt lat="47.0796" lon="-1.74139">
        <ele>6.1</ele>
        <time>2011-09-25T07:05:25Z</time>
      </trkpt>
      <trkpt lat="47.07967" lon="-1.74131">
        <ele>6.103</ele>
        <time>2011-09-25T07:05:27Z</time>
      </trkpt>
      <trkpt lat="47.07977" lon="-1.74119">
        <ele>6.104</ele>
        <time>2011-09-25T07:05:30Z</time>
      </trkpt>
      <trkpt lat="47.07988" lon="-1.74108">
        <ele>6.243</ele>
        <time>2011-09-25T07:05:33Z</time>
      </trkpt>
      <trkpt lat="47.07998" lon="-1.74096">
        <ele>6.603</ele>
        <time>2011-09-25T07:05:36Z</time>
      </trkpt>
      <trkpt lat="47.08005" lon="-1.74088">
        <ele>7.11</ele>
        <time>2011-09-25T07:05:38Z</time>
      </trkpt>
      <trkpt lat="47.08014" lon="-1.74076">
        <ele>7.645</ele>
        <time>2011-09-25T07:05:41Z</time>
      </trkpt>
      <trkpt lat="47.08024" lon="-1.74065">
        <ele>8.041</ele>
        <time>2011-09-25T07:05:44Z</time>
      </trkpt>
      <trkpt lat="47.08033" lon="-1.74054">
        <ele>8.187</ele>
        <time>2011-09-25T07:05:47Z</time>
      </trkpt>
      <trkpt lat="47.08042" lon="-1.74043">
        <ele>8.183</ele>
        <time>2011-09-25T07:05:50Z</time>
      </trkpt>
      <trkpt lat="47.08048" lon="-1.74036">
        <ele>8.277</ele>
        <time>2011-09-25T07:05:52Z</time>
      </trkpt>
      <trkpt lat="47.08058" lon="-1.74024">
        <ele>8.605</ele>
        <time>2011-09-25T07:05:55Z</time>
      </trkpt>
      <trkpt lat="47.08069" lon="-1.7401">
        <ele>8.963</ele>
        <time>2011-09-25T07:05:58Z</time>
      </trkpt>
      <trkpt lat="47.08077" lon="-1.74001">
        <ele>9.139</ele>
        <time>2011-09-25T07:06:00Z</time>
      </trkpt>
      <trkpt lat="47.08084" lon="-1.73991">
        <ele>9.169</ele>
        <time>2011-09-25T07:06:02Z</time>
      </trkpt>
      <trkpt lat="47.08095" lon="-1.73977">
        <ele>9.004</ele>
        <time>2011-09-25T07:06:05Z</time>
      </trkpt>
      <trkpt lat="47.08107" lon="-1.73963">
        <ele>8.615</ele>
        <time>2011-09-25T07:06:08Z</time>
      </trkpt>
      <trkpt lat="47.08114" lon="-1.73955">
        <ele>8.232</ele>
        <time>2011-09-25T07:06:10Z</time>
      </trkpt>
      <trkpt lat="47.08124" lon="-1.73941">
        <ele>8.054</ele>
        <time>2011-09-25T07:06:13Z</time>
      </trkpt>
      <trkpt lat="47.08134" lon="-1.73928">
        <ele>8.03</ele>
        <time>2011-09-25T07:06:16Z</time>
      </trkpt>
      <trkpt lat="47.08141" lon="-1.73919">
        <ele>8.062</ele>
        <time>2011-09-25T07:06:18Z</time>
      </trkpt>
      <trkpt lat="47.08151" lon="-1.73907">
        <ele>8.094</ele>
        <time>2011-09-25T07:06:21Z</time>
      </trkpt>
      <trkpt lat="47.08158" lon="-1.73899">
        <ele>8.108</ele>
        <time>2011-09-25T07:06:23Z</time>
      </trkpt>
      <trkpt lat="47.08168" lon="-1.73887">
        <ele>8.11</ele>
        <time>2011-09-25T07:06:26Z</time>
      </trkpt>
      <trkpt lat="47.08177" lon="-1.73875">
        <ele>8.108</ele>
        <time>2011-09-25T07:06:29Z</time>
      </trkpt>
      <trkpt lat="47.08187" lon="-1.73866">
        <ele>8.105</ele>
        <time>2011-09-25T07:06:32Z</time>
      </trkpt>
      <trkpt lat="47.08196" lon="-1.73856">
        <ele>8.104</ele>
        <time>2011-09-25T07:06:35Z</time>
      </trkpt>
      <trkpt lat="47.08205" lon="-1.73843">
        <ele>8.104</ele>
        <time>2011-09-25T07:06:38Z</time>
      </trkpt>
      <trkpt lat="47.08212" lon="-1.73834">
        <ele>8.104</ele>
        <time>2011-09-25T07:06:40Z</time>
      </trkpt>
      <trkpt lat="47.08223" lon="-1.7382">
        <ele>8.243</ele>
        <time>2011-09-25T07:06:43Z</time>
      </trkpt>
      <trkpt lat="47.08233" lon="-1.73806">
        <ele>8.603</ele>
        <time>2011-09-25T07:06:46Z</time>
      </trkpt>
      <trkpt lat="47.0824" lon="-1.73798">
        <ele>8.973</ele>
        <time>2011-09-25T07:06:48Z</time>
      </trkpt>
      <trkpt lat="47.08246" lon="-1.7379">
        <ele>9.148</ele>
        <time>2011-09-25T07:06:50Z</time>
      </trkpt>
      <trkpt lat="47.08256" lon="-1.73777">
        <ele>9.175</ele>
        <time>2011-09-25T07:06:53Z</time>
      </trkpt>
      <trkpt lat="47.08266" lon="-1.73765">
        <ele>9.145</ele>
        <time>2011-09-25T07:06:56Z</time>
      </trkpt>
      <trkpt lat="47.08273" lon="-1.73756">
        <ele>9.115</ele>
        <time>2011-09-25T07:06:58Z</time>
      </trkpt>
      <trkpt lat="47.08283" lon="-1.73743">
        <ele>9.101</ele>
        <time>2011-09-25T07:07:01Z</time>
      </trkpt>
      <trkpt lat="47.08292" lon="-1.73731">
        <ele>9.099</ele>
        <time>2011-09-25T07:07:04Z</time>
      </trkpt>
      <trkpt lat="47.08299" lon="-1.73723">
        <ele>9.101</ele>
        <time>2011-09-25T07:07:06Z</time>
      </trkpt>
      <trkpt lat="47.08308" lon="-1.73711">
        <ele>9.104</ele>
        <time>2011-09-25T07:07:09Z</time>
      </trkpt>
      <trkpt lat="47.08314" lon="-1.73702">
        <ele>9.105</ele>
        <time>2011-09-25T07:07:11Z</time>
      </trkpt>
      <trkpt lat="47.08324" lon="-1.73689">
        <ele>9.105</ele>
        <time>2011-09-25T07:07:14Z</time>
      </trkpt>
      <trkpt lat="47.0833" lon="-1.73681">
        <ele>9.105</ele>
        <time>2011-09-25T07:07:16Z</time>
      </trkpt>
      <trkpt lat="47.08337" lon="-1.73672">
        <ele>9.105</ele>
        <time>2011-09-25T07:07:18Z</time>
      </trkpt>
      <trkpt lat="47.08343" lon="-1.73664">
        <ele>9.105</ele>
        <time>2011-09-25T07:07:20Z</time>
      </trkpt>
      <trkpt lat="47.08354" lon="-1.73652">
        <ele>9.105</ele>
        <time>2011-09-25T07:07:23Z</time>
      </trkpt>
      <trkpt lat="47.0836" lon="-1.73643">
        <ele>9.106</ele>
        <time>2011-09-25T07:07:25Z</time>
      </trkpt>
      <trkpt lat="47.08367" lon="-1.73634">
        <ele>9.106</ele>
        <time>2011-09-25T07:07:27Z</time>
      </trkpt>
      <trkpt lat="47.08378" lon="-1.73621">
        <ele>9.106</ele>
        <time>2011-09-25T07:07:30Z</time>
      </trkpt>
      <trkpt lat="47.08385" lon="-1.73611">
        <ele>9.106</ele>
        <time>2011-09-25T07:07:32Z</time>
      </trkpt>
      <trkpt lat="47.08397" lon="-1.73597">
        <ele>9.106</ele>
        <time>2011-09-25T07:07:35Z</time>
      </trkpt>
      <trkpt lat="47.08405" lon="-1.73586">
        <ele>9.106</ele>
        <time>2011-09-25T07:07:37Z</time>
      </trkpt>
      <trkpt lat="47.08413" lon="-1.73576">
        <ele>9.106</ele>
        <time>2011-09-25T07:07:39Z</time>
      </trkpt>
      <trkpt lat="47.08426" lon="-1.7356">
        <ele>9.106</ele>
        <time>2011-09-25T07:07:42Z</time>
      </trkpt>
      <trkpt lat="47.08438" lon="-1.73545">
        <ele>8.968</ele>
        <time>2011-09-25T07:07:45Z</time>
      </trkpt>
      <trkpt lat="47.0845" lon="-1.7353">
        <ele>8.608</ele>
        <time>2011-09-25T07:07:48Z</time>
      </trkpt>
      <trkpt lat="47.08461" lon="-1.73516">
        <ele>8.239</ele>
        <time>2011-09-25T07:07:51Z</time>
      </trkpt>
      <trkpt lat="47.08472" lon="-1.73502">
        <ele>8.064</ele>
        <time>2011-09-25T07:07:54Z</time>
      </trkpt>
      <trkpt lat="47.08479" lon="-1.73494">
        <ele>8.038</ele>
        <time>2011-09-25T07:07:56Z</time>
      </trkpt>
      <trkpt lat="47.08491" lon="-1.73482">
        <ele>8.068</ele>
        <time>2011-09-25T07:07:59Z</time>
      </trkpt>
      <trkpt lat="47.085" lon="-1.73471">
        <ele>8.098</ele>
        <time>2011-09-25T07:08:02Z</time>
      </trkpt>
      <trkpt lat="47.0851" lon="-1.73458">
        <ele>8.112</ele>
        <time>2011-09-25T07:08:05Z</time>
      </trkpt>
      <trkpt lat="47.08516" lon="-1.7345">
        <ele>8.114</ele>
        <time>2011-09-25T07:08:07Z</time>
      </trkpt>
      <trkpt lat="47.08523" lon="-1.73442">
        <ele>8.112</ele>
        <time>2011-09-25T07:08:09Z</time>
      </trkpt>
      <trkpt lat="47.0853" lon="-1.73433">
        <ele>8.11</ele>
        <time>2011-09-25T07:08:11Z</time>
      </trkpt>
      <trkpt lat="47.0854" lon="-1.7342">
        <ele>8.109</ele>
        <time>2011-09-25T07:08:14Z</time>
      </trkpt>
      <trkpt lat="47.08548" lon="-1.73412">
        <ele>8.247</ele>
        <time>2011-09-25T07:08:16Z</time>
      </trkpt>
      <trkpt lat="47.08558" lon="-1.734">
        <ele>8.607</ele>
        <time>2011-09-25T07:08:19Z</time>
      </trkpt>
      <trkpt lat="47.08566" lon="-1.73393">
        <ele>8.977</ele>
        <time>2011-09-25T07:08:21Z</time>
      </trkpt>
      <trkpt lat="47.08577" lon="-1.7338">
        <ele>9.152</ele>
        <time>2011-09-25T07:08:24Z</time>
      </trkpt>
      <trkpt lat="47.08584" lon="-1.73372">
        <ele>9.179</ele>
        <time>2011-09-25T07:08:26Z</time>
      </trkpt>
      <trkpt lat="47.08595" lon="-1.7336">
        <ele>9.149</ele>
        <time>2011-09-25T07:08:29Z</time>
      </trkpt>
      <trkpt lat="47.08606" lon="-1.73348">
        <ele>9.119</ele>
        <time>2011-09-25T07:08:32Z</time>
      </trkpt>
      <trkpt lat="47.08616" lon="-1.73336">
        <ele>8.967</ele>
        <time>2011-09-25T07:08:35Z</time>
      </trkpt>
      <trkpt lat="47.08627" lon="-1.73324">
        <ele>8.605</ele>
        <time>2011-09-25T07:08:38Z</time>
      </trkpt>
      <trkpt lat="47.08637" lon="-1.73312">
        <ele>8.238</ele>
        <time>2011-09-25T07:08:41Z</time>
      </trkpt>
      <trkpt lat="47.08644" lon="-1.73304">
        <ele>7.927</ele>
        <time>2011-09-25T07:08:43Z</time>
      </trkpt>
      <trkpt lat="47.08651" lon="-1.73295">
        <ele>7.542</ele>
        <time>2011-09-25T07:08:45Z</time>
      </trkpt>
      <trkpt lat="47.08658" lon="-1.73287">
        <ele>7.203</ele>
        <time>2011-09-25T07:08:47Z</time>
      </trkpt>
      <trkpt lat="47.08667" lon="-1.73276">
        <ele>7.058</ele>
        <time>2011-09-25T07:08:50Z</time>
      </trkpt>
      <trkpt lat="47.08676" lon="-1.73266">
        <ele>7.045</ele>
        <time>2011-09-25T07:08:53Z</time>
      </trkpt>
      <trkpt lat="47.08686" lon="-1.73256">
        <ele>7.077</ele>
        <time>2011-09-25T07:08:56Z</time>
      </trkpt>
      <trkpt lat="47.08696" lon="-1.73244">
        <ele>7.105</ele>
        <time>2011-09-25T07:08:59Z</time>
      </trkpt>
      <trkpt lat="47.08704" lon="-1.73235">
        <ele>7.117</ele>
        <time>2011-09-25T07:09:01Z</time>
      </trkpt>
      <trkpt lat="47.08715" lon="-1.73222">
        <ele>7.118</ele>
        <time>2011-09-25T07:09:04Z</time>
      </trkpt>
      <trkpt lat="47.08727" lon="-1.73208">
        <ele>7.115</ele>
        <time>2011-09-25T07:09:07Z</time>
      </trkpt>
      <trkpt lat="47.08736" lon="-1.73198">
        <ele>7.113</ele>
        <time>2011-09-25T07:09:09Z</time>
      </trkpt>
      <trkpt lat="47.0875" lon="-1.73182">
        <ele>7.112</ele>
        <time>2011-09-25T07:09:12Z</time>
      </trkpt>
      <trkpt lat="47.08763" lon="-1.73168">
        <ele>7.112</ele>
        <time>2011-09-25T07:09:15Z</time>
      </trkpt>
      <trkpt lat="47.08774" lon="-1.73154">
        <ele>7.113</ele>
        <time>2011-09-25T07:09:18Z</time>
      </trkpt>
      <trkpt lat="47.08786" lon="-1.73141">
        <ele>7.251</ele>
        <time>2011-09-25T07:09:21Z</time>
      </trkpt>
      <trkpt lat="47.08798" lon="-1.73128">
        <ele>7.611</ele>
        <time>2011-09-25T07:09:24Z</time>
      </trkpt>
      <trkpt lat="47.0881" lon="-1.73115">
        <ele>7.981</ele>
        <time>2011-09-25T07:09:27Z</time>
      </trkpt>
      <trkpt lat="47.08821" lon="-1.73103">
        <ele>8.156</ele>
        <time>2011-09-25T07:09:30Z</time>
      </trkpt>
      <trkpt lat="47.08832" lon="-1.73091">
        <ele>8.321</ele>
        <time>2011-09-25T07:09:33Z</time>
      </trkpt>
      <trkpt lat="47.08839" lon="-1.73084">
        <ele>8.651</ele>
        <time>2011-09-25T07:09:35Z</time>
      </trkpt>
      <trkpt lat="47.08849" lon="-1.73085">
        <ele>8.99</ele>
        <time>2011-09-25T07:09:38Z</time>
      </trkpt>
      <trkpt lat="47.08856" lon="-1.73097">
        <ele>9.152</ele>
        <time>2011-09-25T07:09:40Z</time>
      </trkpt>
      <trkpt lat="47.08864" lon="-1.73116">
        <ele>9.176</ele>
        <time>2011-09-25T07:09:43Z</time>
      </trkpt>
      <trkpt lat="47.0887" lon="-1.73127">
        <ele>9.011</ele>
        <time>2011-09-25T07:09:45Z</time>
      </trkpt>
      <trkpt lat="47.08878" lon="-1.73143">
        <ele>8.623</ele>
        <time>2011-09-25T07:09:48Z</time>
      </trkpt>
      <trkpt lat="47.08886" lon="-1.73159">
        <ele>8.103</ele>
        <time>2011-09-25T07:09:51Z</time>
      </trkpt>
      <trkpt lat="47.08895" lon="-1.73174">
        <ele>7.566</ele>
        <time>2011-09-25T07:09:54Z</time>
      </trkpt>
      <trkpt lat="47.08901" lon="-1.73184">
        <ele>7.172</ele>
        <time>2011-09-25T07:09:56Z</time>
      </trkpt>
      <trkpt lat="47.08913" lon="-1.73194">
        <ele>7.029</ele>
        <time>2011-09-25T07:09:59Z</time>
      </trkpt>
      <trkpt lat="47.08927" lon="-1.73202">
        <ele>7.033</ele>
        <time>2011-09-25T07:10:02Z</time>
      </trkpt>
      <trkpt lat="47.0894" lon="-1.7321">
        <ele>7.077</ele>
        <time>2011-09-25T07:10:05Z</time>
      </trkpt>
      <trkpt lat="47.08954" lon="-1.73218">
        <ele>7.109</ele>
        <time>2011-09-25T07:10:08Z</time>
      </trkpt>
      <trkpt lat="47.08967" lon="-1.73226">
        <ele>7.121</ele>
        <time>2011-09-25T07:10:11Z</time>
      </trkpt>
      <trkpt lat="47.0898" lon="-1.73234">
        <ele>7.12</ele>
        <time>2011-09-25T07:10:14Z</time>
      </trkpt>
      <trkpt lat="47.08993" lon="-1.73242">
        <ele>7.116</ele>
        <time>2011-09-25T07:10:17Z</time>
      </trkpt>
      <trkpt lat="47.09004" lon="-1.73253">
        <ele>7.114</ele>
        <time>2011-09-25T07:10:20Z</time>
      </trkpt>
      <trkpt lat="47.09014" lon="-1.73265">
        <ele>7.113</ele>
        <time>2011-09-25T07:10:23Z</time>
      </trkpt>
      <trkpt lat="47.09023" lon="-1.73279">
        <ele>7.113</ele>
        <time>2011-09-25T07:10:26Z</time>
      </trkpt>
      <trkpt lat="47.09026" lon="-1.73289">
        <ele>6.975</ele>
        <time>2011-09-25T07:10:28Z</time>
      </trkpt>
      <trkpt lat="47.0903" lon="-1.73299">
        <ele>6.615</ele>
        <time>2011-09-25T07:10:31Z</time>
      </trkpt>
      <trkpt lat="47.09032" lon="-1.73305">
        <ele>6.246</ele>
        <time>2011-09-25T07:10:33Z</time>
      </trkpt>
      <trkpt lat="47.09038" lon="-1.73315">
        <ele>6.07</ele>
        <time>2011-09-25T07:10:36Z</time>
      </trkpt>
      <trkpt lat="47.09043" lon="-1.73326">
        <ele>6.044</ele>
        <time>2011-09-25T07:10:39Z</time>
      </trkpt>
      <trkpt lat="47.09043" lon="-1.73326">
        <ele>6.063</ele>
        <time>2011-09-25T07:10:40Z</time>
      </trkpt>
      <trkpt lat="47.09072" lon="-1.73333">
        <ele>6.065</ele>
        <time>2011-09-25T07:11:05Z</time>
      </trkpt>
      <trkpt lat="47.09075" lon="-1.73328">
        <ele>6.051</ele>
        <time>2011-09-25T07:11:07Z</time>
      </trkpt>
      <trkpt lat="47.09082" lon="-1.73321">
        <ele>6.039</ele>
        <time>2011-09-25T07:11:10Z</time>
      </trkpt>
      <trkpt lat="47.09107" lon="-1.733">
        <ele>6.322</ele>
        <time>2011-09-25T07:11:20Z</time>
      </trkpt>
      <trkpt lat="47.09114" lon="-1.73295">
        <ele>7.069</ele>
        <time>2011-09-25T07:11:22Z</time>
      </trkpt>
      <trkpt lat="47.0912" lon="-1.73291">
        <ele>7.838</ele>
        <time>2011-09-25T07:11:24Z</time>
      </trkpt>
      <trkpt lat="47.0913" lon="-1.73285">
        <ele>8.341</ele>
        <time>2011-09-25T07:11:27Z</time>
      </trkpt>
      <trkpt lat="47.09139" lon="-1.73278">
        <ele>8.756</ele>
        <time>2011-09-25T07:11:30Z</time>
      </trkpt>
      <trkpt lat="47.09145" lon="-1.73274">
        <ele>9.064</ele>
        <time>2011-09-25T07:11:32Z</time>
      </trkpt>
      <trkpt lat="47.09154" lon="-1.73267">
        <ele>9.176</ele>
        <time>2011-09-25T07:11:35Z</time>
      </trkpt>
      <trkpt lat="47.09163" lon="-1.73261">
        <ele>9.173</ele>
        <time>2011-09-25T07:11:38Z</time>
      </trkpt>
      <trkpt lat="47.09172" lon="-1.73254">
        <ele>9.139</ele>
        <time>2011-09-25T07:11:41Z</time>
      </trkpt>
      <trkpt lat="47.09178" lon="-1.73249">
        <ele>9.115</ele>
        <time>2011-09-25T07:11:43Z</time>
      </trkpt>
      <trkpt lat="47.09187" lon="-1.73242">
        <ele>9.106</ele>
        <time>2011-09-25T07:11:46Z</time>
      </trkpt>
      <trkpt lat="47.09195" lon="-1.73236">
        <ele>9.106</ele>
        <time>2011-09-25T07:11:49Z</time>
      </trkpt>
      <trkpt lat="47.092" lon="-1.73232">
        <ele>9.109</ele>
        <time>2011-09-25T07:11:51Z</time>
      </trkpt>
      <trkpt lat="47.09205" lon="-1.73227">
        <ele>9.111</ele>
        <time>2011-09-25T07:11:53Z</time>
      </trkpt>
      <trkpt lat="47.09213" lon="-1.73221">
        <ele>8.974</ele>
        <time>2011-09-25T07:11:56Z</time>
      </trkpt>
      <trkpt lat="47.09219" lon="-1.73217">
        <ele>8.614</ele>
        <time>2011-09-25T07:11:58Z</time>
      </trkpt>
      <trkpt lat="47.09227" lon="-1.73211">
        <ele>8.244</ele>
        <time>2011-09-25T07:12:01Z</time>
      </trkpt>
      <trkpt lat="47.09232" lon="-1.73206">
        <ele>8.069</ele>
        <time>2011-09-25T07:12:03Z</time>
      </trkpt>
      <trkpt lat="47.09241" lon="-1.73199">
        <ele>8.042</ele>
        <time>2011-09-25T07:12:06Z</time>
      </trkpt>
      <trkpt lat="47.09249" lon="-1.73192">
        <ele>8.073</ele>
        <time>2011-09-25T07:12:09Z</time>
      </trkpt>
      <trkpt lat="47.09257" lon="-1.73183">
        <ele>8.103</ele>
        <time>2011-09-25T07:12:12Z</time>
      </trkpt>
      <trkpt lat="47.09264" lon="-1.73178">
        <ele>8.255</ele>
        <time>2011-09-25T07:12:14Z</time>
      </trkpt>
      <trkpt lat="47.09275" lon="-1.73173">
        <ele>8.617</ele>
        <time>2011-09-25T07:12:17Z</time>
      </trkpt>
      <trkpt lat="47.09286" lon="-1.73165">
        <ele>8.984</ele>
        <time>2011-09-25T07:12:20Z</time>
      </trkpt>
      <trkpt lat="47.09298" lon="-1.73154">
        <ele>9.019</ele>
        <time>2011-09-25T07:12:23Z</time>
      </trkpt>
      <trkpt lat="47.09306" lon="-1.73147">
        <ele>8.684</ele>
        <time>2011-09-25T07:12:25Z</time>
      </trkpt>
      <trkpt lat="47.09319" lon="-1.73136">
        <ele>8.285</ele>
        <time>2011-09-25T07:12:28Z</time>
      </trkpt>
      <trkpt lat="47.09327" lon="-1.7313">
        <ele>8.08</ele>
        <time>2011-09-25T07:12:30Z</time>
      </trkpt>
      <trkpt lat="47.09339" lon="-1.73121">
        <ele>8.04</ele>
        <time>2011-09-25T07:12:33Z</time>
      </trkpt>
      <trkpt lat="47.09346" lon="-1.73115">
        <ele>7.929</ele>
        <time>2011-09-25T07:12:35Z</time>
      </trkpt>
      <trkpt lat="47.09357" lon="-1.73107">
        <ele>7.602</ele>
        <time>2011-09-25T07:12:38Z</time>
      </trkpt>
      <trkpt lat="47.09366" lon="-1.73097">
        <ele>7.249</ele>
        <time>2011-09-25T07:12:41Z</time>
      </trkpt>
      <trkpt lat="47.09374" lon="-1.73086">
        <ele>7.077</ele>
        <time>2011-09-25T07:12:44Z</time>
      </trkpt>
      <trkpt lat="47.0938" lon="-1.73073">
        <ele>7.049</ele>
        <time>2011-09-25T07:12:47Z</time>
      </trkpt>
      <trkpt lat="47.09384" lon="-1.73058">
        <ele>7.076</ele>
        <time>2011-09-25T07:12:50Z</time>
      </trkpt>
      <trkpt lat="47.09387" lon="-1.73042">
        <ele>7.105</ele>
        <time>2011-09-25T07:12:53Z</time>
      </trkpt>
      <trkpt lat="47.09396" lon="-1.73033">
        <ele>7.119</ele>
        <time>2011-09-25T07:12:56Z</time>
      </trkpt>
      <trkpt lat="47.09396" lon="-1.73033">
        <ele>7.121</ele>
        <time>2011-09-25T07:12:58Z</time>
      </trkpt>
      <trkpt lat="47.09415" lon="-1.73046">
        <ele>7.119</ele>
        <time>2011-09-25T07:13:03Z</time>
      </trkpt>
      <trkpt lat="47.09424" lon="-1.73063">
        <ele>7.117</ele>
        <time>2011-09-25T07:13:06Z</time>
      </trkpt>
      <trkpt lat="47.0943" lon="-1.73074">
        <ele>7.115</ele>
        <time>2011-09-25T07:13:08Z</time>
      </trkpt>
      <trkpt lat="47.09438" lon="-1.7309">
        <ele>7.115</ele>
        <time>2011-09-25T07:13:11Z</time>
      </trkpt>
      <trkpt lat="47.09446" lon="-1.73105">
        <ele>7.116</ele>
        <time>2011-09-25T07:13:14Z</time>
      </trkpt>
      <trkpt lat="47.09452" lon="-1.73115">
        <ele>7.254</ele>
        <time>2011-09-25T07:13:16Z</time>
      </trkpt>
      <trkpt lat="47.09463" lon="-1.7313">
        <ele>7.614</ele>
        <time>2011-09-25T07:13:19Z</time>
      </trkpt>
      <trkpt lat="47.09474" lon="-1.73144">
        <ele>7.983</ele>
        <time>2011-09-25T07:13:22Z</time>
      </trkpt>
      <trkpt lat="47.09485" lon="-1.73158">
        <ele>8.297</ele>
        <time>2011-09-25T07:13:25Z</time>
      </trkpt>
      <trkpt lat="47.09492" lon="-1.73166">
        <ele>8.683</ele>
        <time>2011-09-25T07:13:27Z</time>
      </trkpt>
      <trkpt lat="47.09499" lon="-1.73174">
        <ele>9.022</ele>
        <time>2011-09-25T07:13:29Z</time>
      </trkpt>
      <trkpt lat="47.09511" lon="-1.73186">
        <ele>9.167</ele>
        <time>2011-09-25T07:13:32Z</time>
      </trkpt>
      <trkpt lat="47.09522" lon="-1.73199">
        <ele>9.18</ele>
        <time>2011-09-25T07:13:35Z</time>
      </trkpt>
      <trkpt lat="47.09529" lon="-1.73207">
        <ele>9.148</ele>
        <time>2011-09-25T07:13:37Z</time>
      </trkpt>
      <trkpt lat="47.09538" lon="-1.73215">
        <ele>9.12</ele>
        <time>2011-09-25T07:13:39Z</time>
      </trkpt>
      <trkpt lat="47.0955" lon="-1.73228">
        <ele>9.108</ele>
        <time>2011-09-25T07:13:42Z</time>
      </trkpt>
      <trkpt lat="47.0956" lon="-1.7324">
        <ele>9.107</ele>
        <time>2011-09-25T07:13:45Z</time>
      </trkpt>
      <trkpt lat="47.09566" lon="-1.73249">
        <ele>9.11</ele>
        <time>2011-09-25T07:13:48Z</time>
      </trkpt>
      <trkpt lat="47.09578" lon="-1.73279">
        <ele>9.112</ele>
        <time>2011-09-25T07:14:16Z</time>
      </trkpt>
      <trkpt lat="47.09581" lon="-1.73289">
        <ele>9.113</ele>
        <time>2011-09-25T07:14:19Z</time>
      </trkpt>
      <trkpt lat="47.09584" lon="-1.73296">
        <ele>9.113</ele>
        <time>2011-09-25T07:14:21Z</time>
      </trkpt>
      <trkpt lat="47.09588" lon="-1.73305">
        <ele>9.251</ele>
        <time>2011-09-25T07:14:24Z</time>
      </trkpt>
      <trkpt lat="47.09591" lon="-1.73311">
        <ele>9.61</ele>
        <time>2011-09-25T07:14:26Z</time>
      </trkpt>
      <trkpt lat="47.09597" lon="-1.73319">
        <ele>9.98</ele>
        <time>2011-09-25T07:14:29Z</time>
      </trkpt>
      <trkpt lat="47.09602" lon="-1.73327">
        <ele>10.293</ele>
        <time>2011-09-25T07:14:32Z</time>
      </trkpt>
      <trkpt lat="47.09608" lon="-1.73335">
        <ele>10.679</ele>
        <time>2011-09-25T07:14:35Z</time>
      </trkpt>
      <trkpt lat="47.09613" lon="-1.73343">
        <ele>11.019</ele>
        <time>2011-09-25T07:14:38Z</time>
      </trkpt>
      <trkpt lat="47.09617" lon="-1.73352">
        <ele>11.302</ele>
        <time>2011-09-25T07:14:41Z</time>
      </trkpt>
      <trkpt lat="47.09621" lon="-1.73361">
        <ele>11.674</ele>
        <time>2011-09-25T07:14:44Z</time>
      </trkpt>
      <trkpt lat="47.09624" lon="-1.73368">
        <ele>12.012</ele>
        <time>2011-09-25T07:14:47Z</time>
      </trkpt>
      <trkpt lat="47.09627" lon="-1.73375">
        <ele>12.159</ele>
        <time>2011-09-25T07:14:50Z</time>
      </trkpt>
      <trkpt lat="47.09631" lon="-1.7338">
        <ele>12.174</ele>
        <time>2011-09-25T07:14:53Z</time>
      </trkpt>
      <trkpt lat="47.09631" lon="-1.7338">
        <ele>12.151</ele>
        <time>2011-09-25T07:15:06Z</time>
      </trkpt>
      <trkpt lat="47.09631" lon="-1.7338">
        <ele>12.142</ele>
        <time>2011-09-25T07:15:25Z</time>
      </trkpt>
      <trkpt lat="47.09645" lon="-1.73417">
        <ele>12.28</ele>
        <time>2011-09-25T07:17:25Z</time>
      </trkpt>
      <trkpt lat="47.09645" lon="-1.73417">
        <ele>12.629</ele>
        <time>2011-09-25T07:17:37Z</time>
      </trkpt>
      <trkpt lat="47.09645" lon="-1.73417">
        <ele>12.915</ele>
        <time>2011-09-25T07:17:55Z</time>
      </trkpt>
      <trkpt lat="47.09675" lon="-1.73432">
        <ele>12.904</ele>
        <time>2011-09-25T07:18:23Z</time>
      </trkpt>
      <trkpt lat="47.09684" lon="-1.73444">
        <ele>12.747</ele>
        <time>2011-09-25T07:18:26Z</time>
      </trkpt>
      <trkpt lat="47.09689" lon="-1.73459">
        <ele>12.7</ele>
        <time>2011-09-25T07:18:29Z</time>
      </trkpt>
      <trkpt lat="47.09691" lon="-1.73468">
        <ele>13.664</ele>
        <time>2011-09-25T07:18:31Z</time>
      </trkpt>
      <trkpt lat="47.09691" lon="-1.73478">
        <ele>16.007</ele>
        <time>2011-09-25T07:18:33Z</time>
      </trkpt>
      <trkpt lat="47.09691" lon="-1.73489">
        <ele>18.461</ele>
        <time>2011-09-25T07:18:35Z</time>
      </trkpt>
      <trkpt lat="47.0969" lon="-1.73505">
        <ele>19.895</ele>
        <time>2011-09-25T07:18:38Z</time>
      </trkpt>
      <trkpt lat="47.09689" lon="-1.73516">
        <ele>20.412</ele>
        <time>2011-09-25T07:18:40Z</time>
      </trkpt>
      <trkpt lat="47.09687" lon="-1.73527">
        <ele>20.254</ele>
        <time>2011-09-25T07:18:42Z</time>
      </trkpt>
      <trkpt lat="47.09686" lon="-1.73542">
        <ele>19.732</ele>
        <time>2011-09-25T07:18:45Z</time>
      </trkpt>
      <trkpt lat="47.09686" lon="-1.7355">
        <ele>19.246</ele>
        <time>2011-09-25T07:18:47Z</time>
      </trkpt>
      <trkpt lat="47.09684" lon="-1.73562">
        <ele>19.029</ele>
        <time>2011-09-25T07:18:50Z</time>
      </trkpt>
      <trkpt lat="47.09681" lon="-1.73573">
        <ele>19.005</ele>
        <time>2011-09-25T07:18:52Z</time>
      </trkpt>
      <trkpt lat="47.09679" lon="-1.73587">
        <ele>19.048</ele>
        <time>2011-09-25T07:18:54Z</time>
      </trkpt>
      <trkpt lat="47.09678" lon="-1.73604">
        <ele>19.087</ele>
        <time>2011-09-25T07:18:56Z</time>
      </trkpt>
      <trkpt lat="47.09677" lon="-1.73627">
        <ele>19.104</ele>
        <time>2011-09-25T07:18:59Z</time>
      </trkpt>
      <trkpt lat="47.09679" lon="-1.73646">
        <ele>19.106</ele>
        <time>2011-09-25T07:19:02Z</time>
      </trkpt>
      <trkpt lat="47.09681" lon="-1.73663">
        <ele>19.102</ele>
        <time>2011-09-25T07:19:05Z</time>
      </trkpt>
      <trkpt lat="47.09683" lon="-1.73681">
        <ele>19.099</ele>
        <time>2011-09-25T07:19:08Z</time>
      </trkpt>
      <trkpt lat="47.09683" lon="-1.73696">
        <ele>18.96</ele>
        <time>2011-09-25T07:19:10Z</time>
      </trkpt>
      <trkpt lat="47.09681" lon="-1.7371">
        <ele>18.461</ele>
        <time>2011-09-25T07:19:12Z</time>
      </trkpt>
      <trkpt lat="47.09679" lon="-1.73731">
        <ele>17.732</ele>
        <time>2011-09-25T07:19:15Z</time>
      </trkpt>
      <trkpt lat="47.09677" lon="-1.73751">
        <ele>17.187</ele>
        <time>2011-09-25T07:19:18Z</time>
      </trkpt>
      <trkpt lat="47.09677" lon="-1.73771">
        <ele>16.847</ele>
        <time>2011-09-25T07:19:21Z</time>
      </trkpt>
      <trkpt lat="47.09678" lon="-1.73789">
        <ele>16.491</ele>
        <time>2011-09-25T07:19:24Z</time>
      </trkpt>
      <trkpt lat="47.0968" lon="-1.73809">
        <ele>16.181</ele>
        <time>2011-09-25T07:19:27Z</time>
      </trkpt>
      <trkpt lat="47.0968" lon="-1.73827">
        <ele>16.05</ele>
        <time>2011-09-25T07:19:30Z</time>
      </trkpt>
      <trkpt lat="47.09681" lon="-1.73839">
        <ele>16.04</ele>
        <time>2011-09-25T07:19:33Z</time>
      </trkpt>
      <trkpt lat="47.09681" lon="-1.73839">
        <ele>16.069</ele>
        <time>2011-09-25T07:19:35Z</time>
      </trkpt>
      <trkpt lat="47.09689" lon="-1.73894">
        <ele>16.094</ele>
        <time>2011-09-25T07:19:48Z</time>
      </trkpt>
      <trkpt lat="47.09693" lon="-1.73911">
        <ele>16.243</ele>
        <time>2011-09-25T07:19:51Z</time>
      </trkpt>
      <trkpt lat="47.09695" lon="-1.73923">
        <ele>16.603</ele>
        <time>2011-09-25T07:19:53Z</time>
      </trkpt>
      <trkpt lat="47.09697" lon="-1.7394">
        <ele>17.384</ele>
        <time>2011-09-25T07:19:56Z</time>
      </trkpt>
      <trkpt lat="47.09697" lon="-1.7395">
        <ele>18.775</ele>
        <time>2011-09-25T07:19:58Z</time>
      </trkpt>
      <trkpt lat="47.09697" lon="-1.73964">
        <ele>20.269</ele>
        <time>2011-09-25T07:20:01Z</time>
      </trkpt>
      <trkpt lat="47.09696" lon="-1.73974">
        <ele>21.272</ele>
        <time>2011-09-25T07:20:03Z</time>
      </trkpt>
      <trkpt lat="47.09694" lon="-1.73987">
        <ele>21.857</ele>
        <time>2011-09-25T07:20:06Z</time>
      </trkpt>
      <trkpt lat="47.0969" lon="-1.74001">
        <ele>22.149</ele>
        <time>2011-09-25T07:20:09Z</time>
      </trkpt>
      <trkpt lat="47.09686" lon="-1.74014">
        <ele>22.202</ele>
        <time>2011-09-25T07:20:12Z</time>
      </trkpt>
      <trkpt lat="47.0968" lon="-1.74026">
        <ele>22.158</ele>
        <time>2011-09-25T07:20:15Z</time>
      </trkpt>
      <trkpt lat="47.09672" lon="-1.74038">
        <ele>22.111</ele>
        <time>2011-09-25T07:20:18Z</time>
      </trkpt>
      <trkpt lat="47.09663" lon="-1.74055">
        <ele>22.225</ele>
        <time>2011-09-25T07:20:21Z</time>
      </trkpt>
      <trkpt lat="47.09655" lon="-1.74071">
        <ele>22.581</ele>
        <time>2011-09-25T07:20:23Z</time>
      </trkpt>
      <trkpt lat="47.09643" lon="-1.74095">
        <ele>22.954</ele>
        <time>2011-09-25T07:20:26Z</time>
      </trkpt>
      <trkpt lat="47.09632" lon="-1.74116">
        <ele>23.132</ele>
        <time>2011-09-25T07:20:29Z</time>
      </trkpt>
      <trkpt lat="47.09622" lon="-1.74135">
        <ele>23.023</ele>
        <time>2011-09-25T07:20:32Z</time>
      </trkpt>
      <trkpt lat="47.09615" lon="-1.74147">
        <ele>22.219</ele>
        <time>2011-09-25T07:20:34Z</time>
      </trkpt>
      <trkpt lat="47.09607" lon="-1.74162">
        <ele>20.601</ele>
        <time>2011-09-25T07:20:37Z</time>
      </trkpt>
      <trkpt lat="47.09601" lon="-1.74172">
        <ele>18.804</ele>
        <time>2011-09-25T07:20:39Z</time>
      </trkpt>
      <trkpt lat="47.09596" lon="-1.74181">
        <ele>17.52</ele>
        <time>2011-09-25T07:20:41Z</time>
      </trkpt>
      <trkpt lat="47.09588" lon="-1.74196">
        <ele>16.928</ele>
        <time>2011-09-25T07:20:44Z</time>
      </trkpt>
      <trkpt lat="47.09583" lon="-1.74206">
        <ele>16.711</ele>
        <time>2011-09-25T07:20:46Z</time>
      </trkpt>
      <trkpt lat="47.09576" lon="-1.74221">
        <ele>16.46</ele>
        <time>2011-09-25T07:20:49Z</time>
      </trkpt>
      <trkpt lat="47.09569" lon="-1.74235">
        <ele>16.195</ele>
        <time>2011-09-25T07:20:52Z</time>
      </trkpt>
      <trkpt lat="47.09561" lon="-1.7425">
        <ele>16.067</ele>
        <time>2011-09-25T07:20:55Z</time>
      </trkpt>
      <trkpt lat="47.09557" lon="-1.7426">
        <ele>16.047</ele>
        <time>2011-09-25T07:20:57Z</time>
      </trkpt>
      <trkpt lat="47.09552" lon="-1.74271">
        <ele>16.067</ele>
        <time>2011-09-25T07:20:59Z</time>
      </trkpt>
      <trkpt lat="47.09547" lon="-1.74281">
        <ele>16.227</ele>
        <time>2011-09-25T07:21:01Z</time>
      </trkpt>
      <trkpt lat="47.0954" lon="-1.74294">
        <ele>16.597</ele>
        <time>2011-09-25T07:21:04Z</time>
      </trkpt>
      <trkpt lat="47.09539" lon="-1.74306">
        <ele>16.968</ele>
        <time>2011-09-25T07:21:07Z</time>
      </trkpt>
      <trkpt lat="47.09542" lon="-1.74314">
        <ele>17.141</ele>
        <time>2011-09-25T07:21:09Z</time>
      </trkpt>
      <trkpt lat="47.0955" lon="-1.74325">
        <ele>17.028</ele>
        <time>2011-09-25T07:21:12Z</time>
      </trkpt>
      <trkpt lat="47.09555" lon="-1.74331">
        <ele>16.637</ele>
        <time>2011-09-25T07:21:14Z</time>
      </trkpt>
      <trkpt lat="47.09559" lon="-1.74336">
        <ele>16.237</ele>
        <time>2011-09-25T07:21:16Z</time>
      </trkpt>
      <trkpt lat="47.09561" lon="-1.74344">
        <ele>16.048</ele>
        <time>2011-09-25T07:21:19Z</time>
      </trkpt>
      <trkpt lat="47.09561" lon="-1.74344">
        <ele>16.019</ele>
        <time>2011-09-25T07:21:20Z</time>
      </trkpt>
      <trkpt lat="47.09551" lon="-1.74364">
        <ele>16.052</ele>
        <time>2011-09-25T07:21:26Z</time>
      </trkpt>
      <trkpt lat="47.09551" lon="-1.74364">
        <ele>16.084</ele>
        <time>2011-09-25T07:21:29Z</time>
      </trkpt>
      <trkpt lat="47.09529" lon="-1.74411">
        <ele>16.1</ele>
        <time>2011-09-25T07:21:49Z</time>
      </trkpt>
      <trkpt lat="47.09526" lon="-1.74419">
        <ele>16.24</ele>
        <time>2011-09-25T07:21:52Z</time>
      </trkpt>
      <trkpt lat="47.09522" lon="-1.74427">
        <ele>16.735</ele>
        <time>2011-09-25T07:21:55Z</time>
      </trkpt>
      <trkpt lat="47.09516" lon="-1.74442">
        <ele>17.876</ele>
        <time>2011-09-25T07:22:01Z</time>
      </trkpt>
      <trkpt lat="47.09512" lon="-1.74449">
        <ele>19.637</ele>
        <time>2011-09-25T07:22:04Z</time>
      </trkpt>
      <trkpt lat="47.09507" lon="-1.74462">
        <ele>21.307</ele>
        <time>2011-09-25T07:22:10Z</time>
      </trkpt>
      <trkpt lat="47.09501" lon="-1.7448">
        <ele>22.199</ele>
        <time>2011-09-25T07:22:17Z</time>
      </trkpt>
      <trkpt lat="47.09497" lon="-1.74492">
        <ele>22.394</ele>
        <time>2011-09-25T07:22:22Z</time>
      </trkpt>
      <trkpt lat="47.09493" lon="-1.74506">
        <ele>22.286</ele>
        <time>2011-09-25T07:22:27Z</time>
      </trkpt>
      <trkpt lat="47.09493" lon="-1.74506">
        <ele>22.174</ele>
        <time>2011-09-25T07:22:41Z</time>
      </trkpt>
      <trkpt lat="47.09479" lon="-1.74542">
        <ele>22.278</ele>
        <time>2011-09-25T07:22:45Z</time>
      </trkpt>
      <trkpt lat="47.09473" lon="-1.74559">
        <ele>22.762</ele>
        <time>2011-09-25T07:22:47Z</time>
      </trkpt>
      <trkpt lat="47.09468" lon="-1.74573">
        <ele>23.605</ele>
        <time>2011-09-25T07:22:50Z</time>
      </trkpt>
      <trkpt lat="47.09452" lon="-1.74607">
        <ele>24.495</ele>
        <time>2011-09-25T07:23:00Z</time>
      </trkpt>
      <trkpt lat="47.09445" lon="-1.74616">
        <ele>25.2</ele>
        <time>2011-09-25T07:23:04Z</time>
      </trkpt>
      <trkpt lat="47.09436" lon="-1.74628">
        <ele>25.733</ele>
        <time>2011-09-25T07:23:08Z</time>
      </trkpt>
      <trkpt lat="47.09429" lon="-1.74639">
        <ele>26.347</ele>
        <time>2011-09-25T07:23:11Z</time>
      </trkpt>
      <trkpt lat="47.09422" lon="-1.74651">
        <ele>27.169</ele>
        <time>2011-09-25T07:23:14Z</time>
      </trkpt>
      <trkpt lat="47.09416" lon="-1.74662">
        <ele>27.888</ele>
        <time>2011-09-25T07:23:17Z</time>
      </trkpt>
      <trkpt lat="47.09409" lon="-1.74674">
        <ele>28.195</ele>
        <time>2011-09-25T07:23:19Z</time>
      </trkpt>
      <trkpt lat="47.09396" lon="-1.74703">
        <ele>28.359</ele>
        <time>2011-09-25T07:23:22Z</time>
      </trkpt>
      <trkpt lat="47.09389" lon="-1.74725">
        <ele>28.65</ele>
        <time>2011-09-25T07:23:25Z</time>
      </trkpt>
      <trkpt lat="47.09388" lon="-1.74738">
        <ele>28.961</ele>
        <time>2011-09-25T07:23:27Z</time>
      </trkpt>
      <trkpt lat="47.09388" lon="-1.74751">
        <ele>29.111</ele>
        <time>2011-09-25T07:23:29Z</time>
      </trkpt>
      <trkpt lat="47.0939" lon="-1.7477">
        <ele>29.136</ele>
        <time>2011-09-25T07:23:32Z</time>
      </trkpt>
      <trkpt lat="47.09395" lon="-1.7479">
        <ele>29.111</ele>
        <time>2011-09-25T07:23:35Z</time>
      </trkpt>
      <trkpt lat="47.09398" lon="-1.74813">
        <ele>29.086</ele>
        <time>2011-09-25T07:23:38Z</time>
      </trkpt>
      <trkpt lat="47.09399" lon="-1.74837">
        <ele>28.936</ele>
        <time>2011-09-25T07:23:41Z</time>
      </trkpt>
      <trkpt lat="47.09395" lon="-1.74862">
        <ele>28.574</ele>
        <time>2011-09-25T07:23:44Z</time>
      </trkpt>
      <trkpt lat="47.09389" lon="-1.74888">
        <ele>28.206</ele>
        <time>2011-09-25T07:23:47Z</time>
      </trkpt>
      <trkpt lat="47.09379" lon="-1.74895">
        <ele>28.033</ele>
        <time>2011-09-25T07:23:50Z</time>
      </trkpt>
      <trkpt lat="47.09365" lon="-1.74888">
        <ele>28.007</ele>
        <time>2011-09-25T07:23:53Z</time>
      </trkpt>
      <trkpt lat="47.09348" lon="-1.74882">
        <ele>28.037</ele>
        <time>2011-09-25T07:23:56Z</time>
      </trkpt>
      <trkpt lat="47.09331" lon="-1.74882">
        <ele>27.928</ele>
        <time>2011-09-25T07:23:59Z</time>
      </trkpt>
      <trkpt lat="47.0932" lon="-1.74884">
        <ele>27.582</ele>
        <time>2011-09-25T07:24:01Z</time>
      </trkpt>
      <trkpt lat="47.0931" lon="-1.74887">
        <ele>27.215</ele>
        <time>2011-09-25T07:24:03Z</time>
      </trkpt>
      <trkpt lat="47.09293" lon="-1.74893">
        <ele>26.899</ele>
        <time>2011-09-25T07:24:06Z</time>
      </trkpt>
      <trkpt lat="47.09279" lon="-1.74904">
        <ele>26.51</ele>
        <time>2011-09-25T07:24:09Z</time>
      </trkpt>
      <trkpt lat="47.09268" lon="-1.74913">
        <ele>26.031</ele>
        <time>2011-09-25T07:24:11Z</time>
      </trkpt>
      <trkpt lat="47.09252" lon="-1.74928">
        <ele>25.526</ele>
        <time>2011-09-25T07:24:14Z</time>
      </trkpt>
      <trkpt lat="47.09237" lon="-1.74945">
        <ele>25.006</ele>
        <time>2011-09-25T07:24:17Z</time>
      </trkpt>
      <trkpt lat="47.09224" lon="-1.74967">
        <ele>24.503</ele>
        <time>2011-09-25T07:24:20Z</time>
      </trkpt>
      <trkpt lat="47.09211" lon="-1.74988">
        <ele>24.135</ele>
        <time>2011-09-25T07:24:23Z</time>
      </trkpt>
      <trkpt lat="47.09198" lon="-1.75007">
        <ele>23.863</ele>
        <time>2011-09-25T07:24:26Z</time>
      </trkpt>
      <trkpt lat="47.0919" lon="-1.7502">
        <ele>23.507</ele>
        <time>2011-09-25T07:24:28Z</time>
      </trkpt>
      <trkpt lat="47.09179" lon="-1.75042">
        <ele>23.041</ele>
        <time>2011-09-25T07:24:31Z</time>
      </trkpt>
      <trkpt lat="47.09169" lon="-1.75066">
        <ele>22.535</ele>
        <time>2011-09-25T07:24:34Z</time>
      </trkpt>
      <trkpt lat="47.09162" lon="-1.75092">
        <ele>22.15</ele>
        <time>2011-09-25T07:24:37Z</time>
      </trkpt>
      <trkpt lat="47.09156" lon="-1.75117">
        <ele>22.004</ele>
        <time>2011-09-25T07:24:40Z</time>
      </trkpt>
      <trkpt lat="47.09149" lon="-1.75142">
        <ele>22.004</ele>
        <time>2011-09-25T07:24:43Z</time>
      </trkpt>
      <trkpt lat="47.09143" lon="-1.75159">
        <ele>21.907</ele>
        <time>2011-09-25T07:24:45Z</time>
      </trkpt>
      <trkpt lat="47.09134" lon="-1.75183">
        <ele>21.44</ele>
        <time>2011-09-25T07:24:48Z</time>
      </trkpt>
      <trkpt lat="47.09125" lon="-1.75206">
        <ele>20.722</ele>
        <time>2011-09-25T07:24:51Z</time>
      </trkpt>
      <trkpt lat="47.09119" lon="-1.75222">
        <ele>20.177</ele>
        <time>2011-09-25T07:24:53Z</time>
      </trkpt>
      <trkpt lat="47.09111" lon="-1.75247">
        <ele>19.972</ele>
        <time>2011-09-25T07:24:56Z</time>
      </trkpt>
      <trkpt lat="47.09106" lon="-1.75271">
        <ele>19.973</ele>
        <time>2011-09-25T07:24:59Z</time>
      </trkpt>
      <trkpt lat="47.09101" lon="-1.75289">
        <ele>20.032</ele>
        <time>2011-09-25T07:25:02Z</time>
      </trkpt>
      <trkpt lat="47.09097" lon="-1.75302">
        <ele>20.076</ele>
        <time>2011-09-25T07:25:05Z</time>
      </trkpt>
      <trkpt lat="47.09094" lon="-1.75315">
        <ele>20.092</ele>
        <time>2011-09-25T07:25:08Z</time>
      </trkpt>
      <trkpt lat="47.0909" lon="-1.75325">
        <ele>20.091</ele>
        <time>2011-09-25T07:25:10Z</time>
      </trkpt>
      <trkpt lat="47.09084" lon="-1.75338">
        <ele>20.086</ele>
        <time>2011-09-25T07:25:13Z</time>
      </trkpt>
      <trkpt lat="47.09074" lon="-1.75351">
        <ele>20.082</ele>
        <time>2011-09-25T07:25:16Z</time>
      </trkpt>
      <trkpt lat="47.09067" lon="-1.75358">
        <ele>20.081</ele>
        <time>2011-09-25T07:25:18Z</time>
      </trkpt>
      <trkpt lat="47.09059" lon="-1.75366">
        <ele>20.081</ele>
        <time>2011-09-25T07:25:20Z</time>
      </trkpt>
      <trkpt lat="47.09047" lon="-1.75377">
        <ele>20.081</ele>
        <time>2011-09-25T07:25:23Z</time>
      </trkpt>
      <trkpt lat="47.09035" lon="-1.75387">
        <ele>20.082</ele>
        <time>2011-09-25T07:25:26Z</time>
      </trkpt>
      <trkpt lat="47.09022" lon="-1.75397">
        <ele>20.082</ele>
        <time>2011-09-25T07:25:29Z</time>
      </trkpt>
      <trkpt lat="47.09011" lon="-1.75407">
        <ele>20.081</ele>
        <time>2011-09-25T07:25:32Z</time>
      </trkpt>
      <trkpt lat="47.08997" lon="-1.75413">
        <ele>20.081</ele>
        <time>2011-09-25T07:25:35Z</time>
      </trkpt>
      <trkpt lat="47.08985" lon="-1.75423">
        <ele>20.081</ele>
        <time>2011-09-25T07:25:38Z</time>
      </trkpt>
      <trkpt lat="47.08978" lon="-1.75431">
        <ele>20.081</ele>
        <time>2011-09-25T07:25:40Z</time>
      </trkpt>
      <trkpt lat="47.08967" lon="-1.75443">
        <ele>20.081</ele>
        <time>2011-09-25T07:25:43Z</time>
      </trkpt>
      <trkpt lat="47.08959" lon="-1.75451">
        <ele>20.081</ele>
        <time>2011-09-25T07:25:45Z</time>
      </trkpt>
      <trkpt lat="47.08951" lon="-1.75459">
        <ele>20.219</ele>
        <time>2011-09-25T07:25:47Z</time>
      </trkpt>
      <trkpt lat="47.08939" lon="-1.75475">
        <ele>20.578</ele>
        <time>2011-09-25T07:25:50Z</time>
      </trkpt>
      <trkpt lat="47.0893" lon="-1.75486">
        <ele>20.948</ele>
        <time>2011-09-25T07:25:52Z</time>
      </trkpt>
      <trkpt lat="47.08918" lon="-1.75503">
        <ele>21.123</ele>
        <time>2011-09-25T07:25:55Z</time>
      </trkpt>
      <trkpt lat="47.08906" lon="-1.7552">
        <ele>21.149</ele>
        <time>2011-09-25T07:25:58Z</time>
      </trkpt>
      <trkpt lat="47.08898" lon="-1.75532">
        <ele>20.981</ele>
        <time>2011-09-25T07:26:00Z</time>
      </trkpt>
      <trkpt lat="47.08886" lon="-1.7555">
        <ele>20.591</ele>
        <time>2011-09-25T07:26:03Z</time>
      </trkpt>
      <trkpt lat="47.08873" lon="-1.75567">
        <ele>20.207</ele>
        <time>2011-09-25T07:26:06Z</time>
      </trkpt>
      <trkpt lat="47.08864" lon="-1.75578">
        <ele>20.03</ele>
        <time>2011-09-25T07:26:08Z</time>
      </trkpt>
      <trkpt lat="47.08852" lon="-1.75592">
        <ele>20.006</ele>
        <time>2011-09-25T07:26:11Z</time>
      </trkpt>
      <trkpt lat="47.08843" lon="-1.756">
        <ele>20.038</ele>
        <time>2011-09-25T07:26:13Z</time>
      </trkpt>
      <trkpt lat="47.0883" lon="-1.75613">
        <ele>20.069</ele>
        <time>2011-09-25T07:26:16Z</time>
      </trkpt>
      <trkpt lat="47.08816" lon="-1.75627">
        <ele>20.083</ele>
        <time>2011-09-25T07:26:19Z</time>
      </trkpt>
      <trkpt lat="47.08807" lon="-1.75636">
        <ele>20.085</ele>
        <time>2011-09-25T07:26:21Z</time>
      </trkpt>
      <trkpt lat="47.08796" lon="-1.75644">
        <ele>20.082</ele>
        <time>2011-09-25T07:26:23Z</time>
      </trkpt>
      <trkpt lat="47.0878" lon="-1.75657">
        <ele>20.079</ele>
        <time>2011-09-25T07:26:26Z</time>
      </trkpt>
      <trkpt lat="47.08767" lon="-1.75664">
        <ele>20.078</ele>
        <time>2011-09-25T07:26:28Z</time>
      </trkpt>
      <trkpt lat="47.08755" lon="-1.75671">
        <ele>20.078</ele>
        <time>2011-09-25T07:26:30Z</time>
      </trkpt>
      <trkpt lat="47.08737" lon="-1.75683">
        <ele>20.216</ele>
        <time>2011-09-25T07:26:33Z</time>
      </trkpt>
      <trkpt lat="47.08726" lon="-1.7569">
        <ele>20.576</ele>
        <time>2011-09-25T07:26:35Z</time>
      </trkpt>
      <trkpt lat="47.08708" lon="-1.75701">
        <ele>20.945</ele>
        <time>2011-09-25T07:26:38Z</time>
      </trkpt>
      <trkpt lat="47.0869" lon="-1.75708">
        <ele>21.12</ele>
        <time>2011-09-25T07:26:41Z</time>
      </trkpt>
      <trkpt lat="47.08671" lon="-1.75715">
        <ele>21.147</ele>
        <time>2011-09-25T07:26:44Z</time>
      </trkpt>
      <trkpt lat="47.08659" lon="-1.75718">
        <ele>21.117</ele>
        <time>2011-09-25T07:26:46Z</time>
      </trkpt>
      <trkpt lat="47.08641" lon="-1.75725">
        <ele>21.087</ele>
        <time>2011-09-25T07:26:49Z</time>
      </trkpt>
      <trkpt lat="47.08621" lon="-1.7573">
        <ele>21.072</ele>
        <time>2011-09-25T07:26:52Z</time>
      </trkpt>
      <trkpt lat="47.086" lon="-1.75734">
        <ele>21.07</ele>
        <time>2011-09-25T07:26:55Z</time>
      </trkpt>
      <trkpt lat="47.08586" lon="-1.75736">
        <ele>21.073</ele>
        <time>2011-09-25T07:26:57Z</time>
      </trkpt>
      <trkpt lat="47.08563" lon="-1.75737">
        <ele>21.075</ele>
        <time>2011-09-25T07:27:00Z</time>
      </trkpt>
      <trkpt lat="47.08548" lon="-1.75738">
        <ele>21.076</ele>
        <time>2011-09-25T07:27:02Z</time>
      </trkpt>
      <trkpt lat="47.08533" lon="-1.7574">
        <ele>20.938</ele>
        <time>2011-09-25T07:27:04Z</time>
      </trkpt>
      <trkpt lat="47.08512" lon="-1.75749">
        <ele>20.578</ele>
        <time>2011-09-25T07:27:07Z</time>
      </trkpt>
      <trkpt lat="47.08495" lon="-1.75759">
        <ele>20.208</ele>
        <time>2011-09-25T07:27:10Z</time>
      </trkpt>
      <trkpt lat="47.08489" lon="-1.75767">
        <ele>19.894</ele>
        <time>2011-09-25T07:27:12Z</time>
      </trkpt>
      <trkpt lat="47.08483" lon="-1.75775">
        <ele>19.508</ele>
        <time>2011-09-25T07:27:15Z</time>
      </trkpt>
      <trkpt lat="47.08479" lon="-1.75779">
        <ele>19.168</ele>
        <time>2011-09-25T07:27:17Z</time>
      </trkpt>
      <trkpt lat="47.08479" lon="-1.75779">
        <ele>19.023</ele>
        <time>2011-09-25T07:27:18Z</time>
      </trkpt>
      <trkpt lat="47.08465" lon="-1.75794">
        <ele>19.011</ele>
        <time>2011-09-25T07:27:23Z</time>
      </trkpt>
      <trkpt lat="47.08454" lon="-1.75804">
        <ele>19.043</ele>
        <time>2011-09-25T07:27:26Z</time>
      </trkpt>
      <trkpt lat="47.08438" lon="-1.7582">
        <ele>19.07</ele>
        <time>2011-09-25T07:27:29Z</time>
      </trkpt>
      <trkpt lat="47.08423" lon="-1.75837">
        <ele>19.082</ele>
        <time>2011-09-25T07:27:32Z</time>
      </trkpt>
      <trkpt lat="47.08408" lon="-1.75852">
        <ele>19.082</ele>
        <time>2011-09-25T07:27:35Z</time>
      </trkpt>
      <trkpt lat="47.08398" lon="-1.75858">
        <ele>19.089</ele>
        <time>2011-09-25T07:27:37Z</time>
      </trkpt>
      <trkpt lat="47.08385" lon="-1.75868">
        <ele>19.241</ele>
        <time>2011-09-25T07:27:40Z</time>
      </trkpt>
      <trkpt lat="47.08378" lon="-1.75876">
        <ele>19.6</ele>
        <time>2011-09-25T07:27:43Z</time>
      </trkpt>
      <trkpt lat="47.08377" lon="-1.75891">
        <ele>20.094</ele>
        <time>2011-09-25T07:27:46Z</time>
      </trkpt>
      <trkpt lat="47.08377" lon="-1.75903">
        <ele>20.619</ele>
        <time>2011-09-25T07:27:49Z</time>
      </trkpt>
      <trkpt lat="47.08365" lon="-1.75915">
        <ele>21.011</ele>
        <time>2011-09-25T07:27:57Z</time>
      </trkpt>
      <trkpt lat="47.08352" lon="-1.75922">
        <ele>21.156</ele>
        <time>2011-09-25T07:28:00Z</time>
      </trkpt>
      <trkpt lat="47.08342" lon="-1.75928">
        <ele>21.154</ele>
        <time>2011-09-25T07:28:02Z</time>
      </trkpt>
      <trkpt lat="47.08333" lon="-1.75935">
        <ele>21.11</ele>
        <time>2011-09-25T07:28:04Z</time>
      </trkpt>
      <trkpt lat="47.08319" lon="-1.75946">
        <ele>21.217</ele>
        <time>2011-09-25T07:28:07Z</time>
      </trkpt>
      <trkpt lat="47.0831" lon="-1.75953">
        <ele>21.565</ele>
        <time>2011-09-25T07:28:09Z</time>
      </trkpt>
      <trkpt lat="47.08302" lon="-1.75959">
        <ele>21.934</ele>
        <time>2011-09-25T07:28:11Z</time>
      </trkpt>
      <trkpt lat="47.08294" lon="-1.75965">
        <ele>22.113</ele>
        <time>2011-09-25T07:28:13Z</time>
      </trkpt>
      <trkpt lat="47.08288" lon="-1.75971">
        <ele>22.142</ele>
        <time>2011-09-25T07:28:15Z</time>
      </trkpt>
      <trkpt lat="47.08278" lon="-1.7598">
        <ele>22.113</ele>
        <time>2011-09-25T07:28:18Z</time>
      </trkpt>
      <trkpt lat="47.08271" lon="-1.75984">
        <ele>22.083</ele>
        <time>2011-09-25T07:28:20Z</time>
      </trkpt>
      <trkpt lat="47.08265" lon="-1.75989">
        <ele>22.068</ele>
        <time>2011-09-25T07:28:22Z</time>
      </trkpt>
      <trkpt lat="47.08259" lon="-1.75996">
        <ele>22.066</ele>
        <time>2011-09-25T07:28:24Z</time>
      </trkpt>
      <trkpt lat="47.08249" lon="-1.76004">
        <ele>22.068</ele>
        <time>2011-09-25T07:28:27Z</time>
      </trkpt>
      <trkpt lat="47.08236" lon="-1.7601">
        <ele>22.071</ele>
        <time>2011-09-25T07:28:30Z</time>
      </trkpt>
      <trkpt lat="47.08226" lon="-1.76014">
        <ele>22.072</ele>
        <time>2011-09-25T07:28:32Z</time>
      </trkpt>
      <trkpt lat="47.08212" lon="-1.76019">
        <ele>22.072</ele>
        <time>2011-09-25T07:28:35Z</time>
      </trkpt>
      <trkpt lat="47.08197" lon="-1.76023">
        <ele>22.072</ele>
        <time>2011-09-25T07:28:38Z</time>
      </trkpt>
      <trkpt lat="47.08188" lon="-1.76024">
        <ele>22.071</ele>
        <time>2011-09-25T07:28:40Z</time>
      </trkpt>
      <trkpt lat="47.08176" lon="-1.76026">
        <ele>21.933</ele>
        <time>2011-09-25T07:28:43Z</time>
      </trkpt>
      <trkpt lat="47.08165" lon="-1.76027">
        <ele>21.573</ele>
        <time>2011-09-25T07:28:46Z</time>
      </trkpt>
      <trkpt lat="47.08154" lon="-1.76027">
        <ele>21.204</ele>
        <time>2011-09-25T07:28:49Z</time>
      </trkpt>
      <trkpt lat="47.08146" lon="-1.76027">
        <ele>20.89</ele>
        <time>2011-09-25T07:28:52Z</time>
      </trkpt>
      <trkpt lat="47.0814" lon="-1.76027">
        <ele>20.504</ele>
        <time>2011-09-25T07:28:55Z</time>
      </trkpt>
      <trkpt lat="47.08136" lon="-1.76027">
        <ele>20.164</ele>
        <time>2011-09-25T07:28:58Z</time>
      </trkpt>
      <trkpt lat="47.08129" lon="-1.76025">
        <ele>20.019</ele>
        <time>2011-09-25T07:29:01Z</time>
      </trkpt>
      <trkpt lat="47.08123" lon="-1.76025">
        <ele>20.006</ele>
        <time>2011-09-25T07:29:03Z</time>
      </trkpt>
      <trkpt lat="47.08116" lon="-1.76027">
        <ele>20.038</ele>
        <time>2011-09-25T07:29:06Z</time>
      </trkpt>
      <trkpt lat="47.0811" lon="-1.76029">
        <ele>20.066</ele>
        <time>2011-09-25T07:29:08Z</time>
      </trkpt>
      <trkpt lat="47.08102" lon="-1.76031">
        <ele>20.078</ele>
        <time>2011-09-25T07:29:11Z</time>
      </trkpt>
      <trkpt lat="47.08093" lon="-1.76035">
        <ele>19.94</ele>
        <time>2011-09-25T07:29:14Z</time>
      </trkpt>
      <trkpt lat="47.08084" lon="-1.7604">
        <ele>19.578</ele>
        <time>2011-09-25T07:29:17Z</time>
      </trkpt>
      <trkpt lat="47.08078" lon="-1.76044">
        <ele>19.206</ele>
        <time>2011-09-25T07:29:19Z</time>
      </trkpt>
      <trkpt lat="47.08069" lon="-1.7605">
        <ele>19.03</ele>
        <time>2011-09-25T07:29:22Z</time>
      </trkpt>
      <trkpt lat="47.08064" lon="-1.76054">
        <ele>19.003</ele>
        <time>2011-09-25T07:29:24Z</time>
      </trkpt>
      <trkpt lat="47.08056" lon="-1.76061">
        <ele>19.033</ele>
        <time>2011-09-25T07:29:27Z</time>
      </trkpt>
      <trkpt lat="47.08048" lon="-1.76066">
        <ele>18.925</ele>
        <time>2011-09-25T07:29:30Z</time>
      </trkpt>
      <trkpt lat="47.08044" lon="-1.76069">
        <ele>18.58</ele>
        <time>2011-09-25T07:29:32Z</time>
      </trkpt>
      <trkpt lat="47.08038" lon="-1.76073">
        <ele>18.212</ele>
        <time>2011-09-25T07:29:35Z</time>
      </trkpt>
      <trkpt lat="47.08031" lon="-1.76075">
        <ele>18.034</ele>
        <time>2011-09-25T07:29:38Z</time>
      </trkpt>
      <trkpt lat="47.08024" lon="-1.76076">
        <ele>18.005</ele>
        <time>2011-09-25T07:29:41Z</time>
      </trkpt>
      <trkpt lat="47.08019" lon="-1.76077">
        <ele>18.172</ele>
        <time>2011-09-25T07:29:44Z</time>
      </trkpt>
      <trkpt lat="47.08019" lon="-1.76077">
        <ele>18.562</ele>
        <time>2011-09-25T07:29:48Z</time>
      </trkpt>
      <trkpt lat="47.08029" lon="-1.76076">
        <ele>18.946</ele>
        <time>2011-09-25T07:30:02Z</time>
      </trkpt>
      <trkpt lat="47.08034" lon="-1.76075">
        <ele>19.123</ele>
        <time>2011-09-25T07:30:04Z</time>
      </trkpt>
      <trkpt lat="47.08038" lon="-1.76078">
        <ele>19.147</ele>
        <time>2011-09-25T07:30:07Z</time>
      </trkpt>
      <trkpt lat="47.08039" lon="-1.76087">
        <ele>19.115</ele>
        <time>2011-09-25T07:30:10Z</time>
      </trkpt>
      <trkpt lat="47.08039" lon="-1.76097">
        <ele>19.084</ele>
        <time>2011-09-25T07:30:13Z</time>
      </trkpt>
      <trkpt lat="47.08038" lon="-1.76114">
        <ele>19.069</ele>
        <time>2011-09-25T07:30:16Z</time>
      </trkpt>
      <trkpt lat="47.08037" lon="-1.76126">
        <ele>19.068</ele>
        <time>2011-09-25T07:30:18Z</time>
      </trkpt>
      <trkpt lat="47.08035" lon="-1.76142">
        <ele>19.07</ele>
        <time>2011-09-25T07:30:21Z</time>
      </trkpt>
      <trkpt lat="47.08034" lon="-1.7616">
        <ele>19.073</ele>
        <time>2011-09-25T07:30:24Z</time>
      </trkpt>
      <trkpt lat="47.08034" lon="-1.76172">
        <ele>19.212</ele>
        <time>2011-09-25T07:30:26Z</time>
      </trkpt>
      <trkpt lat="47.08035" lon="-1.76192">
        <ele>19.572</ele>
        <time>2011-09-25T07:30:29Z</time>
      </trkpt>
      <trkpt lat="47.08038" lon="-1.76212">
        <ele>19.941</ele>
        <time>2011-09-25T07:30:32Z</time>
      </trkpt>
      <trkpt lat="47.08039" lon="-1.76223">
        <ele>20.116</ele>
        <time>2011-09-25T07:30:34Z</time>
      </trkpt>
      <trkpt lat="47.0804" lon="-1.76237">
        <ele>20.142</ele>
        <time>2011-09-25T07:30:37Z</time>
      </trkpt>
      <trkpt lat="47.0804" lon="-1.76251">
        <ele>20.25</ele>
        <time>2011-09-25T07:30:40Z</time>
      </trkpt>
      <trkpt lat="47.0804" lon="-1.76261">
        <ele>20.58</ele>
        <time>2011-09-25T07:30:42Z</time>
      </trkpt>
      <trkpt lat="47.0804" lon="-1.76271">
        <ele>20.935</ele>
        <time>2011-09-25T07:30:44Z</time>
      </trkpt>
      <trkpt lat="47.08039" lon="-1.76285">
        <ele>21.108</ele>
        <time>2011-09-25T07:30:47Z</time>
      </trkpt>
      <trkpt lat="47.08039" lon="-1.76299">
        <ele>21.137</ele>
        <time>2011-09-25T07:30:50Z</time>
      </trkpt>
      <trkpt lat="47.08038" lon="-1.76309">
        <ele>21.109</ele>
        <time>2011-09-25T07:30:52Z</time>
      </trkpt>
      <trkpt lat="47.08037" lon="-1.76324">
        <ele>21.08</ele>
        <time>2011-09-25T07:30:55Z</time>
      </trkpt>
      <trkpt lat="47.08036" lon="-1.7634">
        <ele>21.067</ele>
        <time>2011-09-25T07:30:58Z</time>
      </trkpt>
      <trkpt lat="47.08036" lon="-1.76351">
        <ele>21.202</ele>
        <time>2011-09-25T07:31:00Z</time>
      </trkpt>
      <trkpt lat="47.08036" lon="-1.7637">
        <ele>21.564</ele>
        <time>2011-09-25T07:31:03Z</time>
      </trkpt>
      <trkpt lat="47.08038" lon="-1.76386">
        <ele>21.936</ele>
        <time>2011-09-25T07:31:06Z</time>
      </trkpt>
      <trkpt lat="47.08041" lon="-1.764">
        <ele>22.25</ele>
        <time>2011-09-25T07:31:09Z</time>
      </trkpt>
      <trkpt lat="47.08045" lon="-1.76417">
        <ele>22.637</ele>
        <time>2011-09-25T07:31:12Z</time>
      </trkpt>
      <trkpt lat="47.08047" lon="-1.76435">
        <ele>22.976</ele>
        <time>2011-09-25T07:31:15Z</time>
      </trkpt>
      <trkpt lat="47.08048" lon="-1.76448">
        <ele>23.121</ele>
        <time>2011-09-25T07:31:17Z</time>
      </trkpt>
      <trkpt lat="47.08048" lon="-1.7646">
        <ele>23.271</ele>
        <time>2011-09-25T07:31:19Z</time>
      </trkpt>
      <trkpt lat="47.08048" lon="-1.76479">
        <ele>23.737</ele>
        <time>2011-09-25T07:31:22Z</time>
      </trkpt>
      <trkpt lat="47.08047" lon="-1.76498">
        <ele>24.439</ele>
        <time>2011-09-25T07:31:25Z</time>
      </trkpt>
      <trkpt lat="47.08048" lon="-1.76518">
        <ele>25.11</ele>
        <time>2011-09-25T07:31:28Z</time>
      </trkpt>
      <trkpt lat="47.08051" lon="-1.76531">
        <ele>25.67</ele>
        <time>2011-09-25T07:31:30Z</time>
      </trkpt>
      <trkpt lat="47.08056" lon="-1.76549">
        <ele>26.039</ele>
        <time>2011-09-25T07:31:33Z</time>
      </trkpt>
      <trkpt lat="47.08062" lon="-1.76566">
        <ele>26.156</ele>
        <time>2011-09-25T07:31:36Z</time>
      </trkpt>
      <trkpt lat="47.08066" lon="-1.76577">
        <ele>26.14</ele>
        <time>2011-09-25T07:31:38Z</time>
      </trkpt>
      <trkpt lat="47.08072" lon="-1.76594">
        <ele>26.232</ele>
        <time>2011-09-25T07:31:41Z</time>
      </trkpt>
      <trkpt lat="47.08079" lon="-1.76611">
        <ele>26.561</ele>
        <time>2011-09-25T07:31:44Z</time>
      </trkpt>
      <trkpt lat="47.08085" lon="-1.76631">
        <ele>26.921</ele>
        <time>2011-09-25T07:31:47Z</time>
      </trkpt>
      <trkpt lat="47.08089" lon="-1.76644">
        <ele>27.098</ele>
        <time>2011-09-25T07:31:49Z</time>
      </trkpt>
      <trkpt lat="47.08093" lon="-1.76665">
        <ele>27.266</ele>
        <time>2011-09-25T07:31:52Z</time>
      </trkpt>
      <trkpt lat="47.08096" lon="-1.76685">
        <ele>27.599</ele>
        <time>2011-09-25T07:31:55Z</time>
      </trkpt>
      <trkpt lat="47.08092" lon="-1.76702">
        <ele>27.938</ele>
        <time>2011-09-25T07:31:58Z</time>
      </trkpt>
      <trkpt lat="47.08084" lon="-1.76701">
        <ele>28.099</ele>
        <time>2011-09-25T07:32:00Z</time>
      </trkpt>
      <trkpt lat="47.08076" lon="-1.767">
        <ele>28.123</ele>
        <time>2011-09-25T07:32:02Z</time>
      </trkpt>
      <trkpt lat="47.08062" lon="-1.76696">
        <ele>27.957</ele>
        <time>2011-09-25T07:32:05Z</time>
      </trkpt>
      <trkpt lat="47.08049" lon="-1.76692">
        <ele>27.57</ele>
        <time>2011-09-25T07:32:08Z</time>
      </trkpt>
      <trkpt lat="47.08037" lon="-1.76688">
        <ele>27.187</ele>
        <time>2011-09-25T07:32:11Z</time>
      </trkpt>
      <trkpt lat="47.08024" lon="-1.76683">
        <ele>26.872</ele>
        <time>2011-09-25T07:32:14Z</time>
      </trkpt>
      <trkpt lat="47.08016" lon="-1.7668">
        <ele>26.488</ele>
        <time>2011-09-25T07:32:16Z</time>
      </trkpt>
      <trkpt lat="47.08004" lon="-1.76675">
        <ele>26.151</ele>
        <time>2011-09-25T07:32:19Z</time>
      </trkpt>
      <trkpt lat="47.07991" lon="-1.76669">
        <ele>26.007</ele>
        <time>2011-09-25T07:32:22Z</time>
      </trkpt>
      <trkpt lat="47.07979" lon="-1.76664">
        <ele>25.994</ele>
        <time>2011-09-25T07:32:25Z</time>
      </trkpt>
      <trkpt lat="47.07966" lon="-1.76659">
        <ele>26.026</ele>
        <time>2011-09-25T07:32:28Z</time>
      </trkpt>
      <trkpt lat="47.07957" lon="-1.76655">
        <ele>26.054</ele>
        <time>2011-09-25T07:32:30Z</time>
      </trkpt>
      <trkpt lat="47.07948" lon="-1.76652">
        <ele>26.065</ele>
        <time>2011-09-25T07:32:32Z</time>
      </trkpt>
      <trkpt lat="47.07938" lon="-1.76649">
        <ele>26.066</ele>
        <time>2011-09-25T07:32:34Z</time>
      </trkpt>
      <trkpt lat="47.07923" lon="-1.76643">
        <ele>26.063</ele>
        <time>2011-09-25T07:32:37Z</time>
      </trkpt>
      <trkpt lat="47.07907" lon="-1.76637">
        <ele>26.061</ele>
        <time>2011-09-25T07:32:40Z</time>
      </trkpt>
      <trkpt lat="47.07897" lon="-1.76633">
        <ele>26.06</ele>
        <time>2011-09-25T07:32:42Z</time>
      </trkpt>
      <trkpt lat="47.07887" lon="-1.7663">
        <ele>26.06</ele>
        <time>2011-09-25T07:32:44Z</time>
      </trkpt>
      <trkpt lat="47.07871" lon="-1.76624">
        <ele>26.06</ele>
        <time>2011-09-25T07:32:47Z</time>
      </trkpt>
      <trkpt lat="47.07856" lon="-1.76619">
        <ele>26.061</ele>
        <time>2011-09-25T07:32:50Z</time>
      </trkpt>
      <trkpt lat="47.07846" lon="-1.76616">
        <ele>25.922</ele>
        <time>2011-09-25T07:32:52Z</time>
      </trkpt>
      <trkpt lat="47.07831" lon="-1.7661">
        <ele>25.563</ele>
        <time>2011-09-25T07:32:55Z</time>
      </trkpt>
      <trkpt lat="47.07816" lon="-1.76605">
        <ele>25.193</ele>
        <time>2011-09-25T07:32:58Z</time>
      </trkpt>
      <trkpt lat="47.07806" lon="-1.76602">
        <ele>25.018</ele>
        <time>2011-09-25T07:33:00Z</time>
      </trkpt>
      <trkpt lat="47.07795" lon="-1.76601">
        <ele>24.991</ele>
        <time>2011-09-25T07:33:02Z</time>
      </trkpt>
      <trkpt lat="47.07779" lon="-1.76605">
        <ele>25.021</ele>
        <time>2011-09-25T07:33:05Z</time>
      </trkpt>
      <trkpt lat="47.07764" lon="-1.76614">
        <ele>25.051</ele>
        <time>2011-09-25T07:33:08Z</time>
      </trkpt>
      <trkpt lat="47.0775" lon="-1.76625">
        <ele>25.065</ele>
        <time>2011-09-25T07:33:11Z</time>
      </trkpt>
      <trkpt lat="47.07736" lon="-1.76634">
        <ele>24.929</ele>
        <time>2011-09-25T07:33:14Z</time>
      </trkpt>
      <trkpt lat="47.07728" lon="-1.7664">
        <ele>24.567</ele>
        <time>2011-09-25T07:33:16Z</time>
      </trkpt>
      <trkpt lat="47.07715" lon="-1.76647">
        <ele>24.195</ele>
        <time>2011-09-25T07:33:19Z</time>
      </trkpt>
      <trkpt lat="47.07704" lon="-1.76655">
        <ele>24.018</ele>
        <time>2011-09-25T07:33:22Z</time>
      </trkpt>
      <trkpt lat="47.07693" lon="-1.76656">
        <ele>23.853</ele>
        <time>2011-09-25T07:33:25Z</time>
      </trkpt>
      <trkpt lat="47.07686" lon="-1.76642">
        <ele>23.524</ele>
        <time>2011-09-25T07:33:28Z</time>
      </trkpt>
      <trkpt lat="47.07685" lon="-1.7662">
        <ele>23.184</ele>
        <time>2011-09-25T07:33:31Z</time>
      </trkpt>
      <trkpt lat="47.07685" lon="-1.76595">
        <ele>23.023</ele>
        <time>2011-09-25T07:33:34Z</time>
      </trkpt>
      <trkpt lat="47.07684" lon="-1.76579">
        <ele>22.999</ele>
        <time>2011-09-25T07:33:36Z</time>
      </trkpt>
      <trkpt lat="47.07681" lon="-1.76562">
        <ele>22.888</ele>
        <time>2011-09-25T07:33:38Z</time>
      </trkpt>
      <trkpt lat="47.07678" lon="-1.76537">
        <ele>22.556</ele>
        <time>2011-09-25T07:33:41Z</time>
      </trkpt>
      <trkpt lat="47.07676" lon="-1.7652">
        <ele>22.2</ele>
        <time>2011-09-25T07:33:43Z</time>
      </trkpt>
      <trkpt lat="47.07671" lon="-1.76497">
        <ele>22.027</ele>
        <time>2011-09-25T07:33:46Z</time>
      </trkpt>
      <trkpt lat="47.07665" lon="-1.76476">
        <ele>21.998</ele>
        <time>2011-09-25T07:33:49Z</time>
      </trkpt>
      <trkpt lat="47.07662" lon="-1.76456">
        <ele>22.026</ele>
        <time>2011-09-25T07:33:52Z</time>
      </trkpt>
      <trkpt lat="47.07658" lon="-1.76435">
        <ele>22.055</ele>
        <time>2011-09-25T07:33:55Z</time>
      </trkpt>
      <trkpt lat="47.07654" lon="-1.76414">
        <ele>22.069</ele>
        <time>2011-09-25T07:33:58Z</time>
      </trkpt>
      <trkpt lat="47.07649" lon="-1.76394">
        <ele>22.071</ele>
        <time>2011-09-25T07:34:01Z</time>
      </trkpt>
      <trkpt lat="47.07643" lon="-1.76375">
        <ele>22.069</ele>
        <time>2011-09-25T07:34:04Z</time>
      </trkpt>
      <trkpt lat="47.07636" lon="-1.76355">
        <ele>22.067</ele>
        <time>2011-09-25T07:34:07Z</time>
      </trkpt>
      <trkpt lat="47.07629" lon="-1.76336">
        <ele>22.066</ele>
        <time>2011-09-25T07:34:10Z</time>
      </trkpt>
      <trkpt lat="47.07619" lon="-1.7632">
        <ele>22.066</ele>
        <time>2011-09-25T07:34:13Z</time>
      </trkpt>
      <trkpt lat="47.07607" lon="-1.76314">
        <ele>22.067</ele>
        <time>2011-09-25T07:34:16Z</time>
      </trkpt>
      <trkpt lat="47.07596" lon="-1.76318">
        <ele>22.067</ele>
        <time>2011-09-25T07:34:19Z</time>
      </trkpt>
      <trkpt lat="47.07586" lon="-1.76328">
        <ele>22.067</ele>
        <time>2011-09-25T07:34:22Z</time>
      </trkpt>
      <trkpt lat="47.07578" lon="-1.76335">
        <ele>21.929</ele>
        <time>2011-09-25T07:34:24Z</time>
      </trkpt>
      <trkpt lat="47.0757" lon="-1.7634">
        <ele>21.569</ele>
        <time>2011-09-25T07:34:26Z</time>
      </trkpt>
      <trkpt lat="47.07557" lon="-1.76348">
        <ele>21.2</ele>
        <time>2011-09-25T07:34:29Z</time>
      </trkpt>
      <trkpt lat="47.07543" lon="-1.76358">
        <ele>21.024</ele>
        <time>2011-09-25T07:34:32Z</time>
      </trkpt>
      <trkpt lat="47.07527" lon="-1.7637">
        <ele>21.136</ele>
        <time>2011-09-25T07:34:35Z</time>
      </trkpt>
      <trkpt lat="47.07511" lon="-1.76382">
        <ele>21.525</ele>
        <time>2011-09-25T07:34:38Z</time>
      </trkpt>
      <trkpt lat="47.07496" lon="-1.76393">
        <ele>21.925</ele>
        <time>2011-09-25T07:34:41Z</time>
      </trkpt>
      <trkpt lat="47.07482" lon="-1.76403">
        <ele>22.114</ele>
        <time>2011-09-25T07:34:44Z</time>
      </trkpt>
      <trkpt lat="47.07474" lon="-1.7641">
        <ele>22.143</ele>
        <time>2011-09-25T07:34:46Z</time>
      </trkpt>
      <trkpt lat="47.07463" lon="-1.76419">
        <ele>22.11</ele>
        <time>2011-09-25T07:34:49Z</time>
      </trkpt>
      <trkpt lat="47.07456" lon="-1.76424">
        <ele>22.216</ele>
        <time>2011-09-25T07:34:51Z</time>
      </trkpt>
      <trkpt lat="47.07445" lon="-1.76432">
        <ele>22.56</ele>
        <time>2011-09-25T07:34:54Z</time>
      </trkpt>
      <trkpt lat="47.07432" lon="-1.76439">
        <ele>22.927</ele>
        <time>2011-09-25T07:34:57Z</time>
      </trkpt>
      <trkpt lat="47.07423" lon="-1.76445">
        <ele>23.105</ele>
        <time>2011-09-25T07:34:59Z</time>
      </trkpt>
      <trkpt lat="47.07415" lon="-1.7645">
        <ele>23.134</ele>
        <time>2011-09-25T07:35:01Z</time>
      </trkpt>
      <trkpt lat="47.07402" lon="-1.7646">
        <ele>23.105</ele>
        <time>2011-09-25T07:35:04Z</time>
      </trkpt>
      <trkpt lat="47.07388" lon="-1.76474">
        <ele>23.075</ele>
        <time>2011-09-25T07:35:07Z</time>
      </trkpt>
      <trkpt lat="47.07376" lon="-1.76488">
        <ele>23.061</ele>
        <time>2011-09-25T07:35:10Z</time>
      </trkpt>
      <trkpt lat="47.07369" lon="-1.76497">
        <ele>23.059</ele>
        <time>2011-09-25T07:35:12Z</time>
      </trkpt>
      <trkpt lat="47.07357" lon="-1.7651">
        <ele>23.199</ele>
        <time>2011-09-25T07:35:15Z</time>
      </trkpt>
      <trkpt lat="47.07344" lon="-1.76521">
        <ele>23.561</ele>
        <time>2011-09-25T07:35:18Z</time>
      </trkpt>
      <trkpt lat="47.07336" lon="-1.76528">
        <ele>23.932</ele>
        <time>2011-09-25T07:35:20Z</time>
      </trkpt>
      <trkpt lat="47.07324" lon="-1.76538">
        <ele>24.245</ele>
        <time>2011-09-25T07:35:23Z</time>
      </trkpt>
      <trkpt lat="47.07316" lon="-1.76545">
        <ele>24.631</ele>
        <time>2011-09-25T07:35:25Z</time>
      </trkpt>
      <trkpt lat="47.07304" lon="-1.76556">
        <ele>24.97</ele>
        <time>2011-09-25T07:35:28Z</time>
      </trkpt>
      <trkpt lat="47.07296" lon="-1.76565">
        <ele>25.115</ele>
        <time>2011-09-25T07:35:30Z</time>
      </trkpt>
      <trkpt lat="47.07288" lon="-1.76575">
        <ele>25.128</ele>
        <time>2011-09-25T07:35:32Z</time>
      </trkpt>
      <trkpt lat="47.07277" lon="-1.76588">
        <ele>25.096</ele>
        <time>2011-09-25T07:35:35Z</time>
      </trkpt>
      <trkpt lat="47.0727" lon="-1.76596">
        <ele>25.068</ele>
        <time>2011-09-25T07:35:37Z</time>
      </trkpt>
      <trkpt lat="47.0726" lon="-1.76606">
        <ele>25.056</ele>
        <time>2011-09-25T07:35:40Z</time>
      </trkpt>
      <trkpt lat="47.07252" lon="-1.76616">
        <ele>25.055</ele>
        <time>2011-09-25T07:35:43Z</time>
      </trkpt>
      <trkpt lat="47.07243" lon="-1.76625">
        <ele>25.058</ele>
        <time>2011-09-25T07:35:46Z</time>
      </trkpt>
      <trkpt lat="47.07234" lon="-1.76632">
        <ele>25.06</ele>
        <time>2011-09-25T07:35:48Z</time>
      </trkpt>
      <trkpt lat="47.07218" lon="-1.76644">
        <ele>25.199</ele>
        <time>2011-09-25T07:35:51Z</time>
      </trkpt>
      <trkpt lat="47.07199" lon="-1.76657">
        <ele>25.559</ele>
        <time>2011-09-25T07:35:54Z</time>
      </trkpt>
      <trkpt lat="47.07187" lon="-1.76666">
        <ele>26.066</ele>
        <time>2011-09-25T07:35:56Z</time>
      </trkpt>
      <trkpt lat="47.07171" lon="-1.7668">
        <ele>26.601</ele>
        <time>2011-09-25T07:35:59Z</time>
      </trkpt>
      <trkpt lat="47.07161" lon="-1.76689">
        <ele>26.997</ele>
        <time>2011-09-25T07:36:01Z</time>
      </trkpt>
      <trkpt lat="47.07149" lon="-1.76699">
        <ele>27.142</ele>
        <time>2011-09-25T07:36:04Z</time>
      </trkpt>
      <trkpt lat="47.07138" lon="-1.7671">
        <ele>27.138</ele>
        <time>2011-09-25T07:36:07Z</time>
      </trkpt>
      <trkpt lat="47.07128" lon="-1.76722">
        <ele>27.094</ele>
        <time>2011-09-25T07:36:10Z</time>
      </trkpt>
      <trkpt lat="47.07118" lon="-1.76734">
        <ele>27.062</ele>
        <time>2011-09-25T07:36:13Z</time>
      </trkpt>
      <trkpt lat="47.07107" lon="-1.76746">
        <ele>27.05</ele>
        <time>2011-09-25T07:36:16Z</time>
      </trkpt>
      <trkpt lat="47.07097" lon="-1.76759">
        <ele>27.05</ele>
        <time>2011-09-25T07:36:19Z</time>
      </trkpt>
      <trkpt lat="47.07086" lon="-1.7677">
        <ele>27.054</ele>
        <time>2011-09-25T07:36:22Z</time>
      </trkpt>
      <trkpt lat="47.07077" lon="-1.76782">
        <ele>27.195</ele>
        <time>2011-09-25T07:36:25Z</time>
      </trkpt>
      <trkpt lat="47.07068" lon="-1.76792">
        <ele>27.693</ele>
        <time>2011-09-25T07:36:28Z</time>
      </trkpt>
      <trkpt lat="47.0706" lon="-1.76804">
        <ele>28.422</ele>
        <time>2011-09-25T07:36:31Z</time>
      </trkpt>
      <trkpt lat="47.07052" lon="-1.76818">
        <ele>28.967</ele>
        <time>2011-09-25T07:36:34Z</time>
      </trkpt>
      <trkpt lat="47.07047" lon="-1.76827">
        <ele>29.168</ele>
        <time>2011-09-25T07:36:36Z</time>
      </trkpt>
      <trkpt lat="47.07041" lon="-1.76837">
        <ele>29.165</ele>
        <time>2011-09-25T07:36:38Z</time>
      </trkpt>
      <trkpt lat="47.07032" lon="-1.76849">
        <ele>29.104</ele>
        <time>2011-09-25T07:36:41Z</time>
      </trkpt>
      <trkpt lat="47.07027" lon="-1.76858">
        <ele>29.06</ele>
        <time>2011-09-25T07:36:43Z</time>
      </trkpt>
      <trkpt lat="47.07018" lon="-1.76871">
        <ele>29.044</ele>
        <time>2011-09-25T07:36:46Z</time>
      </trkpt>
      <trkpt lat="47.07011" lon="-1.76881">
        <ele>29.044</ele>
        <time>2011-09-25T07:36:48Z</time>
      </trkpt>
      <trkpt lat="47.07001" lon="-1.76895">
        <ele>29.049</ele>
        <time>2011-09-25T07:36:51Z</time>
      </trkpt>
      <trkpt lat="47.06991" lon="-1.76907">
        <ele>29.053</ele>
        <time>2011-09-25T07:36:54Z</time>
      </trkpt>
      <trkpt lat="47.06985" lon="-1.76915">
        <ele>29.192</ele>
        <time>2011-09-25T07:36:56Z</time>
      </trkpt>
      <trkpt lat="47.06978" lon="-1.76924">
        <ele>29.552</ele>
        <time>2011-09-25T07:36:59Z</time>
      </trkpt>
      <trkpt lat="47.0697" lon="-1.76935">
        <ele>30.059</ele>
        <time>2011-09-25T07:37:02Z</time>
      </trkpt>
      <trkpt lat="47.06962" lon="-1.76945">
        <ele>30.593</ele>
        <time>2011-09-25T07:37:05Z</time>
      </trkpt>
      <trkpt lat="47.06954" lon="-1.76956">
        <ele>31.127</ele>
        <time>2011-09-25T07:37:08Z</time>
      </trkpt>
      <trkpt lat="47.06948" lon="-1.76962">
        <ele>31.632</ele>
        <time>2011-09-25T07:37:10Z</time>
      </trkpt>
      <trkpt lat="47.06938" lon="-1.76961">
        <ele>32.136</ele>
        <time>2011-09-25T07:37:13Z</time>
      </trkpt>
      <trkpt lat="47.06932" lon="-1.76954">
        <ele>32.627</ele>
        <time>2011-09-25T07:37:15Z</time>
      </trkpt>
      <trkpt lat="47.06926" lon="-1.7694">
        <ele>32.991</ele>
        <time>2011-09-25T07:37:18Z</time>
      </trkpt>
      <trkpt lat="47.06918" lon="-1.76922">
        <ele>33.125</ele>
        <time>2011-09-25T07:37:21Z</time>
      </trkpt>
      <trkpt lat="47.06913" lon="-1.7691">
        <ele>33.122</ele>
        <time>2011-09-25T07:37:23Z</time>
      </trkpt>
      <trkpt lat="47.06906" lon="-1.76893">
        <ele>33.081</ele>
        <time>2011-09-25T07:37:26Z</time>
      </trkpt>
      <trkpt lat="47.06899" lon="-1.76877">
        <ele>33.052</ele>
        <time>2011-09-25T07:37:29Z</time>
      </trkpt>
      <trkpt lat="47.06891" lon="-1.76862">
        <ele>33.041</ele>
        <time>2011-09-25T07:37:32Z</time>
      </trkpt>
      <trkpt lat="47.06878" lon="-1.76852">
        <ele>33.042</ele>
        <time>2011-09-25T07:37:35Z</time>
      </trkpt>
      <trkpt lat="47.06868" lon="-1.76848">
        <ele>33.045</ele>
        <time>2011-09-25T07:37:37Z</time>
      </trkpt>
      <trkpt lat="47.06855" lon="-1.76848">
        <ele>32.909</ele>
        <time>2011-09-25T07:37:40Z</time>
      </trkpt>
      <trkpt lat="47.06842" lon="-1.76851">
        <ele>32.55</ele>
        <time>2011-09-25T07:37:43Z</time>
      </trkpt>
      <trkpt lat="47.0683" lon="-1.76855">
        <ele>32.181</ele>
        <time>2011-09-25T07:37:46Z</time>
      </trkpt>
      <trkpt lat="47.06818" lon="-1.7686">
        <ele>32.005</ele>
        <time>2011-09-25T07:37:49Z</time>
      </trkpt>
      <trkpt lat="47.0681" lon="-1.76862">
        <ele>31.979</ele>
        <time>2011-09-25T07:37:51Z</time>
      </trkpt>
      <trkpt lat="47.06802" lon="-1.76864">
        <ele>32.009</ele>
        <time>2011-09-25T07:37:53Z</time>
      </trkpt>
      <trkpt lat="47.0679" lon="-1.76867">
        <ele>32.039</ele>
        <time>2011-09-25T07:37:56Z</time>
      </trkpt>
      <trkpt lat="47.06778" lon="-1.7687">
        <ele>32.191</ele>
        <time>2011-09-25T07:37:59Z</time>
      </trkpt>
      <trkpt lat="47.06766" lon="-1.76873">
        <ele>32.553</ele>
        <time>2011-09-25T07:38:02Z</time>
      </trkpt>
      <trkpt lat="47.06754" lon="-1.76876">
        <ele>32.92</ele>
        <time>2011-09-25T07:38:05Z</time>
      </trkpt>
      <trkpt lat="47.06743" lon="-1.7688">
        <ele>33.231</ele>
        <time>2011-09-25T07:38:08Z</time>
      </trkpt>
      <trkpt lat="47.06731" lon="-1.76885">
        <ele>33.616</ele>
        <time>2011-09-25T07:38:11Z</time>
      </trkpt>
      <trkpt lat="47.06719" lon="-1.76888">
        <ele>33.955</ele>
        <time>2011-09-25T07:38:14Z</time>
      </trkpt>
      <trkpt lat="47.06711" lon="-1.7689">
        <ele>34.1</ele>
        <time>2011-09-25T07:38:16Z</time>
      </trkpt>
      <trkpt lat="47.067" lon="-1.76892">
        <ele>34.251</ele>
        <time>2011-09-25T07:38:19Z</time>
      </trkpt>
      <trkpt lat="47.06692" lon="-1.76893">
        <ele>34.579</ele>
        <time>2011-09-25T07:38:21Z</time>
      </trkpt>
      <trkpt lat="47.06681" lon="-1.76895">
        <ele>34.921</ele>
        <time>2011-09-25T07:38:24Z</time>
      </trkpt>
      <trkpt lat="47.06674" lon="-1.76896">
        <ele>35.084</ele>
        <time>2011-09-25T07:38:26Z</time>
      </trkpt>
      <trkpt lat="47.06667" lon="-1.76898">
        <ele>35.11</ele>
        <time>2011-09-25T07:38:28Z</time>
      </trkpt>
      <trkpt lat="47.06657" lon="-1.769">
        <ele>34.944</ele>
        <time>2011-09-25T07:38:31Z</time>
      </trkpt>
      <trkpt lat="47.06648" lon="-1.76902">
        <ele>34.557</ele>
        <time>2011-09-25T07:38:34Z</time>
      </trkpt>
      <trkpt lat="47.06639" lon="-1.76903">
        <ele>34.174</ele>
        <time>2011-09-25T07:38:37Z</time>
      </trkpt>
      <trkpt lat="47.06628" lon="-1.76905">
        <ele>33.997</ele>
        <time>2011-09-25T07:38:40Z</time>
      </trkpt>
      <trkpt lat="47.06621" lon="-1.76907">
        <ele>33.972</ele>
        <time>2011-09-25T07:38:42Z</time>
      </trkpt>
      <trkpt lat="47.06607" lon="-1.76911">
        <ele>34.005</ele>
        <time>2011-09-25T07:38:45Z</time>
      </trkpt>
      <trkpt lat="47.06597" lon="-1.76914">
        <ele>34.036</ele>
        <time>2011-09-25T07:38:47Z</time>
      </trkpt>
      <trkpt lat="47.06587" lon="-1.76918">
        <ele>34.05</ele>
        <time>2011-09-25T07:38:49Z</time>
      </trkpt>
      <trkpt lat="47.06576" lon="-1.76922">
        <ele>34.052</ele>
        <time>2011-09-25T07:38:51Z</time>
      </trkpt>
      <trkpt lat="47.06561" lon="-1.76927">
        <ele>34.049</ele>
        <time>2011-09-25T07:38:54Z</time>
      </trkpt>
      <trkpt lat="47.06552" lon="-1.76931">
        <ele>34.185</ele>
        <time>2011-09-25T07:38:56Z</time>
      </trkpt>
      <trkpt lat="47.06543" lon="-1.76935">
        <ele>34.543</ele>
        <time>2011-09-25T07:38:58Z</time>
      </trkpt>
      <trkpt lat="47.0653" lon="-1.76943">
        <ele>34.912</ele>
        <time>2011-09-25T07:39:01Z</time>
      </trkpt>
      <trkpt lat="47.06516" lon="-1.76953">
        <ele>35.088</ele>
        <time>2011-09-25T07:39:04Z</time>
      </trkpt>
      <trkpt lat="47.06502" lon="-1.76963">
        <ele>35.115</ele>
        <time>2011-09-25T07:39:07Z</time>
      </trkpt>
      <trkpt lat="47.06488" lon="-1.76972">
        <ele>35.085</ele>
        <time>2011-09-25T07:39:10Z</time>
      </trkpt>
      <trkpt lat="47.06473" lon="-1.76981">
        <ele>35.054</ele>
        <time>2011-09-25T07:39:13Z</time>
      </trkpt>
      <trkpt lat="47.06458" lon="-1.76991">
        <ele>35.04</ele>
        <time>2011-09-25T07:39:16Z</time>
      </trkpt>
      <trkpt lat="47.06443" lon="-1.77004">
        <ele>35.038</ele>
        <time>2011-09-25T07:39:19Z</time>
      </trkpt>
      <trkpt lat="47.06425" lon="-1.77015">
        <ele>35.04</ele>
        <time>2011-09-25T07:39:22Z</time>
      </trkpt>
      <trkpt lat="47.06408" lon="-1.77029">
        <ele>35.043</ele>
        <time>2011-09-25T07:39:25Z</time>
      </trkpt>
      <trkpt lat="47.06392" lon="-1.77047">
        <ele>35.044</ele>
        <time>2011-09-25T07:39:28Z</time>
      </trkpt>
      <trkpt lat="47.06378" lon="-1.77066">
        <ele>35.044</ele>
        <time>2011-09-25T07:39:31Z</time>
      </trkpt>
      <trkpt lat="47.06362" lon="-1.77083">
        <ele>35.043</ele>
        <time>2011-09-25T07:39:34Z</time>
      </trkpt>
      <trkpt lat="47.06347" lon="-1.77101">
        <ele>35.043</ele>
        <time>2011-09-25T07:39:37Z</time>
      </trkpt>
      <trkpt lat="47.06328" lon="-1.77112">
        <ele>35.043</ele>
        <time>2011-09-25T07:39:40Z</time>
      </trkpt>
      <trkpt lat="47.06308" lon="-1.77119">
        <ele>34.904</ele>
        <time>2011-09-25T07:39:43Z</time>
      </trkpt>
      <trkpt lat="47.06295" lon="-1.77123">
        <ele>34.544</ele>
        <time>2011-09-25T07:39:45Z</time>
      </trkpt>
      <trkpt lat="47.06283" lon="-1.77126">
        <ele>34.175</ele>
        <time>2011-09-25T07:39:47Z</time>
      </trkpt>
      <trkpt lat="47.06272" lon="-1.77127">
        <ele>33.861</ele>
        <time>2011-09-25T07:39:49Z</time>
      </trkpt>
      <trkpt lat="47.06259" lon="-1.77128">
        <ele>33.336</ele>
        <time>2011-09-25T07:39:52Z</time>
      </trkpt>
      <trkpt lat="47.06253" lon="-1.77127">
        <ele>32.637</ele>
        <time>2011-09-25T07:39:54Z</time>
      </trkpt>
      <trkpt lat="47.06253" lon="-1.77127">
        <ele>32.122</ele>
        <time>2011-09-25T07:39:56Z</time>
      </trkpt>
      <trkpt lat="47.06233" lon="-1.77125">
        <ele>31.935</ele>
        <time>2011-09-25T07:40:03Z</time>
      </trkpt>
      <trkpt lat="47.06224" lon="-1.77125">
        <ele>31.802</ele>
        <time>2011-09-25T07:40:05Z</time>
      </trkpt>
      <trkpt lat="47.06213" lon="-1.77126">
        <ele>31.361</ele>
        <time>2011-09-25T07:40:08Z</time>
      </trkpt>
      <trkpt lat="47.06201" lon="-1.77126">
        <ele>30.536</ele>
        <time>2011-09-25T07:40:11Z</time>
      </trkpt>
      <trkpt lat="47.06188" lon="-1.77127">
        <ele>29.646</ele>
        <time>2011-09-25T07:40:14Z</time>
      </trkpt>
      <trkpt lat="47.06177" lon="-1.77127">
        <ele>29.074</ele>
        <time>2011-09-25T07:40:16Z</time>
      </trkpt>
      <trkpt lat="47.06167" lon="-1.77128">
        <ele>28.898</ele>
        <time>2011-09-25T07:40:18Z</time>
      </trkpt>
      <trkpt lat="47.06152" lon="-1.77131">
        <ele>28.928</ele>
        <time>2011-09-25T07:40:21Z</time>
      </trkpt>
      <trkpt lat="47.06139" lon="-1.7714">
        <ele>29.001</ele>
        <time>2011-09-25T07:40:24Z</time>
      </trkpt>
      <trkpt lat="47.06131" lon="-1.77145">
        <ele>29.047</ele>
        <time>2011-09-25T07:40:26Z</time>
      </trkpt>
      <trkpt lat="47.0612" lon="-1.77153">
        <ele>29.061</ele>
        <time>2011-09-25T07:40:29Z</time>
      </trkpt>
      <trkpt lat="47.06108" lon="-1.77158">
        <ele>29.058</ele>
        <time>2011-09-25T07:40:32Z</time>
      </trkpt>
      <trkpt lat="47.061" lon="-1.77162">
        <ele>29.052</ele>
        <time>2011-09-25T07:40:34Z</time>
      </trkpt>
      <trkpt lat="47.06087" lon="-1.77168">
        <ele>29.048</ele>
        <time>2011-09-25T07:40:37Z</time>
      </trkpt>
      <trkpt lat="47.06075" lon="-1.77173">
        <ele>29.047</ele>
        <time>2011-09-25T07:40:40Z</time>
      </trkpt>
      <trkpt lat="47.06065" lon="-1.77178">
        <ele>29.186</ele>
        <time>2011-09-25T07:40:42Z</time>
      </trkpt>
      <trkpt lat="47.0605" lon="-1.77186">
        <ele>29.546</ele>
        <time>2011-09-25T07:40:45Z</time>
      </trkpt>
      <trkpt lat="47.0604" lon="-1.7719">
        <ele>29.915</ele>
        <time>2011-09-25T07:40:47Z</time>
      </trkpt>
      <trkpt lat="47.0603" lon="-1.77195">
        <ele>30.091</ele>
        <time>2011-09-25T07:40:49Z</time>
      </trkpt>
      <trkpt lat="47.06016" lon="-1.77203">
        <ele>30.117</ele>
        <time>2011-09-25T07:40:52Z</time>
      </trkpt>
      <trkpt lat="47.06003" lon="-1.77211">
        <ele>29.949</ele>
        <time>2011-09-25T07:40:55Z</time>
      </trkpt>
      <trkpt lat="47.0599" lon="-1.7722">
        <ele>29.559</ele>
        <time>2011-09-25T07:40:58Z</time>
      </trkpt>
      <trkpt lat="47.05978" lon="-1.77231">
        <ele>29.175</ele>
        <time>2011-09-25T07:41:01Z</time>
      </trkpt>
      <trkpt lat="47.05971" lon="-1.77239">
        <ele>28.998</ele>
        <time>2011-09-25T07:41:03Z</time>
      </trkpt>
      <trkpt lat="47.05964" lon="-1.77246">
        <ele>29.112</ele>
        <time>2011-09-25T07:41:05Z</time>
      </trkpt>
      <trkpt lat="47.05952" lon="-1.77256">
        <ele>29.642</ele>
        <time>2011-09-25T07:41:08Z</time>
      </trkpt>
      <trkpt lat="47.05939" lon="-1.77267">
        <ele>30.541</ele>
        <time>2011-09-25T07:41:11Z</time>
      </trkpt>
      <trkpt lat="47.05925" lon="-1.77277">
        <ele>31.598</ele>
        <time>2011-09-25T07:41:14Z</time>
      </trkpt>
      <trkpt lat="47.05911" lon="-1.77287">
        <ele>32.669</ele>
        <time>2011-09-25T07:41:17Z</time>
      </trkpt>
      <trkpt lat="47.05901" lon="-1.77294">
        <ele>33.567</ele>
        <time>2011-09-25T07:41:19Z</time>
      </trkpt>
      <trkpt lat="47.05886" lon="-1.77304">
        <ele>34.214</ele>
        <time>2011-09-25T07:41:22Z</time>
      </trkpt>
      <trkpt lat="47.05869" lon="-1.77316">
        <ele>34.838</ele>
        <time>2011-09-25T07:41:25Z</time>
      </trkpt>
      <trkpt lat="47.05853" lon="-1.77327">
        <ele>35.656</ele>
        <time>2011-09-25T07:41:28Z</time>
      </trkpt>
      <trkpt lat="47.05838" lon="-1.77339">
        <ele>36.487</ele>
        <time>2011-09-25T07:41:31Z</time>
      </trkpt>
      <trkpt lat="47.05821" lon="-1.77345">
        <ele>37.155</ele>
        <time>2011-09-25T07:41:34Z</time>
      </trkpt>
      <trkpt lat="47.05804" lon="-1.77344">
        <ele>37.815</ele>
        <time>2011-09-25T07:41:37Z</time>
      </trkpt>
      <trkpt lat="47.05785" lon="-1.77341">
        <ele>38.653</ele>
        <time>2011-09-25T07:41:40Z</time>
      </trkpt>
      <trkpt lat="47.05766" lon="-1.77336">
        <ele>39.489</ele>
        <time>2011-09-25T07:41:43Z</time>
      </trkpt>
      <trkpt lat="47.05749" lon="-1.77329">
        <ele>40.017</ele>
        <time>2011-09-25T07:41:46Z</time>
      </trkpt>
      <trkpt lat="47.05737" lon="-1.77324">
        <ele>40.176</ele>
        <time>2011-09-25T07:41:48Z</time>
      </trkpt>
      <trkpt lat="47.05725" lon="-1.7732">
        <ele>40.007</ele>
        <time>2011-09-25T07:41:50Z</time>
      </trkpt>
      <trkpt lat="47.05707" lon="-1.77314">
        <ele>39.44</ele>
        <time>2011-09-25T07:41:53Z</time>
      </trkpt>
      <trkpt lat="47.05687" lon="-1.77309">
        <ele>38.668</ele>
        <time>2011-09-25T07:41:56Z</time>
      </trkpt>
      <trkpt lat="47.05667" lon="-1.77303">
        <ele>37.973</ele>
        <time>2011-09-25T07:41:59Z</time>
      </trkpt>
      <trkpt lat="47.05654" lon="-1.77298">
        <ele>37.276</ele>
        <time>2011-09-25T07:42:01Z</time>
      </trkpt>
      <trkpt lat="47.05634" lon="-1.77291">
        <ele>36.279</ele>
        <time>2011-09-25T07:42:04Z</time>
      </trkpt>
      <trkpt lat="47.05614" lon="-1.77284">
        <ele>34.94</ele>
        <time>2011-09-25T07:42:07Z</time>
      </trkpt>
      <trkpt lat="47.05601" lon="-1.7728">
        <ele>33.546</ele>
        <time>2011-09-25T07:42:09Z</time>
      </trkpt>
      <trkpt lat="47.05587" lon="-1.77277">
        <ele>32.486</ele>
        <time>2011-09-25T07:42:11Z</time>
      </trkpt>
      <trkpt lat="47.05567" lon="-1.77272">
        <ele>31.947</ele>
        <time>2011-09-25T07:42:14Z</time>
      </trkpt>
      <trkpt lat="47.05547" lon="-1.77266">
        <ele>31.844</ele>
        <time>2011-09-25T07:42:17Z</time>
      </trkpt>
      <trkpt lat="47.05533" lon="-1.77264">
        <ele>31.782</ele>
        <time>2011-09-25T07:42:19Z</time>
      </trkpt>
      <trkpt lat="47.05512" lon="-1.77262">
        <ele>31.509</ele>
        <time>2011-09-25T07:42:22Z</time>
      </trkpt>
      <trkpt lat="47.05491" lon="-1.77256">
        <ele>31.045</ele>
        <time>2011-09-25T07:42:25Z</time>
      </trkpt>
      <trkpt lat="47.05471" lon="-1.77255">
        <ele>30.518</ele>
        <time>2011-09-25T07:42:28Z</time>
      </trkpt>
      <trkpt lat="47.05456" lon="-1.77255">
        <ele>30.115</ele>
        <time>2011-09-25T07:42:31Z</time>
      </trkpt>
      <trkpt lat="47.05447" lon="-1.77255">
        <ele>29.963</ele>
        <time>2011-09-25T07:42:34Z</time>
      </trkpt>
      <trkpt lat="47.05435" lon="-1.77255">
        <ele>29.963</ele>
        <time>2011-09-25T07:42:37Z</time>
      </trkpt>
      <trkpt lat="47.05423" lon="-1.77254">
        <ele>29.868</ele>
        <time>2011-09-25T07:42:39Z</time>
      </trkpt>
      <trkpt lat="47.05408" lon="-1.77254">
        <ele>29.541</ele>
        <time>2011-09-25T07:42:42Z</time>
      </trkpt>
      <trkpt lat="47.05401" lon="-1.77254">
        <ele>29.184</ele>
        <time>2011-09-25T07:42:44Z</time>
      </trkpt>
      <trkpt lat="47.05394" lon="-1.77254">
        <ele>28.87</ele>
        <time>2011-09-25T07:42:46Z</time>
      </trkpt>
      <trkpt lat="47.05383" lon="-1.77254">
        <ele>28.48</ele>
        <time>2011-09-25T07:42:49Z</time>
      </trkpt>
      <trkpt lat="47.05376" lon="-1.77254">
        <ele>28.138</ele>
        <time>2011-09-25T07:42:51Z</time>
      </trkpt>
      <trkpt lat="47.05369" lon="-1.77255">
        <ele>27.992</ele>
        <time>2011-09-25T07:42:53Z</time>
      </trkpt>
      <trkpt lat="47.05361" lon="-1.77256">
        <ele>27.979</ele>
        <time>2011-09-25T07:42:55Z</time>
      </trkpt>
      <trkpt lat="47.05348" lon="-1.77257">
        <ele>28.012</ele>
        <time>2011-09-25T07:42:58Z</time>
      </trkpt>
      <trkpt lat="47.05335" lon="-1.77257">
        <ele>28.039</ele>
        <time>2011-09-25T07:43:01Z</time>
      </trkpt>
      <trkpt lat="47.05321" lon="-1.77256">
        <ele>27.913</ele>
        <time>2011-09-25T07:43:04Z</time>
      </trkpt>
      <trkpt lat="47.05311" lon="-1.77256">
        <ele>27.554</ele>
        <time>2011-09-25T07:43:06Z</time>
      </trkpt>
      <trkpt lat="47.05302" lon="-1.77256">
        <ele>27.182</ele>
        <time>2011-09-25T07:43:08Z</time>
      </trkpt>
      <trkpt lat="47.05289" lon="-1.77256">
        <ele>27.004</ele>
        <time>2011-09-25T07:43:11Z</time>
      </trkpt>
      <trkpt lat="47.05276" lon="-1.77255">
        <ele>26.977</ele>
        <time>2011-09-25T07:43:14Z</time>
      </trkpt>
      <trkpt lat="47.05262" lon="-1.77255">
        <ele>27.006</ele>
        <time>2011-09-25T07:43:17Z</time>
      </trkpt>
      <trkpt lat="47.05254" lon="-1.77255">
        <ele>27.037</ele>
        <time>2011-09-25T07:43:19Z</time>
      </trkpt>
      <trkpt lat="47.05239" lon="-1.77255">
        <ele>27.051</ele>
        <time>2011-09-25T07:43:22Z</time>
      </trkpt>
      <trkpt lat="47.05224" lon="-1.77256">
        <ele>27.053</ele>
        <time>2011-09-25T07:43:25Z</time>
      </trkpt>
      <trkpt lat="47.05214" lon="-1.77256">
        <ele>27.051</ele>
        <time>2011-09-25T07:43:27Z</time>
      </trkpt>
      <trkpt lat="47.05199" lon="-1.77257">
        <ele>27.048</ele>
        <time>2011-09-25T07:43:30Z</time>
      </trkpt>
      <trkpt lat="47.05184" lon="-1.77259">
        <ele>27.047</ele>
        <time>2011-09-25T07:43:33Z</time>
      </trkpt>
      <trkpt lat="47.05169" lon="-1.7726">
        <ele>27.047</ele>
        <time>2011-09-25T07:43:36Z</time>
      </trkpt>
      <trkpt lat="47.05159" lon="-1.7726">
        <ele>27.047</ele>
        <time>2011-09-25T07:43:38Z</time>
      </trkpt>
      <trkpt lat="47.05144" lon="-1.77262">
        <ele>27.185</ele>
        <time>2011-09-25T07:43:41Z</time>
      </trkpt>
      <trkpt lat="47.05129" lon="-1.77263">
        <ele>27.545</ele>
        <time>2011-09-25T07:43:44Z</time>
      </trkpt>
      <trkpt lat="47.05114" lon="-1.77262">
        <ele>28.053</ele>
        <time>2011-09-25T07:43:47Z</time>
      </trkpt>
      <trkpt lat="47.05099" lon="-1.77262">
        <ele>28.588</ele>
        <time>2011-09-25T07:43:50Z</time>
      </trkpt>
      <trkpt lat="47.05085" lon="-1.77263">
        <ele>28.984</ele>
        <time>2011-09-25T07:43:53Z</time>
      </trkpt>
      <trkpt lat="47.05071" lon="-1.77264">
        <ele>29.129</ele>
        <time>2011-09-25T07:43:56Z</time>
      </trkpt>
      <trkpt lat="47.05061" lon="-1.77264">
        <ele>29.125</ele>
        <time>2011-09-25T07:43:58Z</time>
      </trkpt>
      <trkpt lat="47.05046" lon="-1.77262">
        <ele>29.081</ele>
        <time>2011-09-25T07:44:01Z</time>
      </trkpt>
      <trkpt lat="47.05037" lon="-1.77261">
        <ele>29.049</ele>
        <time>2011-09-25T07:44:03Z</time>
      </trkpt>
      <trkpt lat="47.05027" lon="-1.77261">
        <ele>29.037</ele>
        <time>2011-09-25T07:44:05Z</time>
      </trkpt>
      <trkpt lat="47.05013" lon="-1.77262">
        <ele>29.176</ele>
        <time>2011-09-25T07:44:08Z</time>
      </trkpt>
      <trkpt lat="47.04998" lon="-1.77264">
        <ele>29.539</ele>
        <time>2011-09-25T07:44:11Z</time>
      </trkpt>
      <trkpt lat="47.04989" lon="-1.77266">
        <ele>29.911</ele>
        <time>2011-09-25T07:44:13Z</time>
      </trkpt>
      <trkpt lat="47.04975" lon="-1.77269">
        <ele>30.088</ele>
        <time>2011-09-25T07:44:16Z</time>
      </trkpt>
      <trkpt lat="47.0496" lon="-1.77272">
        <ele>30.114</ele>
        <time>2011-09-25T07:44:19Z</time>
      </trkpt>
      <trkpt lat="47.04943" lon="-1.77272">
        <ele>30.084</ele>
        <time>2011-09-25T07:44:22Z</time>
      </trkpt>
      <trkpt lat="47.04927" lon="-1.77271">
        <ele>30.192</ele>
        <time>2011-09-25T07:44:25Z</time>
      </trkpt>
      <trkpt lat="47.04911" lon="-1.7727">
        <ele>30.537</ele>
        <time>2011-09-25T07:44:28Z</time>
      </trkpt>
      <trkpt lat="47.049" lon="-1.77269">
        <ele>31.043</ele>
        <time>2011-09-25T07:44:30Z</time>
      </trkpt>
      <trkpt lat="47.04889" lon="-1.77268">
        <ele>31.58</ele>
        <time>2011-09-25T07:44:32Z</time>
      </trkpt>
      <trkpt lat="47.04874" lon="-1.77267">
        <ele>31.979</ele>
        <time>2011-09-25T07:44:35Z</time>
      </trkpt>
      <trkpt lat="47.04861" lon="-1.77265">
        <ele>32.263</ele>
        <time>2011-09-25T07:44:38Z</time>
      </trkpt>
      <trkpt lat="47.0485" lon="-1.77264">
        <ele>32.62</ele>
        <time>2011-09-25T07:44:41Z</time>
      </trkpt>
      <trkpt lat="47.04842" lon="-1.77261">
        <ele>32.945</ele>
        <time>2011-09-25T07:44:44Z</time>
      </trkpt>
      <trkpt lat="47.04832" lon="-1.77258">
        <ele>33.088</ele>
        <time>2011-09-25T07:44:47Z</time>
      </trkpt>
      <trkpt lat="47.0482" lon="-1.77253">
        <ele>33.103</ele>
        <time>2011-09-25T07:44:50Z</time>
      </trkpt>
      <trkpt lat="47.04808" lon="-1.77249">
        <ele>33.073</ele>
        <time>2011-09-25T07:44:52Z</time>
      </trkpt>
      <trkpt lat="47.0479" lon="-1.77247">
        <ele>33.047</ele>
        <time>2011-09-25T07:44:55Z</time>
      </trkpt>
      <trkpt lat="47.04773" lon="-1.77246">
        <ele>33.035</ele>
        <time>2011-09-25T07:44:58Z</time>
      </trkpt>
      <trkpt lat="47.04761" lon="-1.77246">
        <ele>33.034</ele>
        <time>2011-09-25T07:45:00Z</time>
      </trkpt>
      <trkpt lat="47.04748" lon="-1.77246">
        <ele>32.898</ele>
        <time>2011-09-25T07:45:02Z</time>
      </trkpt>
      <trkpt lat="47.04729" lon="-1.77244">
        <ele>32.541</ele>
        <time>2011-09-25T07:45:05Z</time>
      </trkpt>
      <trkpt lat="47.04709" lon="-1.77242">
        <ele>32.172</ele>
        <time>2011-09-25T07:45:08Z</time>
      </trkpt>
      <trkpt lat="47.04696" lon="-1.77242">
        <ele>31.859</ele>
        <time>2011-09-25T07:45:10Z</time>
      </trkpt>
      <trkpt lat="47.04684" lon="-1.77243">
        <ele>31.472</ele>
        <time>2011-09-25T07:45:12Z</time>
      </trkpt>
      <trkpt lat="47.04666" lon="-1.77245">
        <ele>30.856</ele>
        <time>2011-09-25T07:45:15Z</time>
      </trkpt>
      <trkpt lat="47.04654" lon="-1.77247">
        <ele>29.991</ele>
        <time>2011-09-25T07:45:17Z</time>
      </trkpt>
      <trkpt lat="47.04643" lon="-1.7725">
        <ele>29.24</ele>
        <time>2011-09-25T07:45:19Z</time>
      </trkpt>
      <trkpt lat="47.04626" lon="-1.77252">
        <ele>28.921</ele>
        <time>2011-09-25T07:45:22Z</time>
      </trkpt>
      <trkpt lat="47.04609" lon="-1.77257">
        <ele>28.757</ele>
        <time>2011-09-25T07:45:25Z</time>
      </trkpt>
      <trkpt lat="47.04592" lon="-1.77262">
        <ele>28.469</ele>
        <time>2011-09-25T07:45:28Z</time>
      </trkpt>
      <trkpt lat="47.04575" lon="-1.77267">
        <ele>28.022</ele>
        <time>2011-09-25T07:45:31Z</time>
      </trkpt>
      <trkpt lat="47.04559" lon="-1.77273">
        <ele>27.513</ele>
        <time>2011-09-25T07:45:34Z</time>
      </trkpt>
      <trkpt lat="47.04548" lon="-1.77275">
        <ele>27.118</ele>
        <time>2011-09-25T07:45:36Z</time>
      </trkpt>
      <trkpt lat="47.04535" lon="-1.77262">
        <ele>26.967</ele>
        <time>2011-09-25T07:45:39Z</time>
      </trkpt>
      <trkpt lat="47.0453" lon="-1.77237">
        <ele>26.966</ele>
        <time>2011-09-25T07:45:42Z</time>
      </trkpt>
      <trkpt lat="47.04528" lon="-1.7722">
        <ele>27.008</ele>
        <time>2011-09-25T07:45:44Z</time>
      </trkpt>
      <trkpt lat="47.04526" lon="-1.77199">
        <ele>27.04</ele>
        <time>2011-09-25T07:45:47Z</time>
      </trkpt>
      <trkpt lat="47.04526" lon="-1.77191">
        <ele>27.052</ele>
        <time>2011-09-25T07:45:50Z</time>
      </trkpt>
      <trkpt lat="47.04528" lon="-1.77184">
        <ele>26.914</ele>
        <time>2011-09-25T07:45:53Z</time>
      </trkpt>
      <trkpt lat="47.04531" lon="-1.77179">
        <ele>26.55</ele>
        <time>2011-09-25T07:45:56Z</time>
      </trkpt>
      <trkpt lat="47.04537" lon="-1.77176">
        <ele>26.179</ele>
        <time>2011-09-25T07:45:59Z</time>
      </trkpt>
      <trkpt lat="47.04543" lon="-1.77173">
        <ele>26.003</ele>
        <time>2011-09-25T07:46:01Z</time>
      </trkpt>
      <trkpt lat="47.04549" lon="-1.77167">
        <ele>25.976</ele>
        <time>2011-09-25T07:46:04Z</time>
      </trkpt>
      <trkpt lat="47.04522" lon="-1.77158">
        <ele>26.145</ele>
        <time>2011-09-25T07:46:36Z</time>
      </trkpt>
      <trkpt lat="47.04517" lon="-1.77158">
        <ele>26.535</ele>
        <time>2011-09-25T07:46:39Z</time>
      </trkpt>
      <trkpt lat="47.04517" lon="-1.77158">
        <ele>26.918</ele>
        <time>2011-09-25T07:46:40Z</time>
      </trkpt>
      <trkpt lat="47.04517" lon="-1.77158">
        <ele>27.096</ele>
        <time>2011-09-25T07:47:21Z</time>
      </trkpt>
      <trkpt lat="47.04488" lon="-1.77154">
        <ele>27.12</ele>
        <time>2011-09-25T07:47:47Z</time>
      </trkpt>
      <trkpt lat="47.04478" lon="-1.77153">
        <ele>27.502</ele>
        <time>2011-09-25T07:47:50Z</time>
      </trkpt>
      <trkpt lat="47.04468" lon="-1.77153">
        <ele>28.688</ele>
        <time>2011-09-25T07:47:53Z</time>
      </trkpt>
      <trkpt lat="47.04458" lon="-1.77153">
        <ele>30.419</ele>
        <time>2011-09-25T07:47:56Z</time>
      </trkpt>
      <trkpt lat="47.04448" lon="-1.77152">
        <ele>32.032</ele>
        <time>2011-09-25T07:47:59Z</time>
      </trkpt>
      <trkpt lat="47.04441" lon="-1.77151">
        <ele>33.028</ele>
        <time>2011-09-25T07:48:01Z</time>
      </trkpt>
      <trkpt lat="47.0443" lon="-1.77149">
        <ele>33.318</ele>
        <time>2011-09-25T07:48:04Z</time>
      </trkpt>
      <trkpt lat="47.04423" lon="-1.77147">
        <ele>33.39</ele>
        <time>2011-09-25T07:48:06Z</time>
      </trkpt>
      <trkpt lat="47.04412" lon="-1.77144">
        <ele>33.618</ele>
        <time>2011-09-25T07:48:09Z</time>
      </trkpt>
      <trkpt lat="47.04404" lon="-1.77141">
        <ele>33.906</ele>
        <time>2011-09-25T07:48:11Z</time>
      </trkpt>
      <trkpt lat="47.04391" lon="-1.77137">
        <ele>34.059</ele>
        <time>2011-09-25T07:48:14Z</time>
      </trkpt>
      <trkpt lat="47.04378" lon="-1.77132">
        <ele>34.229</ele>
        <time>2011-09-25T07:48:17Z</time>
      </trkpt>
      <trkpt lat="47.04363" lon="-1.77125">
        <ele>34.57</ele>
        <time>2011-09-25T07:48:20Z</time>
      </trkpt>
      <trkpt lat="47.04352" lon="-1.7712">
        <ele>34.916</ele>
        <time>2011-09-25T07:48:22Z</time>
      </trkpt>
      <trkpt lat="47.04333" lon="-1.77114">
        <ele>35.079</ele>
        <time>2011-09-25T07:48:25Z</time>
      </trkpt>
      <trkpt lat="47.04315" lon="-1.77111">
        <ele>35.103</ele>
        <time>2011-09-25T07:48:28Z</time>
      </trkpt>
      <trkpt lat="47.04297" lon="-1.77115">
        <ele>35.074</ele>
        <time>2011-09-25T07:48:31Z</time>
      </trkpt>
      <trkpt lat="47.0428" lon="-1.77119">
        <ele>35.184</ele>
        <time>2011-09-25T07:48:34Z</time>
      </trkpt>
      <trkpt lat="47.04264" lon="-1.77123">
        <ele>35.531</ele>
        <time>2011-09-25T07:48:37Z</time>
      </trkpt>
      <trkpt lat="47.04247" lon="-1.77126">
        <ele>35.899</ele>
        <time>2011-09-25T07:48:40Z</time>
      </trkpt>
      <trkpt lat="47.04232" lon="-1.77131">
        <ele>36.076</ele>
        <time>2011-09-25T07:48:43Z</time>
      </trkpt>
      <trkpt lat="47.04222" lon="-1.77139">
        <ele>36.105</ele>
        <time>2011-09-25T07:48:45Z</time>
      </trkpt>
      <trkpt lat="47.04206" lon="-1.77151">
        <ele>36.214</ele>
        <time>2011-09-25T07:48:48Z</time>
      </trkpt>
      <trkpt lat="47.04189" lon="-1.7716">
        <ele>36.544</ele>
        <time>2011-09-25T07:48:51Z</time>
      </trkpt>
      <trkpt lat="47.04172" lon="-1.77166">
        <ele>36.899</ele>
        <time>2011-09-25T07:48:54Z</time>
      </trkpt>
      <trkpt lat="47.0416" lon="-1.77167">
        <ele>37.072</ele>
        <time>2011-09-25T07:48:56Z</time>
      </trkpt>
      <trkpt lat="47.04142" lon="-1.77163">
        <ele>37.101</ele>
        <time>2011-09-25T07:48:59Z</time>
      </trkpt>
      <trkpt lat="47.04125" lon="-1.77157">
        <ele>37.074</ele>
        <time>2011-09-25T07:49:02Z</time>
      </trkpt>
      <trkpt lat="47.04113" lon="-1.77153">
        <ele>37.045</ele>
        <time>2011-09-25T07:49:04Z</time>
      </trkpt>
      <trkpt lat="47.04102" lon="-1.77148">
        <ele>37.03</ele>
        <time>2011-09-25T07:49:06Z</time>
      </trkpt>
      <trkpt lat="47.04085" lon="-1.7714">
        <ele>37.028</ele>
        <time>2011-09-25T07:49:09Z</time>
      </trkpt>
      <trkpt lat="47.04073" lon="-1.77133">
        <ele>37.03</ele>
        <time>2011-09-25T07:49:11Z</time>
      </trkpt>
      <trkpt lat="47.04055" lon="-1.77124">
        <ele>37.033</ele>
        <time>2011-09-25T07:49:14Z</time>
      </trkpt>
      <trkpt lat="47.04036" lon="-1.77114">
        <ele>37.034</ele>
        <time>2011-09-25T07:49:17Z</time>
      </trkpt>
      <trkpt lat="47.04022" lon="-1.77109">
        <ele>37.034</ele>
        <time>2011-09-25T07:49:19Z</time>
      </trkpt>
      <trkpt lat="47.04001" lon="-1.77103">
        <ele>37.034</ele>
        <time>2011-09-25T07:49:22Z</time>
      </trkpt>
      <trkpt lat="47.03987" lon="-1.77099">
        <ele>36.895</ele>
        <time>2011-09-25T07:49:24Z</time>
      </trkpt>
      <trkpt lat="47.03972" lon="-1.77094">
        <ele>36.535</ele>
        <time>2011-09-25T07:49:26Z</time>
      </trkpt>
      <trkpt lat="47.03958" lon="-1.7709">
        <ele>36.166</ele>
        <time>2011-09-25T07:49:28Z</time>
      </trkpt>
      <trkpt lat="47.03936" lon="-1.77082">
        <ele>35.991</ele>
        <time>2011-09-25T07:49:31Z</time>
      </trkpt>
      <trkpt lat="47.03913" lon="-1.77071">
        <ele>35.964</ele>
        <time>2011-09-25T07:49:34Z</time>
      </trkpt>
      <trkpt lat="47.0389" lon="-1.77061">
        <ele>35.994</ele>
        <time>2011-09-25T07:49:37Z</time>
      </trkpt>
      <trkpt lat="47.03875" lon="-1.77054">
        <ele>36.024</ele>
        <time>2011-09-25T07:49:39Z</time>
      </trkpt>
      <trkpt lat="47.03859" lon="-1.77048">
        <ele>36.038</ele>
        <time>2011-09-25T07:49:41Z</time>
      </trkpt>
      <trkpt lat="47.03836" lon="-1.77038">
        <ele>36.041</ele>
        <time>2011-09-25T07:49:44Z</time>
      </trkpt>
      <trkpt lat="47.03813" lon="-1.77027">
        <ele>36.038</ele>
        <time>2011-09-25T07:49:47Z</time>
      </trkpt>
      <trkpt lat="47.03792" lon="-1.77015">
        <ele>36.036</ele>
        <time>2011-09-25T07:49:50Z</time>
      </trkpt>
      <trkpt lat="47.03775" lon="-1.77004">
        <ele>36.034</ele>
        <time>2011-09-25T07:49:53Z</time>
      </trkpt>
      <trkpt lat="47.03762" lon="-1.76993">
        <ele>36.034</ele>
        <time>2011-09-25T07:49:56Z</time>
      </trkpt>
      <trkpt lat="47.0375" lon="-1.76982">
        <ele>36.035</ele>
        <time>2011-09-25T07:49:59Z</time>
      </trkpt>
      <trkpt lat="47.03742" lon="-1.76966">
        <ele>36.035</ele>
        <time>2011-09-25T07:50:02Z</time>
      </trkpt>
      <trkpt lat="47.03736" lon="-1.76948">
        <ele>36.035</ele>
        <time>2011-09-25T07:50:05Z</time>
      </trkpt>
      <trkpt lat="47.03729" lon="-1.76928">
        <ele>35.897</ele>
        <time>2011-09-25T07:50:08Z</time>
      </trkpt>
      <trkpt lat="47.03716" lon="-1.76913">
        <ele>35.537</ele>
        <time>2011-09-25T07:50:11Z</time>
      </trkpt>
      <trkpt lat="47.03704" lon="-1.76898">
        <ele>35.168</ele>
        <time>2011-09-25T07:50:14Z</time>
      </trkpt>
      <trkpt lat="47.03693" lon="-1.76886">
        <ele>34.993</ele>
        <time>2011-09-25T07:50:17Z</time>
      </trkpt>
      <trkpt lat="47.03685" lon="-1.76881">
        <ele>34.69</ele>
        <time>2011-09-25T07:50:19Z</time>
      </trkpt>
      <trkpt lat="47.03673" lon="-1.76879">
        <ele>34</ele>
        <time>2011-09-25T07:50:22Z</time>
      </trkpt>
      <trkpt lat="47.0366" lon="-1.76879">
        <ele>33.153</ele>
        <time>2011-09-25T07:50:25Z</time>
      </trkpt>
      <trkpt lat="47.0365" lon="-1.7688">
        <ele>32.319</ele>
        <time>2011-09-25T07:50:27Z</time>
      </trkpt>
      <trkpt lat="47.0364" lon="-1.7688">
        <ele>31.4</ele>
        <time>2011-09-25T07:50:29Z</time>
      </trkpt>
      <trkpt lat="47.03627" lon="-1.76881">
        <ele>30.553</ele>
        <time>2011-09-25T07:50:32Z</time>
      </trkpt>
      <trkpt lat="47.03614" lon="-1.7688">
        <ele>30.04</ele>
        <time>2011-09-25T07:50:35Z</time>
      </trkpt>
      <trkpt lat="47.03601" lon="-1.76879">
        <ele>29.895</ele>
        <time>2011-09-25T07:50:38Z</time>
      </trkpt>
      <trkpt lat="47.03592" lon="-1.76879">
        <ele>29.932</ele>
        <time>2011-09-25T07:50:40Z</time>
      </trkpt>
      <trkpt lat="47.03583" lon="-1.76878">
        <ele>29.863</ele>
        <time>2011-09-25T07:50:42Z</time>
      </trkpt>
      <trkpt lat="47.03574" lon="-1.76878">
        <ele>29.545</ele>
        <time>2011-09-25T07:50:44Z</time>
      </trkpt>
      <trkpt lat="47.0356" lon="-1.7688">
        <ele>29.187</ele>
        <time>2011-09-25T07:50:47Z</time>
      </trkpt>
      <trkpt lat="47.03546" lon="-1.76885">
        <ele>29.009</ele>
        <time>2011-09-25T07:50:50Z</time>
      </trkpt>
      <trkpt lat="47.03532" lon="-1.76891">
        <ele>28.976</ele>
        <time>2011-09-25T07:50:53Z</time>
      </trkpt>
      <trkpt lat="47.0352" lon="-1.76897">
        <ele>29.003</ele>
        <time>2011-09-25T07:50:56Z</time>
      </trkpt>
      <trkpt lat="47.03512" lon="-1.76903">
        <ele>29.032</ele>
        <time>2011-09-25T07:50:59Z</time>
      </trkpt>
      <trkpt lat="47.03507" lon="-1.76905">
        <ele>29.046</ele>
        <time>2011-09-25T07:51:02Z</time>
      </trkpt>
      <trkpt lat="47.03502" lon="-1.76908">
        <ele>29.049</ele>
        <time>2011-09-25T07:51:05Z</time>
      </trkpt>
      <trkpt lat="47.03496" lon="-1.76908">
        <ele>29.185</ele>
        <time>2011-09-25T07:51:08Z</time>
      </trkpt>
      <trkpt lat="47.035" lon="-1.769">
        <ele>29.542</ele>
        <time>2011-09-25T07:51:11Z</time>
      </trkpt>
      <trkpt lat="47.03511" lon="-1.76898">
        <ele>29.91</ele>
        <time>2011-09-25T07:51:14Z</time>
      </trkpt>
      <trkpt lat="47.03527" lon="-1.76894">
        <ele>30.085</ele>
        <time>2011-09-25T07:51:17Z</time>
      </trkpt>
      <trkpt lat="47.0354" lon="-1.76887">
        <ele>29.974</ele>
        <time>2011-09-25T07:51:20Z</time>
      </trkpt>
      <trkpt lat="47.03548" lon="-1.76883">
        <ele>29.584</ele>
        <time>2011-09-25T07:51:22Z</time>
      </trkpt>
      <trkpt lat="47.03556" lon="-1.76879">
        <ele>29.047</ele>
        <time>2011-09-25T07:51:25Z</time>
      </trkpt>
      <trkpt lat="47.03564" lon="-1.76877">
        <ele>28.498</ele>
        <time>2011-09-25T07:51:28Z</time>
      </trkpt>
      <trkpt lat="47.03573" lon="-1.76877">
        <ele>28.1</ele>
        <time>2011-09-25T07:51:31Z</time>
      </trkpt>
      <trkpt lat="47.0358" lon="-1.76876">
        <ele>27.819</ele>
        <time>2011-09-25T07:51:33Z</time>
      </trkpt>
      <trkpt lat="47.03589" lon="-1.76876">
        <ele>27.465</ele>
        <time>2011-09-25T07:51:36Z</time>
      </trkpt>
      <trkpt lat="47.03595" lon="-1.76876">
        <ele>27.141</ele>
        <time>2011-09-25T07:51:38Z</time>
      </trkpt>
      <trkpt lat="47.03606" lon="-1.76877">
        <ele>26.998</ele>
        <time>2011-09-25T07:51:41Z</time>
      </trkpt>
      <trkpt lat="47.03616" lon="-1.76877">
        <ele>26.983</ele>
        <time>2011-09-25T07:51:44Z</time>
      </trkpt>
      <trkpt lat="47.03629" lon="-1.76878">
        <ele>27.012</ele>
        <time>2011-09-25T07:51:47Z</time>
      </trkpt>
      <trkpt lat="47.03641" lon="-1.76878">
        <ele>27.038</ele>
        <time>2011-09-25T07:51:50Z</time>
      </trkpt>
      <trkpt lat="47.0365" lon="-1.76878">
        <ele>27.188</ele>
        <time>2011-09-25T07:51:52Z</time>
      </trkpt>
      <trkpt lat="47.03661" lon="-1.76879">
        <ele>27.549</ele>
        <time>2011-09-25T07:51:55Z</time>
      </trkpt>
      <trkpt lat="47.03673" lon="-1.7688">
        <ele>27.916</ele>
        <time>2011-09-25T07:51:58Z</time>
      </trkpt>
      <trkpt lat="47.03683" lon="-1.76883">
        <ele>28.089</ele>
        <time>2011-09-25T07:52:01Z</time>
      </trkpt>
      <trkpt lat="47.03693" lon="-1.76891">
        <ele>28.115</ele>
        <time>2011-09-25T07:52:04Z</time>
      </trkpt>
      <trkpt lat="47.03702" lon="-1.76902">
        <ele>28.085</ele>
        <time>2011-09-25T07:52:07Z</time>
      </trkpt>
      <trkpt lat="47.0371" lon="-1.76913">
        <ele>28.055</ele>
        <time>2011-09-25T07:52:10Z</time>
      </trkpt>
      <trkpt lat="47.03719" lon="-1.76923">
        <ele>28.041</ele>
        <time>2011-09-25T07:52:13Z</time>
      </trkpt>
      <trkpt lat="47.03727" lon="-1.76934">
        <ele>28.039</ele>
        <time>2011-09-25T07:52:16Z</time>
      </trkpt>
      <trkpt lat="47.0373" lon="-1.76943">
        <ele>28.042</ele>
        <time>2011-09-25T07:52:18Z</time>
      </trkpt>
      <trkpt lat="47.03735" lon="-1.76958">
        <ele>28.044</ele>
        <time>2011-09-25T07:52:21Z</time>
      </trkpt>
      <trkpt lat="47.03738" lon="-1.76967">
        <ele>28.183</ele>
        <time>2011-09-25T07:52:23Z</time>
      </trkpt>
      <trkpt lat="47.03742" lon="-1.76979">
        <ele>28.543</ele>
        <time>2011-09-25T07:52:26Z</time>
      </trkpt>
      <trkpt lat="47.03745" lon="-1.76984">
        <ele>28.912</ele>
        <time>2011-09-25T07:52:28Z</time>
      </trkpt>
      <trkpt lat="47.03745" lon="-1.76984">
        <ele>29.087</ele>
        <time>2011-09-25T07:52:29Z</time>
      </trkpt>
      <trkpt lat="47.03745" lon="-1.76984">
        <ele>29.114</ele>
        <time>2011-09-25T07:53:24Z</time>
      </trkpt>
      <trkpt lat="47.03742" lon="-1.76947">
        <ele>29.085</ele>
        <time>2011-09-25T08:02:43Z</time>
      </trkpt>
      <trkpt lat="47.03734" lon="-1.76932">
        <ele>29.196</ele>
        <time>2011-09-25T08:02:45Z</time>
      </trkpt>
      <trkpt lat="47.03727" lon="-1.76922">
        <ele>29.541</ele>
        <time>2011-09-25T08:02:48Z</time>
      </trkpt>
      <trkpt lat="47.03722" lon="-1.76915">
        <ele>31.15</ele>
        <time>2011-09-25T08:02:50Z</time>
      </trkpt>
      <trkpt lat="47.03713" lon="-1.76903">
        <ele>34.566</ele>
        <time>2011-09-25T08:02:53Z</time>
      </trkpt>
      <trkpt lat="47.037" lon="-1.76894">
        <ele>37.919</ele>
        <time>2011-09-25T08:02:56Z</time>
      </trkpt>
      <trkpt lat="47.03687" lon="-1.76889">
        <ele>39.468</ele>
        <time>2011-09-25T08:02:59Z</time>
      </trkpt>
      <trkpt lat="47.03674" lon="-1.76886">
        <ele>39.677</ele>
        <time>2011-09-25T08:03:02Z</time>
      </trkpt>
      <trkpt lat="47.03665" lon="-1.76886">
        <ele>39.393</ele>
        <time>2011-09-25T08:03:04Z</time>
      </trkpt>
      <trkpt lat="47.03651" lon="-1.76884">
        <ele>39.12</ele>
        <time>2011-09-25T08:03:07Z</time>
      </trkpt>
      <trkpt lat="47.03637" lon="-1.76885">
        <ele>38.995</ele>
        <time>2011-09-25T08:03:10Z</time>
      </trkpt>
      <trkpt lat="47.03628" lon="-1.76885">
        <ele>38.979</ele>
        <time>2011-09-25T08:03:12Z</time>
      </trkpt>
      <trkpt lat="47.0362" lon="-1.76885">
        <ele>39.141</ele>
        <time>2011-09-25T08:03:14Z</time>
      </trkpt>
      <trkpt lat="47.03606" lon="-1.76884">
        <ele>39.523</ele>
        <time>2011-09-25T08:03:17Z</time>
      </trkpt>
      <trkpt lat="47.03597" lon="-1.76884">
        <ele>39.903</ele>
        <time>2011-09-25T08:03:19Z</time>
      </trkpt>
      <trkpt lat="47.03581" lon="-1.76884">
        <ele>40.079</ele>
        <time>2011-09-25T08:03:22Z</time>
      </trkpt>
      <trkpt lat="47.03571" lon="-1.76885">
        <ele>40.104</ele>
        <time>2011-09-25T08:03:24Z</time>
      </trkpt>
      <trkpt lat="47.03555" lon="-1.76888">
        <ele>40.072</ele>
        <time>2011-09-25T08:03:27Z</time>
      </trkpt>
      <trkpt lat="47.03544" lon="-1.76892">
        <ele>39.903</ele>
        <time>2011-09-25T08:03:29Z</time>
      </trkpt>
      <trkpt lat="47.03526" lon="-1.76899">
        <ele>39.529</ele>
        <time>2011-09-25T08:03:32Z</time>
      </trkpt>
      <trkpt lat="47.03508" lon="-1.76902">
        <ele>39.019</ele>
        <time>2011-09-25T08:03:35Z</time>
      </trkpt>
      <trkpt lat="47.03498" lon="-1.76895">
        <ele>38.487</ele>
        <time>2011-09-25T08:03:37Z</time>
      </trkpt>
      <trkpt lat="47.0349" lon="-1.76884">
        <ele>38.093</ele>
        <time>2011-09-25T08:03:39Z</time>
      </trkpt>
      <trkpt lat="47.03485" lon="-1.76865">
        <ele>37.811</ele>
        <time>2011-09-25T08:03:42Z</time>
      </trkpt>
      <trkpt lat="47.03484" lon="-1.76854">
        <ele>37.454</ele>
        <time>2011-09-25T08:03:44Z</time>
      </trkpt>
      <trkpt lat="47.0348" lon="-1.76845">
        <ele>37.129</ele>
        <time>2011-09-25T08:03:46Z</time>
      </trkpt>
      <trkpt lat="47.03468" lon="-1.76845">
        <ele>36.709</ele>
        <time>2011-09-25T08:03:49Z</time>
      </trkpt>
      <trkpt lat="47.03459" lon="-1.7685">
        <ele>35.836</ele>
        <time>2011-09-25T08:03:51Z</time>
      </trkpt>
      <trkpt lat="47.03447" lon="-1.7686">
        <ele>34.629</ele>
        <time>2011-09-25T08:03:54Z</time>
      </trkpt>
      <trkpt lat="47.03439" lon="-1.76867">
        <ele>33.576</ele>
        <time>2011-09-25T08:03:56Z</time>
      </trkpt>
      <trkpt lat="47.03426" lon="-1.76875">
        <ele>32.989</ele>
        <time>2011-09-25T08:03:59Z</time>
      </trkpt>
      <trkpt lat="47.03418" lon="-1.76881">
        <ele>32.849</ele>
        <time>2011-09-25T08:04:01Z</time>
      </trkpt>
      <trkpt lat="47.03406" lon="-1.7689">
        <ele>32.91</ele>
        <time>2011-09-25T08:04:04Z</time>
      </trkpt>
      <trkpt lat="47.03394" lon="-1.76898">
        <ele>32.996</ele>
        <time>2011-09-25T08:04:07Z</time>
      </trkpt>
      <trkpt lat="47.03383" lon="-1.76907">
        <ele>33.043</ele>
        <time>2011-09-25T08:04:10Z</time>
      </trkpt>
      <trkpt lat="47.03371" lon="-1.76916">
        <ele>33.054</ele>
        <time>2011-09-25T08:04:13Z</time>
      </trkpt>
      <trkpt lat="47.03359" lon="-1.76925">
        <ele>33.049</ele>
        <time>2011-09-25T08:04:16Z</time>
      </trkpt>
      <trkpt lat="47.03351" lon="-1.7693">
        <ele>33.18</ele>
        <time>2011-09-25T08:04:18Z</time>
      </trkpt>
      <trkpt lat="47.03338" lon="-1.76939">
        <ele>33.536</ele>
        <time>2011-09-25T08:04:21Z</time>
      </trkpt>
      <trkpt lat="47.03329" lon="-1.76945">
        <ele>33.904</ele>
        <time>2011-09-25T08:04:23Z</time>
      </trkpt>
      <trkpt lat="47.0332" lon="-1.76952">
        <ele>34.08</ele>
        <time>2011-09-25T08:04:25Z</time>
      </trkpt>
      <trkpt lat="47.03303" lon="-1.7696">
        <ele>34.107</ele>
        <time>2011-09-25T08:04:28Z</time>
      </trkpt>
      <trkpt lat="47.03291" lon="-1.76965">
        <ele>33.939</ele>
        <time>2011-09-25T08:04:30Z</time>
      </trkpt>
      <trkpt lat="47.03277" lon="-1.76969">
        <ele>33.549</ele>
        <time>2011-09-25T08:04:32Z</time>
      </trkpt>
      <trkpt lat="47.03255" lon="-1.76976">
        <ele>33.165</ele>
        <time>2011-09-25T08:04:35Z</time>
      </trkpt>
      <trkpt lat="47.03234" lon="-1.76982">
        <ele>32.988</ele>
        <time>2011-09-25T08:04:38Z</time>
      </trkpt>
      <trkpt lat="47.0322" lon="-1.76986">
        <ele>32.964</ele>
        <time>2011-09-25T08:04:40Z</time>
      </trkpt>
      <trkpt lat="47.03201" lon="-1.7699">
        <ele>32.996</ele>
        <time>2011-09-25T08:04:43Z</time>
      </trkpt>
      <trkpt lat="47.03182" lon="-1.76991">
        <ele>33.027</ele>
        <time>2011-09-25T08:04:46Z</time>
      </trkpt>
      <trkpt lat="47.03164" lon="-1.7699">
        <ele>33.041</ele>
        <time>2011-09-25T08:04:49Z</time>
      </trkpt>
      <trkpt lat="47.03147" lon="-1.7699">
        <ele>32.905</ele>
        <time>2011-09-25T08:04:52Z</time>
      </trkpt>
      <trkpt lat="47.03131" lon="-1.7699">
        <ele>32.542</ele>
        <time>2011-09-25T08:04:55Z</time>
      </trkpt>
      <trkpt lat="47.03115" lon="-1.76991">
        <ele>32.17</ele>
        <time>2011-09-25T08:04:58Z</time>
      </trkpt>
      <trkpt lat="47.03098" lon="-1.7699">
        <ele>31.994</ele>
        <time>2011-09-25T08:05:01Z</time>
      </trkpt>
      <trkpt lat="47.03087" lon="-1.76991">
        <ele>31.967</ele>
        <time>2011-09-25T08:05:03Z</time>
      </trkpt>
      <trkpt lat="47.03071" lon="-1.76991">
        <ele>31.997</ele>
        <time>2011-09-25T08:05:06Z</time>
      </trkpt>
      <trkpt lat="47.03053" lon="-1.7699">
        <ele>32.027</ele>
        <time>2011-09-25T08:05:09Z</time>
      </trkpt>
      <trkpt lat="47.03041" lon="-1.76987">
        <ele>32.042</ele>
        <time>2011-09-25T08:05:11Z</time>
      </trkpt>
      <trkpt lat="47.03023" lon="-1.76981">
        <ele>32.044</ele>
        <time>2011-09-25T08:05:14Z</time>
      </trkpt>
      <trkpt lat="47.03011" lon="-1.76977">
        <ele>32.041</ele>
        <time>2011-09-25T08:05:16Z</time>
      </trkpt>
      <trkpt lat="47.02994" lon="-1.76971">
        <ele>31.9</ele>
        <time>2011-09-25T08:05:19Z</time>
      </trkpt>
      <trkpt lat="47.02977" lon="-1.76965">
        <ele>31.539</ele>
        <time>2011-09-25T08:05:22Z</time>
      </trkpt>
      <trkpt lat="47.02966" lon="-1.76961">
        <ele>31.17</ele>
        <time>2011-09-25T08:05:24Z</time>
      </trkpt>
      <trkpt lat="47.02955" lon="-1.76957">
        <ele>30.995</ele>
        <time>2011-09-25T08:05:26Z</time>
      </trkpt>
      <trkpt lat="47.02939" lon="-1.76952">
        <ele>30.83</ele>
        <time>2011-09-25T08:05:29Z</time>
      </trkpt>
      <trkpt lat="47.02923" lon="-1.76946">
        <ele>30.5</ele>
        <time>2011-09-25T08:05:32Z</time>
      </trkpt>
      <trkpt lat="47.02907" lon="-1.76939">
        <ele>30.161</ele>
        <time>2011-09-25T08:05:35Z</time>
      </trkpt>
      <trkpt lat="47.02892" lon="-1.76933">
        <ele>30</ele>
        <time>2011-09-25T08:05:38Z</time>
      </trkpt>
      <trkpt lat="47.02877" lon="-1.76927">
        <ele>29.975</ele>
        <time>2011-09-25T08:05:41Z</time>
      </trkpt>
      <trkpt lat="47.02863" lon="-1.76921">
        <ele>30.003</ele>
        <time>2011-09-25T08:05:44Z</time>
      </trkpt>
      <trkpt lat="47.02848" lon="-1.76915">
        <ele>30.03</ele>
        <time>2011-09-25T08:05:47Z</time>
      </trkpt>
      <trkpt lat="47.02834" lon="-1.76911">
        <ele>30.043</ele>
        <time>2011-09-25T08:05:50Z</time>
      </trkpt>
      <trkpt lat="47.02819" lon="-1.7691">
        <ele>30.045</ele>
        <time>2011-09-25T08:05:53Z</time>
      </trkpt>
      <trkpt lat="47.02804" lon="-1.7691">
        <ele>30.043</ele>
        <time>2011-09-25T08:05:56Z</time>
      </trkpt>
      <trkpt lat="47.02789" lon="-1.76911">
        <ele>30.041</ele>
        <time>2011-09-25T08:05:59Z</time>
      </trkpt>
      <trkpt lat="47.02779" lon="-1.76912">
        <ele>30.04</ele>
        <time>2011-09-25T08:06:01Z</time>
      </trkpt>
      <trkpt lat="47.02764" lon="-1.76916">
        <ele>30.04</ele>
        <time>2011-09-25T08:06:04Z</time>
      </trkpt>
      <trkpt lat="47.02748" lon="-1.76919">
        <ele>30.04</ele>
        <time>2011-09-25T08:06:07Z</time>
      </trkpt>
      <trkpt lat="47.02732" lon="-1.76922">
        <ele>30.04</ele>
        <time>2011-09-25T08:06:10Z</time>
      </trkpt>
      <trkpt lat="47.02722" lon="-1.76924">
        <ele>30.04</ele>
        <time>2011-09-25T08:06:12Z</time>
      </trkpt>
      <trkpt lat="47.02711" lon="-1.76925">
        <ele>30.04</ele>
        <time>2011-09-25T08:06:14Z</time>
      </trkpt>
      <trkpt lat="47.02696" lon="-1.76925">
        <ele>30.04</ele>
        <time>2011-09-25T08:06:17Z</time>
      </trkpt>
      <trkpt lat="47.0268" lon="-1.76924">
        <ele>30.178</ele>
        <time>2011-09-25T08:06:20Z</time>
      </trkpt>
      <trkpt lat="47.02663" lon="-1.76923">
        <ele>30.538</ele>
        <time>2011-09-25T08:06:23Z</time>
      </trkpt>
      <trkpt lat="47.02647" lon="-1.76921">
        <ele>30.907</ele>
        <time>2011-09-25T08:06:26Z</time>
      </trkpt>
      <trkpt lat="47.02631" lon="-1.76918">
        <ele>31.082</ele>
        <time>2011-09-25T08:06:29Z</time>
      </trkpt>
      <trkpt lat="47.02615" lon="-1.76916">
        <ele>31.109</ele>
        <time>2011-09-25T08:06:32Z</time>
      </trkpt>
      <trkpt lat="47.02599" lon="-1.76914">
        <ele>31.079</ele>
        <time>2011-09-25T08:06:35Z</time>
      </trkpt>
      <trkpt lat="47.02583" lon="-1.76912">
        <ele>31.049</ele>
        <time>2011-09-25T08:06:38Z</time>
      </trkpt>
      <trkpt lat="47.02572" lon="-1.76911">
        <ele>31.035</ele>
        <time>2011-09-25T08:06:40Z</time>
      </trkpt>
      <trkpt lat="47.02556" lon="-1.76909">
        <ele>31.032</ele>
        <time>2011-09-25T08:06:43Z</time>
      </trkpt>
      <trkpt lat="47.02539" lon="-1.76909">
        <ele>31.035</ele>
        <time>2011-09-25T08:06:46Z</time>
      </trkpt>
      <trkpt lat="47.02523" lon="-1.76913">
        <ele>31.037</ele>
        <time>2011-09-25T08:06:49Z</time>
      </trkpt>
      <trkpt lat="47.02507" lon="-1.7692">
        <ele>31.039</ele>
        <time>2011-09-25T08:06:52Z</time>
      </trkpt>
      <trkpt lat="47.02497" lon="-1.76924">
        <ele>31.177</ele>
        <time>2011-09-25T08:06:54Z</time>
      </trkpt>
      <trkpt lat="47.02486" lon="-1.76929">
        <ele>31.536</ele>
        <time>2011-09-25T08:06:56Z</time>
      </trkpt>
      <trkpt lat="47.02476" lon="-1.76934">
        <ele>31.906</ele>
        <time>2011-09-25T08:06:58Z</time>
      </trkpt>
      <trkpt lat="47.02459" lon="-1.76942">
        <ele>32.081</ele>
        <time>2011-09-25T08:07:01Z</time>
      </trkpt>
      <trkpt lat="47.02442" lon="-1.76952">
        <ele>32.107</ele>
        <time>2011-09-25T08:07:04Z</time>
      </trkpt>
      <trkpt lat="47.02422" lon="-1.76964">
        <ele>32.077</ele>
        <time>2011-09-25T08:07:07Z</time>
      </trkpt>
      <trkpt lat="47.02409" lon="-1.76973">
        <ele>32.047</ele>
        <time>2011-09-25T08:07:09Z</time>
      </trkpt>
      <trkpt lat="47.02397" lon="-1.76982">
        <ele>32.033</ele>
        <time>2011-09-25T08:07:11Z</time>
      </trkpt>
      <trkpt lat="47.02379" lon="-1.76996">
        <ele>32.031</ele>
        <time>2011-09-25T08:07:14Z</time>
      </trkpt>
      <trkpt lat="47.02367" lon="-1.77004">
        <ele>32.033</ele>
        <time>2011-09-25T08:07:16Z</time>
      </trkpt>
      <trkpt lat="47.02356" lon="-1.77011">
        <ele>32.035</ele>
        <time>2011-09-25T08:07:18Z</time>
      </trkpt>
      <trkpt lat="47.02349" lon="-1.77015">
        <ele>32.036</ele>
        <time>2011-09-25T08:07:20Z</time>
      </trkpt>
      <trkpt lat="47.02344" lon="-1.77017">
        <ele>32.036</ele>
        <time>2011-09-25T08:07:23Z</time>
      </trkpt>
      <trkpt lat="47.02333" lon="-1.7703">
        <ele>32.036</ele>
        <time>2011-09-25T08:07:39Z</time>
      </trkpt>
      <trkpt lat="47.02325" lon="-1.77033">
        <ele>32.036</ele>
        <time>2011-09-25T08:07:41Z</time>
      </trkpt>
      <trkpt lat="47.02312" lon="-1.77036">
        <ele>31.897</ele>
        <time>2011-09-25T08:07:44Z</time>
      </trkpt>
      <trkpt lat="47.02297" lon="-1.77038">
        <ele>31.261</ele>
        <time>2011-09-25T08:07:47Z</time>
      </trkpt>
      <trkpt lat="47.02282" lon="-1.77042">
        <ele>30.172</ele>
        <time>2011-09-25T08:07:50Z</time>
      </trkpt>
      <trkpt lat="47.02272" lon="-1.77046">
        <ele>29.119</ele>
        <time>2011-09-25T08:07:52Z</time>
      </trkpt>
      <trkpt lat="47.02255" lon="-1.77051">
        <ele>28.382</ele>
        <time>2011-09-25T08:07:55Z</time>
      </trkpt>
      <trkpt lat="47.02244" lon="-1.77054">
        <ele>27.99</ele>
        <time>2011-09-25T08:07:57Z</time>
      </trkpt>
      <trkpt lat="47.02232" lon="-1.77054">
        <ele>27.905</ele>
        <time>2011-09-25T08:07:59Z</time>
      </trkpt>
      <trkpt lat="47.02215" lon="-1.77051">
        <ele>27.952</ele>
        <time>2011-09-25T08:08:02Z</time>
      </trkpt>
      <trkpt lat="47.02205" lon="-1.77049">
        <ele>28.012</ele>
        <time>2011-09-25T08:08:04Z</time>
      </trkpt>
      <trkpt lat="47.02191" lon="-1.77047">
        <ele>27.906</ele>
        <time>2011-09-25T08:08:07Z</time>
      </trkpt>
      <trkpt lat="47.02182" lon="-1.77045">
        <ele>27.553</ele>
        <time>2011-09-25T08:08:09Z</time>
      </trkpt>
      <trkpt lat="47.02169" lon="-1.77041">
        <ele>27.179</ele>
        <time>2011-09-25T08:08:12Z</time>
      </trkpt>
      <trkpt lat="47.0216" lon="-1.77039">
        <ele>26.999</ele>
        <time>2011-09-25T08:08:14Z</time>
      </trkpt>
      <trkpt lat="47.02147" lon="-1.77037">
        <ele>26.97</ele>
        <time>2011-09-25T08:08:17Z</time>
      </trkpt>
      <trkpt lat="47.02135" lon="-1.77034">
        <ele>26.999</ele>
        <time>2011-09-25T08:08:20Z</time>
      </trkpt>
      <trkpt lat="47.02124" lon="-1.7703">
        <ele>27.168</ele>
        <time>2011-09-25T08:08:23Z</time>
      </trkpt>
      <trkpt lat="47.02115" lon="-1.7702">
        <ele>27.542</ele>
        <time>2011-09-25T08:08:26Z</time>
      </trkpt>
      <trkpt lat="47.02107" lon="-1.77009">
        <ele>27.914</ele>
        <time>2011-09-25T08:08:29Z</time>
      </trkpt>
      <trkpt lat="47.02102" lon="-1.76999">
        <ele>28.087</ele>
        <time>2011-09-25T08:08:32Z</time>
      </trkpt>
      <trkpt lat="47.02098" lon="-1.76986">
        <ele>28.111</ele>
        <time>2011-09-25T08:08:35Z</time>
      </trkpt>
      <trkpt lat="47.02095" lon="-1.76972">
        <ele>28.08</ele>
        <time>2011-09-25T08:08:38Z</time>
      </trkpt>
      <trkpt lat="47.02105" lon="-1.76955">
        <ele>27.911</ele>
        <time>2011-09-25T08:08:41Z</time>
      </trkpt>
      <trkpt lat="47.02113" lon="-1.76931">
        <ele>27.538</ele>
        <time>2011-09-25T08:08:44Z</time>
      </trkpt>
      <trkpt lat="47.02121" lon="-1.76906">
        <ele>27.028</ele>
        <time>2011-09-25T08:08:47Z</time>
      </trkpt>
      <trkpt lat="47.02126" lon="-1.76888">
        <ele>26.358</ele>
        <time>2011-09-25T08:08:49Z</time>
      </trkpt>
      <trkpt lat="47.0213" lon="-1.76862">
        <ele>25.466</ele>
        <time>2011-09-25T08:08:52Z</time>
      </trkpt>
      <trkpt lat="47.02133" lon="-1.76835">
        <ele>24.593</ele>
        <time>2011-09-25T08:08:55Z</time>
      </trkpt>
      <trkpt lat="47.02136" lon="-1.76816">
        <ele>24.052</ele>
        <time>2011-09-25T08:08:57Z</time>
      </trkpt>
      <trkpt lat="47.02141" lon="-1.76789">
        <ele>23.895</ele>
        <time>2011-09-25T08:09:00Z</time>
      </trkpt>
      <trkpt lat="47.02146" lon="-1.76764">
        <ele>24.068</ele>
        <time>2011-09-25T08:09:03Z</time>
      </trkpt>
      <trkpt lat="47.0215" lon="-1.76747">
        <ele>24.5</ele>
        <time>2011-09-25T08:09:05Z</time>
      </trkpt>
      <trkpt lat="47.02154" lon="-1.76722">
        <ele>24.913</ele>
        <time>2011-09-25T08:09:08Z</time>
      </trkpt>
      <trkpt lat="47.02154" lon="-1.76706">
        <ele>25.101</ele>
        <time>2011-09-25T08:09:10Z</time>
      </trkpt>
      <trkpt lat="47.02154" lon="-1.76682">
        <ele>25.125</ele>
        <time>2011-09-25T08:09:13Z</time>
      </trkpt>
      <trkpt lat="47.02157" lon="-1.76667">
        <ele>25.089</ele>
        <time>2011-09-25T08:09:15Z</time>
      </trkpt>
      <trkpt lat="47.02161" lon="-1.76643">
        <ele>25.056</ele>
        <time>2011-09-25T08:09:18Z</time>
      </trkpt>
      <trkpt lat="47.02163" lon="-1.76628">
        <ele>25.041</ele>
        <time>2011-09-25T08:09:20Z</time>
      </trkpt>
      <trkpt lat="47.02165" lon="-1.76606">
        <ele>25.039</ele>
        <time>2011-09-25T08:09:23Z</time>
      </trkpt>
      <trkpt lat="47.02166" lon="-1.76592">
        <ele>25.042</ele>
        <time>2011-09-25T08:09:25Z</time>
      </trkpt>
      <trkpt lat="47.02168" lon="-1.76571">
        <ele>25.045</ele>
        <time>2011-09-25T08:09:28Z</time>
      </trkpt>
      <trkpt lat="47.02169" lon="-1.76551">
        <ele>25.047</ele>
        <time>2011-09-25T08:09:31Z</time>
      </trkpt>
      <trkpt lat="47.02168" lon="-1.76531">
        <ele>25.047</ele>
        <time>2011-09-25T08:09:34Z</time>
      </trkpt>
      <trkpt lat="47.02168" lon="-1.76518">
        <ele>25.047</ele>
        <time>2011-09-25T08:09:36Z</time>
      </trkpt>
      <trkpt lat="47.02162" lon="-1.76502">
        <ele>25.047</ele>
        <time>2011-09-25T08:09:39Z</time>
      </trkpt>
      <trkpt lat="47.02158" lon="-1.76491">
        <ele>25.047</ele>
        <time>2011-09-25T08:09:41Z</time>
      </trkpt>
      <trkpt lat="47.02155" lon="-1.76473">
        <ele>25.047</ele>
        <time>2011-09-25T08:09:44Z</time>
      </trkpt>
      <trkpt lat="47.02155" lon="-1.7646">
        <ele>25.047</ele>
        <time>2011-09-25T08:09:46Z</time>
      </trkpt>
      <trkpt lat="47.02157" lon="-1.76439">
        <ele>25.047</ele>
        <time>2011-09-25T08:09:49Z</time>
      </trkpt>
      <trkpt lat="47.02155" lon="-1.76418">
        <ele>25.047</ele>
        <time>2011-09-25T08:09:52Z</time>
      </trkpt>
      <trkpt lat="47.02152" lon="-1.76404">
        <ele>25.047</ele>
        <time>2011-09-25T08:09:54Z</time>
      </trkpt>
      <trkpt lat="47.02149" lon="-1.76389">
        <ele>25.048</ele>
        <time>2011-09-25T08:09:56Z</time>
      </trkpt>
      <trkpt lat="47.02147" lon="-1.76368">
        <ele>25.048</ele>
        <time>2011-09-25T08:09:59Z</time>
      </trkpt>
      <trkpt lat="47.02144" lon="-1.76347">
        <ele>25.186</ele>
        <time>2011-09-25T08:10:02Z</time>
      </trkpt>
      <trkpt lat="47.02141" lon="-1.76327">
        <ele>25.546</ele>
        <time>2011-09-25T08:10:05Z</time>
      </trkpt>
      <trkpt lat="47.02139" lon="-1.76314">
        <ele>25.916</ele>
        <time>2011-09-25T08:10:07Z</time>
      </trkpt>
      <trkpt lat="47.02138" lon="-1.76295">
        <ele>26.091</ele>
        <time>2011-09-25T08:10:10Z</time>
      </trkpt>
      <trkpt lat="47.0214" lon="-1.76281">
        <ele>26.118</ele>
        <time>2011-09-25T08:10:12Z</time>
      </trkpt>
      <trkpt lat="47.02142" lon="-1.76268">
        <ele>26.088</ele>
        <time>2011-09-25T08:10:14Z</time>
      </trkpt>
      <trkpt lat="47.02145" lon="-1.76249">
        <ele>26.058</ele>
        <time>2011-09-25T08:10:17Z</time>
      </trkpt>
      <trkpt lat="47.02147" lon="-1.7623">
        <ele>26.182</ele>
        <time>2011-09-25T08:10:20Z</time>
      </trkpt>
      <trkpt lat="47.02149" lon="-1.76217">
        <ele>26.54</ele>
        <time>2011-09-25T08:10:22Z</time>
      </trkpt>
      <trkpt lat="47.02152" lon="-1.76204">
        <ele>26.912</ele>
        <time>2011-09-25T08:10:24Z</time>
      </trkpt>
      <trkpt lat="47.02155" lon="-1.7619">
        <ele>27.09</ele>
        <time>2011-09-25T08:10:26Z</time>
      </trkpt>
      <trkpt lat="47.0216" lon="-1.76172">
        <ele>27.118</ele>
        <time>2011-09-25T08:10:29Z</time>
      </trkpt>
      <trkpt lat="47.02166" lon="-1.76155">
        <ele>27.088</ele>
        <time>2011-09-25T08:10:32Z</time>
      </trkpt>
      <trkpt lat="47.0217" lon="-1.76144">
        <ele>27.196</ele>
        <time>2011-09-25T08:10:34Z</time>
      </trkpt>
      <trkpt lat="47.02175" lon="-1.76127">
        <ele>27.68</ele>
        <time>2011-09-25T08:10:37Z</time>
      </trkpt>
      <trkpt lat="47.02181" lon="-1.76108">
        <ele>28.407</ele>
        <time>2011-09-25T08:10:40Z</time>
      </trkpt>
      <trkpt lat="47.02185" lon="-1.76097">
        <ele>29.093</ele>
        <time>2011-09-25T08:10:42Z</time>
      </trkpt>
      <trkpt lat="47.02192" lon="-1.76085">
        <ele>29.657</ele>
        <time>2011-09-25T08:10:44Z</time>
      </trkpt>
      <trkpt lat="47.02201" lon="-1.76067">
        <ele>30.024</ele>
        <time>2011-09-25T08:10:47Z</time>
      </trkpt>
      <trkpt lat="47.02211" lon="-1.76048">
        <ele>30.278</ele>
        <time>2011-09-25T08:10:50Z</time>
      </trkpt>
      <trkpt lat="47.0222" lon="-1.7603">
        <ele>30.758</ele>
        <time>2011-09-25T08:10:53Z</time>
      </trkpt>
      <trkpt lat="47.0223" lon="-1.76015">
        <ele>31.442</ele>
        <time>2011-09-25T08:10:56Z</time>
      </trkpt>
      <trkpt lat="47.02238" lon="-1.75999">
        <ele>31.957</ele>
        <time>2011-09-25T08:10:59Z</time>
      </trkpt>
      <trkpt lat="47.02245" lon="-1.75984">
        <ele>32.149</ele>
        <time>2011-09-25T08:11:02Z</time>
      </trkpt>
      <trkpt lat="47.02253" lon="-1.75966">
        <ele>32.148</ele>
        <time>2011-09-25T08:11:05Z</time>
      </trkpt>
      <trkpt lat="47.02253" lon="-1.75966">
        <ele>32.092</ele>
        <time>2011-09-25T08:11:06Z</time>
      </trkpt>
      <trkpt lat="47.02268" lon="-1.7593">
        <ele>32.05</ele>
        <time>2011-09-25T08:11:11Z</time>
      </trkpt>
      <trkpt lat="47.02268" lon="-1.7593">
        <ele>32.035</ele>
        <time>2011-09-25T08:11:14Z</time>
      </trkpt>
      <trkpt lat="47.02282" lon="-1.75889">
        <ele>32.035</ele>
        <time>2011-09-25T08:11:18Z</time>
      </trkpt>
      <trkpt lat="47.02282" lon="-1.75889">
        <ele>32.036</ele>
        <time>2011-09-25T08:11:22Z</time>
      </trkpt>
      <trkpt lat="47.02287" lon="-1.7585">
        <ele>32.032</ele>
        <time>2011-09-25T08:11:25Z</time>
      </trkpt>
      <trkpt lat="47.02293" lon="-1.75816">
        <ele>32.033</ele>
        <time>2011-09-25T08:11:28Z</time>
      </trkpt>
      <trkpt lat="47.02299" lon="-1.75794">
        <ele>32.04</ele>
        <time>2011-09-25T08:11:31Z</time>
      </trkpt>
      <trkpt lat="47.02303" lon="-1.75779">
        <ele>32.182</ele>
        <time>2011-09-25T08:11:33Z</time>
      </trkpt>
      <trkpt lat="47.02308" lon="-1.75763">
        <ele>32.544</ele>
        <time>2011-09-25T08:11:35Z</time>
      </trkpt>
      <trkpt lat="47.02312" lon="-1.75748">
        <ele>32.913</ele>
        <time>2011-09-25T08:11:37Z</time>
      </trkpt>
      <trkpt lat="47.02316" lon="-1.75725">
        <ele>33.088</ele>
        <time>2011-09-25T08:11:40Z</time>
      </trkpt>
      <trkpt lat="47.02322" lon="-1.75702">
        <ele>33.115</ele>
        <time>2011-09-25T08:11:43Z</time>
      </trkpt>
      <trkpt lat="47.02329" lon="-1.7568">
        <ele>33.223</ele>
        <time>2011-09-25T08:11:46Z</time>
      </trkpt>
      <trkpt lat="47.02334" lon="-1.7566">
        <ele>33.553</ele>
        <time>2011-09-25T08:11:49Z</time>
      </trkpt>
      <trkpt lat="47.02338" lon="-1.75639">
        <ele>33.909</ele>
        <time>2011-09-25T08:11:52Z</time>
      </trkpt>
      <trkpt lat="47.02342" lon="-1.7562">
        <ele>34.082</ele>
        <time>2011-09-25T08:11:55Z</time>
      </trkpt>
      <trkpt lat="47.02345" lon="-1.75608">
        <ele>34.112</ele>
        <time>2011-09-25T08:11:57Z</time>
      </trkpt>
      <trkpt lat="47.02347" lon="-1.75596">
        <ele>34.084</ele>
        <time>2011-09-25T08:11:59Z</time>
      </trkpt>
      <trkpt lat="47.02349" lon="-1.75585">
        <ele>34.055</ele>
        <time>2011-09-25T08:12:01Z</time>
      </trkpt>
      <trkpt lat="47.02353" lon="-1.75567">
        <ele>34.041</ele>
        <time>2011-09-25T08:12:04Z</time>
      </trkpt>
      <trkpt lat="47.02356" lon="-1.75556">
        <ele>34.039</ele>
        <time>2011-09-25T08:12:06Z</time>
      </trkpt>
      <trkpt lat="47.02359" lon="-1.75542">
        <ele>34.042</ele>
        <time>2011-09-25T08:12:08Z</time>
      </trkpt>
      <trkpt lat="47.0236" lon="-1.75525">
        <ele>34.182</ele>
        <time>2011-09-25T08:12:10Z</time>
      </trkpt>
      <trkpt lat="47.02365" lon="-1.75489">
        <ele>34.543</ele>
        <time>2011-09-25T08:12:13Z</time>
      </trkpt>
      <trkpt lat="47.02369" lon="-1.75466">
        <ele>34.775</ele>
        <time>2011-09-25T08:12:15Z</time>
      </trkpt>
      <trkpt lat="47.02374" lon="-1.75444">
        <ele>34.59</ele>
        <time>2011-09-25T08:12:17Z</time>
      </trkpt>
      <trkpt lat="47.0238" lon="-1.75413">
        <ele>34.248</ele>
        <time>2011-09-25T08:12:20Z</time>
      </trkpt>
      <trkpt lat="47.02386" lon="-1.75383">
        <ele>34.043</ele>
        <time>2011-09-25T08:12:23Z</time>
      </trkpt>
      <trkpt lat="47.02395" lon="-1.75356">
        <ele>33.986</ele>
        <time>2011-09-25T08:12:26Z</time>
      </trkpt>
      <trkpt lat="47.02399" lon="-1.75337">
        <ele>34.002</ele>
        <time>2011-09-25T08:12:28Z</time>
      </trkpt>
      <trkpt lat="47.02404" lon="-1.7531">
        <ele>33.892</ele>
        <time>2011-09-25T08:12:31Z</time>
      </trkpt>
      <trkpt lat="47.02408" lon="-1.75283">
        <ele>33.41</ele>
        <time>2011-09-25T08:12:34Z</time>
      </trkpt>
      <trkpt lat="47.02409" lon="-1.75265">
        <ele>32.686</ele>
        <time>2011-09-25T08:12:36Z</time>
      </trkpt>
      <trkpt lat="47.02411" lon="-1.75248">
        <ele>32.002</ele>
        <time>2011-09-25T08:12:38Z</time>
      </trkpt>
      <trkpt lat="47.02417" lon="-1.75223">
        <ele>31.438</ele>
        <time>2011-09-25T08:12:41Z</time>
      </trkpt>
      <trkpt lat="47.02425" lon="-1.75199">
        <ele>30.933</ele>
        <time>2011-09-25T08:12:44Z</time>
      </trkpt>
      <trkpt lat="47.02433" lon="-1.75179">
        <ele>30.32</ele>
        <time>2011-09-25T08:12:47Z</time>
      </trkpt>
      <trkpt lat="47.02441" lon="-1.75156">
        <ele>29.332</ele>
        <time>2011-09-25T08:12:50Z</time>
      </trkpt>
      <trkpt lat="47.02449" lon="-1.75133">
        <ele>28.114</ele>
        <time>2011-09-25T08:12:53Z</time>
      </trkpt>
      <trkpt lat="47.02458" lon="-1.75111">
        <ele>27.204</ele>
        <time>2011-09-25T08:12:56Z</time>
      </trkpt>
      <trkpt lat="47.02466" lon="-1.75091">
        <ele>26.866</ele>
        <time>2011-09-25T08:12:59Z</time>
      </trkpt>
      <trkpt lat="47.02475" lon="-1.75071">
        <ele>26.871</ele>
        <time>2011-09-25T08:13:02Z</time>
      </trkpt>
      <trkpt lat="47.02481" lon="-1.75058">
        <ele>26.972</ele>
        <time>2011-09-25T08:13:04Z</time>
      </trkpt>
      <trkpt lat="47.02489" lon="-1.75038">
        <ele>27.184</ele>
        <time>2011-09-25T08:13:07Z</time>
      </trkpt>
      <trkpt lat="47.02497" lon="-1.75017">
        <ele>27.571</ele>
        <time>2011-09-25T08:13:10Z</time>
      </trkpt>
      <trkpt lat="47.02506" lon="-1.74996">
        <ele>27.94</ele>
        <time>2011-09-25T08:13:13Z</time>
      </trkpt>
      <trkpt lat="47.02514" lon="-1.74976">
        <ele>28.108</ele>
        <time>2011-09-25T08:13:16Z</time>
      </trkpt>
      <trkpt lat="47.02523" lon="-1.74954">
        <ele>28.128</ele>
        <time>2011-09-25T08:13:19Z</time>
      </trkpt>
      <trkpt lat="47.02532" lon="-1.74932">
        <ele>27.958</ele>
        <time>2011-09-25T08:13:22Z</time>
      </trkpt>
      <trkpt lat="47.02539" lon="-1.74918">
        <ele>27.568</ele>
        <time>2011-09-25T08:13:24Z</time>
      </trkpt>
      <trkpt lat="47.02545" lon="-1.74904">
        <ele>27.186</ele>
        <time>2011-09-25T08:13:26Z</time>
      </trkpt>
      <trkpt lat="47.02552" lon="-1.74888">
        <ele>27.009</ele>
        <time>2011-09-25T08:13:28Z</time>
      </trkpt>
      <trkpt lat="47.02562" lon="-1.74865">
        <ele>26.985</ele>
        <time>2011-09-25T08:13:31Z</time>
      </trkpt>
      <trkpt lat="47.02568" lon="-1.74849">
        <ele>27.018</ele>
        <time>2011-09-25T08:13:33Z</time>
      </trkpt>
      <trkpt lat="47.02573" lon="-1.74824">
        <ele>27.188</ele>
        <time>2011-09-25T08:13:36Z</time>
      </trkpt>
      <trkpt lat="47.02575" lon="-1.748">
        <ele>27.562</ele>
        <time>2011-09-25T08:13:39Z</time>
      </trkpt>
      <trkpt lat="47.02578" lon="-1.74775">
        <ele>27.933</ele>
        <time>2011-09-25T08:13:42Z</time>
      </trkpt>
      <trkpt lat="47.0258" lon="-1.74757">
        <ele>28.105</ele>
        <time>2011-09-25T08:13:44Z</time>
      </trkpt>
      <trkpt lat="47.02584" lon="-1.74731">
        <ele>28.13</ele>
        <time>2011-09-25T08:13:47Z</time>
      </trkpt>
      <trkpt lat="47.02585" lon="-1.74709">
        <ele>28.237</ele>
        <time>2011-09-25T08:13:50Z</time>
      </trkpt>
      <trkpt lat="47.02585" lon="-1.74694">
        <ele>28.705</ele>
        <time>2011-09-25T08:13:52Z</time>
      </trkpt>
      <trkpt lat="47.02586" lon="-1.74672">
        <ele>29.421</ele>
        <time>2011-09-25T08:13:55Z</time>
      </trkpt>
      <trkpt lat="47.02586" lon="-1.74649">
        <ele>29.964</ele>
        <time>2011-09-25T08:13:58Z</time>
      </trkpt>
      <trkpt lat="47.02587" lon="-1.74627">
        <ele>30.168</ele>
        <time>2011-09-25T08:14:01Z</time>
      </trkpt>
      <trkpt lat="47.02589" lon="-1.74609">
        <ele>30.168</ele>
        <time>2011-09-25T08:14:04Z</time>
      </trkpt>
      <trkpt lat="47.0259" lon="-1.74596">
        <ele>30.109</ele>
        <time>2011-09-25T08:14:07Z</time>
      </trkpt>
      <trkpt lat="47.0259" lon="-1.74589">
        <ele>30.065</ele>
        <time>2011-09-25T08:14:09Z</time>
      </trkpt>
      <trkpt lat="47.0259" lon="-1.74576">
        <ele>30.049</ele>
        <time>2011-09-25T08:14:12Z</time>
      </trkpt>
      <trkpt lat="47.02591" lon="-1.74565">
        <ele>30.049</ele>
        <time>2011-09-25T08:14:14Z</time>
      </trkpt>
      <trkpt lat="47.02592" lon="-1.74551">
        <ele>30.192</ele>
        <time>2011-09-25T08:14:16Z</time>
      </trkpt>
      <trkpt lat="47.02594" lon="-1.74529">
        <ele>30.556</ele>
        <time>2011-09-25T08:14:19Z</time>
      </trkpt>
      <trkpt lat="47.02597" lon="-1.74511">
        <ele>30.927</ele>
        <time>2011-09-25T08:14:21Z</time>
      </trkpt>
      <trkpt lat="47.02602" lon="-1.74489">
        <ele>31.24</ele>
        <time>2011-09-25T08:14:24Z</time>
      </trkpt>
      <trkpt lat="47.02606" lon="-1.74478">
        <ele>31.626</ele>
        <time>2011-09-25T08:14:26Z</time>
      </trkpt>
      <trkpt lat="47.02606" lon="-1.74478">
        <ele>31.966</ele>
        <time>2011-09-25T08:14:27Z</time>
      </trkpt>
      <trkpt lat="47.02617" lon="-1.74442">
        <ele>32.111</ele>
        <time>2011-09-25T08:14:35Z</time>
      </trkpt>
      <trkpt lat="47.02622" lon="-1.74421">
        <ele>32.262</ele>
        <time>2011-09-25T08:14:38Z</time>
      </trkpt>
      <trkpt lat="47.02629" lon="-1.74395">
        <ele>32.589</ele>
        <time>2011-09-25T08:14:41Z</time>
      </trkpt>
      <trkpt lat="47.02636" lon="-1.74374">
        <ele>33.07</ele>
        <time>2011-09-25T08:14:44Z</time>
      </trkpt>
      <trkpt lat="47.0264" lon="-1.7436">
        <ele>33.593</ele>
        <time>2011-09-25T08:14:46Z</time>
      </trkpt>
      <trkpt lat="47.02646" lon="-1.74342">
        <ele>33.989</ele>
        <time>2011-09-25T08:14:49Z</time>
      </trkpt>
      <trkpt lat="47.02651" lon="-1.74326">
        <ele>34.137</ele>
        <time>2011-09-25T08:14:52Z</time>
      </trkpt>
      <trkpt lat="47.02656" lon="-1.74309">
        <ele>34.136</ele>
        <time>2011-09-25T08:14:55Z</time>
      </trkpt>
      <trkpt lat="47.02659" lon="-1.74298">
        <ele>34.093</ele>
        <time>2011-09-25T08:14:57Z</time>
      </trkpt>
      <trkpt lat="47.02663" lon="-1.74286">
        <ele>34.061</ele>
        <time>2011-09-25T08:14:59Z</time>
      </trkpt>
      <trkpt lat="47.02668" lon="-1.74269">
        <ele>34.188</ele>
        <time>2011-09-25T08:15:02Z</time>
      </trkpt>
      <trkpt lat="47.02674" lon="-1.74253">
        <ele>34.548</ele>
        <time>2011-09-25T08:15:05Z</time>
      </trkpt>
      <trkpt lat="47.02679" lon="-1.74237">
        <ele>34.782</ele>
        <time>2011-09-25T08:15:08Z</time>
      </trkpt>
      <trkpt lat="47.02683" lon="-1.74227">
        <ele>34.601</ele>
        <time>2011-09-25T08:15:10Z</time>
      </trkpt>
      <trkpt lat="47.02688" lon="-1.74211">
        <ele>34.259</ele>
        <time>2011-09-25T08:15:13Z</time>
      </trkpt>
      <trkpt lat="47.02694" lon="-1.74194">
        <ele>34.054</ele>
        <time>2011-09-25T08:15:16Z</time>
      </trkpt>
      <trkpt lat="47.02702" lon="-1.74178">
        <ele>33.997</ele>
        <time>2011-09-25T08:15:19Z</time>
      </trkpt>
      <trkpt lat="47.0271" lon="-1.74163">
        <ele>34.013</ele>
        <time>2011-09-25T08:15:22Z</time>
      </trkpt>
      <trkpt lat="47.02719" lon="-1.74147">
        <ele>34.041</ele>
        <time>2011-09-25T08:15:25Z</time>
      </trkpt>
      <trkpt lat="47.02725" lon="-1.74137">
        <ele>34.058</ele>
        <time>2011-09-25T08:15:27Z</time>
      </trkpt>
      <trkpt lat="47.02735" lon="-1.74122">
        <ele>34.062</ele>
        <time>2011-09-25T08:15:30Z</time>
      </trkpt>
      <trkpt lat="47.02744" lon="-1.74107">
        <ele>34.061</ele>
        <time>2011-09-25T08:15:33Z</time>
      </trkpt>
      <trkpt lat="47.02751" lon="-1.74097">
        <ele>34.059</ele>
        <time>2011-09-25T08:15:35Z</time>
      </trkpt>
      <trkpt lat="47.02758" lon="-1.74087">
        <ele>34.058</ele>
        <time>2011-09-25T08:15:37Z</time>
      </trkpt>
      <trkpt lat="47.02769" lon="-1.74073">
        <ele>34.058</ele>
        <time>2011-09-25T08:15:40Z</time>
      </trkpt>
      <trkpt lat="47.02778" lon="-1.74058">
        <ele>34.058</ele>
        <time>2011-09-25T08:15:43Z</time>
      </trkpt>
      <trkpt lat="47.02787" lon="-1.74045">
        <ele>34.058</ele>
        <time>2011-09-25T08:15:46Z</time>
      </trkpt>
      <trkpt lat="47.02796" lon="-1.74033">
        <ele>34.335</ele>
        <time>2011-09-25T08:15:49Z</time>
      </trkpt>
      <trkpt lat="47.028" lon="-1.74028">
        <ele>35.054</ele>
        <time>2011-09-25T08:15:51Z</time>
      </trkpt>
      <trkpt lat="47.028" lon="-1.74028">
        <ele>35.793</ele>
        <time>2011-09-25T08:15:52Z</time>
      </trkpt>
      <trkpt lat="47.02819" lon="-1.74025">
        <ele>36.144</ele>
        <time>2011-09-25T08:16:03Z</time>
      </trkpt>
      <trkpt lat="47.02825" lon="-1.74024">
        <ele>36.197</ele>
        <time>2011-09-25T08:16:05Z</time>
      </trkpt>
      <trkpt lat="47.02825" lon="-1.74024">
        <ele>36.151</ele>
        <time>2011-09-25T08:16:07Z</time>
      </trkpt>
      <trkpt lat="47.0284" lon="-1.74013">
        <ele>36.251</ele>
        <time>2011-09-25T08:16:10Z</time>
      </trkpt>
      <trkpt lat="47.02846" lon="-1.74007">
        <ele>36.584</ele>
        <time>2011-09-25T08:16:12Z</time>
      </trkpt>
      <trkpt lat="47.02854" lon="-1.74001">
        <ele>37.068</ele>
        <time>2011-09-25T08:16:14Z</time>
      </trkpt>
      <trkpt lat="47.02861" lon="-1.73996">
        <ele>37.594</ele>
        <time>2011-09-25T08:16:16Z</time>
      </trkpt>
      <trkpt lat="47.02868" lon="-1.73991">
        <ele>37.989</ele>
        <time>2011-09-25T08:16:18Z</time>
      </trkpt>
      <trkpt lat="47.02878" lon="-1.73986">
        <ele>38.136</ele>
        <time>2011-09-25T08:16:21Z</time>
      </trkpt>
      <trkpt lat="47.02885" lon="-1.73984">
        <ele>38.273</ele>
        <time>2011-09-25T08:16:23Z</time>
      </trkpt>
      <trkpt lat="47.02895" lon="-1.73982">
        <ele>38.728</ele>
        <time>2011-09-25T08:16:26Z</time>
      </trkpt>
      <trkpt lat="47.02907" lon="-1.73982">
        <ele>39.425</ele>
        <time>2011-09-25T08:16:29Z</time>
      </trkpt>
      <trkpt lat="47.02918" lon="-1.73983">
        <ele>39.958</ele>
        <time>2011-09-25T08:16:32Z</time>
      </trkpt>
      <trkpt lat="47.02926" lon="-1.73984">
        <ele>40.16</ele>
        <time>2011-09-25T08:16:34Z</time>
      </trkpt>
      <trkpt lat="47.02938" lon="-1.73986">
        <ele>40.299</ele>
        <time>2011-09-25T08:16:37Z</time>
      </trkpt>
      <trkpt lat="47.0295" lon="-1.73988">
        <ele>40.601</ele>
        <time>2011-09-25T08:16:40Z</time>
      </trkpt>
      <trkpt lat="47.02957" lon="-1.73988">
        <ele>41.065</ele>
        <time>2011-09-25T08:16:42Z</time>
      </trkpt>
      <trkpt lat="47.02965" lon="-1.73989">
        <ele>41.723</ele>
        <time>2011-09-25T08:16:44Z</time>
      </trkpt>
      <trkpt lat="47.02978" lon="-1.73992">
        <ele>42.479</ele>
        <time>2011-09-25T08:16:47Z</time>
      </trkpt>
      <trkpt lat="47.02986" lon="-1.73994">
        <ele>42.998</ele>
        <time>2011-09-25T08:16:49Z</time>
      </trkpt>
      <trkpt lat="47.02998" lon="-1.73998">
        <ele>43.173</ele>
        <time>2011-09-25T08:16:52Z</time>
      </trkpt>
      <trkpt lat="47.03011" lon="-1.74007">
        <ele>43.157</ele>
        <time>2011-09-25T08:16:55Z</time>
      </trkpt>
      <trkpt lat="47.03019" lon="-1.74021">
        <ele>43.095</ele>
        <time>2011-09-25T08:16:58Z</time>
      </trkpt>
      <trkpt lat="47.03025" lon="-1.74035">
        <ele>43.053</ele>
        <time>2011-09-25T08:17:01Z</time>
      </trkpt>
      <trkpt lat="47.03029" lon="-1.74046">
        <ele>43.039</ele>
        <time>2011-09-25T08:17:04Z</time>
      </trkpt>
      <trkpt lat="47.03028" lon="-1.74057">
        <ele>43.04</ele>
        <time>2011-09-25T08:17:07Z</time>
      </trkpt>
      <trkpt lat="47.03026" lon="-1.74065">
        <ele>43.046</ele>
        <time>2011-09-25T08:17:09Z</time>
      </trkpt>
      <trkpt lat="47.03021" lon="-1.74078">
        <ele>43.049</ele>
        <time>2011-09-25T08:17:12Z</time>
      </trkpt>
      <trkpt lat="47.03018" lon="-1.74086">
        <ele>43.188</ele>
        <time>2011-09-25T08:17:14Z</time>
      </trkpt>
      <trkpt lat="47.03012" lon="-1.74099">
        <ele>43.548</ele>
        <time>2011-09-25T08:17:17Z</time>
      </trkpt>
      <trkpt lat="47.03009" lon="-1.74107">
        <ele>43.916</ele>
        <time>2011-09-25T08:17:19Z</time>
      </trkpt>
      <trkpt lat="47.03003" lon="-1.7412">
        <ele>44.091</ele>
        <time>2011-09-25T08:17:22Z</time>
      </trkpt>
      <trkpt lat="47.02997" lon="-1.74134">
        <ele>44.118</ele>
        <time>2011-09-25T08:17:25Z</time>
      </trkpt>
      <trkpt lat="47.02992" lon="-1.74144">
        <ele>44.088</ele>
        <time>2011-09-25T08:17:27Z</time>
      </trkpt>
      <trkpt lat="47.02988" lon="-1.74154">
        <ele>44.058</ele>
        <time>2011-09-25T08:17:29Z</time>
      </trkpt>
      <trkpt lat="47.02988" lon="-1.7417">
        <ele>44.044</ele>
        <time>2011-09-25T08:17:32Z</time>
      </trkpt>
      <trkpt lat="47.02994" lon="-1.74178">
        <ele>44.041</ele>
        <time>2011-09-25T08:17:34Z</time>
      </trkpt>
      <trkpt lat="47.02994" lon="-1.74178">
        <ele>44.036</ele>
        <time>2011-09-25T08:17:36Z</time>
      </trkpt>
      <trkpt lat="47.03012" lon="-1.74214">
        <ele>44.018</ele>
        <time>2011-09-25T08:17:45Z</time>
      </trkpt>
      <trkpt lat="47.03013" lon="-1.74226">
        <ele>43.998</ele>
        <time>2011-09-25T08:17:47Z</time>
      </trkpt>
      <trkpt lat="47.03016" lon="-1.74245">
        <ele>43.989</ele>
        <time>2011-09-25T08:17:50Z</time>
      </trkpt>
      <trkpt lat="47.03017" lon="-1.74264">
        <ele>43.995</ele>
        <time>2011-09-25T08:17:53Z</time>
      </trkpt>
      <trkpt lat="47.03019" lon="-1.74281">
        <ele>44.016</ele>
        <time>2011-09-25T08:17:56Z</time>
      </trkpt>
      <trkpt lat="47.03024" lon="-1.74297">
        <ele>44.038</ele>
        <time>2011-09-25T08:17:59Z</time>
      </trkpt>
      <trkpt lat="47.03031" lon="-1.74309">
        <ele>44.049</ele>
        <time>2011-09-25T08:18:02Z</time>
      </trkpt>
      <trkpt lat="47.03039" lon="-1.74322">
        <ele>44.05</ele>
        <time>2011-09-25T08:18:05Z</time>
      </trkpt>
      <trkpt lat="47.03045" lon="-1.74329">
        <ele>44.049</ele>
        <time>2011-09-25T08:18:07Z</time>
      </trkpt>
      <trkpt lat="47.03057" lon="-1.74331">
        <ele>44.047</ele>
        <time>2011-09-25T08:18:10Z</time>
      </trkpt>
      <trkpt lat="47.0307" lon="-1.74328">
        <ele>44.046</ele>
        <time>2011-09-25T08:18:13Z</time>
      </trkpt>
      <trkpt lat="47.03082" lon="-1.7433">
        <ele>44.045</ele>
        <time>2011-09-25T08:18:16Z</time>
      </trkpt>
      <trkpt lat="47.03091" lon="-1.74339">
        <ele>44.045</ele>
        <time>2011-09-25T08:18:19Z</time>
      </trkpt>
      <trkpt lat="47.03099" lon="-1.74349">
        <ele>44.184</ele>
        <time>2011-09-25T08:18:22Z</time>
      </trkpt>
      <trkpt lat="47.03105" lon="-1.74359">
        <ele>44.544</ele>
        <time>2011-09-25T08:18:25Z</time>
      </trkpt>
      <trkpt lat="47.03105" lon="-1.74359">
        <ele>44.913</ele>
        <time>2011-09-25T08:18:26Z</time>
      </trkpt>
      <trkpt lat="47.03099" lon="-1.7441">
        <ele>45.088</ele>
        <time>2011-09-25T08:18:39Z</time>
      </trkpt>
      <trkpt lat="47.03095" lon="-1.74418">
        <ele>45.115</ele>
        <time>2011-09-25T08:18:41Z</time>
      </trkpt>
      <trkpt lat="47.03089" lon="-1.74425">
        <ele>45.085</ele>
        <time>2011-09-25T08:18:44Z</time>
      </trkpt>
      <trkpt lat="47.03077" lon="-1.74441">
        <ele>45.055</ele>
        <time>2011-09-25T08:18:47Z</time>
      </trkpt>
      <trkpt lat="47.03067" lon="-1.74453">
        <ele>45.04</ele>
        <time>2011-09-25T08:18:50Z</time>
      </trkpt>
      <trkpt lat="47.03061" lon="-1.74459">
        <ele>45.038</ele>
        <time>2011-09-25T08:18:52Z</time>
      </trkpt>
      <trkpt lat="47.03061" lon="-1.74459">
        <ele>45.04</ele>
        <time>2011-09-25T08:18:54Z</time>
      </trkpt>
      <trkpt lat="47.03085" lon="-1.74468">
        <ele>45.043</ele>
        <time>2011-09-25T08:19:24Z</time>
      </trkpt>
      <trkpt lat="47.03091" lon="-1.74464">
        <ele>45.044</ele>
        <time>2011-09-25T08:19:26Z</time>
      </trkpt>
      <trkpt lat="47.031" lon="-1.74458">
        <ele>45.036</ele>
        <time>2011-09-25T08:19:29Z</time>
      </trkpt>
      <trkpt lat="47.03106" lon="-1.74454">
        <ele>44.885</ele>
        <time>2011-09-25T08:19:31Z</time>
      </trkpt>
      <trkpt lat="47.03111" lon="-1.74451">
        <ele>44.524</ele>
        <time>2011-09-25T08:19:34Z</time>
      </trkpt>
      <trkpt lat="47.0312" lon="-1.74447">
        <ele>44.028</ele>
        <time>2011-09-25T08:19:39Z</time>
      </trkpt>
      <trkpt lat="47.0312" lon="-1.74447">
        <ele>43.501</ele>
        <time>2011-09-25T08:19:53Z</time>
      </trkpt>
      <trkpt lat="47.0312" lon="-1.74447">
        <ele>43.108</ele>
        <time>2011-09-25T08:20:10Z</time>
      </trkpt>
      <trkpt lat="47.0314" lon="-1.74418">
        <ele>42.825</ele>
        <time>2011-09-25T08:21:58Z</time>
      </trkpt>
      <trkpt lat="47.03144" lon="-1.74415">
        <ele>42.468</ele>
        <time>2011-09-25T08:22:05Z</time>
      </trkpt>
      <trkpt lat="47.03149" lon="-1.74412">
        <ele>42.142</ele>
        <time>2011-09-25T08:22:11Z</time>
      </trkpt>
      <trkpt lat="47.03149" lon="-1.74412">
        <ele>41.998</ele>
        <time>2011-09-25T08:22:23Z</time>
      </trkpt>
      <trkpt lat="47.03149" lon="-1.74412">
        <ele>41.97</ele>
        <time>2011-09-25T08:23:09Z</time>
      </trkpt>
      <trkpt lat="47.03128" lon="-1.74433">
        <ele>41.425</ele>
        <time>2011-09-25T08:23:13Z</time>
      </trkpt>
      <trkpt lat="47.03128" lon="-1.74433">
        <ele>40.012</ele>
        <time>2011-09-25T08:23:14Z</time>
      </trkpt>
      <trkpt lat="47.03128" lon="-1.74433">
        <ele>38.829</ele>
        <time>2011-09-25T08:23:14Z</time>
      </trkpt>
      <trkpt lat="47.03128" lon="-1.74433">
        <ele>38.833</ele>
        <time>2011-09-25T08:23:15Z</time>
      </trkpt>
      <trkpt lat="47.03128" lon="-1.74433">
        <ele>39.438</ele>
        <time>2011-09-25T08:23:15Z</time>
      </trkpt>
      <trkpt lat="47.03128" lon="-1.74433">
        <ele>39.812</ele>
        <time>2011-09-25T08:23:16Z</time>
      </trkpt>
      <trkpt lat="47.03128" lon="-1.74433">
        <ele>39.774</ele>
        <time>2011-09-25T08:23:16Z</time>
      </trkpt>
      <trkpt lat="47.03128" lon="-1.74433">
        <ele>39.607</ele>
        <time>2011-09-25T08:23:17Z</time>
      </trkpt>
      <trkpt lat="47.03127" lon="-1.74391">
        <ele>39.531</ele>
        <time>2011-09-25T08:24:58Z</time>
      </trkpt>
      <trkpt lat="47.03126" lon="-1.74373">
        <ele>39.398</ele>
        <time>2011-09-25T08:25:02Z</time>
      </trkpt>
      <trkpt lat="47.03128" lon="-1.74366">
        <ele>39.119</ele>
        <time>2011-09-25T08:25:06Z</time>
      </trkpt>
      <trkpt lat="47.03132" lon="-1.74361">
        <ele>37.38</ele>
        <time>2011-09-25T08:25:09Z</time>
      </trkpt>
      <trkpt lat="47.03137" lon="-1.74358">
        <ele>33.264</ele>
        <time>2011-09-25T08:25:12Z</time>
      </trkpt>
      <trkpt lat="47.03148" lon="-1.74357">
        <ele>28.926</ele>
        <time>2011-09-25T08:25:17Z</time>
      </trkpt>
      <trkpt lat="47.03156" lon="-1.74359">
        <ele>26.698</ele>
        <time>2011-09-25T08:25:20Z</time>
      </trkpt>
      <trkpt lat="47.03163" lon="-1.74363">
        <ele>26.259</ele>
        <time>2011-09-25T08:25:23Z</time>
      </trkpt>
      <trkpt lat="47.0317" lon="-1.74367">
        <ele>26.702</ele>
        <time>2011-09-25T08:25:26Z</time>
      </trkpt>
      <trkpt lat="47.03181" lon="-1.74375">
        <ele>27.554</ele>
        <time>2011-09-25T08:25:30Z</time>
      </trkpt>
      <trkpt lat="47.03186" lon="-1.7438">
        <ele>28.463</ele>
        <time>2011-09-25T08:25:32Z</time>
      </trkpt>
      <trkpt lat="47.03192" lon="-1.74387">
        <ele>29.18</ele>
        <time>2011-09-25T08:25:35Z</time>
      </trkpt>
      <trkpt lat="47.03196" lon="-1.74391">
        <ele>29.716</ele>
        <time>2011-09-25T08:25:38Z</time>
      </trkpt>
      <trkpt lat="47.032" lon="-1.74395">
        <ele>30.191</ele>
        <time>2011-09-25T08:25:41Z</time>
      </trkpt>
      <trkpt lat="47.03205" lon="-1.744">
        <ele>30.652</ele>
        <time>2011-09-25T08:25:44Z</time>
      </trkpt>
      <trkpt lat="47.03208" lon="-1.74407">
        <ele>31.001</ele>
        <time>2011-09-25T08:25:47Z</time>
      </trkpt>
      <trkpt lat="47.03213" lon="-1.74416">
        <ele>31.132</ele>
        <time>2011-09-25T08:25:51Z</time>
      </trkpt>
      <trkpt lat="47.03216" lon="-1.74424">
        <ele>31.131</ele>
        <time>2011-09-25T08:25:54Z</time>
      </trkpt>
      <trkpt lat="47.0322" lon="-1.74431">
        <ele>31.093</ele>
        <time>2011-09-25T08:25:57Z</time>
      </trkpt>
      <trkpt lat="47.0323" lon="-1.74442">
        <ele>31.203</ele>
        <time>2011-09-25T08:26:02Z</time>
      </trkpt>
      <trkpt lat="47.03234" lon="-1.74445">
        <ele>31.691</ele>
        <time>2011-09-25T08:26:05Z</time>
      </trkpt>
      <trkpt lat="47.0324" lon="-1.74449">
        <ele>32.42</ele>
        <time>2011-09-25T08:26:09Z</time>
      </trkpt>
      <trkpt lat="47.03243" lon="-1.74457">
        <ele>33.106</ele>
        <time>2011-09-25T08:26:12Z</time>
      </trkpt>
      <trkpt lat="47.03242" lon="-1.74471">
        <ele>33.67</ele>
        <time>2011-09-25T08:26:15Z</time>
      </trkpt>
      <trkpt lat="47.03243" lon="-1.74482">
        <ele>34.037</ele>
        <time>2011-09-25T08:26:18Z</time>
      </trkpt>
      <trkpt lat="47.0325" lon="-1.74482">
        <ele>34.152</ele>
        <time>2011-09-25T08:26:21Z</time>
      </trkpt>
      <trkpt lat="47.03253" lon="-1.74478">
        <ele>34.272</ele>
        <time>2011-09-25T08:26:23Z</time>
      </trkpt>
      <trkpt lat="47.03258" lon="-1.74469">
        <ele>34.586</ele>
        <time>2011-09-25T08:26:26Z</time>
      </trkpt>
      <trkpt lat="47.03263" lon="-1.74458">
        <ele>34.925</ele>
        <time>2011-09-25T08:26:29Z</time>
      </trkpt>
      <trkpt lat="47.03268" lon="-1.74445">
        <ele>35.091</ele>
        <time>2011-09-25T08:26:32Z</time>
      </trkpt>
      <trkpt lat="47.0327" lon="-1.74436">
        <ele>34.981</ele>
        <time>2011-09-25T08:26:34Z</time>
      </trkpt>
      <trkpt lat="47.03275" lon="-1.74422">
        <ele>34.595</ele>
        <time>2011-09-25T08:26:37Z</time>
      </trkpt>
      <trkpt lat="47.0328" lon="-1.74407">
        <ele>34.198</ele>
        <time>2011-09-25T08:26:40Z</time>
      </trkpt>
      <trkpt lat="47.03286" lon="-1.74394">
        <ele>34.01</ele>
        <time>2011-09-25T08:26:43Z</time>
      </trkpt>
      <trkpt lat="47.03291" lon="-1.7438">
        <ele>33.981</ele>
        <time>2011-09-25T08:26:46Z</time>
      </trkpt>
      <trkpt lat="47.03297" lon="-1.74366">
        <ele>34.013</ele>
        <time>2011-09-25T08:26:49Z</time>
      </trkpt>
      <trkpt lat="47.03303" lon="-1.74351">
        <ele>34.046</ele>
        <time>2011-09-25T08:26:52Z</time>
      </trkpt>
      <trkpt lat="47.03308" lon="-1.74337">
        <ele>34.061</ele>
        <time>2011-09-25T08:26:55Z</time>
      </trkpt>
      <trkpt lat="47.03312" lon="-1.74328">
        <ele>34.063</ele>
        <time>2011-09-25T08:26:57Z</time>
      </trkpt>
      <trkpt lat="47.03316" lon="-1.74319">
        <ele>34.061</ele>
        <time>2011-09-25T08:26:59Z</time>
      </trkpt>
      <trkpt lat="47.03324" lon="-1.74309">
        <ele>34.058</ele>
        <time>2011-09-25T08:27:02Z</time>
      </trkpt>
      <trkpt lat="47.03334" lon="-1.74314">
        <ele>34.057</ele>
        <time>2011-09-25T08:27:05Z</time>
      </trkpt>
      <trkpt lat="47.03343" lon="-1.74325">
        <ele>34.057</ele>
        <time>2011-09-25T08:27:08Z</time>
      </trkpt>
      <trkpt lat="47.03351" lon="-1.74338">
        <ele>34.058</ele>
        <time>2011-09-25T08:27:11Z</time>
      </trkpt>
      <trkpt lat="47.03358" lon="-1.74352">
        <ele>34.058</ele>
        <time>2011-09-25T08:27:14Z</time>
      </trkpt>
      <trkpt lat="47.03365" lon="-1.74364">
        <ele>34.058</ele>
        <time>2011-09-25T08:27:17Z</time>
      </trkpt>
      <trkpt lat="47.03375" lon="-1.74376">
        <ele>34.058</ele>
        <time>2011-09-25T08:27:20Z</time>
      </trkpt>
      <trkpt lat="47.03387" lon="-1.74388">
        <ele>34.058</ele>
        <time>2011-09-25T08:27:23Z</time>
      </trkpt>
      <trkpt lat="47.034" lon="-1.74399">
        <ele>34.058</ele>
        <time>2011-09-25T08:27:26Z</time>
      </trkpt>
      <trkpt lat="47.03413" lon="-1.74409">
        <ele>34.058</ele>
        <time>2011-09-25T08:27:29Z</time>
      </trkpt>
      <trkpt lat="47.03422" lon="-1.74417">
        <ele>34.058</ele>
        <time>2011-09-25T08:27:31Z</time>
      </trkpt>
      <trkpt lat="47.03435" lon="-1.74428">
        <ele>34.058</ele>
        <time>2011-09-25T08:27:34Z</time>
      </trkpt>
      <trkpt lat="47.03445" lon="-1.74436">
        <ele>34.057</ele>
        <time>2011-09-25T08:27:36Z</time>
      </trkpt>
      <trkpt lat="47.03454" lon="-1.74443">
        <ele>34.057</ele>
        <time>2011-09-25T08:27:38Z</time>
      </trkpt>
      <trkpt lat="47.03468" lon="-1.74454">
        <ele>34.196</ele>
        <time>2011-09-25T08:27:41Z</time>
      </trkpt>
      <trkpt lat="47.03477" lon="-1.74461">
        <ele>34.555</ele>
        <time>2011-09-25T08:27:43Z</time>
      </trkpt>
      <trkpt lat="47.03491" lon="-1.74472">
        <ele>34.925</ele>
        <time>2011-09-25T08:27:46Z</time>
      </trkpt>
      <trkpt lat="47.03505" lon="-1.74481">
        <ele>35.1</ele>
        <time>2011-09-25T08:27:49Z</time>
      </trkpt>
      <trkpt lat="47.03519" lon="-1.7449">
        <ele>35.126</ele>
        <time>2011-09-25T08:27:52Z</time>
      </trkpt>
      <trkpt lat="47.03528" lon="-1.74496">
        <ele>35.235</ele>
        <time>2011-09-25T08:27:54Z</time>
      </trkpt>
      <trkpt lat="47.03541" lon="-1.74503">
        <ele>35.564</ele>
        <time>2011-09-25T08:27:57Z</time>
      </trkpt>
      <trkpt lat="47.03551" lon="-1.74508">
        <ele>35.92</ele>
        <time>2011-09-25T08:27:59Z</time>
      </trkpt>
      <trkpt lat="47.03564" lon="-1.74515">
        <ele>36.093</ele>
        <time>2011-09-25T08:28:02Z</time>
      </trkpt>
      <trkpt lat="47.03573" lon="-1.7452">
        <ele>36.122</ele>
        <time>2011-09-25T08:28:04Z</time>
      </trkpt>
      <trkpt lat="47.03587" lon="-1.74527">
        <ele>36.233</ele>
        <time>2011-09-25T08:28:07Z</time>
      </trkpt>
      <trkpt lat="47.03601" lon="-1.74535">
        <ele>36.563</ele>
        <time>2011-09-25T08:28:10Z</time>
      </trkpt>
      <trkpt lat="47.03615" lon="-1.74544">
        <ele>36.919</ele>
        <time>2011-09-25T08:28:13Z</time>
      </trkpt>
      <trkpt lat="47.03628" lon="-1.74553">
        <ele>37.092</ele>
        <time>2011-09-25T08:28:16Z</time>
      </trkpt>
      <trkpt lat="47.03642" lon="-1.74562">
        <ele>37.121</ele>
        <time>2011-09-25T08:28:19Z</time>
      </trkpt>
      <trkpt lat="47.03655" lon="-1.7457">
        <ele>37.093</ele>
        <time>2011-09-25T08:28:22Z</time>
      </trkpt>
      <trkpt lat="47.03669" lon="-1.74579">
        <ele>37.064</ele>
        <time>2011-09-25T08:28:25Z</time>
      </trkpt>
      <trkpt lat="47.03683" lon="-1.74588">
        <ele>37.05</ele>
        <time>2011-09-25T08:28:28Z</time>
      </trkpt>
      <trkpt lat="47.03697" lon="-1.74598">
        <ele>37.186</ele>
        <time>2011-09-25T08:28:31Z</time>
      </trkpt>
      <trkpt lat="47.03711" lon="-1.74607">
        <ele>37.548</ele>
        <time>2011-09-25T08:28:34Z</time>
      </trkpt>
      <trkpt lat="47.0372" lon="-1.74614">
        <ele>37.92</ele>
        <time>2011-09-25T08:28:36Z</time>
      </trkpt>
      <trkpt lat="47.03734" lon="-1.74624">
        <ele>38.234</ele>
        <time>2011-09-25T08:28:39Z</time>
      </trkpt>
      <trkpt lat="47.03749" lon="-1.74634">
        <ele>38.621</ele>
        <time>2011-09-25T08:28:42Z</time>
      </trkpt>
      <trkpt lat="47.03759" lon="-1.7464">
        <ele>38.96</ele>
        <time>2011-09-25T08:28:44Z</time>
      </trkpt>
      <trkpt lat="47.03774" lon="-1.74649">
        <ele>39.105</ele>
        <time>2011-09-25T08:28:47Z</time>
      </trkpt>
      <trkpt lat="47.03789" lon="-1.74649">
        <ele>39.118</ele>
        <time>2011-09-25T08:28:50Z</time>
      </trkpt>
      <trkpt lat="47.03801" lon="-1.7463">
        <ele>39.086</ele>
        <time>2011-09-25T08:28:53Z</time>
      </trkpt>
      <trkpt lat="47.03809" lon="-1.74608">
        <ele>39.058</ele>
        <time>2011-09-25T08:28:56Z</time>
      </trkpt>
      <trkpt lat="47.03815" lon="-1.74586">
        <ele>39.046</ele>
        <time>2011-09-25T08:28:59Z</time>
      </trkpt>
      <trkpt lat="47.03819" lon="-1.74571">
        <ele>39.045</ele>
        <time>2011-09-25T08:29:01Z</time>
      </trkpt>
      <trkpt lat="47.03825" lon="-1.74548">
        <ele>39.048</ele>
        <time>2011-09-25T08:29:04Z</time>
      </trkpt>
      <trkpt lat="47.03832" lon="-1.74523">
        <ele>39.05</ele>
        <time>2011-09-25T08:29:07Z</time>
      </trkpt>
      <trkpt lat="47.03838" lon="-1.74498">
        <ele>39.052</ele>
        <time>2011-09-25T08:29:10Z</time>
      </trkpt>
      <trkpt lat="47.03843" lon="-1.74482">
        <ele>39.052</ele>
        <time>2011-09-25T08:29:12Z</time>
      </trkpt>
      <trkpt lat="47.0385" lon="-1.74458">
        <ele>39.052</ele>
        <time>2011-09-25T08:29:15Z</time>
      </trkpt>
      <trkpt lat="47.03855" lon="-1.74443">
        <ele>39.052</ele>
        <time>2011-09-25T08:29:17Z</time>
      </trkpt>
      <trkpt lat="47.03863" lon="-1.7442">
        <ele>39.052</ele>
        <time>2011-09-25T08:29:20Z</time>
      </trkpt>
      <trkpt lat="47.0387" lon="-1.74396">
        <ele>38.914</ele>
        <time>2011-09-25T08:29:23Z</time>
      </trkpt>
      <trkpt lat="47.03877" lon="-1.74371">
        <ele>38.554</ele>
        <time>2011-09-25T08:29:26Z</time>
      </trkpt>
      <trkpt lat="47.03882" lon="-1.74354">
        <ele>38.185</ele>
        <time>2011-09-25T08:29:28Z</time>
      </trkpt>
      <trkpt lat="47.03889" lon="-1.7433">
        <ele>38.01</ele>
        <time>2011-09-25T08:29:31Z</time>
      </trkpt>
      <trkpt lat="47.03896" lon="-1.74306">
        <ele>37.984</ele>
        <time>2011-09-25T08:29:34Z</time>
      </trkpt>
      <trkpt lat="47.03901" lon="-1.74283">
        <ele>38.014</ele>
        <time>2011-09-25T08:29:37Z</time>
      </trkpt>
      <trkpt lat="47.03903" lon="-1.74259">
        <ele>37.906</ele>
        <time>2011-09-25T08:29:40Z</time>
      </trkpt>
      <trkpt lat="47.03897" lon="-1.74236">
        <ele>37.56</ele>
        <time>2011-09-25T08:29:43Z</time>
      </trkpt>
      <trkpt lat="47.0389" lon="-1.74216">
        <ele>37.193</ele>
        <time>2011-09-25T08:29:46Z</time>
      </trkpt>
      <trkpt lat="47.03884" lon="-1.742">
        <ele>37.015</ele>
        <time>2011-09-25T08:29:49Z</time>
      </trkpt>
      <trkpt lat="47.03878" lon="-1.74187">
        <ele>36.986</ele>
        <time>2011-09-25T08:29:52Z</time>
      </trkpt>
      <trkpt lat="47.03871" lon="-1.74172">
        <ele>37.016</ele>
        <time>2011-09-25T08:29:55Z</time>
      </trkpt>
      <trkpt lat="47.03869" lon="-1.74159">
        <ele>37.046</ele>
        <time>2011-09-25T08:29:57Z</time>
      </trkpt>
      <trkpt lat="47.03881" lon="-1.74143">
        <ele>37.06</ele>
        <time>2011-09-25T08:30:00Z</time>
      </trkpt>
      <trkpt lat="47.03891" lon="-1.74138">
        <ele>37.063</ele>
        <time>2011-09-25T08:30:02Z</time>
      </trkpt>
      <trkpt lat="47.03905" lon="-1.74128">
        <ele>37.199</ele>
        <time>2011-09-25T08:30:05Z</time>
      </trkpt>
      <trkpt lat="47.03915" lon="-1.74123">
        <ele>37.556</ele>
        <time>2011-09-25T08:30:07Z</time>
      </trkpt>
      <trkpt lat="47.03925" lon="-1.74111">
        <ele>38.063</ele>
        <time>2011-09-25T08:30:10Z</time>
      </trkpt>
      <trkpt lat="47.03934" lon="-1.74096">
        <ele>38.598</ele>
        <time>2011-09-25T08:30:13Z</time>
      </trkpt>
      <trkpt lat="47.03939" lon="-1.74077">
        <ele>38.994</ele>
        <time>2011-09-25T08:30:16Z</time>
      </trkpt>
      <trkpt lat="47.03944" lon="-1.74057">
        <ele>39.139</ele>
        <time>2011-09-25T08:30:19Z</time>
      </trkpt>
      <trkpt lat="47.03949" lon="-1.74038">
        <ele>38.998</ele>
        <time>2011-09-25T08:30:22Z</time>
      </trkpt>
      <trkpt lat="47.03953" lon="-1.74018">
        <ele>38.594</ele>
        <time>2011-09-25T08:30:25Z</time>
      </trkpt>
      <trkpt lat="47.03956" lon="-1.73997">
        <ele>38.055</ele>
        <time>2011-09-25T08:30:28Z</time>
      </trkpt>
      <trkpt lat="47.03959" lon="-1.73977">
        <ele>37.508</ele>
        <time>2011-09-25T08:30:31Z</time>
      </trkpt>
      <trkpt lat="47.03963" lon="-1.73959">
        <ele>37.113</ele>
        <time>2011-09-25T08:30:34Z</time>
      </trkpt>
      <trkpt lat="47.03964" lon="-1.7394">
        <ele>36.971</ele>
        <time>2011-09-25T08:30:37Z</time>
      </trkpt>
      <trkpt lat="47.03966" lon="-1.73921">
        <ele>36.978</ele>
        <time>2011-09-25T08:30:40Z</time>
      </trkpt>
      <trkpt lat="47.03967" lon="-1.73901">
        <ele>37.023</ele>
        <time>2011-09-25T08:30:43Z</time>
      </trkpt>
      <trkpt lat="47.03968" lon="-1.73882">
        <ele>37.193</ele>
        <time>2011-09-25T08:30:46Z</time>
      </trkpt>
      <trkpt lat="47.03969" lon="-1.73869">
        <ele>37.703</ele>
        <time>2011-09-25T08:30:48Z</time>
      </trkpt>
      <trkpt lat="47.0397" lon="-1.7385">
        <ele>38.432</ele>
        <time>2011-09-25T08:30:51Z</time>
      </trkpt>
      <trkpt lat="47.0397" lon="-1.7383">
        <ele>39.111</ele>
        <time>2011-09-25T08:30:54Z</time>
      </trkpt>
      <trkpt lat="47.03971" lon="-1.73811">
        <ele>39.67</ele>
        <time>2011-09-25T08:30:57Z</time>
      </trkpt>
      <trkpt lat="47.03971" lon="-1.73798">
        <ele>40.035</ele>
        <time>2011-09-25T08:30:59Z</time>
      </trkpt>
      <trkpt lat="47.03972" lon="-1.73785">
        <ele>40.151</ele>
        <time>2011-09-25T08:31:01Z</time>
      </trkpt>
      <trkpt lat="47.03972" lon="-1.73767">
        <ele>40.133</ele>
        <time>2011-09-25T08:31:04Z</time>
      </trkpt>
      <trkpt lat="47.03973" lon="-1.7375">
        <ele>40.088</ele>
        <time>2011-09-25T08:31:07Z</time>
      </trkpt>
      <trkpt lat="47.03973" lon="-1.73735">
        <ele>40.058</ele>
        <time>2011-09-25T08:31:10Z</time>
      </trkpt>
      <trkpt lat="47.03974" lon="-1.7372">
        <ele>40.049</ele>
        <time>2011-09-25T08:31:13Z</time>
      </trkpt>
      <trkpt lat="47.03974" lon="-1.73707">
        <ele>40.051</ele>
        <time>2011-09-25T08:31:16Z</time>
      </trkpt>
      <trkpt lat="47.03974" lon="-1.73699">
        <ele>40.055</ele>
        <time>2011-09-25T08:31:19Z</time>
      </trkpt>
      <trkpt lat="47.03974" lon="-1.73699">
        <ele>40.058</ele>
        <time>2011-09-25T08:31:20Z</time>
      </trkpt>
      <trkpt lat="47.03971" lon="-1.73677">
        <ele>40.197</ele>
        <time>2011-09-25T08:31:28Z</time>
      </trkpt>
      <trkpt lat="47.0397" lon="-1.73667">
        <ele>40.556</ele>
        <time>2011-09-25T08:31:30Z</time>
      </trkpt>
      <trkpt lat="47.03969" lon="-1.73652">
        <ele>40.925</ele>
        <time>2011-09-25T08:31:33Z</time>
      </trkpt>
      <trkpt lat="47.03968" lon="-1.73635">
        <ele>41.239</ele>
        <time>2011-09-25T08:31:36Z</time>
      </trkpt>
      <trkpt lat="47.03968" lon="-1.73624">
        <ele>41.625</ele>
        <time>2011-09-25T08:31:38Z</time>
      </trkpt>
      <trkpt lat="47.03966" lon="-1.73607">
        <ele>42.103</ele>
        <time>2011-09-25T08:31:41Z</time>
      </trkpt>
      <trkpt lat="47.03966" lon="-1.73595">
        <ele>42.608</ele>
        <time>2011-09-25T08:31:43Z</time>
      </trkpt>
      <trkpt lat="47.03964" lon="-1.73576">
        <ele>42.99</ele>
        <time>2011-09-25T08:31:46Z</time>
      </trkpt>
      <trkpt lat="47.03964" lon="-1.73554">
        <ele>43.134</ele>
        <time>2011-09-25T08:31:49Z</time>
      </trkpt>
      <trkpt lat="47.03964" lon="-1.7353">
        <ele>43.133</ele>
        <time>2011-09-25T08:31:52Z</time>
      </trkpt>
      <trkpt lat="47.03966" lon="-1.73505">
        <ele>43.229</ele>
        <time>2011-09-25T08:31:55Z</time>
      </trkpt>
      <trkpt lat="47.03969" lon="-1.73479">
        <ele>43.558</ele>
        <time>2011-09-25T08:31:58Z</time>
      </trkpt>
      <trkpt lat="47.03972" lon="-1.73452">
        <ele>43.916</ele>
        <time>2011-09-25T08:32:01Z</time>
      </trkpt>
      <trkpt lat="47.03974" lon="-1.73426">
        <ele>44.092</ele>
        <time>2011-09-25T08:32:04Z</time>
      </trkpt>
      <trkpt lat="47.03976" lon="-1.73399">
        <ele>44.122</ele>
        <time>2011-09-25T08:32:07Z</time>
      </trkpt>
      <trkpt lat="47.03978" lon="-1.7338">
        <ele>44.095</ele>
        <time>2011-09-25T08:32:09Z</time>
      </trkpt>
      <trkpt lat="47.0398" lon="-1.73352">
        <ele>44.204</ele>
        <time>2011-09-25T08:32:12Z</time>
      </trkpt>
      <trkpt lat="47.03983" lon="-1.73324">
        <ele>44.55</ele>
        <time>2011-09-25T08:32:15Z</time>
      </trkpt>
      <trkpt lat="47.03986" lon="-1.73295">
        <ele>44.918</ele>
        <time>2011-09-25T08:32:18Z</time>
      </trkpt>
      <trkpt lat="47.03989" lon="-1.73265">
        <ele>45.233</ele>
        <time>2011-09-25T08:32:21Z</time>
      </trkpt>
      <trkpt lat="47.03991" lon="-1.73245">
        <ele>45.622</ele>
        <time>2011-09-25T08:32:23Z</time>
      </trkpt>
      <trkpt lat="47.03994" lon="-1.73226">
        <ele>45.963</ele>
        <time>2011-09-25T08:32:25Z</time>
      </trkpt>
      <trkpt lat="47.04002" lon="-1.73197">
        <ele>46.109</ele>
        <time>2011-09-25T08:32:28Z</time>
      </trkpt>
      <trkpt lat="47.04011" lon="-1.7317">
        <ele>46.121</ele>
        <time>2011-09-25T08:32:31Z</time>
      </trkpt>
      <trkpt lat="47.04022" lon="-1.73145">
        <ele>46.089</ele>
        <time>2011-09-25T08:32:34Z</time>
      </trkpt>
      <trkpt lat="47.04029" lon="-1.73127">
        <ele>46.062</ele>
        <time>2011-09-25T08:32:36Z</time>
      </trkpt>
      <trkpt lat="47.04036" lon="-1.7311">
        <ele>46.051</ele>
        <time>2011-09-25T08:32:38Z</time>
      </trkpt>
      <trkpt lat="47.04046" lon="-1.73084">
        <ele>46.188</ele>
        <time>2011-09-25T08:32:41Z</time>
      </trkpt>
      <trkpt lat="47.04056" lon="-1.73057">
        <ele>46.551</ele>
        <time>2011-09-25T08:32:44Z</time>
      </trkpt>
      <trkpt lat="47.04063" lon="-1.73039">
        <ele>46.922</ele>
        <time>2011-09-25T08:32:46Z</time>
      </trkpt>
      <trkpt lat="47.04069" lon="-1.73021">
        <ele>47.099</ele>
        <time>2011-09-25T08:32:48Z</time>
      </trkpt>
      <trkpt lat="47.04079" lon="-1.72993">
        <ele>47.125</ele>
        <time>2011-09-25T08:32:51Z</time>
      </trkpt>
      <trkpt lat="47.04089" lon="-1.72965">
        <ele>47.096</ele>
        <time>2011-09-25T08:32:54Z</time>
      </trkpt>
      <trkpt lat="47.04098" lon="-1.72936">
        <ele>47.066</ele>
        <time>2011-09-25T08:32:57Z</time>
      </trkpt>
      <trkpt lat="47.04104" lon="-1.72906">
        <ele>47.052</ele>
        <time>2011-09-25T08:33:00Z</time>
      </trkpt>
      <trkpt lat="47.04108" lon="-1.72875">
        <ele>47.05</ele>
        <time>2011-09-25T08:33:03Z</time>
      </trkpt>
      <trkpt lat="47.0411" lon="-1.72855">
        <ele>47.052</ele>
        <time>2011-09-25T08:33:05Z</time>
      </trkpt>
      <trkpt lat="47.0411" lon="-1.72834">
        <ele>46.917</ele>
        <time>2011-09-25T08:33:07Z</time>
      </trkpt>
      <trkpt lat="47.04107" lon="-1.72804">
        <ele>46.559</ele>
        <time>2011-09-25T08:33:10Z</time>
      </trkpt>
      <trkpt lat="47.04104" lon="-1.72774">
        <ele>46.19</ele>
        <time>2011-09-25T08:33:13Z</time>
      </trkpt>
      <trkpt lat="47.04101" lon="-1.72755">
        <ele>46.015</ele>
        <time>2011-09-25T08:33:15Z</time>
      </trkpt>
      <trkpt lat="47.04096" lon="-1.72727">
        <ele>45.988</ele>
        <time>2011-09-25T08:33:18Z</time>
      </trkpt>
      <trkpt lat="47.04092" lon="-1.72699">
        <ele>46.018</ele>
        <time>2011-09-25T08:33:21Z</time>
      </trkpt>
      <trkpt lat="47.04087" lon="-1.7267">
        <ele>46.048</ele>
        <time>2011-09-25T08:33:24Z</time>
      </trkpt>
      <trkpt lat="47.04084" lon="-1.72651">
        <ele>46.063</ele>
        <time>2011-09-25T08:33:26Z</time>
      </trkpt>
      <trkpt lat="47.04081" lon="-1.72632">
        <ele>46.065</ele>
        <time>2011-09-25T08:33:28Z</time>
      </trkpt>
      <trkpt lat="47.04077" lon="-1.72603">
        <ele>46.063</ele>
        <time>2011-09-25T08:33:31Z</time>
      </trkpt>
      <trkpt lat="47.04074" lon="-1.72574">
        <ele>46.199</ele>
        <time>2011-09-25T08:33:34Z</time>
      </trkpt>
      <trkpt lat="47.0407" lon="-1.72546">
        <ele>46.557</ele>
        <time>2011-09-25T08:33:37Z</time>
      </trkpt>
      <trkpt lat="47.04068" lon="-1.72528">
        <ele>46.926</ele>
        <time>2011-09-25T08:33:39Z</time>
      </trkpt>
      <trkpt lat="47.04066" lon="-1.7251">
        <ele>46.964</ele>
        <time>2011-09-25T08:33:41Z</time>
      </trkpt>
      <trkpt lat="47.04062" lon="-1.72485">
        <ele>46.631</ele>
        <time>2011-09-25T08:33:44Z</time>
      </trkpt>
      <trkpt lat="47.04056" lon="-1.72468">
        <ele>46.233</ele>
        <time>2011-09-25T08:33:47Z</time>
      </trkpt>
      <trkpt lat="47.04042" lon="-1.72472">
        <ele>46.028</ele>
        <time>2011-09-25T08:33:50Z</time>
      </trkpt>
      <trkpt lat="47.04026" lon="-1.72481">
        <ele>45.987</ele>
        <time>2011-09-25T08:33:53Z</time>
      </trkpt>
      <trkpt lat="47.04015" lon="-1.72487">
        <ele>46.015</ele>
        <time>2011-09-25T08:33:55Z</time>
      </trkpt>
      <trkpt lat="47.03998" lon="-1.72495">
        <ele>46.047</ele>
        <time>2011-09-25T08:33:58Z</time>
      </trkpt>
      <trkpt lat="47.0398" lon="-1.72503">
        <ele>46.064</ele>
        <time>2011-09-25T08:34:01Z</time>
      </trkpt>
      <trkpt lat="47.03963" lon="-1.72509">
        <ele>46.067</ele>
        <time>2011-09-25T08:34:04Z</time>
      </trkpt>
      <trkpt lat="47.0395" lon="-1.72513">
        <ele>46.065</ele>
        <time>2011-09-25T08:34:07Z</time>
      </trkpt>
      <trkpt lat="47.03942" lon="-1.72516">
        <ele>46.062</ele>
        <time>2011-09-25T08:34:10Z</time>
      </trkpt>
      <trkpt lat="47.03936" lon="-1.72519">
        <ele>46.06</ele>
        <time>2011-09-25T08:34:12Z</time>
      </trkpt>
      <trkpt lat="47.03928" lon="-1.72522">
        <ele>46.06</ele>
        <time>2011-09-25T08:34:15Z</time>
      </trkpt>
      <trkpt lat="47.03919" lon="-1.72526">
        <ele>46.06</ele>
        <time>2011-09-25T08:34:18Z</time>
      </trkpt>
      <trkpt lat="47.0391" lon="-1.72531">
        <ele>45.922</ele>
        <time>2011-09-25T08:34:21Z</time>
      </trkpt>
      <trkpt lat="47.039" lon="-1.72537">
        <ele>45.562</ele>
        <time>2011-09-25T08:34:24Z</time>
      </trkpt>
      <trkpt lat="47.0389" lon="-1.72543">
        <ele>45.193</ele>
        <time>2011-09-25T08:34:27Z</time>
      </trkpt>
      <trkpt lat="47.03882" lon="-1.72546">
        <ele>45.018</ele>
        <time>2011-09-25T08:34:29Z</time>
      </trkpt>
      <trkpt lat="47.03871" lon="-1.72552">
        <ele>44.991</ele>
        <time>2011-09-25T08:34:32Z</time>
      </trkpt>
      <trkpt lat="47.03864" lon="-1.72556">
        <ele>45.021</ele>
        <time>2011-09-25T08:34:34Z</time>
      </trkpt>
      <trkpt lat="47.03853" lon="-1.72561">
        <ele>45.051</ele>
        <time>2011-09-25T08:34:37Z</time>
      </trkpt>
      <trkpt lat="47.03842" lon="-1.72567">
        <ele>45.065</ele>
        <time>2011-09-25T08:34:40Z</time>
      </trkpt>
      <trkpt lat="47.03831" lon="-1.72572">
        <ele>45.067</ele>
        <time>2011-09-25T08:34:43Z</time>
      </trkpt>
      <trkpt lat="47.03823" lon="-1.72576">
        <ele>45.064</ele>
        <time>2011-09-25T08:34:45Z</time>
      </trkpt>
      <trkpt lat="47.03812" lon="-1.72582">
        <ele>45.062</ele>
        <time>2011-09-25T08:34:48Z</time>
      </trkpt>
      <trkpt lat="47.03801" lon="-1.72588">
        <ele>45.199</ele>
        <time>2011-09-25T08:34:51Z</time>
      </trkpt>
      <trkpt lat="47.03794" lon="-1.72591">
        <ele>45.558</ele>
        <time>2011-09-25T08:34:53Z</time>
      </trkpt>
      <trkpt lat="47.03787" lon="-1.72594">
        <ele>45.928</ele>
        <time>2011-09-25T08:34:55Z</time>
      </trkpt>
      <trkpt lat="47.03775" lon="-1.72597">
        <ele>46.103</ele>
        <time>2011-09-25T08:34:58Z</time>
      </trkpt>
      <trkpt lat="47.03764" lon="-1.72596">
        <ele>46.13</ele>
        <time>2011-09-25T08:35:01Z</time>
      </trkpt>
      <trkpt lat="47.03752" lon="-1.72591">
        <ele>46.1</ele>
        <time>2011-09-25T08:35:04Z</time>
      </trkpt>
      <trkpt lat="47.03744" lon="-1.72587">
        <ele>46.07</ele>
        <time>2011-09-25T08:35:06Z</time>
      </trkpt>
      <trkpt lat="47.03734" lon="-1.72578">
        <ele>45.917</ele>
        <time>2011-09-25T08:35:09Z</time>
      </trkpt>
      <trkpt lat="47.03723" lon="-1.72567">
        <ele>45.555</ele>
        <time>2011-09-25T08:35:12Z</time>
      </trkpt>
      <trkpt lat="47.03712" lon="-1.72556">
        <ele>45.189</ele>
        <time>2011-09-25T08:35:15Z</time>
      </trkpt>
      <trkpt lat="47.03701" lon="-1.72545">
        <ele>44.878</ele>
        <time>2011-09-25T08:35:18Z</time>
      </trkpt>
      <trkpt lat="47.0369" lon="-1.72537">
        <ele>44.492</ele>
        <time>2011-09-25T08:35:21Z</time>
      </trkpt>
      <trkpt lat="47.03678" lon="-1.7254">
        <ele>44.153</ele>
        <time>2011-09-25T08:35:24Z</time>
      </trkpt>
      <trkpt lat="47.03671" lon="-1.72545">
        <ele>44.008</ele>
        <time>2011-09-25T08:35:26Z</time>
      </trkpt>
      <trkpt lat="47.03664" lon="-1.72551">
        <ele>43.995</ele>
        <time>2011-09-25T08:35:28Z</time>
      </trkpt>
      <trkpt lat="47.03655" lon="-1.72558">
        <ele>44.027</ele>
        <time>2011-09-25T08:35:31Z</time>
      </trkpt>
      <trkpt lat="47.03648" lon="-1.72565">
        <ele>43.916</ele>
        <time>2011-09-25T08:35:34Z</time>
      </trkpt>
      <trkpt lat="47.03643" lon="-1.72571">
        <ele>43.568</ele>
        <time>2011-09-25T08:35:37Z</time>
      </trkpt>
      <trkpt lat="47.03636" lon="-1.72577">
        <ele>43.2</ele>
        <time>2011-09-25T08:35:40Z</time>
      </trkpt>
      <trkpt lat="47.03631" lon="-1.7258">
        <ele>42.883</ele>
        <time>2011-09-25T08:35:42Z</time>
      </trkpt>
      <trkpt lat="47.03625" lon="-1.72586">
        <ele>42.495</ele>
        <time>2011-09-25T08:35:45Z</time>
      </trkpt>
      <trkpt lat="47.03619" lon="-1.72592">
        <ele>42.154</ele>
        <time>2011-09-25T08:35:48Z</time>
      </trkpt>
      <trkpt lat="47.03614" lon="-1.72596">
        <ele>42.009</ele>
        <time>2011-09-25T08:35:51Z</time>
      </trkpt>
      <trkpt lat="47.03609" lon="-1.726">
        <ele>41.997</ele>
        <time>2011-09-25T08:35:54Z</time>
      </trkpt>
      <trkpt lat="47.03605" lon="-1.72604">
        <ele>42.029</ele>
        <time>2011-09-25T08:35:57Z</time>
      </trkpt>
      <trkpt lat="47.036" lon="-1.72609">
        <ele>42.057</ele>
        <time>2011-09-25T08:36:00Z</time>
      </trkpt>
      <trkpt lat="47.03595" lon="-1.72613">
        <ele>42.206</ele>
        <time>2011-09-25T08:36:03Z</time>
      </trkpt>
      <trkpt lat="47.03589" lon="-1.72618">
        <ele>42.567</ele>
        <time>2011-09-25T08:36:06Z</time>
      </trkpt>
      <trkpt lat="47.03585" lon="-1.72621">
        <ele>42.934</ele>
        <time>2011-09-25T08:36:09Z</time>
      </trkpt>
      <trkpt lat="47.03585" lon="-1.72621">
        <ele>43.107</ele>
        <time>2011-09-25T08:36:10Z</time>
      </trkpt>
      <trkpt lat="47.03585" lon="-1.72621">
        <ele>43.132</ele>
        <time>2011-09-25T08:36:36Z</time>
      </trkpt>
      <trkpt lat="47.03561" lon="-1.72642">
        <ele>43.102</ele>
        <time>2011-09-25T08:37:01Z</time>
      </trkpt>
      <trkpt lat="47.03556" lon="-1.72646">
        <ele>43.072</ele>
        <time>2011-09-25T08:37:04Z</time>
      </trkpt>
      <trkpt lat="47.0355" lon="-1.72649">
        <ele>43.058</ele>
        <time>2011-09-25T08:37:07Z</time>
      </trkpt>
      <trkpt lat="47.03543" lon="-1.72652">
        <ele>43.333</ele>
        <time>2011-09-25T08:37:10Z</time>
      </trkpt>
      <trkpt lat="47.03535" lon="-1.72654">
        <ele>44.055</ele>
        <time>2011-09-25T08:37:13Z</time>
      </trkpt>
      <trkpt lat="47.03529" lon="-1.72655">
        <ele>44.796</ele>
        <time>2011-09-25T08:37:16Z</time>
      </trkpt>
      <trkpt lat="47.03529" lon="-1.72655">
        <ele>45.148</ele>
        <time>2011-09-25T08:37:28Z</time>
      </trkpt>
      <trkpt lat="47.03529" lon="-1.72655">
        <ele>45.201</ele>
        <time>2011-09-25T08:37:45Z</time>
      </trkpt>
      <trkpt lat="47.03512" lon="-1.72654">
        <ele>45.141</ele>
        <time>2011-09-25T08:37:57Z</time>
      </trkpt>
      <trkpt lat="47.03499" lon="-1.72654">
        <ele>45.037</ele>
        <time>2011-09-25T08:38:00Z</time>
      </trkpt>
      <trkpt lat="47.0349" lon="-1.72654">
        <ele>44.8</ele>
        <time>2011-09-25T08:38:02Z</time>
      </trkpt>
      <trkpt lat="47.03476" lon="-1.72654">
        <ele>44.433</ele>
        <time>2011-09-25T08:38:05Z</time>
      </trkpt>
      <trkpt lat="47.03462" lon="-1.72654">
        <ele>44.13</ele>
        <time>2011-09-25T08:38:08Z</time>
      </trkpt>
      <trkpt lat="47.03448" lon="-1.72656">
        <ele>44.006</ele>
        <time>2011-09-25T08:38:11Z</time>
      </trkpt>
      <trkpt lat="47.03438" lon="-1.72659">
        <ele>44</ele>
        <time>2011-09-25T08:38:13Z</time>
      </trkpt>
      <trkpt lat="47.03423" lon="-1.72663">
        <ele>44.03</ele>
        <time>2011-09-25T08:38:16Z</time>
      </trkpt>
      <trkpt lat="47.03413" lon="-1.72666">
        <ele>44.055</ele>
        <time>2011-09-25T08:38:18Z</time>
      </trkpt>
      <trkpt lat="47.03398" lon="-1.72671">
        <ele>44.065</ele>
        <time>2011-09-25T08:38:21Z</time>
      </trkpt>
      <trkpt lat="47.03385" lon="-1.72675">
        <ele>44.065</ele>
        <time>2011-09-25T08:38:24Z</time>
      </trkpt>
      <trkpt lat="47.03373" lon="-1.72678">
        <ele>44.201</ele>
        <time>2011-09-25T08:38:27Z</time>
      </trkpt>
      <trkpt lat="47.03365" lon="-1.72679">
        <ele>44.559</ele>
        <time>2011-09-25T08:38:29Z</time>
      </trkpt>
      <trkpt lat="47.03353" lon="-1.72681">
        <ele>44.927</ele>
        <time>2011-09-25T08:38:32Z</time>
      </trkpt>
      <trkpt lat="47.03343" lon="-1.72681">
        <ele>45.102</ele>
        <time>2011-09-25T08:38:34Z</time>
      </trkpt>
      <trkpt lat="47.03329" lon="-1.72685">
        <ele>45.129</ele>
        <time>2011-09-25T08:38:37Z</time>
      </trkpt>
      <trkpt lat="47.03315" lon="-1.72692">
        <ele>45.099</ele>
        <time>2011-09-25T08:38:40Z</time>
      </trkpt>
      <trkpt lat="47.03301" lon="-1.72697">
        <ele>45.069</ele>
        <time>2011-09-25T08:38:43Z</time>
      </trkpt>
      <trkpt lat="47.03292" lon="-1.727">
        <ele>45.055</ele>
        <time>2011-09-25T08:38:45Z</time>
      </trkpt>
      <trkpt lat="47.03279" lon="-1.72703">
        <ele>45.053</ele>
        <time>2011-09-25T08:38:48Z</time>
      </trkpt>
      <trkpt lat="47.03267" lon="-1.72706">
        <ele>45.055</ele>
        <time>2011-09-25T08:38:51Z</time>
      </trkpt>
      <trkpt lat="47.03258" lon="-1.72707">
        <ele>45.196</ele>
        <time>2011-09-25T08:38:53Z</time>
      </trkpt>
      <trkpt lat="47.03251" lon="-1.72705">
        <ele>45.557</ele>
        <time>2011-09-25T08:38:55Z</time>
      </trkpt>
      <trkpt lat="47.03251" lon="-1.72694">
        <ele>45.926</ele>
        <time>2011-09-25T08:38:58Z</time>
      </trkpt>
      <trkpt lat="47.03263" lon="-1.72682">
        <ele>46.101</ele>
        <time>2011-09-25T08:39:01Z</time>
      </trkpt>
      <trkpt lat="47.03275" lon="-1.7267">
        <ele>46.128</ele>
        <time>2011-09-25T08:39:04Z</time>
      </trkpt>
      <trkpt lat="47.03283" lon="-1.7266">
        <ele>46.097</ele>
        <time>2011-09-25T08:39:06Z</time>
      </trkpt>
      <trkpt lat="47.03295" lon="-1.72646">
        <ele>46.067</ele>
        <time>2011-09-25T08:39:09Z</time>
      </trkpt>
      <trkpt lat="47.03304" lon="-1.72637">
        <ele>46.053</ele>
        <time>2011-09-25T08:39:11Z</time>
      </trkpt>
      <trkpt lat="47.03316" lon="-1.72622">
        <ele>46.051</ele>
        <time>2011-09-25T08:39:14Z</time>
      </trkpt>
      <trkpt lat="47.03323" lon="-1.72613">
        <ele>46.054</ele>
        <time>2011-09-25T08:39:16Z</time>
      </trkpt>
      <trkpt lat="47.03334" lon="-1.72598">
        <ele>46.056</ele>
        <time>2011-09-25T08:39:19Z</time>
      </trkpt>
      <trkpt lat="47.03346" lon="-1.72582">
        <ele>46.058</ele>
        <time>2011-09-25T08:39:22Z</time>
      </trkpt>
      <trkpt lat="47.03357" lon="-1.72566">
        <ele>46.058</ele>
        <time>2011-09-25T08:39:25Z</time>
      </trkpt>
      <trkpt lat="47.03369" lon="-1.72551">
        <ele>45.92</ele>
        <time>2011-09-25T08:39:28Z</time>
      </trkpt>
      <trkpt lat="47.03381" lon="-1.72535">
        <ele>45.56</ele>
        <time>2011-09-25T08:39:31Z</time>
      </trkpt>
      <trkpt lat="47.03394" lon="-1.72519">
        <ele>45.329</ele>
        <time>2011-09-25T08:39:34Z</time>
      </trkpt>
      <trkpt lat="47.03409" lon="-1.72502">
        <ele>45.514</ele>
        <time>2011-09-25T08:39:37Z</time>
      </trkpt>
      <trkpt lat="47.03423" lon="-1.72484">
        <ele>45.857</ele>
        <time>2011-09-25T08:39:40Z</time>
      </trkpt>
      <trkpt lat="47.03437" lon="-1.72468">
        <ele>46.062</ele>
        <time>2011-09-25T08:39:43Z</time>
      </trkpt>
      <trkpt lat="47.0345" lon="-1.72452">
        <ele>46.119</ele>
        <time>2011-09-25T08:39:46Z</time>
      </trkpt>
      <trkpt lat="47.03463" lon="-1.72436">
        <ele>46.103</ele>
        <time>2011-09-25T08:39:49Z</time>
      </trkpt>
      <trkpt lat="47.03475" lon="-1.7242">
        <ele>46.075</ele>
        <time>2011-09-25T08:39:52Z</time>
      </trkpt>
      <trkpt lat="47.03486" lon="-1.72403">
        <ele>46.059</ele>
        <time>2011-09-25T08:39:55Z</time>
      </trkpt>
      <trkpt lat="47.03498" lon="-1.72386">
        <ele>46.055</ele>
        <time>2011-09-25T08:39:58Z</time>
      </trkpt>
      <trkpt lat="47.03511" lon="-1.72371">
        <ele>46.056</ele>
        <time>2011-09-25T08:40:01Z</time>
      </trkpt>
      <trkpt lat="47.03524" lon="-1.72357">
        <ele>45.92</ele>
        <time>2011-09-25T08:40:04Z</time>
      </trkpt>
      <trkpt lat="47.03537" lon="-1.72344">
        <ele>45.562</ele>
        <time>2011-09-25T08:40:07Z</time>
      </trkpt>
      <trkpt lat="47.03551" lon="-1.72331">
        <ele>45.193</ele>
        <time>2011-09-25T08:40:10Z</time>
      </trkpt>
      <trkpt lat="47.03564" lon="-1.72318">
        <ele>45.018</ele>
        <time>2011-09-25T08:40:13Z</time>
      </trkpt>
      <trkpt lat="47.03568" lon="-1.72304">
        <ele>44.991</ele>
        <time>2011-09-25T08:40:15Z</time>
      </trkpt>
      <trkpt lat="47.03563" lon="-1.72285">
        <ele>45.021</ele>
        <time>2011-09-25T08:40:18Z</time>
      </trkpt>
      <trkpt lat="47.03556" lon="-1.72272">
        <ele>45.052</ele>
        <time>2011-09-25T08:40:20Z</time>
      </trkpt>
      <trkpt lat="47.03548" lon="-1.72259">
        <ele>45.066</ele>
        <time>2011-09-25T08:40:22Z</time>
      </trkpt>
      <trkpt lat="47.0354" lon="-1.72247">
        <ele>45.068</ele>
        <time>2011-09-25T08:40:24Z</time>
      </trkpt>
      <trkpt lat="47.03529" lon="-1.72228">
        <ele>45.065</ele>
        <time>2011-09-25T08:40:27Z</time>
      </trkpt>
      <trkpt lat="47.03518" lon="-1.7221">
        <ele>44.925</ele>
        <time>2011-09-25T08:40:30Z</time>
      </trkpt>
      <trkpt lat="47.0351" lon="-1.72199">
        <ele>44.564</ele>
        <time>2011-09-25T08:40:32Z</time>
      </trkpt>
      <trkpt lat="47.03502" lon="-1.72188">
        <ele>44.195</ele>
        <time>2011-09-25T08:40:34Z</time>
      </trkpt>
      <trkpt lat="47.03493" lon="-1.72177">
        <ele>44.02</ele>
        <time>2011-09-25T08:40:36Z</time>
      </trkpt>
      <trkpt lat="47.0348" lon="-1.7216">
        <ele>43.994</ele>
        <time>2011-09-25T08:40:39Z</time>
      </trkpt>
      <trkpt lat="47.03467" lon="-1.72144">
        <ele>44.024</ele>
        <time>2011-09-25T08:40:42Z</time>
      </trkpt>
      <trkpt lat="47.03455" lon="-1.72128">
        <ele>44.054</ele>
        <time>2011-09-25T08:40:45Z</time>
      </trkpt>
      <trkpt lat="47.0344" lon="-1.72126">
        <ele>44.206</ele>
        <time>2011-09-25T08:40:48Z</time>
      </trkpt>
      <trkpt lat="47.0343" lon="-1.72134">
        <ele>44.568</ele>
        <time>2011-09-25T08:40:50Z</time>
      </trkpt>
      <trkpt lat="47.0342" lon="-1.72145">
        <ele>44.935</ele>
        <time>2011-09-25T08:40:52Z</time>
      </trkpt>
      <trkpt lat="47.03406" lon="-1.72161">
        <ele>45.108</ele>
        <time>2011-09-25T08:40:55Z</time>
      </trkpt>
      <trkpt lat="47.03393" lon="-1.72176">
        <ele>45.133</ele>
        <time>2011-09-25T08:40:58Z</time>
      </trkpt>
      <trkpt lat="47.03379" lon="-1.7219">
        <ele>45.241</ele>
        <time>2011-09-25T08:41:01Z</time>
      </trkpt>
      <trkpt lat="47.03365" lon="-1.72203">
        <ele>45.571</ele>
        <time>2011-09-25T08:41:04Z</time>
      </trkpt>
      <trkpt lat="47.03351" lon="-1.72216">
        <ele>45.926</ele>
        <time>2011-09-25T08:41:07Z</time>
      </trkpt>
      <trkpt lat="47.03336" lon="-1.72229">
        <ele>46.1</ele>
        <time>2011-09-25T08:41:10Z</time>
      </trkpt>
      <trkpt lat="47.03321" lon="-1.72244">
        <ele>46.129</ele>
        <time>2011-09-25T08:41:13Z</time>
      </trkpt>
      <trkpt lat="47.03306" lon="-1.72257">
        <ele>46.101</ele>
        <time>2011-09-25T08:41:16Z</time>
      </trkpt>
      <trkpt lat="47.03291" lon="-1.72271">
        <ele>46.072</ele>
        <time>2011-09-25T08:41:19Z</time>
      </trkpt>
      <trkpt lat="47.03276" lon="-1.72286">
        <ele>46.057</ele>
        <time>2011-09-25T08:41:22Z</time>
      </trkpt>
      <trkpt lat="47.03261" lon="-1.723">
        <ele>46.055</ele>
        <time>2011-09-25T08:41:25Z</time>
      </trkpt>
      <trkpt lat="47.03246" lon="-1.72313">
        <ele>46.057</ele>
        <time>2011-09-25T08:41:28Z</time>
      </trkpt>
      <trkpt lat="47.03236" lon="-1.72322">
        <ele>46.059</ele>
        <time>2011-09-25T08:41:30Z</time>
      </trkpt>
      <trkpt lat="47.03222" lon="-1.72335">
        <ele>46.061</ele>
        <time>2011-09-25T08:41:33Z</time>
      </trkpt>
      <trkpt lat="47.03207" lon="-1.72349">
        <ele>45.923</ele>
        <time>2011-09-25T08:41:36Z</time>
      </trkpt>
      <trkpt lat="47.03197" lon="-1.72358">
        <ele>45.562</ele>
        <time>2011-09-25T08:41:38Z</time>
      </trkpt>
      <trkpt lat="47.03183" lon="-1.72371">
        <ele>45.193</ele>
        <time>2011-09-25T08:41:41Z</time>
      </trkpt>
      <trkpt lat="47.03169" lon="-1.72385">
        <ele>45.017</ele>
        <time>2011-09-25T08:41:44Z</time>
      </trkpt>
      <trkpt lat="47.0316" lon="-1.72395">
        <ele>44.991</ele>
        <time>2011-09-25T08:41:46Z</time>
      </trkpt>
      <trkpt lat="47.03147" lon="-1.7241">
        <ele>45.159</ele>
        <time>2011-09-25T08:41:49Z</time>
      </trkpt>
      <trkpt lat="47.03134" lon="-1.72427">
        <ele>45.549</ele>
        <time>2011-09-25T08:41:52Z</time>
      </trkpt>
      <trkpt lat="47.03123" lon="-1.72446">
        <ele>45.932</ele>
        <time>2011-09-25T08:41:55Z</time>
      </trkpt>
      <trkpt lat="47.03112" lon="-1.72465">
        <ele>46.109</ele>
        <time>2011-09-25T08:41:58Z</time>
      </trkpt>
      <trkpt lat="47.03102" lon="-1.72483">
        <ele>46.133</ele>
        <time>2011-09-25T08:42:01Z</time>
      </trkpt>
      <trkpt lat="47.03096" lon="-1.72495">
        <ele>46.101</ele>
        <time>2011-09-25T08:42:03Z</time>
      </trkpt>
      <trkpt lat="47.03088" lon="-1.72513">
        <ele>46.069</ele>
        <time>2011-09-25T08:42:06Z</time>
      </trkpt>
      <trkpt lat="47.03078" lon="-1.72527">
        <ele>46.055</ele>
        <time>2011-09-25T08:42:09Z</time>
      </trkpt>
      <trkpt lat="47.03067" lon="-1.72523">
        <ele>46.053</ele>
        <time>2011-09-25T08:42:12Z</time>
      </trkpt>
      <trkpt lat="47.03058" lon="-1.72506">
        <ele>46.055</ele>
        <time>2011-09-25T08:42:15Z</time>
      </trkpt>
      <trkpt lat="47.0305" lon="-1.72485">
        <ele>46.057</ele>
        <time>2011-09-25T08:42:18Z</time>
      </trkpt>
      <trkpt lat="47.03045" lon="-1.72471">
        <ele>46.058</ele>
        <time>2011-09-25T08:42:20Z</time>
      </trkpt>
      <trkpt lat="47.03039" lon="-1.72456">
        <ele>46.059</ele>
        <time>2011-09-25T08:42:22Z</time>
      </trkpt>
      <trkpt lat="47.03029" lon="-1.72435">
        <ele>46.058</ele>
        <time>2011-09-25T08:42:25Z</time>
      </trkpt>
      <trkpt lat="47.0302" lon="-1.72414">
        <ele>46.196</ele>
        <time>2011-09-25T08:42:28Z</time>
      </trkpt>
      <trkpt lat="47.03008" lon="-1.72396">
        <ele>46.556</ele>
        <time>2011-09-25T08:42:31Z</time>
      </trkpt>
      <trkpt lat="47.02994" lon="-1.72381">
        <ele>46.926</ele>
        <time>2011-09-25T08:42:34Z</time>
      </trkpt>
      <trkpt lat="47.02984" lon="-1.72372">
        <ele>47.101</ele>
        <time>2011-09-25T08:42:36Z</time>
      </trkpt>
      <trkpt lat="47.02975" lon="-1.72362">
        <ele>47.128</ele>
        <time>2011-09-25T08:42:38Z</time>
      </trkpt>
      <trkpt lat="47.02964" lon="-1.72343">
        <ele>47.098</ele>
        <time>2011-09-25T08:42:41Z</time>
      </trkpt>
      <trkpt lat="47.02958" lon="-1.72328">
        <ele>47.068</ele>
        <time>2011-09-25T08:42:43Z</time>
      </trkpt>
      <trkpt lat="47.02949" lon="-1.72304">
        <ele>46.916</ele>
        <time>2011-09-25T08:42:46Z</time>
      </trkpt>
      <trkpt lat="47.02943" lon="-1.72289">
        <ele>46.554</ele>
        <time>2011-09-25T08:42:48Z</time>
      </trkpt>
      <trkpt lat="47.02934" lon="-1.72265">
        <ele>46.187</ele>
        <time>2011-09-25T08:42:51Z</time>
      </trkpt>
      <trkpt lat="47.02925" lon="-1.72242">
        <ele>46.015</ele>
        <time>2011-09-25T08:42:54Z</time>
      </trkpt>
      <trkpt lat="47.02919" lon="-1.72226">
        <ele>45.99</ele>
        <time>2011-09-25T08:42:56Z</time>
      </trkpt>
      <trkpt lat="47.0291" lon="-1.72203">
        <ele>46.02</ele>
        <time>2011-09-25T08:42:59Z</time>
      </trkpt>
      <trkpt lat="47.02904" lon="-1.72188">
        <ele>46.049</ele>
        <time>2011-09-25T08:43:01Z</time>
      </trkpt>
      <trkpt lat="47.02897" lon="-1.72165">
        <ele>45.925</ele>
        <time>2011-09-25T08:43:04Z</time>
      </trkpt>
      <trkpt lat="47.02899" lon="-1.7215">
        <ele>45.568</ele>
        <time>2011-09-25T08:43:06Z</time>
      </trkpt>
      <trkpt lat="47.02913" lon="-1.72134">
        <ele>45.196</ele>
        <time>2011-09-25T08:43:09Z</time>
      </trkpt>
      <trkpt lat="47.02926" lon="-1.72118">
        <ele>45.018</ele>
        <time>2011-09-25T08:43:12Z</time>
      </trkpt>
      <trkpt lat="47.02938" lon="-1.72098">
        <ele>44.991</ele>
        <time>2011-09-25T08:43:15Z</time>
      </trkpt>
      <trkpt lat="47.02947" lon="-1.72084">
        <ele>45.021</ele>
        <time>2011-09-25T08:43:17Z</time>
      </trkpt>
      <trkpt lat="47.02959" lon="-1.72062">
        <ele>45.051</ele>
        <time>2011-09-25T08:43:20Z</time>
      </trkpt>
      <trkpt lat="47.02971" lon="-1.7204">
        <ele>44.927</ele>
        <time>2011-09-25T08:43:23Z</time>
      </trkpt>
      <trkpt lat="47.02978" lon="-1.72026">
        <ele>44.57</ele>
        <time>2011-09-25T08:43:25Z</time>
      </trkpt>
      <trkpt lat="47.02989" lon="-1.72004">
        <ele>44.198</ele>
        <time>2011-09-25T08:43:28Z</time>
      </trkpt>
      <trkpt lat="47.03001" lon="-1.71982">
        <ele>44.021</ele>
        <time>2011-09-25T08:43:31Z</time>
      </trkpt>
      <trkpt lat="47.03012" lon="-1.7196">
        <ele>43.993</ele>
        <time>2011-09-25T08:43:34Z</time>
      </trkpt>
      <trkpt lat="47.03022" lon="-1.71938">
        <ele>44.023</ele>
        <time>2011-09-25T08:43:37Z</time>
      </trkpt>
      <trkpt lat="47.03033" lon="-1.71917">
        <ele>44.053</ele>
        <time>2011-09-25T08:43:40Z</time>
      </trkpt>
      <trkpt lat="47.03043" lon="-1.71897">
        <ele>44.067</ele>
        <time>2011-09-25T08:43:43Z</time>
      </trkpt>
      <trkpt lat="47.03054" lon="-1.71877">
        <ele>44.07</ele>
        <time>2011-09-25T08:43:46Z</time>
      </trkpt>
      <trkpt lat="47.03064" lon="-1.71855">
        <ele>44.068</ele>
        <time>2011-09-25T08:43:49Z</time>
      </trkpt>
      <trkpt lat="47.03074" lon="-1.71834">
        <ele>44.066</ele>
        <time>2011-09-25T08:43:52Z</time>
      </trkpt>
      <trkpt lat="47.03084" lon="-1.71812">
        <ele>44.065</ele>
        <time>2011-09-25T08:43:55Z</time>
      </trkpt>
      <trkpt lat="47.03094" lon="-1.7179">
        <ele>44.065</ele>
        <time>2011-09-25T08:43:58Z</time>
      </trkpt>
      <trkpt lat="47.03101" lon="-1.71775">
        <ele>44.065</ele>
        <time>2011-09-25T08:44:00Z</time>
      </trkpt>
      <trkpt lat="47.03112" lon="-1.71754">
        <ele>44.204</ele>
        <time>2011-09-25T08:44:03Z</time>
      </trkpt>
      <trkpt lat="47.0312" lon="-1.71741">
        <ele>44.564</ele>
        <time>2011-09-25T08:44:05Z</time>
      </trkpt>
      <trkpt lat="47.03133" lon="-1.71723">
        <ele>44.934</ele>
        <time>2011-09-25T08:44:08Z</time>
      </trkpt>
      <trkpt lat="47.03142" lon="-1.71712">
        <ele>45.109</ele>
        <time>2011-09-25T08:44:10Z</time>
      </trkpt>
      <trkpt lat="47.03152" lon="-1.71703">
        <ele>45.136</ele>
        <time>2011-09-25T08:44:12Z</time>
      </trkpt>
      <trkpt lat="47.03169" lon="-1.71693">
        <ele>45.106</ele>
        <time>2011-09-25T08:44:15Z</time>
      </trkpt>
      <trkpt lat="47.03185" lon="-1.71685">
        <ele>45.076</ele>
        <time>2011-09-25T08:44:18Z</time>
      </trkpt>
      <trkpt lat="47.03202" lon="-1.71678">
        <ele>45.062</ele>
        <time>2011-09-25T08:44:21Z</time>
      </trkpt>
      <trkpt lat="47.0322" lon="-1.71671">
        <ele>45.06</ele>
        <time>2011-09-25T08:44:24Z</time>
      </trkpt>
      <trkpt lat="47.0323" lon="-1.71663">
        <ele>45.063</ele>
        <time>2011-09-25T08:44:26Z</time>
      </trkpt>
      <trkpt lat="47.0324" lon="-1.71653">
        <ele>45.065</ele>
        <time>2011-09-25T08:44:28Z</time>
      </trkpt>
      <trkpt lat="47.03254" lon="-1.71636">
        <ele>45.067</ele>
        <time>2011-09-25T08:44:31Z</time>
      </trkpt>
      <trkpt lat="47.03268" lon="-1.71618">
        <ele>45.067</ele>
        <time>2011-09-25T08:44:34Z</time>
      </trkpt>
      <trkpt lat="47.03281" lon="-1.71599">
        <ele>45.067</ele>
        <time>2011-09-25T08:44:37Z</time>
      </trkpt>
      <trkpt lat="47.0329" lon="-1.71587">
        <ele>45.067</ele>
        <time>2011-09-25T08:44:39Z</time>
      </trkpt>
      <trkpt lat="47.03299" lon="-1.71575">
        <ele>45.067</ele>
        <time>2011-09-25T08:44:41Z</time>
      </trkpt>
      <trkpt lat="47.03312" lon="-1.71559">
        <ele>45.067</ele>
        <time>2011-09-25T08:44:44Z</time>
      </trkpt>
      <trkpt lat="47.03321" lon="-1.71548">
        <ele>45.067</ele>
        <time>2011-09-25T08:44:46Z</time>
      </trkpt>
      <trkpt lat="47.03329" lon="-1.71527">
        <ele>45.067</ele>
        <time>2011-09-25T08:44:49Z</time>
      </trkpt>
      <trkpt lat="47.03325" lon="-1.71505">
        <ele>45.067</ele>
        <time>2011-09-25T08:44:52Z</time>
      </trkpt>
      <trkpt lat="47.03319" lon="-1.71479">
        <ele>45.068</ele>
        <time>2011-09-25T08:44:55Z</time>
      </trkpt>
      <trkpt lat="47.03313" lon="-1.71453">
        <ele>45.206</ele>
        <time>2011-09-25T08:44:58Z</time>
      </trkpt>
      <trkpt lat="47.0331" lon="-1.71436">
        <ele>45.566</ele>
        <time>2011-09-25T08:45:00Z</time>
      </trkpt>
      <trkpt lat="47.03304" lon="-1.71411">
        <ele>45.936</ele>
        <time>2011-09-25T08:45:03Z</time>
      </trkpt>
      <trkpt lat="47.03301" lon="-1.71393">
        <ele>46.111</ele>
        <time>2011-09-25T08:45:05Z</time>
      </trkpt>
      <trkpt lat="47.03295" lon="-1.71368">
        <ele>46.138</ele>
        <time>2011-09-25T08:45:08Z</time>
      </trkpt>
      <trkpt lat="47.0329" lon="-1.71343">
        <ele>46.108</ele>
        <time>2011-09-25T08:45:11Z</time>
      </trkpt>
      <trkpt lat="47.03286" lon="-1.71326">
        <ele>46.078</ele>
        <time>2011-09-25T08:45:13Z</time>
      </trkpt>
      <trkpt lat="47.03283" lon="-1.71301">
        <ele>46.064</ele>
        <time>2011-09-25T08:45:16Z</time>
      </trkpt>
      <trkpt lat="47.03281" lon="-1.71284">
        <ele>46.062</ele>
        <time>2011-09-25T08:45:18Z</time>
      </trkpt>
      <trkpt lat="47.03278" lon="-1.71259">
        <ele>46.065</ele>
        <time>2011-09-25T08:45:21Z</time>
      </trkpt>
      <trkpt lat="47.03276" lon="-1.71234">
        <ele>46.067</ele>
        <time>2011-09-25T08:45:24Z</time>
      </trkpt>
      <trkpt lat="47.03274" lon="-1.71209">
        <ele>46.069</ele>
        <time>2011-09-25T08:45:27Z</time>
      </trkpt>
      <trkpt lat="47.03269" lon="-1.71184">
        <ele>46.207</ele>
        <time>2011-09-25T08:45:30Z</time>
      </trkpt>
      <trkpt lat="47.03264" lon="-1.71159">
        <ele>46.567</ele>
        <time>2011-09-25T08:45:33Z</time>
      </trkpt>
      <trkpt lat="47.03259" lon="-1.71134">
        <ele>46.937</ele>
        <time>2011-09-25T08:45:36Z</time>
      </trkpt>
      <trkpt lat="47.03252" lon="-1.7111">
        <ele>47.112</ele>
        <time>2011-09-25T08:45:39Z</time>
      </trkpt>
      <trkpt lat="47.03245" lon="-1.71086">
        <ele>47.139</ele>
        <time>2011-09-25T08:45:42Z</time>
      </trkpt>
      <trkpt lat="47.03237" lon="-1.71062">
        <ele>47.109</ele>
        <time>2011-09-25T08:45:45Z</time>
      </trkpt>
      <trkpt lat="47.03229" lon="-1.71038">
        <ele>47.079</ele>
        <time>2011-09-25T08:45:48Z</time>
      </trkpt>
      <trkpt lat="47.0322" lon="-1.71013">
        <ele>47.065</ele>
        <time>2011-09-25T08:45:51Z</time>
      </trkpt>
      <trkpt lat="47.03212" lon="-1.70988">
        <ele>47.063</ele>
        <time>2011-09-25T08:45:54Z</time>
      </trkpt>
      <trkpt lat="47.03204" lon="-1.70963">
        <ele>46.927</ele>
        <time>2011-09-25T08:45:57Z</time>
      </trkpt>
      <trkpt lat="47.03197" lon="-1.70937">
        <ele>46.57</ele>
        <time>2011-09-25T08:46:00Z</time>
      </trkpt>
      <trkpt lat="47.03192" lon="-1.70921">
        <ele>46.202</ele>
        <time>2011-09-25T08:46:02Z</time>
      </trkpt>
      <trkpt lat="47.03186" lon="-1.70897">
        <ele>46.028</ele>
        <time>2011-09-25T08:46:05Z</time>
      </trkpt>
      <trkpt lat="47.03191" lon="-1.70877">
        <ele>46.001</ele>
        <time>2011-09-25T08:46:08Z</time>
      </trkpt>
      <trkpt lat="47.032" lon="-1.70871">
        <ele>46.169</ele>
        <time>2011-09-25T08:46:10Z</time>
      </trkpt>
      <trkpt lat="47.03217" lon="-1.70861">
        <ele>46.559</ele>
        <time>2011-09-25T08:46:13Z</time>
      </trkpt>
      <trkpt lat="47.03228" lon="-1.70855">
        <ele>46.943</ele>
        <time>2011-09-25T08:46:15Z</time>
      </trkpt>
      <trkpt lat="47.03245" lon="-1.70846">
        <ele>47.12</ele>
        <time>2011-09-25T08:46:18Z</time>
      </trkpt>
      <trkpt lat="47.03262" lon="-1.70838">
        <ele>47.144</ele>
        <time>2011-09-25T08:46:21Z</time>
      </trkpt>
      <trkpt lat="47.03278" lon="-1.70829">
        <ele>47.112</ele>
        <time>2011-09-25T08:46:24Z</time>
      </trkpt>
      <trkpt lat="47.03288" lon="-1.70822">
        <ele>47.081</ele>
        <time>2011-09-25T08:46:26Z</time>
      </trkpt>
      <trkpt lat="47.03303" lon="-1.7081">
        <ele>47.067</ele>
        <time>2011-09-25T08:46:29Z</time>
      </trkpt>
      <trkpt lat="47.03318" lon="-1.708">
        <ele>47.065</ele>
        <time>2011-09-25T08:46:32Z</time>
      </trkpt>
      <trkpt lat="47.03328" lon="-1.70795">
        <ele>47.068</ele>
        <time>2011-09-25T08:46:34Z</time>
      </trkpt>
      <trkpt lat="47.03339" lon="-1.70788">
        <ele>47.209</ele>
        <time>2011-09-25T08:46:37Z</time>
      </trkpt>
      <trkpt lat="47.03347" lon="-1.70777">
        <ele>47.57</ele>
        <time>2011-09-25T08:46:40Z</time>
      </trkpt>
      <trkpt lat="47.03352" lon="-1.70768">
        <ele>48.078</ele>
        <time>2011-09-25T08:46:42Z</time>
      </trkpt>
      <trkpt lat="47.03361" lon="-1.70756">
        <ele>48.613</ele>
        <time>2011-09-25T08:46:45Z</time>
      </trkpt>
      <trkpt lat="47.03368" lon="-1.70748">
        <ele>49.009</ele>
        <time>2011-09-25T08:46:47Z</time>
      </trkpt>
      <trkpt lat="47.03378" lon="-1.70736">
        <ele>49.154</ele>
        <time>2011-09-25T08:46:50Z</time>
      </trkpt>
      <trkpt lat="47.03386" lon="-1.70729">
        <ele>49.288</ele>
        <time>2011-09-25T08:46:52Z</time>
      </trkpt>
      <trkpt lat="47.03396" lon="-1.70718">
        <ele>49.604</ele>
        <time>2011-09-25T08:46:55Z</time>
      </trkpt>
      <trkpt lat="47.03405" lon="-1.70705">
        <ele>49.942</ele>
        <time>2011-09-25T08:46:58Z</time>
      </trkpt>
      <trkpt lat="47.03415" lon="-1.70692">
        <ele>50.244</ele>
        <time>2011-09-25T08:47:01Z</time>
      </trkpt>
      <trkpt lat="47.03424" lon="-1.70679">
        <ele>50.631</ele>
        <time>2011-09-25T08:47:04Z</time>
      </trkpt>
      <trkpt lat="47.03434" lon="-1.70664">
        <ele>50.974</ele>
        <time>2011-09-25T08:47:07Z</time>
      </trkpt>
      <trkpt lat="47.03442" lon="-1.70649">
        <ele>51.122</ele>
        <time>2011-09-25T08:47:10Z</time>
      </trkpt>
      <trkpt lat="47.03451" lon="-1.70632">
        <ele>51.135</ele>
        <time>2011-09-25T08:47:13Z</time>
      </trkpt>
      <trkpt lat="47.03457" lon="-1.70622">
        <ele>51.103</ele>
        <time>2011-09-25T08:47:15Z</time>
      </trkpt>
      <trkpt lat="47.03467" lon="-1.70606">
        <ele>51.076</ele>
        <time>2011-09-25T08:47:18Z</time>
      </trkpt>
      <trkpt lat="47.03477" lon="-1.7059">
        <ele>51.064</ele>
        <time>2011-09-25T08:47:21Z</time>
      </trkpt>
      <trkpt lat="47.03485" lon="-1.70572">
        <ele>51.063</ele>
        <time>2011-09-25T08:47:24Z</time>
      </trkpt>
      <trkpt lat="47.03493" lon="-1.70554">
        <ele>51.204</ele>
        <time>2011-09-25T08:47:27Z</time>
      </trkpt>
      <trkpt lat="47.03502" lon="-1.70535">
        <ele>51.566</ele>
        <time>2011-09-25T08:47:30Z</time>
      </trkpt>
      <trkpt lat="47.03507" lon="-1.70523">
        <ele>51.799</ele>
        <time>2011-09-25T08:47:32Z</time>
      </trkpt>
      <trkpt lat="47.03512" lon="-1.70511">
        <ele>51.752</ele>
        <time>2011-09-25T08:47:34Z</time>
      </trkpt>
      <trkpt lat="47.03519" lon="-1.70493">
        <ele>51.769</ele>
        <time>2011-09-25T08:47:37Z</time>
      </trkpt>
      <trkpt lat="47.03524" lon="-1.70482">
        <ele>51.933</ele>
        <time>2011-09-25T08:47:39Z</time>
      </trkpt>
      <trkpt lat="47.03532" lon="-1.70466">
        <ele>52.052</ele>
        <time>2011-09-25T08:47:42Z</time>
      </trkpt>
      <trkpt lat="47.03542" lon="-1.70451">
        <ele>52.095</ele>
        <time>2011-09-25T08:47:45Z</time>
      </trkpt>
      <trkpt lat="47.03552" lon="-1.70436">
        <ele>52.093</ele>
        <time>2011-09-25T08:47:48Z</time>
      </trkpt>
      <trkpt lat="47.03561" lon="-1.70422">
        <ele>52.08</ele>
        <time>2011-09-25T08:47:51Z</time>
      </trkpt>
      <trkpt lat="47.0357" lon="-1.70409">
        <ele>52.07</ele>
        <time>2011-09-25T08:47:54Z</time>
      </trkpt>
      <trkpt lat="47.03579" lon="-1.70396">
        <ele>52.067</ele>
        <time>2011-09-25T08:47:57Z</time>
      </trkpt>
      <trkpt lat="47.03584" lon="-1.70388">
        <ele>52.067</ele>
        <time>2011-09-25T08:47:59Z</time>
      </trkpt>
      <trkpt lat="47.03588" lon="-1.70373">
        <ele>52.069</ele>
        <time>2011-09-25T08:48:02Z</time>
      </trkpt>
      <trkpt lat="47.03586" lon="-1.70365">
        <ele>52.07</ele>
        <time>2011-09-25T08:48:04Z</time>
      </trkpt>
      <trkpt lat="47.0358" lon="-1.70353">
        <ele>52.07</ele>
        <time>2011-09-25T08:48:07Z</time>
      </trkpt>
      <trkpt lat="47.03575" lon="-1.70346">
        <ele>52.208</ele>
        <time>2011-09-25T08:48:09Z</time>
      </trkpt>
      <trkpt lat="47.03569" lon="-1.70334">
        <ele>52.568</ele>
        <time>2011-09-25T08:48:12Z</time>
      </trkpt>
      <trkpt lat="47.03563" lon="-1.70323">
        <ele>52.937</ele>
        <time>2011-09-25T08:48:15Z</time>
      </trkpt>
      <trkpt lat="47.03558" lon="-1.70312">
        <ele>53.113</ele>
        <time>2011-09-25T08:48:18Z</time>
      </trkpt>
      <trkpt lat="47.03555" lon="-1.70306">
        <ele>53.139</ele>
        <time>2011-09-25T08:48:20Z</time>
      </trkpt>
      <trkpt lat="47.0355" lon="-1.70296">
        <ele>53.11</ele>
        <time>2011-09-25T08:48:23Z</time>
      </trkpt>
      <trkpt lat="47.03546" lon="-1.70286">
        <ele>53.08</ele>
        <time>2011-09-25T08:48:26Z</time>
      </trkpt>
      <trkpt lat="47.03543" lon="-1.7028">
        <ele>53.204</ele>
        <time>2011-09-25T08:48:28Z</time>
      </trkpt>
      <trkpt lat="47.0354" lon="-1.70273">
        <ele>53.562</ele>
        <time>2011-09-25T08:48:30Z</time>
      </trkpt>
      <trkpt lat="47.03535" lon="-1.70264">
        <ele>53.934</ele>
        <time>2011-09-25T08:48:33Z</time>
      </trkpt>
      <trkpt lat="47.0353" lon="-1.70254">
        <ele>54.111</ele>
        <time>2011-09-25T08:48:36Z</time>
      </trkpt>
      <trkpt lat="47.03527" lon="-1.70247">
        <ele>54.139</ele>
        <time>2011-09-25T08:48:38Z</time>
      </trkpt>
      <trkpt lat="47.03523" lon="-1.70239">
        <ele>54.109</ele>
        <time>2011-09-25T08:48:40Z</time>
      </trkpt>
      <trkpt lat="47.03517" lon="-1.70226">
        <ele>54.079</ele>
        <time>2011-09-25T08:48:43Z</time>
      </trkpt>
      <trkpt lat="47.03509" lon="-1.70212">
        <ele>54.203</ele>
        <time>2011-09-25T08:48:46Z</time>
      </trkpt>
      <trkpt lat="47.03504" lon="-1.70203">
        <ele>54.561</ele>
        <time>2011-09-25T08:48:48Z</time>
      </trkpt>
      <trkpt lat="47.03495" lon="-1.70188">
        <ele>54.933</ele>
        <time>2011-09-25T08:48:51Z</time>
      </trkpt>
      <trkpt lat="47.03486" lon="-1.70175">
        <ele>55.111</ele>
        <time>2011-09-25T08:48:54Z</time>
      </trkpt>
      <trkpt lat="47.0348" lon="-1.70166">
        <ele>55.138</ele>
        <time>2011-09-25T08:48:56Z</time>
      </trkpt>
      <trkpt lat="47.0347" lon="-1.70154">
        <ele>55.109</ele>
        <time>2011-09-25T08:48:59Z</time>
      </trkpt>
      <trkpt lat="47.03464" lon="-1.70146">
        <ele>55.078</ele>
        <time>2011-09-25T08:49:01Z</time>
      </trkpt>
      <trkpt lat="47.03458" lon="-1.70138">
        <ele>55.064</ele>
        <time>2011-09-25T08:49:03Z</time>
      </trkpt>
      <trkpt lat="47.03451" lon="-1.7013">
        <ele>55.2</ele>
        <time>2011-09-25T08:49:05Z</time>
      </trkpt>
      <trkpt lat="47.03445" lon="-1.70123">
        <ele>55.563</ele>
        <time>2011-09-25T08:49:07Z</time>
      </trkpt>
      <trkpt lat="47.03434" lon="-1.70111">
        <ele>55.935</ele>
        <time>2011-09-25T08:49:10Z</time>
      </trkpt>
      <trkpt lat="47.03423" lon="-1.70098">
        <ele>56.111</ele>
        <time>2011-09-25T08:49:13Z</time>
      </trkpt>
      <trkpt lat="47.03415" lon="-1.70089">
        <ele>56.138</ele>
        <time>2011-09-25T08:49:15Z</time>
      </trkpt>
      <trkpt lat="47.03403" lon="-1.70076">
        <ele>56.108</ele>
        <time>2011-09-25T08:49:18Z</time>
      </trkpt>
      <trkpt lat="47.0339" lon="-1.70061">
        <ele>56.077</ele>
        <time>2011-09-25T08:49:21Z</time>
      </trkpt>
      <trkpt lat="47.03378" lon="-1.70046">
        <ele>56.063</ele>
        <time>2011-09-25T08:49:24Z</time>
      </trkpt>
      <trkpt lat="47.03369" lon="-1.70036">
        <ele>56.061</ele>
        <time>2011-09-25T08:49:26Z</time>
      </trkpt>
      <trkpt lat="47.03361" lon="-1.70026">
        <ele>56.064</ele>
        <time>2011-09-25T08:49:28Z</time>
      </trkpt>
      <trkpt lat="47.03353" lon="-1.70014">
        <ele>56.067</ele>
        <time>2011-09-25T08:49:30Z</time>
      </trkpt>
      <trkpt lat="47.03341" lon="-1.69998">
        <ele>56.068</ele>
        <time>2011-09-25T08:49:33Z</time>
      </trkpt>
      <trkpt lat="47.03332" lon="-1.69985">
        <ele>56.068</ele>
        <time>2011-09-25T08:49:36Z</time>
      </trkpt>
      <trkpt lat="47.03324" lon="-1.6999">
        <ele>56.068</ele>
        <time>2011-09-25T08:49:38Z</time>
      </trkpt>
      <trkpt lat="47.03318" lon="-1.70004">
        <ele>56.068</ele>
        <time>2011-09-25T08:49:40Z</time>
      </trkpt>
      <trkpt lat="47.03309" lon="-1.70024">
        <ele>56.206</ele>
        <time>2011-09-25T08:49:43Z</time>
      </trkpt>
      <trkpt lat="47.03301" lon="-1.70043">
        <ele>56.566</ele>
        <time>2011-09-25T08:49:46Z</time>
      </trkpt>
      <trkpt lat="47.03297" lon="-1.70057">
        <ele>56.935</ele>
        <time>2011-09-25T08:49:48Z</time>
      </trkpt>
      <trkpt lat="47.0329" lon="-1.70077">
        <ele>57.249</ele>
        <time>2011-09-25T08:49:51Z</time>
      </trkpt>
      <trkpt lat="47.03282" lon="-1.70095">
        <ele>57.635</ele>
        <time>2011-09-25T08:49:54Z</time>
      </trkpt>
      <trkpt lat="47.03273" lon="-1.70113">
        <ele>58.112</ele>
        <time>2011-09-25T08:49:57Z</time>
      </trkpt>
      <trkpt lat="47.03263" lon="-1.7013">
        <ele>58.617</ele>
        <time>2011-09-25T08:50:00Z</time>
      </trkpt>
      <trkpt lat="47.03251" lon="-1.70144">
        <ele>58.999</ele>
        <time>2011-09-25T08:50:03Z</time>
      </trkpt>
      <trkpt lat="47.03239" lon="-1.70156">
        <ele>59.142</ele>
        <time>2011-09-25T08:50:06Z</time>
      </trkpt>
      <trkpt lat="47.03227" lon="-1.70165">
        <ele>59.141</ele>
        <time>2011-09-25T08:50:09Z</time>
      </trkpt>
      <trkpt lat="47.03215" lon="-1.70174">
        <ele>59.099</ele>
        <time>2011-09-25T08:50:12Z</time>
      </trkpt>
      <trkpt lat="47.03205" lon="-1.70183">
        <ele>59.206</ele>
        <time>2011-09-25T08:50:15Z</time>
      </trkpt>
      <trkpt lat="47.03199" lon="-1.70189">
        <ele>59.554</ele>
        <time>2011-09-25T08:50:17Z</time>
      </trkpt>
      <trkpt lat="47.03191" lon="-1.70199">
        <ele>59.924</ele>
        <time>2011-09-25T08:50:20Z</time>
      </trkpt>
      <trkpt lat="47.03186" lon="-1.70205">
        <ele>60.102</ele>
        <time>2011-09-25T08:50:22Z</time>
      </trkpt>
      <trkpt lat="47.03181" lon="-1.70212">
        <ele>60.131</ele>
        <time>2011-09-25T08:50:24Z</time>
      </trkpt>
      <trkpt lat="47.03174" lon="-1.70223">
        <ele>60.102</ele>
        <time>2011-09-25T08:50:27Z</time>
      </trkpt>
      <trkpt lat="47.03167" lon="-1.70235">
        <ele>60.072</ele>
        <time>2011-09-25T08:50:30Z</time>
      </trkpt>
      <trkpt lat="47.0316" lon="-1.70249">
        <ele>60.058</ele>
        <time>2011-09-25T08:50:33Z</time>
      </trkpt>
      <trkpt lat="47.03151" lon="-1.70265">
        <ele>60.055</ele>
        <time>2011-09-25T08:50:36Z</time>
      </trkpt>
      <trkpt lat="47.03145" lon="-1.70278">
        <ele>60.058</ele>
        <time>2011-09-25T08:50:38Z</time>
      </trkpt>
      <trkpt lat="47.03139" lon="-1.70292">
        <ele>60.06</ele>
        <time>2011-09-25T08:50:40Z</time>
      </trkpt>
      <trkpt lat="47.03131" lon="-1.70315">
        <ele>60.061</ele>
        <time>2011-09-25T08:50:43Z</time>
      </trkpt>
      <trkpt lat="47.03126" lon="-1.70331">
        <ele>60.061</ele>
        <time>2011-09-25T08:50:45Z</time>
      </trkpt>
      <trkpt lat="47.03118" lon="-1.7035">
        <ele>60.06</ele>
        <time>2011-09-25T08:50:48Z</time>
      </trkpt>
      <trkpt lat="47.03112" lon="-1.70371">
        <ele>60.06</ele>
        <time>2011-09-25T08:50:51Z</time>
      </trkpt>
      <trkpt lat="47.0311" lon="-1.70388">
        <ele>60.06</ele>
        <time>2011-09-25T08:50:53Z</time>
      </trkpt>
      <trkpt lat="47.0311" lon="-1.70415">
        <ele>60.06</ele>
        <time>2011-09-25T08:50:56Z</time>
      </trkpt>
      <trkpt lat="47.03111" lon="-1.70431">
        <ele>60.06</ele>
        <time>2011-09-25T08:50:58Z</time>
      </trkpt>
      <trkpt lat="47.03112" lon="-1.70449">
        <ele>59.921</ele>
        <time>2011-09-25T08:51:01Z</time>
      </trkpt>
      <trkpt lat="47.03101" lon="-1.70455">
        <ele>59.561</ele>
        <time>2011-09-25T08:51:04Z</time>
      </trkpt>
      <trkpt lat="47.03093" lon="-1.70459">
        <ele>59.054</ele>
        <time>2011-09-25T08:51:06Z</time>
      </trkpt>
      <trkpt lat="47.03074" lon="-1.70466">
        <ele>58.518</ele>
        <time>2011-09-25T08:51:09Z</time>
      </trkpt>
      <trkpt lat="47.03059" lon="-1.7047">
        <ele>57.984</ele>
        <time>2011-09-25T08:51:11Z</time>
      </trkpt>
      <trkpt lat="47.03038" lon="-1.70476">
        <ele>57.202</ele>
        <time>2011-09-25T08:51:14Z</time>
      </trkpt>
      <trkpt lat="47.03019" lon="-1.70481">
        <ele>55.84</ele>
        <time>2011-09-25T08:51:17Z</time>
      </trkpt>
      <trkpt lat="47.03007" lon="-1.70483">
        <ele>54.25</ele>
        <time>2011-09-25T08:51:19Z</time>
      </trkpt>
      <trkpt lat="47.02992" lon="-1.70488">
        <ele>53.028</ele>
        <time>2011-09-25T08:51:22Z</time>
      </trkpt>
      <trkpt lat="47.02983" lon="-1.70497">
        <ele>52.168</ele>
        <time>2011-09-25T08:51:24Z</time>
      </trkpt>
      <trkpt lat="47.02971" lon="-1.70508">
        <ele>51.475</ele>
        <time>2011-09-25T08:51:27Z</time>
      </trkpt>
      <trkpt lat="47.02959" lon="-1.70517">
        <ele>50.923</ele>
        <time>2011-09-25T08:51:30Z</time>
      </trkpt>
      <trkpt lat="47.02949" lon="-1.70525">
        <ele>50.449</ele>
        <time>2011-09-25T08:51:33Z</time>
      </trkpt>
      <trkpt lat="47.02943" lon="-1.7053">
        <ele>49.974</ele>
        <time>2011-09-25T08:51:35Z</time>
      </trkpt>
      <trkpt lat="47.02937" lon="-1.70535">
        <ele>49.495</ele>
        <time>2011-09-25T08:51:37Z</time>
      </trkpt>
      <trkpt lat="47.02927" lon="-1.70542">
        <ele>49.132</ele>
        <time>2011-09-25T08:51:40Z</time>
      </trkpt>
      <trkpt lat="47.02918" lon="-1.7055">
        <ele>48.858</ele>
        <time>2011-09-25T08:51:43Z</time>
      </trkpt>
      <trkpt lat="47.02909" lon="-1.70557">
        <ele>48.499</ele>
        <time>2011-09-25T08:51:46Z</time>
      </trkpt>
      <trkpt lat="47.02901" lon="-1.70564">
        <ele>48.031</ele>
        <time>2011-09-25T08:51:49Z</time>
      </trkpt>
      <trkpt lat="47.02891" lon="-1.70572">
        <ele>47.525</ele>
        <time>2011-09-25T08:51:52Z</time>
      </trkpt>
      <trkpt lat="47.02881" lon="-1.70581">
        <ele>47.001</ele>
        <time>2011-09-25T08:51:55Z</time>
      </trkpt>
      <trkpt lat="47.02869" lon="-1.70591">
        <ele>46.496</ele>
        <time>2011-09-25T08:51:58Z</time>
      </trkpt>
      <trkpt lat="47.02859" lon="-1.70598">
        <ele>46.127</ele>
        <time>2011-09-25T08:52:00Z</time>
      </trkpt>
      <trkpt lat="47.02844" lon="-1.70606">
        <ele>45.993</ele>
        <time>2011-09-25T08:52:03Z</time>
      </trkpt>
      <trkpt lat="47.02829" lon="-1.70615">
        <ele>45.86</ele>
        <time>2011-09-25T08:52:06Z</time>
      </trkpt>
      <trkpt lat="47.02815" lon="-1.70625">
        <ele>45.541</ele>
        <time>2011-09-25T08:52:09Z</time>
      </trkpt>
      <trkpt lat="47.02806" lon="-1.70633">
        <ele>45.063</ele>
        <time>2011-09-25T08:52:11Z</time>
      </trkpt>
      <trkpt lat="47.02797" lon="-1.70642">
        <ele>44.539</ele>
        <time>2011-09-25T08:52:13Z</time>
      </trkpt>
      <trkpt lat="47.02784" lon="-1.70656">
        <ele>44.142</ele>
        <time>2011-09-25T08:52:16Z</time>
      </trkpt>
      <trkpt lat="47.02774" lon="-1.70674">
        <ele>43.993</ele>
        <time>2011-09-25T08:52:19Z</time>
      </trkpt>
      <trkpt lat="47.02766" lon="-1.70692">
        <ele>43.856</ele>
        <time>2011-09-25T08:52:22Z</time>
      </trkpt>
      <trkpt lat="47.0276" lon="-1.70705">
        <ele>43.539</ele>
        <time>2011-09-25T08:52:24Z</time>
      </trkpt>
      <trkpt lat="47.02751" lon="-1.70724">
        <ele>43.202</ele>
        <time>2011-09-25T08:52:27Z</time>
      </trkpt>
      <trkpt lat="47.02745" lon="-1.70737">
        <ele>43.039</ele>
        <time>2011-09-25T08:52:29Z</time>
      </trkpt>
      <trkpt lat="47.02739" lon="-1.70749">
        <ele>43.012</ele>
        <time>2011-09-25T08:52:31Z</time>
      </trkpt>
      <trkpt lat="47.02728" lon="-1.70768">
        <ele>43.038</ele>
        <time>2011-09-25T08:52:34Z</time>
      </trkpt>
      <trkpt lat="47.02717" lon="-1.70786">
        <ele>43.065</ele>
        <time>2011-09-25T08:52:37Z</time>
      </trkpt>
      <trkpt lat="47.0271" lon="-1.70798">
        <ele>43.078</ele>
        <time>2011-09-25T08:52:39Z</time>
      </trkpt>
      <trkpt lat="47.02697" lon="-1.70812">
        <ele>43.08</ele>
        <time>2011-09-25T08:52:42Z</time>
      </trkpt>
      <trkpt lat="47.02689" lon="-1.70822">
        <ele>43.078</ele>
        <time>2011-09-25T08:52:44Z</time>
      </trkpt>
      <trkpt lat="47.02678" lon="-1.70838">
        <ele>43.076</ele>
        <time>2011-09-25T08:52:47Z</time>
      </trkpt>
      <trkpt lat="47.02666" lon="-1.70856">
        <ele>43.213</ele>
        <time>2011-09-25T08:52:50Z</time>
      </trkpt>
      <trkpt lat="47.02659" lon="-1.70868">
        <ele>43.572</ele>
        <time>2011-09-25T08:52:52Z</time>
      </trkpt>
      <trkpt lat="47.02652" lon="-1.7088">
        <ele>43.941</ele>
        <time>2011-09-25T08:52:54Z</time>
      </trkpt>
      <trkpt lat="47.02641" lon="-1.70896">
        <ele>44.116</ele>
        <time>2011-09-25T08:52:57Z</time>
      </trkpt>
      <trkpt lat="47.02628" lon="-1.70912">
        <ele>44.143</ele>
        <time>2011-09-25T08:53:00Z</time>
      </trkpt>
      <trkpt lat="47.02615" lon="-1.70928">
        <ele>44.113</ele>
        <time>2011-09-25T08:53:03Z</time>
      </trkpt>
      <trkpt lat="47.02602" lon="-1.70944">
        <ele>44.083</ele>
        <time>2011-09-25T08:53:06Z</time>
      </trkpt>
      <trkpt lat="47.02589" lon="-1.70959">
        <ele>44.069</ele>
        <time>2011-09-25T08:53:09Z</time>
      </trkpt>
      <trkpt lat="47.02575" lon="-1.70973">
        <ele>44.066</ele>
        <time>2011-09-25T08:53:12Z</time>
      </trkpt>
      <trkpt lat="47.0256" lon="-1.70987">
        <ele>44.069</ele>
        <time>2011-09-25T08:53:15Z</time>
      </trkpt>
      <trkpt lat="47.02545" lon="-1.71001">
        <ele>44.071</ele>
        <time>2011-09-25T08:53:18Z</time>
      </trkpt>
      <trkpt lat="47.02531" lon="-1.71016">
        <ele>43.934</ele>
        <time>2011-09-25T08:53:21Z</time>
      </trkpt>
      <trkpt lat="47.02522" lon="-1.71027">
        <ele>43.574</ele>
        <time>2011-09-25T08:53:23Z</time>
      </trkpt>
      <trkpt lat="47.02509" lon="-1.71044">
        <ele>43.204</ele>
        <time>2011-09-25T08:53:26Z</time>
      </trkpt>
      <trkpt lat="47.02496" lon="-1.7106">
        <ele>43.029</ele>
        <time>2011-09-25T08:53:29Z</time>
      </trkpt>
      <trkpt lat="47.02487" lon="-1.7107">
        <ele>42.864</ele>
        <time>2011-09-25T08:53:31Z</time>
      </trkpt>
      <trkpt lat="47.02473" lon="-1.71086">
        <ele>42.534</ele>
        <time>2011-09-25T08:53:34Z</time>
      </trkpt>
      <trkpt lat="47.02459" lon="-1.71103">
        <ele>42.194</ele>
        <time>2011-09-25T08:53:37Z</time>
      </trkpt>
      <trkpt lat="47.02446" lon="-1.71119">
        <ele>42.033</ele>
        <time>2011-09-25T08:53:40Z</time>
      </trkpt>
      <trkpt lat="47.02433" lon="-1.71137">
        <ele>42.008</ele>
        <time>2011-09-25T08:53:43Z</time>
      </trkpt>
      <trkpt lat="47.02421" lon="-1.71157">
        <ele>42.174</ele>
        <time>2011-09-25T08:53:46Z</time>
      </trkpt>
      <trkpt lat="47.02414" lon="-1.71172">
        <ele>42.561</ele>
        <time>2011-09-25T08:53:48Z</time>
      </trkpt>
      <trkpt lat="47.02404" lon="-1.71193">
        <ele>43.081</ele>
        <time>2011-09-25T08:53:51Z</time>
      </trkpt>
      <trkpt lat="47.02398" lon="-1.71206">
        <ele>43.618</ele>
        <time>2011-09-25T08:53:53Z</time>
      </trkpt>
      <trkpt lat="47.02388" lon="-1.71226">
        <ele>44.011</ele>
        <time>2011-09-25T08:53:56Z</time>
      </trkpt>
      <trkpt lat="47.02378" lon="-1.71245">
        <ele>44.154</ele>
        <time>2011-09-25T08:53:59Z</time>
      </trkpt>
      <trkpt lat="47.02371" lon="-1.71257">
        <ele>44.15</ele>
        <time>2011-09-25T08:54:01Z</time>
      </trkpt>
      <trkpt lat="47.02364" lon="-1.71269">
        <ele>44.244</ele>
        <time>2011-09-25T08:54:03Z</time>
      </trkpt>
      <trkpt lat="47.02355" lon="-1.71286">
        <ele>44.571</ele>
        <time>2011-09-25T08:54:06Z</time>
      </trkpt>
      <trkpt lat="47.02345" lon="-1.71302">
        <ele>44.929</ele>
        <time>2011-09-25T08:54:09Z</time>
      </trkpt>
      <trkpt lat="47.02333" lon="-1.71309">
        <ele>45.105</ele>
        <time>2011-09-25T08:54:12Z</time>
      </trkpt>
      <trkpt lat="47.02321" lon="-1.71302">
        <ele>45.135</ele>
        <time>2011-09-25T08:54:15Z</time>
      </trkpt>
      <trkpt lat="47.0231" lon="-1.7129">
        <ele>45.107</ele>
        <time>2011-09-25T08:54:18Z</time>
      </trkpt>
      <trkpt lat="47.02298" lon="-1.71279">
        <ele>45.078</ele>
        <time>2011-09-25T08:54:21Z</time>
      </trkpt>
      <trkpt lat="47.0229" lon="-1.7127">
        <ele>45.064</ele>
        <time>2011-09-25T08:54:23Z</time>
      </trkpt>
      <trkpt lat="47.02277" lon="-1.71258">
        <ele>45.062</ele>
        <time>2011-09-25T08:54:26Z</time>
      </trkpt>
      <trkpt lat="47.02268" lon="-1.71249">
        <ele>45.064</ele>
        <time>2011-09-25T08:54:28Z</time>
      </trkpt>
      <trkpt lat="47.02259" lon="-1.71241">
        <ele>45.066</ele>
        <time>2011-09-25T08:54:30Z</time>
      </trkpt>
      <trkpt lat="47.02245" lon="-1.71227">
        <ele>45.067</ele>
        <time>2011-09-25T08:54:33Z</time>
      </trkpt>
      <trkpt lat="47.02231" lon="-1.71213">
        <ele>45.068</ele>
        <time>2011-09-25T08:54:36Z</time>
      </trkpt>
      <trkpt lat="47.02217" lon="-1.71199">
        <ele>45.067</ele>
        <time>2011-09-25T08:54:39Z</time>
      </trkpt>
      <trkpt lat="47.02203" lon="-1.71186">
        <ele>45.067</ele>
        <time>2011-09-25T08:54:42Z</time>
      </trkpt>
      <trkpt lat="47.02189" lon="-1.71172">
        <ele>45.067</ele>
        <time>2011-09-25T08:54:45Z</time>
      </trkpt>
      <trkpt lat="47.02174" lon="-1.71158">
        <ele>45.067</ele>
        <time>2011-09-25T08:54:48Z</time>
      </trkpt>
      <trkpt lat="47.02165" lon="-1.71149">
        <ele>44.929</ele>
        <time>2011-09-25T08:54:50Z</time>
      </trkpt>
      <trkpt lat="47.0215" lon="-1.71136">
        <ele>44.569</ele>
        <time>2011-09-25T08:54:53Z</time>
      </trkpt>
      <trkpt lat="47.02141" lon="-1.71127">
        <ele>44.2</ele>
        <time>2011-09-25T08:54:55Z</time>
      </trkpt>
      <trkpt lat="47.0213" lon="-1.71115">
        <ele>44.025</ele>
        <time>2011-09-25T08:54:58Z</time>
      </trkpt>
      <trkpt lat="47.0212" lon="-1.71105">
        <ele>43.999</ele>
        <time>2011-09-25T08:55:01Z</time>
      </trkpt>
      <trkpt lat="47.02113" lon="-1.71097">
        <ele>44.029</ele>
        <time>2011-09-25T08:55:03Z</time>
      </trkpt>
      <trkpt lat="47.021" lon="-1.71086">
        <ele>44.059</ele>
        <time>2011-09-25T08:55:06Z</time>
      </trkpt>
      <trkpt lat="47.02085" lon="-1.71073">
        <ele>44.073</ele>
        <time>2011-09-25T08:55:09Z</time>
      </trkpt>
      <trkpt lat="47.02069" lon="-1.7106">
        <ele>44.075</ele>
        <time>2011-09-25T08:55:12Z</time>
      </trkpt>
      <trkpt lat="47.02052" lon="-1.71045">
        <ele>44.072</ele>
        <time>2011-09-25T08:55:15Z</time>
      </trkpt>
      <trkpt lat="47.02033" lon="-1.7103">
        <ele>43.932</ele>
        <time>2011-09-25T08:55:18Z</time>
      </trkpt>
      <trkpt lat="47.02016" lon="-1.71015">
        <ele>43.571</ele>
        <time>2011-09-25T08:55:21Z</time>
      </trkpt>
      <trkpt lat="47.01999" lon="-1.71002">
        <ele>43.063</ele>
        <time>2011-09-25T08:55:24Z</time>
      </trkpt>
      <trkpt lat="47.0198" lon="-1.70987">
        <ele>42.528</ele>
        <time>2011-09-25T08:55:27Z</time>
      </trkpt>
      <trkpt lat="47.01963" lon="-1.70976">
        <ele>42.133</ele>
        <time>2011-09-25T08:55:30Z</time>
      </trkpt>
      <trkpt lat="47.01946" lon="-1.70979">
        <ele>41.849</ele>
        <time>2011-09-25T08:55:33Z</time>
      </trkpt>
      <trkpt lat="47.01935" lon="-1.70985">
        <ele>41.355</ele>
        <time>2011-09-25T08:55:35Z</time>
      </trkpt>
      <trkpt lat="47.01925" lon="-1.70993">
        <ele>40.532</ele>
        <time>2011-09-25T08:55:37Z</time>
      </trkpt>
      <trkpt lat="47.0191" lon="-1.71">
        <ele>39.521</ele>
        <time>2011-09-25T08:55:40Z</time>
      </trkpt>
      <trkpt lat="47.01896" lon="-1.70995">
        <ele>38.601</ele>
        <time>2011-09-25T08:55:43Z</time>
      </trkpt>
      <trkpt lat="47.01883" lon="-1.70983">
        <ele>37.921</ele>
        <time>2011-09-25T08:55:46Z</time>
      </trkpt>
      <trkpt lat="47.01874" lon="-1.70974">
        <ele>37.416</ele>
        <time>2011-09-25T08:55:48Z</time>
      </trkpt>
      <trkpt lat="47.01861" lon="-1.70961">
        <ele>36.954</ele>
        <time>2011-09-25T08:55:51Z</time>
      </trkpt>
      <trkpt lat="47.01848" lon="-1.7095">
        <ele>36.355</ele>
        <time>2011-09-25T08:55:54Z</time>
      </trkpt>
      <trkpt lat="47.01838" lon="-1.70942">
        <ele>35.643</ele>
        <time>2011-09-25T08:55:56Z</time>
      </trkpt>
      <trkpt lat="47.01829" lon="-1.70935">
        <ele>35.002</ele>
        <time>2011-09-25T08:55:58Z</time>
      </trkpt>
      <trkpt lat="47.01814" lon="-1.70923">
        <ele>34.328</ele>
        <time>2011-09-25T08:56:01Z</time>
      </trkpt>
      <trkpt lat="47.01801" lon="-1.7091">
        <ele>33.611</ele>
        <time>2011-09-25T08:56:04Z</time>
      </trkpt>
      <trkpt lat="47.01788" lon="-1.70897">
        <ele>33.125</ele>
        <time>2011-09-25T08:56:07Z</time>
      </trkpt>
      <trkpt lat="47.01775" lon="-1.70883">
        <ele>32.687</ele>
        <time>2011-09-25T08:56:10Z</time>
      </trkpt>
      <trkpt lat="47.01767" lon="-1.70875">
        <ele>31.985</ele>
        <time>2011-09-25T08:56:12Z</time>
      </trkpt>
      <trkpt lat="47.01754" lon="-1.70863">
        <ele>31.305</ele>
        <time>2011-09-25T08:56:15Z</time>
      </trkpt>
      <trkpt lat="47.01742" lon="-1.70849">
        <ele>30.994</ele>
        <time>2011-09-25T08:56:18Z</time>
      </trkpt>
      <trkpt lat="47.0173" lon="-1.70835">
        <ele>30.954</ele>
        <time>2011-09-25T08:56:21Z</time>
      </trkpt>
      <trkpt lat="47.01717" lon="-1.70821">
        <ele>31.012</ele>
        <time>2011-09-25T08:56:24Z</time>
      </trkpt>
      <trkpt lat="47.01706" lon="-1.70808">
        <ele>30.929</ele>
        <time>2011-09-25T08:56:27Z</time>
      </trkpt>
      <trkpt lat="47.01695" lon="-1.70797">
        <ele>30.595</ele>
        <time>2011-09-25T08:56:30Z</time>
      </trkpt>
      <trkpt lat="47.01683" lon="-1.70786">
        <ele>30.228</ele>
        <time>2011-09-25T08:56:33Z</time>
      </trkpt>
      <trkpt lat="47.01671" lon="-1.70775">
        <ele>30.049</ele>
        <time>2011-09-25T08:56:36Z</time>
      </trkpt>
      <trkpt lat="47.01664" lon="-1.70755">
        <ele>30.018</ele>
        <time>2011-09-25T08:56:39Z</time>
      </trkpt>
      <trkpt lat="47.01672" lon="-1.70734">
        <ele>30.046</ele>
        <time>2011-09-25T08:56:42Z</time>
      </trkpt>
      <trkpt lat="47.01683" lon="-1.70716">
        <ele>30.075</ele>
        <time>2011-09-25T08:56:45Z</time>
      </trkpt>
      <trkpt lat="47.0169" lon="-1.70705">
        <ele>30.09</ele>
        <time>2011-09-25T08:56:47Z</time>
      </trkpt>
      <trkpt lat="47.01698" lon="-1.70689">
        <ele>30.231</ele>
        <time>2011-09-25T08:56:50Z</time>
      </trkpt>
      <trkpt lat="47.01706" lon="-1.70673">
        <ele>30.588</ele>
        <time>2011-09-25T08:56:53Z</time>
      </trkpt>
      <trkpt lat="47.01711" lon="-1.70663">
        <ele>30.956</ele>
        <time>2011-09-25T08:56:55Z</time>
      </trkpt>
      <trkpt lat="47.01717" lon="-1.70652">
        <ele>31.268</ele>
        <time>2011-09-25T08:56:57Z</time>
      </trkpt>
      <trkpt lat="47.01725" lon="-1.70637">
        <ele>31.654</ele>
        <time>2011-09-25T08:57:00Z</time>
      </trkpt>
      <trkpt lat="47.01732" lon="-1.70621">
        <ele>32.132</ele>
        <time>2011-09-25T08:57:03Z</time>
      </trkpt>
      <trkpt lat="47.01736" lon="-1.70612">
        <ele>32.638</ele>
        <time>2011-09-25T08:57:05Z</time>
      </trkpt>
      <trkpt lat="47.01744" lon="-1.70597">
        <ele>33.158</ele>
        <time>2011-09-25T08:57:08Z</time>
      </trkpt>
      <trkpt lat="47.01749" lon="-1.70587">
        <ele>33.799</ele>
        <time>2011-09-25T08:57:10Z</time>
      </trkpt>
      <trkpt lat="47.01757" lon="-1.70573">
        <ele>34.528</ele>
        <time>2011-09-25T08:57:13Z</time>
      </trkpt>
      <trkpt lat="47.01765" lon="-1.70558">
        <ele>35.031</ele>
        <time>2011-09-25T08:57:16Z</time>
      </trkpt>
      <trkpt lat="47.01774" lon="-1.70542">
        <ele>35.202</ele>
        <time>2011-09-25T08:57:19Z</time>
      </trkpt>
      <trkpt lat="47.01782" lon="-1.70525">
        <ele>35.187</ele>
        <time>2011-09-25T08:57:22Z</time>
      </trkpt>
      <trkpt lat="47.01791" lon="-1.70509">
        <ele>35.128</ele>
        <time>2011-09-25T08:57:25Z</time>
      </trkpt>
      <trkpt lat="47.01802" lon="-1.70492">
        <ele>35.087</ele>
        <time>2011-09-25T08:57:28Z</time>
      </trkpt>
      <trkpt lat="47.01812" lon="-1.70474">
        <ele>35.073</ele>
        <time>2011-09-25T08:57:31Z</time>
      </trkpt>
      <trkpt lat="47.01819" lon="-1.70462">
        <ele>35.075</ele>
        <time>2011-09-25T08:57:33Z</time>
      </trkpt>
      <trkpt lat="47.0183" lon="-1.70443">
        <ele>35.218</ele>
        <time>2011-09-25T08:57:36Z</time>
      </trkpt>
      <trkpt lat="47.01841" lon="-1.70424">
        <ele>35.581</ele>
        <time>2011-09-25T08:57:39Z</time>
      </trkpt>
      <trkpt lat="47.01852" lon="-1.70405">
        <ele>35.952</ele>
        <time>2011-09-25T08:57:42Z</time>
      </trkpt>
      <trkpt lat="47.01858" lon="-1.70393">
        <ele>36.266</ele>
        <time>2011-09-25T08:57:44Z</time>
      </trkpt>
      <trkpt lat="47.01869" lon="-1.70374">
        <ele>36.652</ele>
        <time>2011-09-25T08:57:47Z</time>
      </trkpt>
      <trkpt lat="47.01875" lon="-1.70361">
        <ele>36.991</ele>
        <time>2011-09-25T08:57:49Z</time>
      </trkpt>
      <trkpt lat="47.01881" lon="-1.70338">
        <ele>37.136</ele>
        <time>2011-09-25T08:57:52Z</time>
      </trkpt>
      <trkpt lat="47.01888" lon="-1.70315">
        <ele>37.287</ele>
        <time>2011-09-25T08:57:55Z</time>
      </trkpt>
      <trkpt lat="47.01897" lon="-1.70294">
        <ele>37.615</ele>
        <time>2011-09-25T08:57:58Z</time>
      </trkpt>
      <trkpt lat="47.01906" lon="-1.70274">
        <ele>37.957</ele>
        <time>2011-09-25T08:58:01Z</time>
      </trkpt>
      <trkpt lat="47.01916" lon="-1.70255">
        <ele>38.121</ele>
        <time>2011-09-25T08:58:04Z</time>
      </trkpt>
      <trkpt lat="47.01925" lon="-1.70236">
        <ele>38.285</ele>
        <time>2011-09-25T08:58:07Z</time>
      </trkpt>
      <trkpt lat="47.01933" lon="-1.70219">
        <ele>38.756</ele>
        <time>2011-09-25T08:58:10Z</time>
      </trkpt>
      <trkpt lat="47.01941" lon="-1.70203">
        <ele>39.458</ele>
        <time>2011-09-25T08:58:13Z</time>
      </trkpt>
      <trkpt lat="47.01947" lon="-1.70186">
        <ele>39.989</ele>
        <time>2011-09-25T08:58:16Z</time>
      </trkpt>
      <trkpt lat="47.01955" lon="-1.70168">
        <ele>40.189</ele>
        <time>2011-09-25T08:58:19Z</time>
      </trkpt>
      <trkpt lat="47.01962" lon="-1.70156">
        <ele>40.188</ele>
        <time>2011-09-25T08:58:21Z</time>
      </trkpt>
      <trkpt lat="47.01972" lon="-1.70136">
        <ele>40.13</ele>
        <time>2011-09-25T08:58:24Z</time>
      </trkpt>
      <trkpt lat="47.01981" lon="-1.70118">
        <ele>39.949</ele>
        <time>2011-09-25T08:58:27Z</time>
      </trkpt>
      <trkpt lat="47.01989" lon="-1.70098">
        <ele>39.574</ele>
        <time>2011-09-25T08:58:30Z</time>
      </trkpt>
      <trkpt lat="47.01998" lon="-1.70079">
        <ele>39.205</ele>
        <time>2011-09-25T08:58:33Z</time>
      </trkpt>
      <trkpt lat="47.02008" lon="-1.7006">
        <ele>39.034</ele>
        <time>2011-09-25T08:58:36Z</time>
      </trkpt>
      <trkpt lat="47.02017" lon="-1.7004">
        <ele>39.012</ele>
        <time>2011-09-25T08:58:39Z</time>
      </trkpt>
      <trkpt lat="47.02026" lon="-1.70021">
        <ele>39.043</ele>
        <time>2011-09-25T08:58:42Z</time>
      </trkpt>
      <trkpt lat="47.02036" lon="-1.70002">
        <ele>39.073</ele>
        <time>2011-09-25T08:58:45Z</time>
      </trkpt>
      <trkpt lat="47.02047" lon="-1.69983">
        <ele>39.225</ele>
        <time>2011-09-25T08:58:48Z</time>
      </trkpt>
      <trkpt lat="47.02059" lon="-1.69965">
        <ele>39.587</ele>
        <time>2011-09-25T08:58:51Z</time>
      </trkpt>
      <trkpt lat="47.0207" lon="-1.69945">
        <ele>39.954</ele>
        <time>2011-09-25T08:58:54Z</time>
      </trkpt>
      <trkpt lat="47.02076" lon="-1.69931">
        <ele>40.127</ele>
        <time>2011-09-25T08:58:56Z</time>
      </trkpt>
      <trkpt lat="47.02086" lon="-1.69909">
        <ele>40.153</ele>
        <time>2011-09-25T08:58:59Z</time>
      </trkpt>
      <trkpt lat="47.02093" lon="-1.69895">
        <ele>40.123</ele>
        <time>2011-09-25T08:59:01Z</time>
      </trkpt>
      <trkpt lat="47.02103" lon="-1.69874">
        <ele>40.093</ele>
        <time>2011-09-25T08:59:04Z</time>
      </trkpt>
      <trkpt lat="47.02113" lon="-1.69853">
        <ele>40.079</ele>
        <time>2011-09-25T08:59:07Z</time>
      </trkpt>
      <trkpt lat="47.02119" lon="-1.6984">
        <ele>40.078</ele>
        <time>2011-09-25T08:59:09Z</time>
      </trkpt>
      <trkpt lat="47.02129" lon="-1.69819">
        <ele>40.08</ele>
        <time>2011-09-25T08:59:12Z</time>
      </trkpt>
      <trkpt lat="47.02139" lon="-1.698">
        <ele>40.083</ele>
        <time>2011-09-25T08:59:15Z</time>
      </trkpt>
      <trkpt lat="47.02149" lon="-1.6978">
        <ele>40.084</ele>
        <time>2011-09-25T08:59:18Z</time>
      </trkpt>
      <trkpt lat="47.02159" lon="-1.69758">
        <ele>40.084</ele>
        <time>2011-09-25T08:59:21Z</time>
      </trkpt>
      <trkpt lat="47.02167" lon="-1.69733">
        <ele>40.084</ele>
        <time>2011-09-25T08:59:24Z</time>
      </trkpt>
      <trkpt lat="47.02174" lon="-1.69707">
        <ele>40.084</ele>
        <time>2011-09-25T08:59:27Z</time>
      </trkpt>
      <trkpt lat="47.0218" lon="-1.69681">
        <ele>40.084</ele>
        <time>2011-09-25T08:59:30Z</time>
      </trkpt>
      <trkpt lat="47.02185" lon="-1.69656">
        <ele>40.085</ele>
        <time>2011-09-25T08:59:33Z</time>
      </trkpt>
      <trkpt lat="47.0219" lon="-1.69629">
        <ele>40.085</ele>
        <time>2011-09-25T08:59:36Z</time>
      </trkpt>
      <trkpt lat="47.02193" lon="-1.69602">
        <ele>40.085</ele>
        <time>2011-09-25T08:59:39Z</time>
      </trkpt>
      <trkpt lat="47.02195" lon="-1.69573">
        <ele>40.085</ele>
        <time>2011-09-25T08:59:42Z</time>
      </trkpt>
      <trkpt lat="47.02197" lon="-1.69545">
        <ele>40.086</ele>
        <time>2011-09-25T08:59:45Z</time>
      </trkpt>
      <trkpt lat="47.02198" lon="-1.69527">
        <ele>40.086</ele>
        <time>2011-09-25T08:59:47Z</time>
      </trkpt>
      <trkpt lat="47.022" lon="-1.69499">
        <ele>40.086</ele>
        <time>2011-09-25T08:59:50Z</time>
      </trkpt>
      <trkpt lat="47.02202" lon="-1.69472">
        <ele>40.087</ele>
        <time>2011-09-25T08:59:53Z</time>
      </trkpt>
      <trkpt lat="47.02203" lon="-1.69455">
        <ele>40.087</ele>
        <time>2011-09-25T08:59:55Z</time>
      </trkpt>
      <trkpt lat="47.02205" lon="-1.69428">
        <ele>40.087</ele>
        <time>2011-09-25T08:59:58Z</time>
      </trkpt>
      <trkpt lat="47.02207" lon="-1.69402">
        <ele>40.087</ele>
        <time>2011-09-25T09:00:01Z</time>
      </trkpt>
      <trkpt lat="47.02209" lon="-1.69375">
        <ele>40.087</ele>
        <time>2011-09-25T09:00:04Z</time>
      </trkpt>
      <trkpt lat="47.02212" lon="-1.6935">
        <ele>40.087</ele>
        <time>2011-09-25T09:00:07Z</time>
      </trkpt>
      <trkpt lat="47.02214" lon="-1.69333">
        <ele>40.087</ele>
        <time>2011-09-25T09:00:09Z</time>
      </trkpt>
      <trkpt lat="47.02224" lon="-1.69311">
        <ele>40.088</ele>
        <time>2011-09-25T09:00:12Z</time>
      </trkpt>
      <trkpt lat="47.0224" lon="-1.69297">
        <ele>40.088</ele>
        <time>2011-09-25T09:00:15Z</time>
      </trkpt>
      <trkpt lat="47.02256" lon="-1.69286">
        <ele>40.088</ele>
        <time>2011-09-25T09:00:18Z</time>
      </trkpt>
      <trkpt lat="47.02273" lon="-1.69275">
        <ele>40.088</ele>
        <time>2011-09-25T09:00:21Z</time>
      </trkpt>
      <trkpt lat="47.02291" lon="-1.69265">
        <ele>40.088</ele>
        <time>2011-09-25T09:00:24Z</time>
      </trkpt>
      <trkpt lat="47.02303" lon="-1.69259">
        <ele>40.088</ele>
        <time>2011-09-25T09:00:26Z</time>
      </trkpt>
      <trkpt lat="47.02316" lon="-1.69255">
        <ele>40.089</ele>
        <time>2011-09-25T09:00:28Z</time>
      </trkpt>
      <trkpt lat="47.02334" lon="-1.69245">
        <ele>40.089</ele>
        <time>2011-09-25T09:00:31Z</time>
      </trkpt>
      <trkpt lat="47.02351" lon="-1.69233">
        <ele>40.227</ele>
        <time>2011-09-25T09:00:34Z</time>
      </trkpt>
      <trkpt lat="47.02362" lon="-1.69223">
        <ele>40.587</ele>
        <time>2011-09-25T09:00:36Z</time>
      </trkpt>
      <trkpt lat="47.02378" lon="-1.69208">
        <ele>40.957</ele>
        <time>2011-09-25T09:00:39Z</time>
      </trkpt>
      <trkpt lat="47.02393" lon="-1.69192">
        <ele>41.132</ele>
        <time>2011-09-25T09:00:42Z</time>
      </trkpt>
      <trkpt lat="47.02407" lon="-1.69177">
        <ele>41.021</ele>
        <time>2011-09-25T09:00:45Z</time>
      </trkpt>
      <trkpt lat="47.02422" lon="-1.69161">
        <ele>40.631</ele>
        <time>2011-09-25T09:00:48Z</time>
      </trkpt>
      <trkpt lat="47.02436" lon="-1.69145">
        <ele>40.232</ele>
        <time>2011-09-25T09:00:51Z</time>
      </trkpt>
      <trkpt lat="47.0245" lon="-1.6913">
        <ele>40.043</ele>
        <time>2011-09-25T09:00:54Z</time>
      </trkpt>
      <trkpt lat="47.02459" lon="-1.6912">
        <ele>40.014</ele>
        <time>2011-09-25T09:00:56Z</time>
      </trkpt>
      <trkpt lat="47.02468" lon="-1.6911">
        <ele>40.047</ele>
        <time>2011-09-25T09:00:58Z</time>
      </trkpt>
      <trkpt lat="47.02481" lon="-1.69094">
        <ele>40.079</ele>
        <time>2011-09-25T09:01:01Z</time>
      </trkpt>
      <trkpt lat="47.0249" lon="-1.69083">
        <ele>40.233</ele>
        <time>2011-09-25T09:01:03Z</time>
      </trkpt>
      <trkpt lat="47.02503" lon="-1.69069">
        <ele>40.595</ele>
        <time>2011-09-25T09:01:06Z</time>
      </trkpt>
      <trkpt lat="47.02515" lon="-1.69055">
        <ele>41.1</ele>
        <time>2011-09-25T09:01:09Z</time>
      </trkpt>
      <trkpt lat="47.02528" lon="-1.69041">
        <ele>41.771</ele>
        <time>2011-09-25T09:01:12Z</time>
      </trkpt>
      <trkpt lat="47.0254" lon="-1.69026">
        <ele>42.664</ele>
        <time>2011-09-25T09:01:15Z</time>
      </trkpt>
      <trkpt lat="47.0255" lon="-1.69013">
        <ele>43.677</ele>
        <time>2011-09-25T09:01:18Z</time>
      </trkpt>
      <trkpt lat="47.02549" lon="-1.69003">
        <ele>44.578</ele>
        <time>2011-09-25T09:01:20Z</time>
      </trkpt>
      <trkpt lat="47.02541" lon="-1.68991">
        <ele>45.244</ele>
        <time>2011-09-25T09:01:23Z</time>
      </trkpt>
      <trkpt lat="47.02536" lon="-1.68984">
        <ele>45.882</ele>
        <time>2011-09-25T09:01:25Z</time>
      </trkpt>
      <trkpt lat="47.02532" lon="-1.68976">
        <ele>46.566</ele>
        <time>2011-09-25T09:01:27Z</time>
      </trkpt>
      <trkpt lat="47.02526" lon="-1.68965">
        <ele>47.175</ele>
        <time>2011-09-25T09:01:30Z</time>
      </trkpt>
      <trkpt lat="47.02519" lon="-1.68954">
        <ele>47.694</ele>
        <time>2011-09-25T09:01:33Z</time>
      </trkpt>
      <trkpt lat="47.02514" lon="-1.68947">
        <ele>48.049</ele>
        <time>2011-09-25T09:01:35Z</time>
      </trkpt>
      <trkpt lat="47.02506" lon="-1.68936">
        <ele>48.168</ele>
        <time>2011-09-25T09:01:38Z</time>
      </trkpt>
      <trkpt lat="47.025" lon="-1.68929">
        <ele>48.295</ele>
        <time>2011-09-25T09:01:40Z</time>
      </trkpt>
      <trkpt lat="47.02492" lon="-1.68916">
        <ele>48.612</ele>
        <time>2011-09-25T09:01:43Z</time>
      </trkpt>
      <trkpt lat="47.02483" lon="-1.68901">
        <ele>48.953</ele>
        <time>2011-09-25T09:01:46Z</time>
      </trkpt>
      <trkpt lat="47.02478" lon="-1.6889">
        <ele>49.257</ele>
        <time>2011-09-25T09:01:48Z</time>
      </trkpt>
      <trkpt lat="47.0248" lon="-1.68873">
        <ele>49.645</ele>
        <time>2011-09-25T09:01:51Z</time>
      </trkpt>
      <trkpt lat="47.02488" lon="-1.6886">
        <ele>49.988</ele>
        <time>2011-09-25T09:01:54Z</time>
      </trkpt>
      <trkpt lat="47.02492" lon="-1.68852">
        <ele>50.135</ele>
        <time>2011-09-25T09:01:56Z</time>
      </trkpt>
      <trkpt lat="47.02494" lon="-1.68844">
        <ele>50.149</ele>
        <time>2011-09-25T09:01:58Z</time>
      </trkpt>
      <trkpt lat="47.02488" lon="-1.68833">
        <ele>50.117</ele>
        <time>2011-09-25T09:02:01Z</time>
      </trkpt>
      <trkpt lat="47.02479" lon="-1.68827">
        <ele>50.089</ele>
        <time>2011-09-25T09:02:04Z</time>
      </trkpt>
      <trkpt lat="47.0247" lon="-1.68822">
        <ele>50.077</ele>
        <time>2011-09-25T09:02:07Z</time>
      </trkpt>
      <trkpt lat="47.0246" lon="-1.68817">
        <ele>50.076</ele>
        <time>2011-09-25T09:02:10Z</time>
      </trkpt>
      <trkpt lat="47.02452" lon="-1.68812">
        <ele>50.079</ele>
        <time>2011-09-25T09:02:12Z</time>
      </trkpt>
      <trkpt lat="47.02444" lon="-1.68808">
        <ele>50.219</ele>
        <time>2011-09-25T09:02:14Z</time>
      </trkpt>
      <trkpt lat="47.02432" lon="-1.68801">
        <ele>50.58</ele>
        <time>2011-09-25T09:02:17Z</time>
      </trkpt>
      <trkpt lat="47.0242" lon="-1.68794">
        <ele>51.088</ele>
        <time>2011-09-25T09:02:20Z</time>
      </trkpt>
      <trkpt lat="47.02412" lon="-1.68788">
        <ele>51.623</ele>
        <time>2011-09-25T09:02:22Z</time>
      </trkpt>
      <trkpt lat="47.02405" lon="-1.6878">
        <ele>52.019</ele>
        <time>2011-09-25T09:02:24Z</time>
      </trkpt>
      <trkpt lat="47.02395" lon="-1.68765">
        <ele>52.164</ele>
        <time>2011-09-25T09:02:27Z</time>
      </trkpt>
      <trkpt lat="47.02388" lon="-1.6875">
        <ele>52.16</ele>
        <time>2011-09-25T09:02:30Z</time>
      </trkpt>
      <trkpt lat="47.02392" lon="-1.68733">
        <ele>52.116</ele>
        <time>2011-09-25T09:02:33Z</time>
      </trkpt>
      <trkpt lat="47.02404" lon="-1.68722">
        <ele>52.084</ele>
        <time>2011-09-25T09:02:36Z</time>
      </trkpt>
      <trkpt lat="47.02417" lon="-1.68712">
        <ele>52.073</ele>
        <time>2011-09-25T09:02:39Z</time>
      </trkpt>
      <trkpt lat="47.02427" lon="-1.68703">
        <ele>52.073</ele>
        <time>2011-09-25T09:02:41Z</time>
      </trkpt>
      <trkpt lat="47.02443" lon="-1.68689">
        <ele>52.215</ele>
        <time>2011-09-25T09:02:44Z</time>
      </trkpt>
      <trkpt lat="47.02452" lon="-1.6868">
        <ele>52.578</ele>
        <time>2011-09-25T09:02:46Z</time>
      </trkpt>
      <trkpt lat="47.02466" lon="-1.68667">
        <ele>52.948</ele>
        <time>2011-09-25T09:02:49Z</time>
      </trkpt>
      <trkpt lat="47.0248" lon="-1.68653">
        <ele>53.124</ele>
        <time>2011-09-25T09:02:52Z</time>
      </trkpt>
      <trkpt lat="47.02494" lon="-1.68642">
        <ele>53.15</ele>
        <time>2011-09-25T09:02:55Z</time>
      </trkpt>
      <trkpt lat="47.02503" lon="-1.68634">
        <ele>53.12</ele>
        <time>2011-09-25T09:02:57Z</time>
      </trkpt>
      <trkpt lat="47.02516" lon="-1.68621">
        <ele>53.09</ele>
        <time>2011-09-25T09:03:00Z</time>
      </trkpt>
      <trkpt lat="47.02529" lon="-1.68608">
        <ele>53.076</ele>
        <time>2011-09-25T09:03:03Z</time>
      </trkpt>
      <trkpt lat="47.02543" lon="-1.68595">
        <ele>53.074</ele>
        <time>2011-09-25T09:03:06Z</time>
      </trkpt>
      <trkpt lat="47.02553" lon="-1.68585">
        <ele>53.077</ele>
        <time>2011-09-25T09:03:08Z</time>
      </trkpt>
      <trkpt lat="47.02566" lon="-1.68569">
        <ele>53.079</ele>
        <time>2011-09-25T09:03:11Z</time>
      </trkpt>
      <trkpt lat="47.02575" lon="-1.68558">
        <ele>53.08</ele>
        <time>2011-09-25T09:03:13Z</time>
      </trkpt>
      <trkpt lat="47.02589" lon="-1.6854">
        <ele>53.081</ele>
        <time>2011-09-25T09:03:16Z</time>
      </trkpt>
      <trkpt lat="47.02601" lon="-1.6852">
        <ele>53.081</ele>
        <time>2011-09-25T09:03:19Z</time>
      </trkpt>
      <trkpt lat="47.02614" lon="-1.685">
        <ele>53.081</ele>
        <time>2011-09-25T09:03:22Z</time>
      </trkpt>
      <trkpt lat="47.02624" lon="-1.6848">
        <ele>53.081</ele>
        <time>2011-09-25T09:03:25Z</time>
      </trkpt>
      <trkpt lat="47.02622" lon="-1.68458">
        <ele>53.219</ele>
        <time>2011-09-25T09:03:28Z</time>
      </trkpt>
      <trkpt lat="47.0261" lon="-1.68441">
        <ele>53.579</ele>
        <time>2011-09-25T09:03:31Z</time>
      </trkpt>
      <trkpt lat="47.02602" lon="-1.6843">
        <ele>53.949</ele>
        <time>2011-09-25T09:03:33Z</time>
      </trkpt>
      <trkpt lat="47.0259" lon="-1.68414">
        <ele>54.124</ele>
        <time>2011-09-25T09:03:36Z</time>
      </trkpt>
      <trkpt lat="47.02579" lon="-1.68397">
        <ele>54.151</ele>
        <time>2011-09-25T09:03:39Z</time>
      </trkpt>
      <trkpt lat="47.02567" lon="-1.68378">
        <ele>54.121</ele>
        <time>2011-09-25T09:03:42Z</time>
      </trkpt>
      <trkpt lat="47.02557" lon="-1.68358">
        <ele>54.091</ele>
        <time>2011-09-25T09:03:45Z</time>
      </trkpt>
      <trkpt lat="47.0255" lon="-1.68333">
        <ele>54.077</ele>
        <time>2011-09-25T09:03:48Z</time>
      </trkpt>
      <trkpt lat="47.02541" lon="-1.6831">
        <ele>54.075</ele>
        <time>2011-09-25T09:03:51Z</time>
      </trkpt>
      <trkpt lat="47.02529" lon="-1.68289">
        <ele>54.078</ele>
        <time>2011-09-25T09:03:54Z</time>
      </trkpt>
      <trkpt lat="47.02516" lon="-1.6827">
        <ele>54.08</ele>
        <time>2011-09-25T09:03:57Z</time>
      </trkpt>
      <trkpt lat="47.02503" lon="-1.68249">
        <ele>54.082</ele>
        <time>2011-09-25T09:04:00Z</time>
      </trkpt>
      <trkpt lat="47.02492" lon="-1.68231">
        <ele>54.082</ele>
        <time>2011-09-25T09:04:03Z</time>
      </trkpt>
      <trkpt lat="47.02482" lon="-1.68214">
        <ele>54.082</ele>
        <time>2011-09-25T09:04:06Z</time>
      </trkpt>
      <trkpt lat="47.02475" lon="-1.68202">
        <ele>54.082</ele>
        <time>2011-09-25T09:04:09Z</time>
      </trkpt>
      <trkpt lat="47.02472" lon="-1.68195">
        <ele>54.082</ele>
        <time>2011-09-25T09:04:12Z</time>
      </trkpt>
      <trkpt lat="47.02472" lon="-1.68195">
        <ele>54.082</ele>
        <time>2011-09-25T09:04:13Z</time>
      </trkpt>
      <trkpt lat="47.02472" lon="-1.68195">
        <ele>54.082</ele>
        <time>2011-09-25T09:04:41Z</time>
      </trkpt>
      <trkpt lat="47.0248" lon="-1.68162">
        <ele>54.082</ele>
        <time>2011-09-25T09:05:40Z</time>
      </trkpt>
      <trkpt lat="47.02486" lon="-1.6815">
        <ele>54.073</ele>
        <time>2011-09-25T09:05:43Z</time>
      </trkpt>
      <trkpt lat="47.02491" lon="-1.68135">
        <ele>54.051</ele>
        <time>2011-09-25T09:05:46Z</time>
      </trkpt>
      <trkpt lat="47.02498" lon="-1.68119">
        <ele>53.484</ele>
        <time>2011-09-25T09:05:49Z</time>
      </trkpt>
      <trkpt lat="47.02504" lon="-1.68102">
        <ele>52.056</ele>
        <time>2011-09-25T09:05:52Z</time>
      </trkpt>
      <trkpt lat="47.02509" lon="-1.68091">
        <ele>50.462</ele>
        <time>2011-09-25T09:05:54Z</time>
      </trkpt>
      <trkpt lat="47.02515" lon="-1.68073">
        <ele>49.414</ele>
        <time>2011-09-25T09:05:57Z</time>
      </trkpt>
      <trkpt lat="47.0252" lon="-1.68062">
        <ele>48.942</ele>
        <time>2011-09-25T09:05:59Z</time>
      </trkpt>
      <trkpt lat="47.02526" lon="-1.68043">
        <ele>48.886</ele>
        <time>2011-09-25T09:06:02Z</time>
      </trkpt>
      <trkpt lat="47.02531" lon="-1.68031">
        <ele>48.978</ele>
        <time>2011-09-25T09:06:04Z</time>
      </trkpt>
      <trkpt lat="47.02538" lon="-1.68014">
        <ele>49.064</ele>
        <time>2011-09-25T09:06:07Z</time>
      </trkpt>
      <trkpt lat="47.02542" lon="-1.68001">
        <ele>49.102</ele>
        <time>2011-09-25T09:06:09Z</time>
      </trkpt>
      <trkpt lat="47.02549" lon="-1.67983">
        <ele>49.106</ele>
        <time>2011-09-25T09:06:12Z</time>
      </trkpt>
      <trkpt lat="47.02553" lon="-1.6797">
        <ele>49.099</ele>
        <time>2011-09-25T09:06:14Z</time>
      </trkpt>
      <trkpt lat="47.02558" lon="-1.67958">
        <ele>49.092</ele>
        <time>2011-09-25T09:06:16Z</time>
      </trkpt>
      <trkpt lat="47.02563" lon="-1.67946">
        <ele>49.089</ele>
        <time>2011-09-25T09:06:18Z</time>
      </trkpt>
      <trkpt lat="47.02569" lon="-1.67927">
        <ele>49.089</ele>
        <time>2011-09-25T09:06:21Z</time>
      </trkpt>
      <trkpt lat="47.02576" lon="-1.67908">
        <ele>49.089</ele>
        <time>2011-09-25T09:06:24Z</time>
      </trkpt>
      <trkpt lat="47.02581" lon="-1.67895">
        <ele>49.09</ele>
        <time>2011-09-25T09:06:26Z</time>
      </trkpt>
      <trkpt lat="47.02588" lon="-1.67876">
        <ele>49.09</ele>
        <time>2011-09-25T09:06:29Z</time>
      </trkpt>
      <trkpt lat="47.02595" lon="-1.67856">
        <ele>49.091</ele>
        <time>2011-09-25T09:06:32Z</time>
      </trkpt>
      <trkpt lat="47.02601" lon="-1.67842">
        <ele>49.091</ele>
        <time>2011-09-25T09:06:34Z</time>
      </trkpt>
      <trkpt lat="47.02608" lon="-1.67822">
        <ele>49.091</ele>
        <time>2011-09-25T09:06:37Z</time>
      </trkpt>
      <trkpt lat="47.02615" lon="-1.67803">
        <ele>49.229</ele>
        <time>2011-09-25T09:06:40Z</time>
      </trkpt>
      <trkpt lat="47.0262" lon="-1.6779">
        <ele>49.589</ele>
        <time>2011-09-25T09:06:42Z</time>
      </trkpt>
      <trkpt lat="47.02627" lon="-1.6777">
        <ele>49.959</ele>
        <time>2011-09-25T09:06:45Z</time>
      </trkpt>
      <trkpt lat="47.02638" lon="-1.67754">
        <ele>50.134</ele>
        <time>2011-09-25T09:06:48Z</time>
      </trkpt>
      <trkpt lat="47.02653" lon="-1.67755">
        <ele>50.161</ele>
        <time>2011-09-25T09:06:51Z</time>
      </trkpt>
      <trkpt lat="47.02669" lon="-1.67764">
        <ele>50.131</ele>
        <time>2011-09-25T09:06:54Z</time>
      </trkpt>
      <trkpt lat="47.02685" lon="-1.67774">
        <ele>50.101</ele>
        <time>2011-09-25T09:06:57Z</time>
      </trkpt>
      <trkpt lat="47.02699" lon="-1.67784">
        <ele>50.087</ele>
        <time>2011-09-25T09:07:00Z</time>
      </trkpt>
      <trkpt lat="47.02714" lon="-1.67792">
        <ele>50.223</ele>
        <time>2011-09-25T09:07:03Z</time>
      </trkpt>
      <trkpt lat="47.02728" lon="-1.67801">
        <ele>50.586</ele>
        <time>2011-09-25T09:07:06Z</time>
      </trkpt>
      <trkpt lat="47.02743" lon="-1.67807">
        <ele>51.096</ele>
        <time>2011-09-25T09:07:09Z</time>
      </trkpt>
      <trkpt lat="47.02758" lon="-1.67813">
        <ele>51.632</ele>
        <time>2011-09-25T09:07:12Z</time>
      </trkpt>
      <trkpt lat="47.02773" lon="-1.67816">
        <ele>52.028</ele>
        <time>2011-09-25T09:07:15Z</time>
      </trkpt>
      <trkpt lat="47.02784" lon="-1.67816">
        <ele>52.311</ele>
        <time>2011-09-25T09:07:17Z</time>
      </trkpt>
      <trkpt lat="47.02796" lon="-1.67816">
        <ele>52.667</ele>
        <time>2011-09-25T09:07:19Z</time>
      </trkpt>
      <trkpt lat="47.02813" lon="-1.67814">
        <ele>52.993</ele>
        <time>2011-09-25T09:07:22Z</time>
      </trkpt>
      <trkpt lat="47.02832" lon="-1.67811">
        <ele>53.136</ele>
        <time>2011-09-25T09:07:25Z</time>
      </trkpt>
      <trkpt lat="47.02844" lon="-1.67809">
        <ele>53.289</ele>
        <time>2011-09-25T09:07:27Z</time>
      </trkpt>
      <trkpt lat="47.02863" lon="-1.67807">
        <ele>53.619</ele>
        <time>2011-09-25T09:07:30Z</time>
      </trkpt>
      <trkpt lat="47.02881" lon="-1.67804">
        <ele>53.962</ele>
        <time>2011-09-25T09:07:33Z</time>
      </trkpt>
      <trkpt lat="47.02893" lon="-1.67802">
        <ele>54.126</ele>
        <time>2011-09-25T09:07:35Z</time>
      </trkpt>
      <trkpt lat="47.02912" lon="-1.67799">
        <ele>54.152</ele>
        <time>2011-09-25T09:07:38Z</time>
      </trkpt>
      <trkpt lat="47.02924" lon="-1.67798">
        <ele>54.124</ele>
        <time>2011-09-25T09:07:40Z</time>
      </trkpt>
      <trkpt lat="47.02943" lon="-1.67795">
        <ele>54.096</ele>
        <time>2011-09-25T09:07:43Z</time>
      </trkpt>
      <trkpt lat="47.02962" lon="-1.67795">
        <ele>54.083</ele>
        <time>2011-09-25T09:07:46Z</time>
      </trkpt>
      <trkpt lat="47.02981" lon="-1.67799">
        <ele>54.22</ele>
        <time>2011-09-25T09:07:49Z</time>
      </trkpt>
      <trkpt lat="47.02999" lon="-1.67808">
        <ele>54.582</ele>
        <time>2011-09-25T09:07:52Z</time>
      </trkpt>
      <trkpt lat="47.03016" lon="-1.67822">
        <ele>54.954</ele>
        <time>2011-09-25T09:07:55Z</time>
      </trkpt>
      <trkpt lat="47.03027" lon="-1.67832">
        <ele>55.13</ele>
        <time>2011-09-25T09:07:57Z</time>
      </trkpt>
      <trkpt lat="47.03037" lon="-1.67843">
        <ele>55.157</ele>
        <time>2011-09-25T09:07:59Z</time>
      </trkpt>
      <trkpt lat="47.03055" lon="-1.67849">
        <ele>54.988</ele>
        <time>2011-09-25T09:08:02Z</time>
      </trkpt>
      <trkpt lat="47.03065" lon="-1.67839">
        <ele>54.598</ele>
        <time>2011-09-25T09:08:04Z</time>
      </trkpt>
      <trkpt lat="47.03074" lon="-1.67824">
        <ele>54.214</ele>
        <time>2011-09-25T09:08:06Z</time>
      </trkpt>
      <trkpt lat="47.03084" lon="-1.67795">
        <ele>53.899</ele>
        <time>2011-09-25T09:08:09Z</time>
      </trkpt>
      <trkpt lat="47.03091" lon="-1.67764">
        <ele>53.515</ele>
        <time>2011-09-25T09:08:12Z</time>
      </trkpt>
      <trkpt lat="47.03096" lon="-1.67733">
        <ele>53.04</ele>
        <time>2011-09-25T09:08:15Z</time>
      </trkpt>
      <trkpt lat="47.03102" lon="-1.67703">
        <ele>52.26</ele>
        <time>2011-09-25T09:08:18Z</time>
      </trkpt>
      <trkpt lat="47.03108" lon="-1.67676">
        <ele>51.02</ele>
        <time>2011-09-25T09:08:21Z</time>
      </trkpt>
      <trkpt lat="47.03113" lon="-1.6765">
        <ele>49.778</ele>
        <time>2011-09-25T09:08:24Z</time>
      </trkpt>
      <trkpt lat="47.03118" lon="-1.67624">
        <ele>48.921</ele>
        <time>2011-09-25T09:08:27Z</time>
      </trkpt>
      <trkpt lat="47.03123" lon="-1.67602">
        <ele>48.375</ele>
        <time>2011-09-25T09:08:30Z</time>
      </trkpt>
      <trkpt lat="47.03127" lon="-1.67588">
        <ele>48.071</ele>
        <time>2011-09-25T09:08:33Z</time>
      </trkpt>
      <trkpt lat="47.03132" lon="-1.67579">
        <ele>47.997</ele>
        <time>2011-09-25T09:08:36Z</time>
      </trkpt>
      <trkpt lat="47.0314" lon="-1.67569">
        <ele>48.029</ele>
        <time>2011-09-25T09:08:39Z</time>
      </trkpt>
      <trkpt lat="47.03153" lon="-1.67557">
        <ele>48.073</ele>
        <time>2011-09-25T09:08:42Z</time>
      </trkpt>
      <trkpt lat="47.03168" lon="-1.67543">
        <ele>48.098</ele>
        <time>2011-09-25T09:08:45Z</time>
      </trkpt>
      <trkpt lat="47.03177" lon="-1.67531">
        <ele>48.104</ele>
        <time>2011-09-25T09:08:47Z</time>
      </trkpt>
      <trkpt lat="47.03185" lon="-1.67517">
        <ele>48.102</ele>
        <time>2011-09-25T09:08:49Z</time>
      </trkpt>
      <trkpt lat="47.03192" lon="-1.67501">
        <ele>48.098</ele>
        <time>2011-09-25T09:08:51Z</time>
      </trkpt>
      <trkpt lat="47.03204" lon="-1.67479">
        <ele>48.096</ele>
        <time>2011-09-25T09:08:54Z</time>
      </trkpt>
      <trkpt lat="47.03212" lon="-1.67466">
        <ele>48.096</ele>
        <time>2011-09-25T09:08:56Z</time>
      </trkpt>
      <trkpt lat="47.03221" lon="-1.67452">
        <ele>48.096</ele>
        <time>2011-09-25T09:08:58Z</time>
      </trkpt>
      <trkpt lat="47.03235" lon="-1.6743">
        <ele>47.958</ele>
        <time>2011-09-25T09:09:01Z</time>
      </trkpt>
      <trkpt lat="47.03251" lon="-1.67406">
        <ele>47.599</ele>
        <time>2011-09-25T09:09:04Z</time>
      </trkpt>
      <trkpt lat="47.03265" lon="-1.67383">
        <ele>47.23</ele>
        <time>2011-09-25T09:09:07Z</time>
      </trkpt>
      <trkpt lat="47.03275" lon="-1.67359">
        <ele>47.055</ele>
        <time>2011-09-25T09:09:10Z</time>
      </trkpt>
      <trkpt lat="47.03282" lon="-1.67335">
        <ele>46.89</ele>
        <time>2011-09-25T09:09:13Z</time>
      </trkpt>
      <trkpt lat="47.03287" lon="-1.67311">
        <ele>46.56</ele>
        <time>2011-09-25T09:09:16Z</time>
      </trkpt>
      <trkpt lat="47.0329" lon="-1.67295">
        <ele>46.221</ele>
        <time>2011-09-25T09:09:18Z</time>
      </trkpt>
      <trkpt lat="47.03295" lon="-1.67272">
        <ele>45.922</ele>
        <time>2011-09-25T09:09:21Z</time>
      </trkpt>
      <trkpt lat="47.033" lon="-1.6725">
        <ele>45.4</ele>
        <time>2011-09-25T09:09:24Z</time>
      </trkpt>
      <trkpt lat="47.03301" lon="-1.67229">
        <ele>44.56</ele>
        <time>2011-09-25T09:09:27Z</time>
      </trkpt>
      <trkpt lat="47.033" lon="-1.6721">
        <ele>43.407</ele>
        <time>2011-09-25T09:09:30Z</time>
      </trkpt>
      <trkpt lat="47.03298" lon="-1.67194">
        <ele>41.991</ele>
        <time>2011-09-25T09:09:33Z</time>
      </trkpt>
      <trkpt lat="47.03299" lon="-1.67184">
        <ele>40.584</ele>
        <time>2011-09-25T09:09:35Z</time>
      </trkpt>
      <trkpt lat="47.03303" lon="-1.67173">
        <ele>39.398</ele>
        <time>2011-09-25T09:09:37Z</time>
      </trkpt>
      <trkpt lat="47.03311" lon="-1.67161">
        <ele>38.512</ele>
        <time>2011-09-25T09:09:39Z</time>
      </trkpt>
      <trkpt lat="47.03324" lon="-1.67142">
        <ele>38.046</ele>
        <time>2011-09-25T09:09:42Z</time>
      </trkpt>
      <trkpt lat="47.03337" lon="-1.67124">
        <ele>37.948</ele>
        <time>2011-09-25T09:09:45Z</time>
      </trkpt>
      <trkpt lat="47.03351" lon="-1.67106">
        <ele>37.869</ele>
        <time>2011-09-25T09:09:48Z</time>
      </trkpt>
      <trkpt lat="47.0336" lon="-1.67085">
        <ele>37.582</ele>
        <time>2011-09-25T09:09:51Z</time>
      </trkpt>
      <trkpt lat="47.03361" lon="-1.6706">
        <ele>37.25</ele>
        <time>2011-09-25T09:09:54Z</time>
      </trkpt>
      <trkpt lat="47.03359" lon="-1.67045">
        <ele>37.083</ele>
        <time>2011-09-25T09:09:56Z</time>
      </trkpt>
      <trkpt lat="47.03356" lon="-1.6703">
        <ele>37.051</ele>
        <time>2011-09-25T09:09:58Z</time>
      </trkpt>
      <trkpt lat="47.03354" lon="-1.67014">
        <ele>36.937</ele>
        <time>2011-09-25T09:10:00Z</time>
      </trkpt>
      <trkpt lat="47.03352" lon="-1.66988">
        <ele>36.466</ele>
        <time>2011-09-25T09:10:03Z</time>
      </trkpt>
      <trkpt lat="47.03364" lon="-1.66963">
        <ele>35.612</ele>
        <time>2011-09-25T09:10:06Z</time>
      </trkpt>
      <trkpt lat="47.03373" lon="-1.66948">
        <ele>34.711</ele>
        <time>2011-09-25T09:10:08Z</time>
      </trkpt>
      <trkpt lat="47.03382" lon="-1.66936">
        <ele>33.999</ele>
        <time>2011-09-25T09:10:10Z</time>
      </trkpt>
      <trkpt lat="47.03392" lon="-1.66926">
        <ele>33.189</ele>
        <time>2011-09-25T09:10:12Z</time>
      </trkpt>
      <trkpt lat="47.03409" lon="-1.66927">
        <ele>32.133</ele>
        <time>2011-09-25T09:10:15Z</time>
      </trkpt>
      <trkpt lat="47.03424" lon="-1.66931">
        <ele>31.293</ele>
        <time>2011-09-25T09:10:18Z</time>
      </trkpt>
      <trkpt lat="47.03437" lon="-1.66934">
        <ele>30.824</ele>
        <time>2011-09-25T09:10:21Z</time>
      </trkpt>
      <trkpt lat="47.03446" lon="-1.66936">
        <ele>30.455</ele>
        <time>2011-09-25T09:10:24Z</time>
      </trkpt>
      <trkpt lat="47.03454" lon="-1.66939">
        <ele>30.173</ele>
        <time>2011-09-25T09:10:27Z</time>
      </trkpt>
      <trkpt lat="47.03462" lon="-1.6694">
        <ele>30.066</ele>
        <time>2011-09-25T09:10:30Z</time>
      </trkpt>
      <trkpt lat="47.03467" lon="-1.66941">
        <ele>30.066</ele>
        <time>2011-09-25T09:10:32Z</time>
      </trkpt>
      <trkpt lat="47.03475" lon="-1.66944">
        <ele>30.096</ele>
        <time>2011-09-25T09:10:35Z</time>
      </trkpt>
      <trkpt lat="47.03481" lon="-1.66947">
        <ele>30.119</ele>
        <time>2011-09-25T09:10:37Z</time>
      </trkpt>
      <trkpt lat="47.03485" lon="-1.6696">
        <ele>30.128</ele>
        <time>2011-09-25T09:10:40Z</time>
      </trkpt>
      <trkpt lat="47.03486" lon="-1.66978">
        <ele>30.128</ele>
        <time>2011-09-25T09:10:43Z</time>
      </trkpt>
      <trkpt lat="47.03487" lon="-1.66998">
        <ele>30.125</ele>
        <time>2011-09-25T09:10:46Z</time>
      </trkpt>
      <trkpt lat="47.03489" lon="-1.67012">
        <ele>30.123</ele>
        <time>2011-09-25T09:10:48Z</time>
      </trkpt>
      <trkpt lat="47.03492" lon="-1.67033">
        <ele>30.122</ele>
        <time>2011-09-25T09:10:51Z</time>
      </trkpt>
      <trkpt lat="47.03495" lon="-1.67053">
        <ele>29.984</ele>
        <time>2011-09-25T09:10:54Z</time>
      </trkpt>
      <trkpt lat="47.03499" lon="-1.67073">
        <ele>29.624</ele>
        <time>2011-09-25T09:10:57Z</time>
      </trkpt>
      <trkpt lat="47.03503" lon="-1.67091">
        <ele>29.255</ele>
        <time>2011-09-25T09:11:00Z</time>
      </trkpt>
      <trkpt lat="47.03507" lon="-1.6711">
        <ele>29.08</ele>
        <time>2011-09-25T09:11:03Z</time>
      </trkpt>
      <trkpt lat="47.0351" lon="-1.67124">
        <ele>28.915</ele>
        <time>2011-09-25T09:11:05Z</time>
      </trkpt>
      <trkpt lat="47.03512" lon="-1.67145">
        <ele>28.585</ele>
        <time>2011-09-25T09:11:08Z</time>
      </trkpt>
      <trkpt lat="47.03513" lon="-1.67159">
        <ele>28.245</ele>
        <time>2011-09-25T09:11:10Z</time>
      </trkpt>
      <trkpt lat="47.03515" lon="-1.67182">
        <ele>27.946</ele>
        <time>2011-09-25T09:11:13Z</time>
      </trkpt>
      <trkpt lat="47.03518" lon="-1.67205">
        <ele>27.561</ele>
        <time>2011-09-25T09:11:16Z</time>
      </trkpt>
      <trkpt lat="47.03524" lon="-1.67218">
        <ele>27.219</ele>
        <time>2011-09-25T09:11:18Z</time>
      </trkpt>
      <trkpt lat="47.0353" lon="-1.67232">
        <ele>26.933</ele>
        <time>2011-09-25T09:11:20Z</time>
      </trkpt>
      <trkpt lat="47.03537" lon="-1.67247">
        <ele>26.559</ele>
        <time>2011-09-25T09:11:22Z</time>
      </trkpt>
      <trkpt lat="47.03548" lon="-1.67271">
        <ele>26.222</ele>
        <time>2011-09-25T09:11:25Z</time>
      </trkpt>
      <trkpt lat="47.0356" lon="-1.67295">
        <ele>26.074</ele>
        <time>2011-09-25T09:11:28Z</time>
      </trkpt>
      <trkpt lat="47.03571" lon="-1.67319">
        <ele>25.921</ele>
        <time>2011-09-25T09:11:31Z</time>
      </trkpt>
      <trkpt lat="47.03578" lon="-1.67336">
        <ele>25.592</ele>
        <time>2011-09-25T09:11:33Z</time>
      </trkpt>
      <trkpt lat="47.03587" lon="-1.67362">
        <ele>25.25</ele>
        <time>2011-09-25T09:11:36Z</time>
      </trkpt>
      <trkpt lat="47.03594" lon="-1.67387">
        <ele>25.087</ele>
        <time>2011-09-25T09:11:39Z</time>
      </trkpt>
      <trkpt lat="47.03596" lon="-1.67404">
        <ele>25.199</ele>
        <time>2011-09-25T09:11:41Z</time>
      </trkpt>
      <trkpt lat="47.03598" lon="-1.67429">
        <ele>25.586</ele>
        <time>2011-09-25T09:11:44Z</time>
      </trkpt>
      <trkpt lat="47.03599" lon="-1.67446">
        <ele>26.122</ele>
        <time>2011-09-25T09:11:46Z</time>
      </trkpt>
      <trkpt lat="47.036" lon="-1.67472">
        <ele>26.67</ele>
        <time>2011-09-25T09:11:49Z</time>
      </trkpt>
      <trkpt lat="47.036" lon="-1.67494">
        <ele>27.067</ele>
        <time>2011-09-25T09:11:52Z</time>
      </trkpt>
      <trkpt lat="47.03602" lon="-1.67507">
        <ele>27.348</ele>
        <time>2011-09-25T09:11:54Z</time>
      </trkpt>
      <trkpt lat="47.03609" lon="-1.67527">
        <ele>27.702</ele>
        <time>2011-09-25T09:11:57Z</time>
      </trkpt>
      <trkpt lat="47.03613" lon="-1.67543">
        <ele>28.026</ele>
        <time>2011-09-25T09:12:00Z</time>
      </trkpt>
      <trkpt lat="47.03612" lon="-1.67561">
        <ele>28.169</ele>
        <time>2011-09-25T09:12:03Z</time>
      </trkpt>
      <trkpt lat="47.0361" lon="-1.6758">
        <ele>28.184</ele>
        <time>2011-09-25T09:12:06Z</time>
      </trkpt>
      <trkpt lat="47.0361" lon="-1.67592">
        <ele>28.154</ele>
        <time>2011-09-25T09:12:08Z</time>
      </trkpt>
      <trkpt lat="47.03609" lon="-1.67599">
        <ele>28.128</ele>
        <time>2011-09-25T09:12:11Z</time>
      </trkpt>
      <trkpt lat="47.03609" lon="-1.67599">
        <ele>28.117</ele>
        <time>2011-09-25T09:12:12Z</time>
      </trkpt>
      <trkpt lat="47.03606" lon="-1.67575">
        <ele>28.115</ele>
        <time>2011-09-25T09:12:44Z</time>
      </trkpt>
      <trkpt lat="47.03607" lon="-1.67567">
        <ele>28.118</ele>
        <time>2011-09-25T09:12:46Z</time>
      </trkpt>
      <trkpt lat="47.03608" lon="-1.67557">
        <ele>28.12</ele>
        <time>2011-09-25T09:12:49Z</time>
      </trkpt>
      <trkpt lat="47.03609" lon="-1.67548">
        <ele>28.121</ele>
        <time>2011-09-25T09:12:52Z</time>
      </trkpt>
      <trkpt lat="47.03611" lon="-1.67541">
        <ele>28.117</ele>
        <time>2011-09-25T09:12:55Z</time>
      </trkpt>
      <trkpt lat="47.03606" lon="-1.67527">
        <ele>27.974</ele>
        <time>2011-09-25T09:13:07Z</time>
      </trkpt>
      <trkpt lat="47.03603" lon="-1.67535">
        <ele>27.475</ele>
        <time>2011-09-25T09:13:11Z</time>
      </trkpt>
      <trkpt lat="47.03601" lon="-1.67545">
        <ele>26.751</ele>
        <time>2011-09-25T09:13:14Z</time>
      </trkpt>
      <trkpt lat="47.036" lon="-1.67558">
        <ele>25.795</ele>
        <time>2011-09-25T09:13:17Z</time>
      </trkpt>
      <trkpt lat="47.036" lon="-1.67576">
        <ele>24.377</ele>
        <time>2011-09-25T09:13:21Z</time>
      </trkpt>
      <trkpt lat="47.036" lon="-1.67592">
        <ele>22.912</ele>
        <time>2011-09-25T09:13:24Z</time>
      </trkpt>
      <trkpt lat="47.036" lon="-1.67609">
        <ele>22.077</ele>
        <time>2011-09-25T09:13:27Z</time>
      </trkpt>
      <trkpt lat="47.036" lon="-1.67625">
        <ele>21.866</ele>
        <time>2011-09-25T09:13:30Z</time>
      </trkpt>
      <trkpt lat="47.036" lon="-1.67635">
        <ele>21.945</ele>
        <time>2011-09-25T09:13:32Z</time>
      </trkpt>
      <trkpt lat="47.036" lon="-1.67645">
        <ele>22.203</ele>
        <time>2011-09-25T09:13:34Z</time>
      </trkpt>
      <trkpt lat="47.036" lon="-1.67661">
        <ele>22.63</ele>
        <time>2011-09-25T09:13:37Z</time>
      </trkpt>
      <trkpt lat="47.036" lon="-1.67678">
        <ele>23.016</ele>
        <time>2011-09-25T09:13:40Z</time>
      </trkpt>
      <trkpt lat="47.03602" lon="-1.67695">
        <ele>23.184</ele>
        <time>2011-09-25T09:13:43Z</time>
      </trkpt>
      <trkpt lat="47.03603" lon="-1.67711">
        <ele>23.339</ele>
        <time>2011-09-25T09:13:46Z</time>
      </trkpt>
      <trkpt lat="47.03606" lon="-1.67727">
        <ele>23.664</ele>
        <time>2011-09-25T09:13:49Z</time>
      </trkpt>
      <trkpt lat="47.0361" lon="-1.67742">
        <ele>24.001</ele>
        <time>2011-09-25T09:13:52Z</time>
      </trkpt>
      <trkpt lat="47.03615" lon="-1.67758">
        <ele>24.163</ele>
        <time>2011-09-25T09:13:55Z</time>
      </trkpt>
      <trkpt lat="47.0362" lon="-1.67774">
        <ele>24.327</ele>
        <time>2011-09-25T09:13:58Z</time>
      </trkpt>
      <trkpt lat="47.03624" lon="-1.67788">
        <ele>24.659</ele>
        <time>2011-09-25T09:14:01Z</time>
      </trkpt>
      <trkpt lat="47.03627" lon="-1.67802">
        <ele>25.001</ele>
        <time>2011-09-25T09:14:04Z</time>
      </trkpt>
      <trkpt lat="47.0363" lon="-1.67817">
        <ele>25.163</ele>
        <time>2011-09-25T09:14:07Z</time>
      </trkpt>
      <trkpt lat="47.03634" lon="-1.67832">
        <ele>25.188</ele>
        <time>2011-09-25T09:14:10Z</time>
      </trkpt>
      <trkpt lat="47.03639" lon="-1.67848">
        <ele>25.16</ele>
        <time>2011-09-25T09:14:13Z</time>
      </trkpt>
      <trkpt lat="47.03644" lon="-1.67865">
        <ele>25.132</ele>
        <time>2011-09-25T09:14:16Z</time>
      </trkpt>
      <trkpt lat="47.03648" lon="-1.67882">
        <ele>25.119</ele>
        <time>2011-09-25T09:14:19Z</time>
      </trkpt>
      <trkpt lat="47.0365" lon="-1.67899">
        <ele>25.117</ele>
        <time>2011-09-25T09:14:22Z</time>
      </trkpt>
      <trkpt lat="47.03653" lon="-1.67916">
        <ele>25.119</ele>
        <time>2011-09-25T09:14:25Z</time>
      </trkpt>
      <trkpt lat="47.03656" lon="-1.67931">
        <ele>25.259</ele>
        <time>2011-09-25T09:14:28Z</time>
      </trkpt>
      <trkpt lat="47.03659" lon="-1.67946">
        <ele>25.758</ele>
        <time>2011-09-25T09:14:31Z</time>
      </trkpt>
      <trkpt lat="47.03662" lon="-1.67955">
        <ele>26.487</ele>
        <time>2011-09-25T09:14:34Z</time>
      </trkpt>
      <trkpt lat="47.03666" lon="-1.6796">
        <ele>27.032</ele>
        <time>2011-09-25T09:14:37Z</time>
      </trkpt>
      <trkpt lat="47.03666" lon="-1.6796">
        <ele>27.233</ele>
        <time>2011-09-25T09:14:39Z</time>
      </trkpt>
      <trkpt lat="47.03679" lon="-1.67996">
        <ele>27.23</ele>
        <time>2011-09-25T09:14:54Z</time>
      </trkpt>
      <trkpt lat="47.03682" lon="-1.68006">
        <ele>27.17</ele>
        <time>2011-09-25T09:14:57Z</time>
      </trkpt>
      <trkpt lat="47.03685" lon="-1.68014">
        <ele>27.264</ele>
        <time>2011-09-25T09:14:59Z</time>
      </trkpt>
      <trkpt lat="47.03687" lon="-1.68021">
        <ele>27.884</ele>
        <time>2011-09-25T09:15:01Z</time>
      </trkpt>
      <trkpt lat="47.03691" lon="-1.68032">
        <ele>28.973</ele>
        <time>2011-09-25T09:15:04Z</time>
      </trkpt>
      <trkpt lat="47.03694" lon="-1.68039">
        <ele>29.892</ele>
        <time>2011-09-25T09:15:06Z</time>
      </trkpt>
      <trkpt lat="47.03697" lon="-1.6805">
        <ele>30.273</ele>
        <time>2011-09-25T09:15:09Z</time>
      </trkpt>
      <trkpt lat="47.03701" lon="-1.6806">
        <ele>30.435</ele>
        <time>2011-09-25T09:15:12Z</time>
      </trkpt>
      <trkpt lat="47.03704" lon="-1.68069">
        <ele>30.705</ele>
        <time>2011-09-25T09:15:15Z</time>
      </trkpt>
      <trkpt lat="47.03707" lon="-1.68079">
        <ele>30.999</ele>
        <time>2011-09-25T09:15:18Z</time>
      </trkpt>
      <trkpt lat="47.03711" lon="-1.68089">
        <ele>31.144</ele>
        <time>2011-09-25T09:15:21Z</time>
      </trkpt>
      <trkpt lat="47.03715" lon="-1.68099">
        <ele>31.169</ele>
        <time>2011-09-25T09:15:24Z</time>
      </trkpt>
      <trkpt lat="47.03717" lon="-1.68106">
        <ele>31.146</ele>
        <time>2011-09-25T09:15:26Z</time>
      </trkpt>
      <trkpt lat="47.03722" lon="-1.68118">
        <ele>31.122</ele>
        <time>2011-09-25T09:15:29Z</time>
      </trkpt>
      <trkpt lat="47.03724" lon="-1.68127">
        <ele>31.111</ele>
        <time>2011-09-25T09:15:31Z</time>
      </trkpt>
      <trkpt lat="47.03729" lon="-1.68139">
        <ele>31.109</ele>
        <time>2011-09-25T09:15:34Z</time>
      </trkpt>
      <trkpt lat="47.03733" lon="-1.68151">
        <ele>31.11</ele>
        <time>2011-09-25T09:15:37Z</time>
      </trkpt>
      <trkpt lat="47.03737" lon="-1.68162">
        <ele>31.112</ele>
        <time>2011-09-25T09:15:40Z</time>
      </trkpt>
      <trkpt lat="47.0374" lon="-1.6817">
        <ele>31.113</ele>
        <time>2011-09-25T09:15:42Z</time>
      </trkpt>
      <trkpt lat="47.03745" lon="-1.68184">
        <ele>31.113</ele>
        <time>2011-09-25T09:15:45Z</time>
      </trkpt>
      <trkpt lat="47.03751" lon="-1.68201">
        <ele>31.113</ele>
        <time>2011-09-25T09:15:48Z</time>
      </trkpt>
      <trkpt lat="47.03755" lon="-1.68212">
        <ele>31.113</ele>
        <time>2011-09-25T09:15:50Z</time>
      </trkpt>
      <trkpt lat="47.03759" lon="-1.68224">
        <ele>30.974</ele>
        <time>2011-09-25T09:15:52Z</time>
      </trkpt>
      <trkpt lat="47.03765" lon="-1.68241">
        <ele>30.614</ele>
        <time>2011-09-25T09:15:55Z</time>
      </trkpt>
      <trkpt lat="47.03772" lon="-1.68258">
        <ele>30.245</ele>
        <time>2011-09-25T09:15:58Z</time>
      </trkpt>
      <trkpt lat="47.03776" lon="-1.68269">
        <ele>30.07</ele>
        <time>2011-09-25T09:16:00Z</time>
      </trkpt>
      <trkpt lat="47.0378" lon="-1.68285">
        <ele>30.181</ele>
        <time>2011-09-25T09:16:03Z</time>
      </trkpt>
      <trkpt lat="47.03775" lon="-1.6829">
        <ele>30.571</ele>
        <time>2011-09-25T09:16:05Z</time>
      </trkpt>
      <trkpt lat="47.03768" lon="-1.68292">
        <ele>30.97</ele>
        <time>2011-09-25T09:16:07Z</time>
      </trkpt>
      <trkpt lat="47.0376" lon="-1.68293">
        <ele>31.298</ele>
        <time>2011-09-25T09:16:09Z</time>
      </trkpt>
      <trkpt lat="47.03748" lon="-1.68296">
        <ele>31.686</ele>
        <time>2011-09-25T09:16:12Z</time>
      </trkpt>
      <trkpt lat="47.03736" lon="-1.683">
        <ele>32.023</ele>
        <time>2011-09-25T09:16:15Z</time>
      </trkpt>
      <trkpt lat="47.03723" lon="-1.68303">
        <ele>32.165</ele>
        <time>2011-09-25T09:16:18Z</time>
      </trkpt>
      <trkpt lat="47.03714" lon="-1.68306">
        <ele>32.177</ele>
        <time>2011-09-25T09:16:20Z</time>
      </trkpt>
      <trkpt lat="47.03701" lon="-1.6831">
        <ele>32.145</ele>
        <time>2011-09-25T09:16:23Z</time>
      </trkpt>
      <trkpt lat="47.03687" lon="-1.68313">
        <ele>32.117</ele>
        <time>2011-09-25T09:16:26Z</time>
      </trkpt>
      <trkpt lat="47.03677" lon="-1.68316">
        <ele>32.244</ele>
        <time>2011-09-25T09:16:28Z</time>
      </trkpt>
      <trkpt lat="47.03663" lon="-1.68321">
        <ele>32.741</ele>
        <time>2011-09-25T09:16:31Z</time>
      </trkpt>
      <trkpt lat="47.03649" lon="-1.68325">
        <ele>33.473</ele>
        <time>2011-09-25T09:16:34Z</time>
      </trkpt>
      <trkpt lat="47.03634" lon="-1.6833">
        <ele>34.02</ele>
        <time>2011-09-25T09:16:37Z</time>
      </trkpt>
      <trkpt lat="47.0362" lon="-1.68334">
        <ele>34.222</ele>
        <time>2011-09-25T09:16:40Z</time>
      </trkpt>
      <trkpt lat="47.03605" lon="-1.68339">
        <ele>34.357</ele>
        <time>2011-09-25T09:16:43Z</time>
      </trkpt>
      <trkpt lat="47.0359" lon="-1.68343">
        <ele>34.657</ele>
        <time>2011-09-25T09:16:46Z</time>
      </trkpt>
      <trkpt lat="47.03579" lon="-1.68346">
        <ele>34.982</ele>
        <time>2011-09-25T09:16:48Z</time>
      </trkpt>
      <trkpt lat="47.03565" lon="-1.68351">
        <ele>35.279</ele>
        <time>2011-09-25T09:16:51Z</time>
      </trkpt>
      <trkpt lat="47.03551" lon="-1.68354">
        <ele>35.804</ele>
        <time>2011-09-25T09:16:54Z</time>
      </trkpt>
      <trkpt lat="47.03539" lon="-1.68358">
        <ele>36.508</ele>
        <time>2011-09-25T09:16:57Z</time>
      </trkpt>
      <trkpt lat="47.0353" lon="-1.68364">
        <ele>37.026</ele>
        <time>2011-09-25T09:17:00Z</time>
      </trkpt>
      <trkpt lat="47.03529" lon="-1.68381">
        <ele>37.353</ele>
        <time>2011-09-25T09:17:03Z</time>
      </trkpt>
      <trkpt lat="47.03531" lon="-1.68401">
        <ele>37.707</ele>
        <time>2011-09-25T09:17:06Z</time>
      </trkpt>
      <trkpt lat="47.03533" lon="-1.68418">
        <ele>38.019</ele>
        <time>2011-09-25T09:17:09Z</time>
      </trkpt>
      <trkpt lat="47.03534" lon="-1.68435">
        <ele>38.152</ele>
        <time>2011-09-25T09:17:12Z</time>
      </trkpt>
      <trkpt lat="47.03535" lon="-1.68446">
        <ele>38.163</ele>
        <time>2011-09-25T09:17:14Z</time>
      </trkpt>
      <trkpt lat="47.03536" lon="-1.68457">
        <ele>38.272</ele>
        <time>2011-09-25T09:17:16Z</time>
      </trkpt>
      <trkpt lat="47.03536" lon="-1.6847">
        <ele>38.607</ele>
        <time>2011-09-25T09:17:18Z</time>
      </trkpt>
      <trkpt lat="47.03536" lon="-1.68492">
        <ele>39.103</ele>
        <time>2011-09-25T09:17:21Z</time>
      </trkpt>
      <trkpt lat="47.03537" lon="-1.68512">
        <ele>39.637</ele>
        <time>2011-09-25T09:17:24Z</time>
      </trkpt>
      <trkpt lat="47.03538" lon="-1.68526">
        <ele>40.036</ele>
        <time>2011-09-25T09:17:26Z</time>
      </trkpt>
      <trkpt lat="47.03538" lon="-1.6854">
        <ele>40.183</ele>
        <time>2011-09-25T09:17:28Z</time>
      </trkpt>
      <trkpt lat="47.03539" lon="-1.68553">
        <ele>40.18</ele>
        <time>2011-09-25T09:17:30Z</time>
      </trkpt>
      <trkpt lat="47.0354" lon="-1.68575">
        <ele>40.274</ele>
        <time>2011-09-25T09:17:33Z</time>
      </trkpt>
      <trkpt lat="47.0354" lon="-1.68597">
        <ele>40.602</ele>
        <time>2011-09-25T09:17:36Z</time>
      </trkpt>
      <trkpt lat="47.03541" lon="-1.68619">
        <ele>40.959</ele>
        <time>2011-09-25T09:17:39Z</time>
      </trkpt>
      <trkpt lat="47.03541" lon="-1.6864">
        <ele>41.134</ele>
        <time>2011-09-25T09:17:42Z</time>
      </trkpt>
      <trkpt lat="47.03542" lon="-1.68653">
        <ele>41.165</ele>
        <time>2011-09-25T09:17:44Z</time>
      </trkpt>
      <trkpt lat="47.03542" lon="-1.68671">
        <ele>41.137</ele>
        <time>2011-09-25T09:17:47Z</time>
      </trkpt>
      <trkpt lat="47.03542" lon="-1.6868">
        <ele>41.108</ele>
        <time>2011-09-25T09:17:49Z</time>
      </trkpt>
      <trkpt lat="47.0354" lon="-1.68688">
        <ele>40.955</ele>
        <time>2011-09-25T09:17:52Z</time>
      </trkpt>
      <trkpt lat="47.03536" lon="-1.687">
        <ele>40.593</ele>
        <time>2011-09-25T09:17:55Z</time>
      </trkpt>
      <trkpt lat="47.03524" lon="-1.68706">
        <ele>40.226</ele>
        <time>2011-09-25T09:17:58Z</time>
      </trkpt>
      <trkpt lat="47.03511" lon="-1.68712">
        <ele>40.053</ele>
        <time>2011-09-25T09:18:01Z</time>
      </trkpt>
      <trkpt lat="47.035" lon="-1.6872">
        <ele>40.027</ele>
        <time>2011-09-25T09:18:04Z</time>
      </trkpt>
      <trkpt lat="47.03489" lon="-1.68733">
        <ele>40.057</ele>
        <time>2011-09-25T09:18:07Z</time>
      </trkpt>
      <trkpt lat="47.0348" lon="-1.68748">
        <ele>40.087</ele>
        <time>2011-09-25T09:18:10Z</time>
      </trkpt>
      <trkpt lat="47.0347" lon="-1.68762">
        <ele>40.101</ele>
        <time>2011-09-25T09:18:13Z</time>
      </trkpt>
      <trkpt lat="47.03459" lon="-1.68777">
        <ele>40.103</ele>
        <time>2011-09-25T09:18:16Z</time>
      </trkpt>
      <trkpt lat="47.03452" lon="-1.68786">
        <ele>40.1</ele>
        <time>2011-09-25T09:18:18Z</time>
      </trkpt>
      <trkpt lat="47.03442" lon="-1.68801">
        <ele>40.097</ele>
        <time>2011-09-25T09:18:21Z</time>
      </trkpt>
      <trkpt lat="47.03435" lon="-1.68811">
        <ele>40.096</ele>
        <time>2011-09-25T09:18:23Z</time>
      </trkpt>
      <trkpt lat="47.03428" lon="-1.68819">
        <ele>40.234</ele>
        <time>2011-09-25T09:18:25Z</time>
      </trkpt>
      <trkpt lat="47.03416" lon="-1.68823">
        <ele>40.594</ele>
        <time>2011-09-25T09:18:28Z</time>
      </trkpt>
      <trkpt lat="47.03403" lon="-1.68817">
        <ele>40.964</ele>
        <time>2011-09-25T09:18:31Z</time>
      </trkpt>
      <trkpt lat="47.03395" lon="-1.68814">
        <ele>41.139</ele>
        <time>2011-09-25T09:18:33Z</time>
      </trkpt>
      <trkpt lat="47.03382" lon="-1.6881">
        <ele>41.165</ele>
        <time>2011-09-25T09:18:36Z</time>
      </trkpt>
      <trkpt lat="47.0337" lon="-1.68808">
        <ele>41.274</ele>
        <time>2011-09-25T09:18:39Z</time>
      </trkpt>
      <trkpt lat="47.03358" lon="-1.68812">
        <ele>41.603</ele>
        <time>2011-09-25T09:18:42Z</time>
      </trkpt>
      <trkpt lat="47.03347" lon="-1.68822">
        <ele>41.959</ele>
        <time>2011-09-25T09:18:45Z</time>
      </trkpt>
      <trkpt lat="47.03336" lon="-1.68833">
        <ele>42.27</ele>
        <time>2011-09-25T09:18:48Z</time>
      </trkpt>
      <trkpt lat="47.03329" lon="-1.68841">
        <ele>42.659</ele>
        <time>2011-09-25T09:18:50Z</time>
      </trkpt>
      <trkpt lat="47.03319" lon="-1.68854">
        <ele>43.139</ele>
        <time>2011-09-25T09:18:53Z</time>
      </trkpt>
      <trkpt lat="47.03313" lon="-1.68861">
        <ele>43.645</ele>
        <time>2011-09-25T09:18:55Z</time>
      </trkpt>
      <trkpt lat="47.03303" lon="-1.68857">
        <ele>44.027</ele>
        <time>2011-09-25T09:18:58Z</time>
      </trkpt>
      <trkpt lat="47.03293" lon="-1.68845">
        <ele>44.17</ele>
        <time>2011-09-25T09:19:01Z</time>
      </trkpt>
      <trkpt lat="47.03284" lon="-1.68839">
        <ele>44.168</ele>
        <time>2011-09-25T09:19:03Z</time>
      </trkpt>
      <trkpt lat="47.03271" lon="-1.68835">
        <ele>44.127</ele>
        <time>2011-09-25T09:19:06Z</time>
      </trkpt>
      <trkpt lat="47.03262" lon="-1.68837">
        <ele>44.096</ele>
        <time>2011-09-25T09:19:08Z</time>
      </trkpt>
      <trkpt lat="47.03252" lon="-1.6884">
        <ele>44.084</ele>
        <time>2011-09-25T09:19:10Z</time>
      </trkpt>
      <trkpt lat="47.03243" lon="-1.68843">
        <ele>44.084</ele>
        <time>2011-09-25T09:19:12Z</time>
      </trkpt>
      <trkpt lat="47.03229" lon="-1.68846">
        <ele>44.088</ele>
        <time>2011-09-25T09:19:15Z</time>
      </trkpt>
      <trkpt lat="47.03216" lon="-1.68846">
        <ele>44.09</ele>
        <time>2011-09-25T09:19:18Z</time>
      </trkpt>
      <trkpt lat="47.03207" lon="-1.68845">
        <ele>44.091</ele>
        <time>2011-09-25T09:19:20Z</time>
      </trkpt>
      <trkpt lat="47.03193" lon="-1.68845">
        <ele>44.229</ele>
        <time>2011-09-25T09:19:23Z</time>
      </trkpt>
      <trkpt lat="47.03183" lon="-1.68845">
        <ele>44.589</ele>
        <time>2011-09-25T09:19:25Z</time>
      </trkpt>
      <trkpt lat="47.03169" lon="-1.68845">
        <ele>44.958</ele>
        <time>2011-09-25T09:19:28Z</time>
      </trkpt>
      <trkpt lat="47.0316" lon="-1.68843">
        <ele>45.271</ele>
        <time>2011-09-25T09:19:31Z</time>
      </trkpt>
      <trkpt lat="47.03154" lon="-1.68844">
        <ele>45.658</ele>
        <time>2011-09-25T09:19:33Z</time>
      </trkpt>
      <trkpt lat="47.03147" lon="-1.68853">
        <ele>46.135</ele>
        <time>2011-09-25T09:19:36Z</time>
      </trkpt>
      <trkpt lat="47.03142" lon="-1.68867">
        <ele>46.64</ele>
        <time>2011-09-25T09:19:39Z</time>
      </trkpt>
      <trkpt lat="47.03138" lon="-1.68878">
        <ele>47.022</ele>
        <time>2011-09-25T09:19:41Z</time>
      </trkpt>
      <trkpt lat="47.03131" lon="-1.68893">
        <ele>47.166</ele>
        <time>2011-09-25T09:19:44Z</time>
      </trkpt>
      <trkpt lat="47.03125" lon="-1.68902">
        <ele>47.303</ele>
        <time>2011-09-25T09:19:46Z</time>
      </trkpt>
      <trkpt lat="47.03115" lon="-1.68914">
        <ele>47.621</ele>
        <time>2011-09-25T09:19:49Z</time>
      </trkpt>
      <trkpt lat="47.03107" lon="-1.68924">
        <ele>47.959</ele>
        <time>2011-09-25T09:19:52Z</time>
      </trkpt>
      <trkpt lat="47.03103" lon="-1.68928">
        <ele>48.123</ele>
        <time>2011-09-25T09:19:54Z</time>
      </trkpt>
      <trkpt lat="47.03099" lon="-1.68934">
        <ele>48.149</ele>
        <time>2011-09-25T09:19:57Z</time>
      </trkpt>
      <trkpt lat="47.03097" lon="-1.68939">
        <ele>48.123</ele>
        <time>2011-09-25T09:20:01Z</time>
      </trkpt>
      <trkpt lat="47.03097" lon="-1.68939">
        <ele>48.095</ele>
        <time>2011-09-25T09:20:30Z</time>
      </trkpt>
      <trkpt lat="47.03097" lon="-1.6896">
        <ele>48.22</ele>
        <time>2011-09-25T09:20:56Z</time>
      </trkpt>
      <trkpt lat="47.03098" lon="-1.6897">
        <ele>48.578</ele>
        <time>2011-09-25T09:20:58Z</time>
      </trkpt>
      <trkpt lat="47.03101" lon="-1.68985">
        <ele>48.949</ele>
        <time>2011-09-25T09:21:01Z</time>
      </trkpt>
      <trkpt lat="47.03102" lon="-1.68998">
        <ele>49.127</ele>
        <time>2011-09-25T09:21:03Z</time>
      </trkpt>
      <trkpt lat="47.03103" lon="-1.69019">
        <ele>49.154</ele>
        <time>2011-09-25T09:21:06Z</time>
      </trkpt>
      <trkpt lat="47.03101" lon="-1.69039">
        <ele>49.263</ele>
        <time>2011-09-25T09:21:09Z</time>
      </trkpt>
      <trkpt lat="47.03097" lon="-1.69059">
        <ele>49.592</ele>
        <time>2011-09-25T09:21:12Z</time>
      </trkpt>
      <trkpt lat="47.03095" lon="-1.69072">
        <ele>49.947</ele>
        <time>2011-09-25T09:21:14Z</time>
      </trkpt>
      <trkpt lat="47.03093" lon="-1.69085">
        <ele>50.258</ele>
        <time>2011-09-25T09:21:16Z</time>
      </trkpt>
      <trkpt lat="47.03091" lon="-1.69102">
        <ele>50.647</ele>
        <time>2011-09-25T09:21:19Z</time>
      </trkpt>
      <trkpt lat="47.03089" lon="-1.69117">
        <ele>50.989</ele>
        <time>2011-09-25T09:21:22Z</time>
      </trkpt>
      <trkpt lat="47.03086" lon="-1.69132">
        <ele>51.135</ele>
        <time>2011-09-25T09:21:25Z</time>
      </trkpt>
      <trkpt lat="47.03084" lon="-1.69148">
        <ele>51.148</ele>
        <time>2011-09-25T09:21:28Z</time>
      </trkpt>
      <trkpt lat="47.0308" lon="-1.69165">
        <ele>51.253</ele>
        <time>2011-09-25T09:21:31Z</time>
      </trkpt>
      <trkpt lat="47.03076" lon="-1.69182">
        <ele>51.585</ele>
        <time>2011-09-25T09:21:34Z</time>
      </trkpt>
      <trkpt lat="47.03071" lon="-1.692">
        <ele>51.943</ele>
        <time>2011-09-25T09:21:37Z</time>
      </trkpt>
      <trkpt lat="47.03067" lon="-1.6922">
        <ele>52.255</ele>
        <time>2011-09-25T09:21:40Z</time>
      </trkpt>
      <trkpt lat="47.03063" lon="-1.69234">
        <ele>52.644</ele>
        <time>2011-09-25T09:21:42Z</time>
      </trkpt>
      <trkpt lat="47.03058" lon="-1.69257">
        <ele>52.985</ele>
        <time>2011-09-25T09:21:45Z</time>
      </trkpt>
      <trkpt lat="47.03052" lon="-1.69279">
        <ele>53.131</ele>
        <time>2011-09-25T09:21:48Z</time>
      </trkpt>
      <trkpt lat="47.03047" lon="-1.69301">
        <ele>53.144</ele>
        <time>2011-09-25T09:21:51Z</time>
      </trkpt>
      <trkpt lat="47.03042" lon="-1.69323">
        <ele>53.112</ele>
        <time>2011-09-25T09:21:54Z</time>
      </trkpt>
      <trkpt lat="47.03039" lon="-1.69344">
        <ele>53.084</ele>
        <time>2011-09-25T09:21:57Z</time>
      </trkpt>
      <trkpt lat="47.03036" lon="-1.69366">
        <ele>53.072</ele>
        <time>2011-09-25T09:22:00Z</time>
      </trkpt>
      <trkpt lat="47.03033" lon="-1.69388">
        <ele>53.071</ele>
        <time>2011-09-25T09:22:03Z</time>
      </trkpt>
      <trkpt lat="47.03031" lon="-1.69403">
        <ele>53.073</ele>
        <time>2011-09-25T09:22:05Z</time>
      </trkpt>
      <trkpt lat="47.03028" lon="-1.69425">
        <ele>53.075</ele>
        <time>2011-09-25T09:22:08Z</time>
      </trkpt>
      <trkpt lat="47.03026" lon="-1.6944">
        <ele>53.076</ele>
        <time>2011-09-25T09:22:10Z</time>
      </trkpt>
      <trkpt lat="47.03023" lon="-1.69461">
        <ele>53.076</ele>
        <time>2011-09-25T09:22:13Z</time>
      </trkpt>
      <trkpt lat="47.03021" lon="-1.69482">
        <ele>53.075</ele>
        <time>2011-09-25T09:22:16Z</time>
      </trkpt>
      <trkpt lat="47.0302" lon="-1.69505">
        <ele>53.075</ele>
        <time>2011-09-25T09:22:19Z</time>
      </trkpt>
      <trkpt lat="47.03021" lon="-1.69529">
        <ele>53.075</ele>
        <time>2011-09-25T09:22:22Z</time>
      </trkpt>
      <trkpt lat="47.03021" lon="-1.69544">
        <ele>53.075</ele>
        <time>2011-09-25T09:22:24Z</time>
      </trkpt>
      <trkpt lat="47.03022" lon="-1.69563">
        <ele>52.936</ele>
        <time>2011-09-25T09:22:27Z</time>
      </trkpt>
      <trkpt lat="47.03022" lon="-1.69572">
        <ele>52.576</ele>
        <time>2011-09-25T09:22:29Z</time>
      </trkpt>
      <trkpt lat="47.03028" lon="-1.69576">
        <ele>52.207</ele>
        <time>2011-09-25T09:22:32Z</time>
      </trkpt>
      <trkpt lat="47.03034" lon="-1.6957">
        <ele>52.031</ele>
        <time>2011-09-25T09:22:34Z</time>
      </trkpt>
      <trkpt lat="47.03048" lon="-1.69559">
        <ele>52.005</ele>
        <time>2011-09-25T09:22:37Z</time>
      </trkpt>
      <trkpt lat="47.03063" lon="-1.69567">
        <ele>52.035</ele>
        <time>2011-09-25T09:22:40Z</time>
      </trkpt>
      <trkpt lat="47.03076" lon="-1.69583">
        <ele>52.065</ele>
        <time>2011-09-25T09:22:43Z</time>
      </trkpt>
      <trkpt lat="47.03084" lon="-1.69595">
        <ele>52.079</ele>
        <time>2011-09-25T09:22:45Z</time>
      </trkpt>
      <trkpt lat="47.03096" lon="-1.69613">
        <ele>52.081</ele>
        <time>2011-09-25T09:22:48Z</time>
      </trkpt>
      <trkpt lat="47.03103" lon="-1.69624">
        <ele>52.216</ele>
        <time>2011-09-25T09:22:50Z</time>
      </trkpt>
      <trkpt lat="47.0311" lon="-1.69635">
        <ele>52.574</ele>
        <time>2011-09-25T09:22:52Z</time>
      </trkpt>
      <trkpt lat="47.0312" lon="-1.69652">
        <ele>52.942</ele>
        <time>2011-09-25T09:22:55Z</time>
      </trkpt>
      <trkpt lat="47.03127" lon="-1.69664">
        <ele>53.117</ele>
        <time>2011-09-25T09:22:57Z</time>
      </trkpt>
      <trkpt lat="47.03137" lon="-1.69681">
        <ele>53.144</ele>
        <time>2011-09-25T09:23:00Z</time>
      </trkpt>
      <trkpt lat="47.03147" lon="-1.69697">
        <ele>53.252</ele>
        <time>2011-09-25T09:23:03Z</time>
      </trkpt>
      <trkpt lat="47.03156" lon="-1.69711">
        <ele>53.444</ele>
        <time>2011-09-25T09:23:06Z</time>
      </trkpt>
      <trkpt lat="47.03161" lon="-1.69722">
        <ele>53.439</ele>
        <time>2011-09-25T09:23:09Z</time>
      </trkpt>
      <trkpt lat="47.03169" lon="-1.69736">
        <ele>53.243</ele>
        <time>2011-09-25T09:23:12Z</time>
      </trkpt>
      <trkpt lat="47.03181" lon="-1.6975">
        <ele>53.097</ele>
        <time>2011-09-25T09:23:15Z</time>
      </trkpt>
      <trkpt lat="47.03194" lon="-1.69762">
        <ele>53.042</ele>
        <time>2011-09-25T09:23:18Z</time>
      </trkpt>
      <trkpt lat="47.03207" lon="-1.69774">
        <ele>53.043</ele>
        <time>2011-09-25T09:23:21Z</time>
      </trkpt>
      <trkpt lat="47.03216" lon="-1.69782">
        <ele>53.059</ele>
        <time>2011-09-25T09:23:23Z</time>
      </trkpt>
      <trkpt lat="47.03225" lon="-1.69791">
        <ele>53.071</ele>
        <time>2011-09-25T09:23:25Z</time>
      </trkpt>
      <trkpt lat="47.03236" lon="-1.69807">
        <ele>53.214</ele>
        <time>2011-09-25T09:23:28Z</time>
      </trkpt>
      <trkpt lat="47.03242" lon="-1.69819">
        <ele>53.573</ele>
        <time>2011-09-25T09:23:30Z</time>
      </trkpt>
      <trkpt lat="47.03251" lon="-1.69839">
        <ele>53.941</ele>
        <time>2011-09-25T09:23:33Z</time>
      </trkpt>
      <trkpt lat="47.03256" lon="-1.69853">
        <ele>54.115</ele>
        <time>2011-09-25T09:23:35Z</time>
      </trkpt>
      <trkpt lat="47.03266" lon="-1.69874">
        <ele>54.141</ele>
        <time>2011-09-25T09:23:38Z</time>
      </trkpt>
      <trkpt lat="47.03272" lon="-1.69888">
        <ele>54.111</ele>
        <time>2011-09-25T09:23:40Z</time>
      </trkpt>
      <trkpt lat="47.03283" lon="-1.6991">
        <ele>54.081</ele>
        <time>2011-09-25T09:23:43Z</time>
      </trkpt>
      <trkpt lat="47.0329" lon="-1.69924">
        <ele>54.067</ele>
        <time>2011-09-25T09:23:45Z</time>
      </trkpt>
      <trkpt lat="47.03298" lon="-1.69937">
        <ele>54.065</ele>
        <time>2011-09-25T09:23:47Z</time>
      </trkpt>
      <trkpt lat="47.03311" lon="-1.69955">
        <ele>54.068</ele>
        <time>2011-09-25T09:23:50Z</time>
      </trkpt>
      <trkpt lat="47.03319" lon="-1.69966">
        <ele>54.07</ele>
        <time>2011-09-25T09:23:52Z</time>
      </trkpt>
      <trkpt lat="47.03331" lon="-1.69984">
        <ele>54.071</ele>
        <time>2011-09-25T09:23:55Z</time>
      </trkpt>
      <trkpt lat="47.03342" lon="-1.70002">
        <ele>54.071</ele>
        <time>2011-09-25T09:23:58Z</time>
      </trkpt>
      <trkpt lat="47.03354" lon="-1.7002">
        <ele>54.071</ele>
        <time>2011-09-25T09:24:01Z</time>
      </trkpt>
      <trkpt lat="47.03367" lon="-1.70038">
        <ele>54.209</ele>
        <time>2011-09-25T09:24:04Z</time>
      </trkpt>
      <trkpt lat="47.0338" lon="-1.70055">
        <ele>54.568</ele>
        <time>2011-09-25T09:24:07Z</time>
      </trkpt>
      <trkpt lat="47.03389" lon="-1.70066">
        <ele>54.937</ele>
        <time>2011-09-25T09:24:09Z</time>
      </trkpt>
      <trkpt lat="47.03404" lon="-1.70083">
        <ele>55.113</ele>
        <time>2011-09-25T09:24:12Z</time>
      </trkpt>
      <trkpt lat="47.03419" lon="-1.70101">
        <ele>55.139</ele>
        <time>2011-09-25T09:24:15Z</time>
      </trkpt>
      <trkpt lat="47.03435" lon="-1.70119">
        <ele>55.109</ele>
        <time>2011-09-25T09:24:18Z</time>
      </trkpt>
      <trkpt lat="47.0345" lon="-1.70136">
        <ele>55.079</ele>
        <time>2011-09-25T09:24:21Z</time>
      </trkpt>
      <trkpt lat="47.03466" lon="-1.70154">
        <ele>55.065</ele>
        <time>2011-09-25T09:24:24Z</time>
      </trkpt>
      <trkpt lat="47.03481" lon="-1.70173">
        <ele>55.063</ele>
        <time>2011-09-25T09:24:27Z</time>
      </trkpt>
      <trkpt lat="47.03494" lon="-1.70192">
        <ele>55.065</ele>
        <time>2011-09-25T09:24:30Z</time>
      </trkpt>
      <trkpt lat="47.03507" lon="-1.70211">
        <ele>55.067</ele>
        <time>2011-09-25T09:24:33Z</time>
      </trkpt>
      <trkpt lat="47.03519" lon="-1.70233">
        <ele>55.068</ele>
        <time>2011-09-25T09:24:36Z</time>
      </trkpt>
      <trkpt lat="47.03531" lon="-1.70255">
        <ele>55.068</ele>
        <time>2011-09-25T09:24:39Z</time>
      </trkpt>
      <trkpt lat="47.03542" lon="-1.70278">
        <ele>55.068</ele>
        <time>2011-09-25T09:24:42Z</time>
      </trkpt>
      <trkpt lat="47.03554" lon="-1.70302">
        <ele>55.067</ele>
        <time>2011-09-25T09:24:45Z</time>
      </trkpt>
      <trkpt lat="47.03561" lon="-1.70317">
        <ele>55.067</ele>
        <time>2011-09-25T09:24:47Z</time>
      </trkpt>
      <trkpt lat="47.03569" lon="-1.70333">
        <ele>55.067</ele>
        <time>2011-09-25T09:24:49Z</time>
      </trkpt>
      <trkpt lat="47.03581" lon="-1.70357">
        <ele>54.929</ele>
        <time>2011-09-25T09:24:52Z</time>
      </trkpt>
      <trkpt lat="47.03595" lon="-1.70381">
        <ele>54.569</ele>
        <time>2011-09-25T09:24:55Z</time>
      </trkpt>
      <trkpt lat="47.0361" lon="-1.70402">
        <ele>54.199</ele>
        <time>2011-09-25T09:24:58Z</time>
      </trkpt>
      <trkpt lat="47.03626" lon="-1.70423">
        <ele>54.024</ele>
        <time>2011-09-25T09:25:01Z</time>
      </trkpt>
      <trkpt lat="47.03642" lon="-1.70445">
        <ele>53.997</ele>
        <time>2011-09-25T09:25:04Z</time>
      </trkpt>
      <trkpt lat="47.03659" lon="-1.70466">
        <ele>54.027</ele>
        <time>2011-09-25T09:25:07Z</time>
      </trkpt>
      <trkpt lat="47.03672" lon="-1.70479">
        <ele>54.057</ele>
        <time>2011-09-25T09:25:09Z</time>
      </trkpt>
      <trkpt lat="47.03695" lon="-1.70494">
        <ele>54.071</ele>
        <time>2011-09-25T09:25:12Z</time>
      </trkpt>
      <trkpt lat="47.03719" lon="-1.70499">
        <ele>54.073</ele>
        <time>2011-09-25T09:25:15Z</time>
      </trkpt>
      <trkpt lat="47.03734" lon="-1.70496">
        <ele>53.932</ele>
        <time>2011-09-25T09:25:17Z</time>
      </trkpt>
      <trkpt lat="47.03749" lon="-1.70489">
        <ele>53.57</ele>
        <time>2011-09-25T09:25:19Z</time>
      </trkpt>
      <trkpt lat="47.03764" lon="-1.70481">
        <ele>53.199</ele>
        <time>2011-09-25T09:25:21Z</time>
      </trkpt>
      <trkpt lat="47.03785" lon="-1.70468">
        <ele>53.024</ele>
        <time>2011-09-25T09:25:24Z</time>
      </trkpt>
      <trkpt lat="47.03808" lon="-1.70462">
        <ele>52.859</ele>
        <time>2011-09-25T09:25:27Z</time>
      </trkpt>
      <trkpt lat="47.0383" lon="-1.70461">
        <ele>52.53</ele>
        <time>2011-09-25T09:25:30Z</time>
      </trkpt>
      <trkpt lat="47.03845" lon="-1.70463">
        <ele>52.191</ele>
        <time>2011-09-25T09:25:33Z</time>
      </trkpt>
      <trkpt lat="47.03854" lon="-1.70465">
        <ele>51.891</ele>
        <time>2011-09-25T09:25:36Z</time>
      </trkpt>
      <trkpt lat="47.03859" lon="-1.70467">
        <ele>51.507</ele>
        <time>2011-09-25T09:25:39Z</time>
      </trkpt>
      <trkpt lat="47.03874" lon="-1.70469">
        <ele>51.165</ele>
        <time>2011-09-25T09:25:46Z</time>
      </trkpt>
      <trkpt lat="47.03888" lon="-1.70463">
        <ele>50.879</ele>
        <time>2011-09-25T09:25:49Z</time>
      </trkpt>
      <trkpt lat="47.03904" lon="-1.70456">
        <ele>50.368</ele>
        <time>2011-09-25T09:25:52Z</time>
      </trkpt>
      <trkpt lat="47.03922" lon="-1.70448">
        <ele>49.532</ele>
        <time>2011-09-25T09:25:55Z</time>
      </trkpt>
      <trkpt lat="47.03935" lon="-1.70442">
        <ele>48.655</ele>
        <time>2011-09-25T09:25:57Z</time>
      </trkpt>
      <trkpt lat="47.03955" lon="-1.70432">
        <ele>47.958</ele>
        <time>2011-09-25T09:26:00Z</time>
      </trkpt>
      <trkpt lat="47.03976" lon="-1.70416">
        <ele>47.427</ele>
        <time>2011-09-25T09:26:03Z</time>
      </trkpt>
      <trkpt lat="47.03996" lon="-1.70397">
        <ele>47.089</ele>
        <time>2011-09-25T09:26:06Z</time>
      </trkpt>
      <trkpt lat="47.04016" lon="-1.70377">
        <ele>46.986</ele>
        <time>2011-09-25T09:26:09Z</time>
      </trkpt>
      <trkpt lat="47.04035" lon="-1.70359">
        <ele>46.866</ele>
        <time>2011-09-25T09:26:12Z</time>
      </trkpt>
      <trkpt lat="47.04054" lon="-1.70341">
        <ele>46.412</ele>
        <time>2011-09-25T09:26:15Z</time>
      </trkpt>
      <trkpt lat="47.04072" lon="-1.70323">
        <ele>45.71</ele>
        <time>2011-09-25T09:26:18Z</time>
      </trkpt>
      <trkpt lat="47.04084" lon="-1.70311">
        <ele>45.174</ele>
        <time>2011-09-25T09:26:20Z</time>
      </trkpt>
      <trkpt lat="47.04103" lon="-1.70292">
        <ele>44.971</ele>
        <time>2011-09-25T09:26:23Z</time>
      </trkpt>
      <trkpt lat="47.04122" lon="-1.70274">
        <ele>44.971</ele>
        <time>2011-09-25T09:26:26Z</time>
      </trkpt>
      <trkpt lat="47.04134" lon="-1.70262">
        <ele>44.89</ele>
        <time>2011-09-25T09:26:28Z</time>
      </trkpt>
      <trkpt lat="47.04151" lon="-1.70247">
        <ele>44.574</ele>
        <time>2011-09-25T09:26:31Z</time>
      </trkpt>
      <trkpt lat="47.04165" lon="-1.70244">
        <ele>44.222</ele>
        <time>2011-09-25T09:26:34Z</time>
      </trkpt>
      <trkpt lat="47.04174" lon="-1.70253">
        <ele>44.046</ele>
        <time>2011-09-25T09:26:36Z</time>
      </trkpt>
      <trkpt lat="47.0419" lon="-1.70271">
        <ele>43.877</ele>
        <time>2011-09-25T09:26:39Z</time>
      </trkpt>
      <trkpt lat="47.04206" lon="-1.70284">
        <ele>43.544</ele>
        <time>2011-09-25T09:26:42Z</time>
      </trkpt>
      <trkpt lat="47.04221" lon="-1.703">
        <ele>43.203</ele>
        <time>2011-09-25T09:26:45Z</time>
      </trkpt>
      <trkpt lat="47.04232" lon="-1.70323">
        <ele>42.904</ele>
        <time>2011-09-25T09:26:48Z</time>
      </trkpt>
      <trkpt lat="47.04243" lon="-1.70349">
        <ele>42.382</ele>
        <time>2011-09-25T09:26:51Z</time>
      </trkpt>
      <trkpt lat="47.04254" lon="-1.70376">
        <ele>41.68</ele>
        <time>2011-09-25T09:26:54Z</time>
      </trkpt>
      <trkpt lat="47.04266" lon="-1.70408">
        <ele>41.163</ele>
        <time>2011-09-25T09:26:57Z</time>
      </trkpt>
      <trkpt lat="47.04279" lon="-1.70441">
        <ele>40.836</ele>
        <time>2011-09-25T09:27:00Z</time>
      </trkpt>
      <trkpt lat="47.0429" lon="-1.70475">
        <ele>40.343</ele>
        <time>2011-09-25T09:27:03Z</time>
      </trkpt>
      <trkpt lat="47.04301" lon="-1.7051">
        <ele>39.533</ele>
        <time>2011-09-25T09:27:06Z</time>
      </trkpt>
      <trkpt lat="47.04311" lon="-1.70548">
        <ele>38.532</ele>
        <time>2011-09-25T09:27:09Z</time>
      </trkpt>
      <trkpt lat="47.04317" lon="-1.70577">
        <ele>37.477</ele>
        <time>2011-09-25T09:27:11Z</time>
      </trkpt>
      <trkpt lat="47.04321" lon="-1.70607">
        <ele>36.437</ele>
        <time>2011-09-25T09:27:13Z</time>
      </trkpt>
      <trkpt lat="47.04326" lon="-1.7065">
        <ele>35.561</ele>
        <time>2011-09-25T09:27:16Z</time>
      </trkpt>
      <trkpt lat="47.0433" lon="-1.70687">
        <ele>34.922</ele>
        <time>2011-09-25T09:27:19Z</time>
      </trkpt>
      <trkpt lat="47.04334" lon="-1.70717">
        <ele>34.297</ele>
        <time>2011-09-25T09:27:22Z</time>
      </trkpt>
      <trkpt lat="47.04336" lon="-1.70746">
        <ele>33.477</ele>
        <time>2011-09-25T09:27:25Z</time>
      </trkpt>
      <trkpt lat="47.04339" lon="-1.70766">
        <ele>32.505</ele>
        <time>2011-09-25T09:27:27Z</time>
      </trkpt>
      <trkpt lat="47.04343" lon="-1.70797">
        <ele>31.614</ele>
        <time>2011-09-25T09:27:30Z</time>
      </trkpt>
      <trkpt lat="47.04347" lon="-1.7082">
        <ele>30.945</ele>
        <time>2011-09-25T09:27:32Z</time>
      </trkpt>
      <trkpt lat="47.0435" lon="-1.70843">
        <ele>30.301</ele>
        <time>2011-09-25T09:27:34Z</time>
      </trkpt>
      <trkpt lat="47.04353" lon="-1.70866">
        <ele>29.613</ele>
        <time>2011-09-25T09:27:36Z</time>
      </trkpt>
      <trkpt lat="47.04358" lon="-1.709">
        <ele>29.141</ele>
        <time>2011-09-25T09:27:39Z</time>
      </trkpt>
      <trkpt lat="47.04363" lon="-1.70932">
        <ele>28.982</ele>
        <time>2011-09-25T09:27:42Z</time>
      </trkpt>
      <trkpt lat="47.04368" lon="-1.70963">
        <ele>28.997</ele>
        <time>2011-09-25T09:27:45Z</time>
      </trkpt>
      <trkpt lat="47.04375" lon="-1.70994">
        <ele>28.915</ele>
        <time>2011-09-25T09:27:48Z</time>
      </trkpt>
      <trkpt lat="47.0438" lon="-1.71014">
        <ele>28.593</ele>
        <time>2011-09-25T09:27:50Z</time>
      </trkpt>
      <trkpt lat="47.04386" lon="-1.71041">
        <ele>28.236</ele>
        <time>2011-09-25T09:27:53Z</time>
      </trkpt>
      <trkpt lat="47.04389" lon="-1.71057">
        <ele>27.921</ele>
        <time>2011-09-25T09:27:55Z</time>
      </trkpt>
      <trkpt lat="47.04397" lon="-1.71079">
        <ele>27.53</ele>
        <time>2011-09-25T09:27:58Z</time>
      </trkpt>
      <trkpt lat="47.04407" lon="-1.71099">
        <ele>27.187</ele>
        <time>2011-09-25T09:28:01Z</time>
      </trkpt>
      <trkpt lat="47.04421" lon="-1.7112">
        <ele>27.041</ele>
        <time>2011-09-25T09:28:04Z</time>
      </trkpt>
      <trkpt lat="47.04434" lon="-1.71143">
        <ele>26.89</ele>
        <time>2011-09-25T09:28:07Z</time>
      </trkpt>
      <trkpt lat="47.04445" lon="-1.71168">
        <ele>26.562</ele>
        <time>2011-09-25T09:28:10Z</time>
      </trkpt>
      <trkpt lat="47.04448" lon="-1.71187">
        <ele>26.22</ele>
        <time>2011-09-25T09:28:12Z</time>
      </trkpt>
      <trkpt lat="47.0445" lon="-1.71217">
        <ele>26.057</ele>
        <time>2011-09-25T09:28:15Z</time>
      </trkpt>
      <trkpt lat="47.04448" lon="-1.71247">
        <ele>25.893</ele>
        <time>2011-09-25T09:28:18Z</time>
      </trkpt>
      <trkpt lat="47.04448" lon="-1.71266">
        <ele>25.56</ele>
        <time>2011-09-25T09:28:20Z</time>
      </trkpt>
      <trkpt lat="47.04449" lon="-1.71295">
        <ele>25.219</ele>
        <time>2011-09-25T09:28:23Z</time>
      </trkpt>
      <trkpt lat="47.04452" lon="-1.71314">
        <ele>25.056</ele>
        <time>2011-09-25T09:28:25Z</time>
      </trkpt>
      <trkpt lat="47.04458" lon="-1.71342">
        <ele>25.032</ele>
        <time>2011-09-25T09:28:28Z</time>
      </trkpt>
      <trkpt lat="47.04462" lon="-1.7136">
        <ele>25.059</ele>
        <time>2011-09-25T09:28:30Z</time>
      </trkpt>
      <trkpt lat="47.0447" lon="-1.71377">
        <ele>25.087</ele>
        <time>2011-09-25T09:28:32Z</time>
      </trkpt>
      <trkpt lat="47.04483" lon="-1.71402">
        <ele>25.099</ele>
        <time>2011-09-25T09:28:35Z</time>
      </trkpt>
      <trkpt lat="47.04497" lon="-1.71425">
        <ele>25.101</ele>
        <time>2011-09-25T09:28:38Z</time>
      </trkpt>
      <trkpt lat="47.04512" lon="-1.71448">
        <ele>25.099</ele>
        <time>2011-09-25T09:28:41Z</time>
      </trkpt>
      <trkpt lat="47.04527" lon="-1.7147">
        <ele>25.096</ele>
        <time>2011-09-25T09:28:44Z</time>
      </trkpt>
      <trkpt lat="47.04537" lon="-1.71485">
        <ele>25.095</ele>
        <time>2011-09-25T09:28:46Z</time>
      </trkpt>
      <trkpt lat="47.04551" lon="-1.71507">
        <ele>25.233</ele>
        <time>2011-09-25T09:28:49Z</time>
      </trkpt>
      <trkpt lat="47.04565" lon="-1.71528">
        <ele>25.593</ele>
        <time>2011-09-25T09:28:52Z</time>
      </trkpt>
      <trkpt lat="47.04579" lon="-1.71548">
        <ele>25.962</ele>
        <time>2011-09-25T09:28:55Z</time>
      </trkpt>
      <trkpt lat="47.04592" lon="-1.71565">
        <ele>26.137</ele>
        <time>2011-09-25T09:28:58Z</time>
      </trkpt>
      <trkpt lat="47.04601" lon="-1.71579">
        <ele>26.164</ele>
        <time>2011-09-25T09:29:01Z</time>
      </trkpt>
      <trkpt lat="47.04608" lon="-1.71591">
        <ele>26.272</ele>
        <time>2011-09-25T09:29:04Z</time>
      </trkpt>
      <trkpt lat="47.04618" lon="-1.71607">
        <ele>26.602</ele>
        <time>2011-09-25T09:29:07Z</time>
      </trkpt>
      <trkpt lat="47.04631" lon="-1.71631">
        <ele>26.957</ele>
        <time>2011-09-25T09:29:10Z</time>
      </trkpt>
      <trkpt lat="47.04644" lon="-1.71653">
        <ele>27.13</ele>
        <time>2011-09-25T09:29:13Z</time>
      </trkpt>
      <trkpt lat="47.04656" lon="-1.71674">
        <ele>27.297</ele>
        <time>2011-09-25T09:29:16Z</time>
      </trkpt>
      <trkpt lat="47.04663" lon="-1.71689">
        <ele>27.629</ele>
        <time>2011-09-25T09:29:18Z</time>
      </trkpt>
      <trkpt lat="47.04672" lon="-1.71714">
        <ele>27.969</ele>
        <time>2011-09-25T09:29:21Z</time>
      </trkpt>
      <trkpt lat="47.04681" lon="-1.71741">
        <ele>28.131</ele>
        <time>2011-09-25T09:29:24Z</time>
      </trkpt>
      <trkpt lat="47.04691" lon="-1.7177">
        <ele>28.155</ele>
        <time>2011-09-25T09:29:27Z</time>
      </trkpt>
      <trkpt lat="47.04702" lon="-1.718">
        <ele>28.127</ele>
        <time>2011-09-25T09:29:30Z</time>
      </trkpt>
      <trkpt lat="47.04713" lon="-1.71827">
        <ele>28.099</ele>
        <time>2011-09-25T09:29:33Z</time>
      </trkpt>
      <trkpt lat="47.04725" lon="-1.71851">
        <ele>28.225</ele>
        <time>2011-09-25T09:29:36Z</time>
      </trkpt>
      <trkpt lat="47.04739" lon="-1.71875">
        <ele>28.72</ele>
        <time>2011-09-25T09:29:39Z</time>
      </trkpt>
      <trkpt lat="47.04747" lon="-1.71891">
        <ele>29.452</ele>
        <time>2011-09-25T09:29:41Z</time>
      </trkpt>
      <trkpt lat="47.04756" lon="-1.71907">
        <ele>29.998</ele>
        <time>2011-09-25T09:29:43Z</time>
      </trkpt>
      <trkpt lat="47.04768" lon="-1.71932">
        <ele>30.201</ele>
        <time>2011-09-25T09:29:46Z</time>
      </trkpt>
      <trkpt lat="47.04783" lon="-1.71952">
        <ele>30.198</ele>
        <time>2011-09-25T09:29:49Z</time>
      </trkpt>
      <trkpt lat="47.04801" lon="-1.71947">
        <ele>30.137</ele>
        <time>2011-09-25T09:29:52Z</time>
      </trkpt>
      <trkpt lat="47.04816" lon="-1.71923">
        <ele>30.231</ele>
        <time>2011-09-25T09:29:55Z</time>
      </trkpt>
      <trkpt lat="47.04827" lon="-1.71902">
        <ele>30.575</ele>
        <time>2011-09-25T09:29:57Z</time>
      </trkpt>
      <trkpt lat="47.04843" lon="-1.71872">
        <ele>30.944</ele>
        <time>2011-09-25T09:30:00Z</time>
      </trkpt>
      <trkpt lat="47.0486" lon="-1.71844">
        <ele>31.263</ele>
        <time>2011-09-25T09:30:03Z</time>
      </trkpt>
      <trkpt lat="47.04874" lon="-1.71817">
        <ele>31.653</ele>
        <time>2011-09-25T09:30:06Z</time>
      </trkpt>
      <trkpt lat="47.04889" lon="-1.7179">
        <ele>31.994</ele>
        <time>2011-09-25T09:30:09Z</time>
      </trkpt>
      <trkpt lat="47.04904" lon="-1.71782">
        <ele>32.139</ele>
        <time>2011-09-25T09:30:11Z</time>
      </trkpt>
      <trkpt lat="47.04921" lon="-1.71777">
        <ele>32.29</ele>
        <time>2011-09-25T09:30:13Z</time>
      </trkpt>
      <trkpt lat="47.04944" lon="-1.71765">
        <ele>32.618</ele>
        <time>2011-09-25T09:30:16Z</time>
      </trkpt>
      <trkpt lat="47.04967" lon="-1.71768">
        <ele>32.959</ele>
        <time>2011-09-25T09:30:19Z</time>
      </trkpt>
      <trkpt lat="47.04988" lon="-1.71783">
        <ele>33.261</ele>
        <time>2011-09-25T09:30:22Z</time>
      </trkpt>
      <trkpt lat="47.05007" lon="-1.71798">
        <ele>33.647</ele>
        <time>2011-09-25T09:30:25Z</time>
      </trkpt>
      <trkpt lat="47.05017" lon="-1.71807">
        <ele>33.989</ele>
        <time>2011-09-25T09:30:27Z</time>
      </trkpt>
      <trkpt lat="47.05028" lon="-1.71818">
        <ele>34.137</ele>
        <time>2011-09-25T09:30:30Z</time>
      </trkpt>
      <trkpt lat="47.05031" lon="-1.71828">
        <ele>34.15</ele>
        <time>2011-09-25T09:30:32Z</time>
      </trkpt>
      <trkpt lat="47.05029" lon="-1.71847">
        <ele>34.118</ele>
        <time>2011-09-25T09:30:35Z</time>
      </trkpt>
      <trkpt lat="47.05026" lon="-1.71861">
        <ele>34.09</ele>
        <time>2011-09-25T09:30:37Z</time>
      </trkpt>
      <trkpt lat="47.05022" lon="-1.71874">
        <ele>34.079</ele>
        <time>2011-09-25T09:30:39Z</time>
      </trkpt>
      <trkpt lat="47.05012" lon="-1.71898">
        <ele>34.078</ele>
        <time>2011-09-25T09:30:42Z</time>
      </trkpt>
      <trkpt lat="47.05004" lon="-1.71915">
        <ele>34.08</ele>
        <time>2011-09-25T09:30:44Z</time>
      </trkpt>
      <trkpt lat="47.04998" lon="-1.71932">
        <ele>34.082</ele>
        <time>2011-09-25T09:30:46Z</time>
      </trkpt>
      <trkpt lat="47.04992" lon="-1.71949">
        <ele>34.083</ele>
        <time>2011-09-25T09:30:48Z</time>
      </trkpt>
      <trkpt lat="47.04988" lon="-1.71968">
        <ele>34.083</ele>
        <time>2011-09-25T09:30:50Z</time>
      </trkpt>
      <trkpt lat="47.04985" lon="-1.71989">
        <ele>34.082</ele>
        <time>2011-09-25T09:30:52Z</time>
      </trkpt>
      <trkpt lat="47.04984" lon="-1.72021">
        <ele>34.082</ele>
        <time>2011-09-25T09:30:55Z</time>
      </trkpt>
      <trkpt lat="47.04982" lon="-1.72049">
        <ele>34.082</ele>
        <time>2011-09-25T09:30:58Z</time>
      </trkpt>
      <trkpt lat="47.04979" lon="-1.72073">
        <ele>34.082</ele>
        <time>2011-09-25T09:31:01Z</time>
      </trkpt>
      <trkpt lat="47.04974" lon="-1.72097">
        <ele>34.081</ele>
        <time>2011-09-25T09:31:04Z</time>
      </trkpt>
      <trkpt lat="47.04971" lon="-1.72118">
        <ele>34.081</ele>
        <time>2011-09-25T09:31:07Z</time>
      </trkpt>
      <trkpt lat="47.0497" lon="-1.72135">
        <ele>34.081</ele>
        <time>2011-09-25T09:31:10Z</time>
      </trkpt>
      <trkpt lat="47.04975" lon="-1.72143">
        <ele>34.081</ele>
        <time>2011-09-25T09:31:12Z</time>
      </trkpt>
      <trkpt lat="47.0499" lon="-1.72156">
        <ele>34.08</ele>
        <time>2011-09-25T09:31:15Z</time>
      </trkpt>
      <trkpt lat="47.05001" lon="-1.72165">
        <ele>34.08</ele>
        <time>2011-09-25T09:31:17Z</time>
      </trkpt>
      <trkpt lat="47.05016" lon="-1.72179">
        <ele>34.08</ele>
        <time>2011-09-25T09:31:20Z</time>
      </trkpt>
      <trkpt lat="47.0503" lon="-1.7219">
        <ele>34.219</ele>
        <time>2011-09-25T09:31:23Z</time>
      </trkpt>
      <trkpt lat="47.05039" lon="-1.72196">
        <ele>34.578</ele>
        <time>2011-09-25T09:31:25Z</time>
      </trkpt>
      <trkpt lat="47.05048" lon="-1.72201">
        <ele>34.948</ele>
        <time>2011-09-25T09:31:27Z</time>
      </trkpt>
      <trkpt lat="47.0506" lon="-1.72207">
        <ele>35.123</ele>
        <time>2011-09-25T09:31:30Z</time>
      </trkpt>
      <trkpt lat="47.05073" lon="-1.72216">
        <ele>35.287</ele>
        <time>2011-09-25T09:31:33Z</time>
      </trkpt>
      <trkpt lat="47.05086" lon="-1.72226">
        <ele>35.617</ele>
        <time>2011-09-25T09:31:36Z</time>
      </trkpt>
      <trkpt lat="47.05095" lon="-1.72233">
        <ele>35.957</ele>
        <time>2011-09-25T09:31:38Z</time>
      </trkpt>
      <trkpt lat="47.05108" lon="-1.72244">
        <ele>36.118</ele>
        <time>2011-09-25T09:31:41Z</time>
      </trkpt>
      <trkpt lat="47.05116" lon="-1.72254">
        <ele>36.142</ele>
        <time>2011-09-25T09:31:43Z</time>
      </trkpt>
      <trkpt lat="47.05123" lon="-1.72273">
        <ele>36.115</ele>
        <time>2011-09-25T09:31:46Z</time>
      </trkpt>
      <trkpt lat="47.05123" lon="-1.72295">
        <ele>36.087</ele>
        <time>2011-09-25T09:31:49Z</time>
      </trkpt>
      <trkpt lat="47.05126" lon="-1.72314">
        <ele>36.074</ele>
        <time>2011-09-25T09:31:52Z</time>
      </trkpt>
      <trkpt lat="47.05132" lon="-1.72322">
        <ele>36.072</ele>
        <time>2011-09-25T09:31:55Z</time>
      </trkpt>
      <trkpt lat="47.05144" lon="-1.72335">
        <ele>35.798</ele>
        <time>2011-09-25T09:31:59Z</time>
      </trkpt>
      <trkpt lat="47.05153" lon="-1.72344">
        <ele>34.942</ele>
        <time>2011-09-25T09:32:01Z</time>
      </trkpt>
      <trkpt lat="47.05167" lon="-1.72357">
        <ele>33.844</ele>
        <time>2011-09-25T09:32:04Z</time>
      </trkpt>
      <trkpt lat="47.05181" lon="-1.72371">
        <ele>32.848</ele>
        <time>2011-09-25T09:32:07Z</time>
      </trkpt>
      <trkpt lat="47.05195" lon="-1.7238">
        <ele>31.899</ele>
        <time>2011-09-25T09:32:10Z</time>
      </trkpt>
      <trkpt lat="47.05211" lon="-1.72385">
        <ele>31.194</ele>
        <time>2011-09-25T09:32:13Z</time>
      </trkpt>
      <trkpt lat="47.05227" lon="-1.72391">
        <ele>30.933</ele>
        <time>2011-09-25T09:32:16Z</time>
      </trkpt>
      <trkpt lat="47.05242" lon="-1.72401">
        <ele>30.939</ele>
        <time>2011-09-25T09:32:19Z</time>
      </trkpt>
      <trkpt lat="47.05251" lon="-1.72406">
        <ele>31.017</ele>
        <time>2011-09-25T09:32:21Z</time>
      </trkpt>
      <trkpt lat="47.05261" lon="-1.72402">
        <ele>31.074</ele>
        <time>2011-09-25T09:32:24Z</time>
      </trkpt>
      <trkpt lat="47.05268" lon="-1.72403">
        <ele>31.095</ele>
        <time>2011-09-25T09:32:27Z</time>
      </trkpt>
      <trkpt lat="47.05293" lon="-1.72425">
        <ele>31.094</ele>
        <time>2011-09-25T09:32:38Z</time>
      </trkpt>
      <trkpt lat="47.05299" lon="-1.72431">
        <ele>31.226</ele>
        <time>2011-09-25T09:32:40Z</time>
      </trkpt>
      <trkpt lat="47.05309" lon="-1.72445">
        <ele>31.581</ele>
        <time>2011-09-25T09:32:43Z</time>
      </trkpt>
      <trkpt lat="47.05321" lon="-1.72456">
        <ele>32.087</ele>
        <time>2011-09-25T09:32:46Z</time>
      </trkpt>
      <trkpt lat="47.05333" lon="-1.72468">
        <ele>32.76</ele>
        <time>2011-09-25T09:32:49Z</time>
      </trkpt>
      <trkpt lat="47.05341" lon="-1.72474">
        <ele>33.516</ele>
        <time>2011-09-25T09:32:51Z</time>
      </trkpt>
      <trkpt lat="47.05351" lon="-1.72482">
        <ele>34.031</ele>
        <time>2011-09-25T09:32:54Z</time>
      </trkpt>
      <trkpt lat="47.05355" lon="-1.72487">
        <ele>34.203</ele>
        <time>2011-09-25T09:32:56Z</time>
      </trkpt>
      <trkpt lat="47.05356" lon="-1.72497">
        <ele>34.186</ele>
        <time>2011-09-25T09:32:59Z</time>
      </trkpt>
      <trkpt lat="47.05357" lon="-1.72504">
        <ele>33.985</ele>
        <time>2011-09-25T09:33:01Z</time>
      </trkpt>
      <trkpt lat="47.05361" lon="-1.72518">
        <ele>33.584</ele>
        <time>2011-09-25T09:33:04Z</time>
      </trkpt>
      <trkpt lat="47.05368" lon="-1.72536">
        <ele>33.062</ele>
        <time>2011-09-25T09:33:07Z</time>
      </trkpt>
      <trkpt lat="47.05373" lon="-1.72553">
        <ele>32.529</ele>
        <time>2011-09-25T09:33:10Z</time>
      </trkpt>
      <trkpt lat="47.05376" lon="-1.72565">
        <ele>32</ele>
        <time>2011-09-25T09:33:12Z</time>
      </trkpt>
      <trkpt lat="47.05381" lon="-1.72583">
        <ele>31.498</ele>
        <time>2011-09-25T09:33:15Z</time>
      </trkpt>
      <trkpt lat="47.05385" lon="-1.726">
        <ele>31.133</ele>
        <time>2011-09-25T09:33:18Z</time>
      </trkpt>
      <trkpt lat="47.0539" lon="-1.72616">
        <ele>31.001</ele>
        <time>2011-09-25T09:33:21Z</time>
      </trkpt>
      <trkpt lat="47.05393" lon="-1.72627">
        <ele>30.868</ele>
        <time>2011-09-25T09:33:23Z</time>
      </trkpt>
      <trkpt lat="47.05396" lon="-1.72637">
        <ele>30.55</ele>
        <time>2011-09-25T09:33:25Z</time>
      </trkpt>
      <trkpt lat="47.05405" lon="-1.72644">
        <ele>30.21</ele>
        <time>2011-09-25T09:33:28Z</time>
      </trkpt>
      <trkpt lat="47.05412" lon="-1.72643">
        <ele>30.045</ele>
        <time>2011-09-25T09:33:30Z</time>
      </trkpt>
      <trkpt lat="47.0542" lon="-1.72642">
        <ele>30.018</ele>
        <time>2011-09-25T09:33:32Z</time>
      </trkpt>
      <trkpt lat="47.05431" lon="-1.72642">
        <ele>30.182</ele>
        <time>2011-09-25T09:33:35Z</time>
      </trkpt>
      <trkpt lat="47.05439" lon="-1.72642">
        <ele>30.57</ele>
        <time>2011-09-25T09:33:37Z</time>
      </trkpt>
      <trkpt lat="47.05453" lon="-1.72642">
        <ele>30.953</ele>
        <time>2011-09-25T09:33:40Z</time>
      </trkpt>
      <trkpt lat="47.05462" lon="-1.72643">
        <ele>31.13</ele>
        <time>2011-09-25T09:33:42Z</time>
      </trkpt>
      <trkpt lat="47.05477" lon="-1.72645">
        <ele>31.154</ele>
        <time>2011-09-25T09:33:45Z</time>
      </trkpt>
      <trkpt lat="47.05492" lon="-1.72647">
        <ele>31.26</ele>
        <time>2011-09-25T09:33:48Z</time>
      </trkpt>
      <trkpt lat="47.05503" lon="-1.72648">
        <ele>31.589</ele>
        <time>2011-09-25T09:33:50Z</time>
      </trkpt>
      <trkpt lat="47.0552" lon="-1.7265">
        <ele>31.944</ele>
        <time>2011-09-25T09:33:53Z</time>
      </trkpt>
      <trkpt lat="47.05537" lon="-1.72652">
        <ele>32.256</ele>
        <time>2011-09-25T09:33:56Z</time>
      </trkpt>
      <trkpt lat="47.05549" lon="-1.72651">
        <ele>32.645</ele>
        <time>2011-09-25T09:33:58Z</time>
      </trkpt>
      <trkpt lat="47.05569" lon="-1.72642">
        <ele>33.125</ele>
        <time>2011-09-25T09:34:01Z</time>
      </trkpt>
      <trkpt lat="47.05591" lon="-1.7263">
        <ele>33.631</ele>
        <time>2011-09-25T09:34:04Z</time>
      </trkpt>
      <trkpt lat="47.05609" lon="-1.72613">
        <ele>34.152</ele>
        <time>2011-09-25T09:34:07Z</time>
      </trkpt>
      <trkpt lat="47.05624" lon="-1.72597">
        <ele>34.655</ele>
        <time>2011-09-25T09:34:10Z</time>
      </trkpt>
      <trkpt lat="47.05636" lon="-1.72582">
        <ele>35.023</ele>
        <time>2011-09-25T09:34:13Z</time>
      </trkpt>
      <trkpt lat="47.0565" lon="-1.72568">
        <ele>35.156</ele>
        <time>2011-09-25T09:34:16Z</time>
      </trkpt>
      <trkpt lat="47.05664" lon="-1.72554">
        <ele>35.152</ele>
        <time>2011-09-25T09:34:19Z</time>
      </trkpt>
      <trkpt lat="47.05677" lon="-1.72537">
        <ele>35.111</ele>
        <time>2011-09-25T09:34:22Z</time>
      </trkpt>
      <trkpt lat="47.05689" lon="-1.72517">
        <ele>35.081</ele>
        <time>2011-09-25T09:34:25Z</time>
      </trkpt>
      <trkpt lat="47.05694" lon="-1.72501">
        <ele>35.209</ele>
        <time>2011-09-25T09:34:27Z</time>
      </trkpt>
      <trkpt lat="47.05693" lon="-1.72479">
        <ele>35.569</ele>
        <time>2011-09-25T09:34:30Z</time>
      </trkpt>
      <trkpt lat="47.05689" lon="-1.7246">
        <ele>35.942</ele>
        <time>2011-09-25T09:34:33Z</time>
      </trkpt>
      <trkpt lat="47.05677" lon="-1.7245">
        <ele>36.12</ele>
        <time>2011-09-25T09:34:36Z</time>
      </trkpt>
      <trkpt lat="47.05664" lon="-1.72459">
        <ele>36.009</ele>
        <time>2011-09-25T09:34:39Z</time>
      </trkpt>
      <trkpt lat="47.05655" lon="-1.72465">
        <ele>35.481</ele>
        <time>2011-09-25T09:34:42Z</time>
      </trkpt>
      <trkpt lat="47.05647" lon="-1.72466">
        <ele>34.584</ele>
        <time>2011-09-25T09:34:45Z</time>
      </trkpt>
      <trkpt lat="47.05642" lon="-1.72467">
        <ele>33.527</ele>
        <time>2011-09-25T09:34:48Z</time>
      </trkpt>
      <trkpt lat="47.05642" lon="-1.72467">
        <ele>32.594</ele>
        <time>2011-09-25T09:34:49Z</time>
      </trkpt>
    </trkseg>
  </trk>
</gpx>